# Wetter Temperatur Luftdruck Luftfeuchtigkeit Sichtweite Windgeschwindigkeit Windrichtung Zeit
1 Rain 13 1012 87 10000 8.2 350 19:42 17.10.2019
2 Rain 13 1012 87 9000 9.3 350 19:20 17.10.2019
3 Rain 13 1012 87 10000 8.7 340 18:59 17.10.2019
4 Rain 13 1012 87 10000 8.7 340 18:39 17.10.2019
5 Rain 13 1012 82 10000 7.2 340 18:20 17.10.2019
6 Clouds 13 1012 82 10000 7.2 340 17:44 17.10.2019
7 Drizzle 13 1012 82 10000 6.7 340 17:25 17.10.2019
8 Clouds 13 1012 71 10000 6.2 340 16:59 17.10.2019
9 Clouds 13 1012 71 10000 6.2 340 16:41 17.10.2019
10 Clouds 13 1012 82 10000 6.2 340 16:19 17.10.2019
11 Clouds 13 1012 72 10000 5.1 340 15:57 17.10.2019
12 Clouds 13 1012 72 10000 5.1 340 15:57 17.10.2019
13 Clouds 14 1012 72 10000 5.1 340 15:38 17.10.2019
14 Clouds 14 1007 82 0 0.45 145 15:20 17.10.2019
15 Clouds 14 1012 77 10000 6.2 350 14:57 17.10.2019
16 Clouds 14 1012 77 10000 6.2 350 14:38 17.10.2019
17 Clouds 14 1012 77 10000 4.6 350 14:20 17.10.2019
18 Clouds 14 1012 72 10000 4.1 350 13:41 17.10.2019
19 Clouds 14 1012 76 10000 4.6 10 13:21 17.10.2019
20 Clouds 14 1012 72 10000 5.1 10 12:58 17.10.2019
21 Clouds 14 1012 72 10000 5.1 10 12:39 17.10.2019
22 Clouds 14 1012 72 10000 5.7 40 12:19 17.10.2019
23 Clouds 14 1012 77 10000 4.6 30 11:56 17.10.2019
24 Clouds 14 1012 77 10000 4.6 30 11:37 17.10.2019
25 Rain 14 1011 72 10000 4.6 30 11:18 17.10.2019
26 Clouds 15 1011 67 10000 4.6 360 10:42 17.10.2019
27 Clouds 14 1011 72 10000 5.1 30 10:20 17.10.2019
28 Clouds 14 1010 72 10000 5.7 40 09:57 17.10.2019
29 Clouds 14 1010 72 10000 5.7 40 09:57 17.10.2019
30 Clouds 14 1010 72 10000 5.7 40 09:38 17.10.2019
31 Clouds 14 1010 77 10000 5.1 30 09:20 17.10.2019
32 Clouds 15 1010 77 10000 5.7 20 08:57 17.10.2019
33 Clouds 15 1010 77 10000 5.7 20 08:38 17.10.2019
34 Clouds 15 1010 77 10000 7.2 20 08:18 17.10.2019
35 Clouds 15 1009 67 10000 7.2 30 07:43 17.10.2019
36 Clouds 16 1009 63 10000 6.2 20 07:21 17.10.2019
37 Clouds 16 1009 63 10000 6.2 20 07:21 17.10.2019
38 Clouds 16 1009 63 10000 6.2 10 06:56 17.10.2019
39 Clouds 17 1009 63 10000 6.2 10 06:38 17.10.2019
40 Clouds 17 1009 63 10000 6.2 20 06:19 17.10.2019
41 Clouds 18 1008 68 10000 6.2 10 05:41 17.10.2019
42 Clouds 17 1008 63 10000 6.7 10 05:20 17.10.2019
43 Clouds 18 1008 68 10000 5.7 40 04:48 17.10.2019
44 Clouds 18 1009 63 10000 6.2 10 03:49 17.10.2019
45 Clouds 18 1009 63 10000 6.2 10 03:49 17.10.2019
46 Clouds 18 1009 68 10000 5.7 10 02:35 17.10.2019
47 Clouds 18 1008 67 10000 6.7 360 00:43 17.10.2019
48 Clear 17 1008 67 10000 6.7 10 00:21 17.10.2019
49 Clear 16 1008 72 10000 7.2 10 23:59 16.10.2019
50 Clear 16 1008 72 10000 7.2 10 23:41 16.10.2019
51 Clear 16 1008 72 10000 5.7 20 23:19 16.10.2019
52 Clear 16 1008 72 10000 5.7 20 23:19 16.10.2019
53 Clear 15 1008 72 10000 6.2 10 22:55 16.10.2019
54 Clear 15 1008 72 10000 6.2 10 22:36 16.10.2019
55 Clear 15 1008 72 10000 6.2 10 22:36 16.10.2019
56 Clear 15 1008 76 10000 5.7 30 22:18 16.10.2019
57 Clear 14 1007 76 10000 5.7 30 21:55 16.10.2019
58 -273 0 0 0 0 0 21:54 16.10.2019
59 Clear 13 1007 76 10000 5.7 30 21:36 16.10.2019
60 Clouds 12 1007 81 10000 5.7 20 21:18 16.10.2019
61 Clouds 11 1007 81 10000 5.1 20 20:55 16.10.2019
62 Clouds 11 1007 81 10000 5.1 20 20:55 16.10.2019
63 Clouds 10 1007 81 10000 5.1 20 20:37 16.10.2019
64 Clouds 10 1007 81 10000 5.1 20 20:37 16.10.2019
65 Clouds 9 1006 87 10000 5.1 20 20:19 16.10.2019
66 Clouds 9 1006 87 10000 5.1 20 19:40 16.10.2019
67 Clouds 9 1006 87 10000 5.1 20 19:40 16.10.2019
68 Clouds 10 1006 87 10000 5.1 30 19:21 16.10.2019
69 Clouds 10 1006 87 10000 5.1 30 19:21 16.10.2019
70 Clouds 10 1006 87 10000 5.1 30 19:21 16.10.2019
71 Clouds 9 1006 93 10000 5.7 30 18:58 16.10.2019
72 Clouds 9 1006 93 10000 5.7 30 18:37 16.10.2019
73 Clouds 9 1006 87 10000 5.1 30 18:18 16.10.2019
74 Clouds 9 1005 93 10000 5.1 10 17:55 16.10.2019
75 -273 0 0 0 0 0 17:37 16.10.2019
76 Clouds 9 1005 87 10000 4.6 20 17:19 16.10.2019
77 Clouds 9 1005 93 10000 4.1 20 16:56 16.10.2019
78 Clouds 9 1005 93 10000 4.1 20 16:37 16.10.2019
79 Clouds 9 1005 100 10000 4.1 360 16:18 16.10.2019
80 Clouds 8 1005 93 10000 3.6 10 15:40 16.10.2019
81 -273 0 0 0 0 0 15:40 16.10.2019
82 Clouds 8 1005 93 10000 2.1 30 15:19 16.10.2019
83 Rain 9 1005 93 10000 2.1 30 14:59 16.10.2019
84 Rain 9 1005 93 10000 2.1 30 14:40 16.10.2019
85 Rain 9 1005 87 10000 1.5 30 14:21 16.10.2019
86 Clouds 10 1005 87 9000 1 350 13:58 16.10.2019
87 Clouds 10 1005 87 9000 1 350 13:40 16.10.2019
88 Clouds 10 1005 87 10000 1 250 13:21 16.10.2019
89 Clouds 10 1005 87 10000 1 200 12:44 16.10.2019
90 Drizzle 10 1005 87 10000 2.6 190 12:20 16.10.2019
91 Clouds 11 1005 87 10000 3.6 200 11:55 16.10.2019
92 Clouds 11 1005 87 10000 3.6 200 11:37 16.10.2019
93 Clouds 11 1005 87 10000 4.6 190 11:18 16.10.2019
94 Clouds 11 1005 87 10000 4.6 190 11:18 16.10.2019
95 Clouds 11 1005 81 10000 5.1 190 10:37 16.10.2019
96 Clouds 11 1004 81 10000 5.1 190 10:18 16.10.2019
97 Clouds 11 1004 81 10000 4.6 190 09:41 16.10.2019
98 Clouds 11 1004 81 10000 5.1 180 09:22 16.10.2019
99 Clouds 11 1004 81 10000 7.2 190 08:58 16.10.2019
100 Clouds 11 1004 81 10000 7.2 190 08:40 16.10.2019
101 Clouds 12 1004 87 10000 6.7 180 08:20 16.10.2019
102 Clouds 12 1004 87 10000 6.7 180 08:20 16.10.2019
103 Clouds 12 1003 87 10000 6.7 180 07:43 16.10.2019
104 Clouds 12 1003 82 10000 7.7 180 07:24 16.10.2019
105 Clouds 12 1003 76 10000 8.2 180 06:55 16.10.2019
106 Rain 13 1003 87 10000 7.7 180 06:31 16.10.2019
107 Rain 13 1003 87 10000 8.2 180 05:22 16.10.2019
108 Rain 13 1003 93 10000 9.8 190 02:53 16.10.2019
109 Rain 13 1003 93 6000 10.8 190 01:38 16.10.2019
110 Rain 13 1003 100 8000 11.3 190 01:18 16.10.2019
111 Rain 12 1003 93 3700 12.3 190 00:42 16.10.2019
112 Drizzle 12 1003 93 3500 11.8 190 23:59 15.10.2019
113 Drizzle 11 1003 93 3500 11.8 190 23:39 15.10.2019
114 Rain 12 1003 93 3900 11.3 190 23:21 15.10.2019
115 Rain 12 1003 100 4200 11.8 190 22:55 15.10.2019
116 Rain 12 1003 100 4200 11.8 190 22:55 15.10.2019
117 Rain 12 1003 100 4200 11.8 190 22:55 15.10.2019
118 Rain 12 1003 100 4200 11.8 190 22:37 15.10.2019
119 Rain 11 1003 93 5000 10.3 180 22:19 15.10.2019
120 Rain 11 1003 93 7000 10.3 180 21:55 15.10.2019
121 Rain 11 1003 93 7000 10.3 180 21:55 15.10.2019
122 Rain 11 1003 93 7000 10.3 180 21:36 15.10.2019
123 Rain 11 1003 93 9000 10.3 180 21:18 15.10.2019
124 Rain 11 1002 93 10000 10.8 170 20:55 15.10.2019
125 Rain 11 1002 93 10000 10.8 170 20:55 15.10.2019
126 Rain 11 1002 93 10000 10.8 170 20:37 15.10.2019
127 Rain 11 1002 93 10000 11.8 170 20:19 15.10.2019
128 Drizzle 11 1002 93 10000 11.3 170 19:55 15.10.2019
129 Drizzle 11 1002 93 10000 11.3 170 19:55 15.10.2019
130 Drizzle 11 1002 93 10000 11.3 170 19:37 15.10.2019
131 Drizzle 11 1002 93 10000 11.3 170 19:37 15.10.2019
132 Rain 11 1002 93 10000 11.3 170 19:18 15.10.2019
133 Rain 11 1002 93 9000 11.3 170 18:44 15.10.2019
134 Drizzle 11 1002 93 8000 10.8 170 18:25 15.10.2019
135 Drizzle 11 1002 93 10000 10.3 170 17:55 15.10.2019
136 Drizzle 11 1002 93 10000 10.3 170 17:55 15.10.2019
137 Drizzle 11 1002 93 10000 10.3 170 17:37 15.10.2019
138 Drizzle 11 1003 93 10000 9.3 160 17:19 15.10.2019
139 Drizzle 11 1003 93 10000 9.3 160 17:19 15.10.2019
140 Rain 11 1003 93 10000 9.8 170 16:45 15.10.2019
141 Rain 11 1003 93 10000 10.3 160 16:22 15.10.2019
142 Rain 11 1003 93 10000 11.3 160 15:58 15.10.2019
143 Rain 11 1003 93 10000 11.3 160 15:39 15.10.2019
144 Rain 11 1003 93 10000 11.3 160 15:20 15.10.2019
145 Rain 11 1003 93 10000 10.3 170 14:56 15.10.2019
146 Rain 11 1003 93 10000 10.3 170 14:37 15.10.2019
147 Rain 11 1003 93 10000 10.3 170 14:37 15.10.2019
148 Rain 11 1004 93 10000 11.3 170 14:19 15.10.2019
149 Rain 11 1004 93 10000 11.8 160 13:43 15.10.2019
150 Rain 12 1005 87 10000 10.8 170 13:21 15.10.2019
151 Rain 12 1004 87 10000 10.8 160 12:57 15.10.2019
152 Rain 11 1004 87 10000 10.8 160 12:38 15.10.2019
153 Rain 11 1005 87 10000 11.3 150 12:20 15.10.2019
154 Rain 12 1005 81 10000 7.7 150 11:44 15.10.2019
155 Rain 12 1005 76 10000 6.7 150 11:20 15.10.2019
156 Rain 12 1006 76 10000 7.2 150 10:57 15.10.2019
157 Rain 12 1006 76 10000 7.2 150 10:39 15.10.2019
158 Rain 12 1006 93 10000 7.7 160 10:19 15.10.2019
159 Rain 12 1005 87 10000 7.7 160 09:56 15.10.2019
160 Rain 12 1005 87 10000 7.7 160 09:37 15.10.2019
161 Rain 11 1005 93 10000 9.8 150 09:19 15.10.2019
162 Rain 11 1005 87 10000 8.2 140 08:41 15.10.2019
163 Rain 12 1005 87 10000 8.2 140 08:21 15.10.2019
164 Rain 12 1005 87 10000 7.7 150 07:55 15.10.2019
165 Rain 12 1005 87 10000 7.7 150 07:37 15.10.2019
166 Rain 12 1006 87 10000 8.7 150 07:18 15.10.2019
167 Rain 12 1005 87 10000 8.7 150 06:43 15.10.2019
168 Rain 12 1006 82 10000 7.7 150 06:22 15.10.2019
169 Rain 12 1006 87 8000 8.7 140 05:37 15.10.2019
170 Rain 12 1007 87 9000 9.8 150 05:19 15.10.2019
171 Drizzle 14 1007 82 8000 9.8 150 04:23 15.10.2019
172 Rain 14 1007 71 10000 7.7 160 03:36 15.10.2019
173 Rain 14 1007 71 10000 7.7 160 03:36 15.10.2019
174 Rain 13 1008 87 8000 8.7 150 02:22 15.10.2019
175 Rain 13 1009 82 10000 8.2 160 01:47 15.10.2019
176 Rain 13 1009 87 9000 9.3 150 01:18 15.10.2019
177 Rain 13 1009 76 10000 6.2 160 00:46 15.10.2019
178 Rain 14 1009 71 10000 5.1 150 00:20 15.10.2019
179 Clouds 13 1009 66 10000 5.7 150 23:39 14.10.2019
180 Clouds 13 1009 58 10000 2.6 160 23:19 14.10.2019
181 Clouds 13 1010 62 10000 2.1 150 22:40 14.10.2019
182 Clouds 12 1010 62 10000 2.1 120 22:21 14.10.2019
183 Clouds 12 1010 58 10000 2.6 150 21:59 14.10.2019
184 Clouds 12 1010 58 10000 2.6 150 21:40 14.10.2019
185 Clouds 12 1010 58 10000 2.1 110 21:21 14.10.2019
186 Clouds 12 1010 58 10000 2.1 110 21:21 14.10.2019
187 Clouds 12 1010 58 10000 6.2 90 20:58 14.10.2019
188 Clouds 12 1010 58 10000 6.2 90 20:39 14.10.2019
189 Clouds 12 1010 58 10000 4.1 90 20:20 14.10.2019
190 Clouds 12 1010 62 10000 5.1 80 19:58 14.10.2019
191 Clouds 11 1010 62 10000 5.1 80 19:40 14.10.2019
192 Clouds 12 1010 58 10000 5.7 80 19:21 14.10.2019
193 Clouds 12 1010 58 10000 5.1 90 18:57 14.10.2019
194 Clouds 12 1010 58 10000 5.1 90 18:38 14.10.2019
195 Rain 12 1010 62 10000 4.1 80 18:18 14.10.2019
196 Rain 12 1010 66 10000 5.1 90 17:44 14.10.2019
197 Rain 12 1010 71 10000 3.1 110 17:25 14.10.2019
198 Rain 12 1011 76 10000 4.1 100 16:58 14.10.2019
199 Rain 11 1011 76 10000 4.1 100 16:40 14.10.2019
200 Rain 11 1011 76 10000 4.1 100 16:40 14.10.2019
201 Rain 11 1011 71 10000 3.1 110 16:20 14.10.2019
202 Rain 11 1009 80 0 0.89 66 15:41 14.10.2019
203 Clouds 11 1005 77 0 0.45 18 15:22 14.10.2019
204 Clouds 11 1012 66 10000 2.1 120 14:46 14.10.2019
205 Clouds 11 1012 66 10000 2.1 170 14:26 14.10.2019
206 -273 0 0 0 0 0 14:26 14.10.2019
207 Clouds 12 1013 66 10000 2.6 130 13:59 14.10.2019
208 Clouds 12 1013 66 10000 2.6 130 13:59 14.10.2019
209 Clouds 12 1013 66 10000 2.6 130 13:41 14.10.2019
210 Clouds 12 1013 66 10000 3.6 130 13:21 14.10.2019
211 -273 0 0 0 0 0 12:43 14.10.2019
212 Clouds 12 1014 66 10000 2.6 140 12:21 14.10.2019
213 Clouds 12 1014 66 10000 3.1 100 12:00 14.10.2019
214 Clouds 12 1014 66 10000 3.1 100 11:41 14.10.2019
215 Clouds 12 1014 66 10000 2.1 130 11:22 14.10.2019
216 Clouds 12 1014 66 10000 2.6 130 10:55 14.10.2019
217 Clouds 12 1014 66 10000 2.6 130 10:37 14.10.2019
218 Clouds 12 1014 62 10000 2.1 100 10:18 14.10.2019
219 Clouds 12 1014 62 10000 2.1 110 09:41 14.10.2019
220 -273 0 0 0 0 0 09:21 14.10.2019
221 Clouds 12 1014 58 10000 4.1 80 08:50 14.10.2019
222 Clouds 13 1014 58 10000 4.1 110 08:23 14.10.2019
223 Clouds 13 1014 62 10000 4.6 100 07:47 14.10.2019
224 Clouds 13 1014 58 10000 4.6 90 07:25 14.10.2019
225 Clouds 14 1014 58 10000 4.1 100 06:58 14.10.2019
226 Clouds 15 1014 51 10000 3.6 90 06:28 14.10.2019
227 Clouds 16 1014 62 10000 4.1 170 05:57 14.10.2019
228 Clouds 16 1014 71 10000 7.7 160 05:26 14.10.2019
229 Clouds 16 1015 67 10000 5.7 150 03:50 14.10.2019
230 Clouds 16 1015 51 10000 3.1 130 03:25 14.10.2019
231 Clouds 17 1016 62 10000 3.1 190 02:31 14.10.2019
232 Clouds 16 1017 71 10000 6.7 160 01:21 14.10.2019
233 Clouds 15 1017 71 10000 5.1 160 00:42 14.10.2019
234 Clouds 14 1018 76 10000 5.1 170 00:18 14.10.2019
235 Clouds 13 1018 71 10000 4.6 160 23:41 13.10.2019
236 Clouds 12 1018 76 10000 5.1 160 23:20 13.10.2019
237 Clouds 13 1018 71 10000 5.7 160 22:57 13.10.2019
238 Clouds 13 1018 71 10000 5.7 160 22:39 13.10.2019
239 Clouds 13 1018 71 10000 5.7 160 22:39 13.10.2019
240 Clouds 12 1018 71 10000 4.1 160 22:20 13.10.2019
241 Clouds 12 1019 76 10000 3.1 150 21:57 13.10.2019
242 Clouds 11 1019 76 10000 3.1 150 21:36 13.10.2019
243 Clouds 10 1019 71 10000 3.1 150 21:18 13.10.2019
244 Clouds 9 1019 76 10000 3.1 150 20:57 13.10.2019
245 Clouds 9 1019 76 10000 3.1 150 20:56 13.10.2019
246 Clouds 9 1019 76 10000 3.1 150 20:37 13.10.2019
247 Clouds 8 1019 81 10000 2.1 120 20:19 13.10.2019
248 Clouds 8 1019 87 10000 1.5 80 19:55 13.10.2019
249 Clouds 8 1019 87 10000 1.5 80 19:55 13.10.2019
250 Clouds 8 1019 87 10000 1.5 80 19:37 13.10.2019
251 Clouds 8 1019 81 10000 1 360 19:19 13.10.2019
252 Clouds 8 1019 76 10000 2.6 130 18:54 13.10.2019
253 Clouds 8 1019 76 10000 2.6 130 18:36 13.10.2019
254 Clouds 8 1019 76 10000 2.6 170 18:18 13.10.2019
255 -273 0 0 0 0 0 17:42 13.10.2019
256 Clouds 8 1019 87 10000 1 90 17:24 13.10.2019
257 Clouds 8 1020 87 10000 1.5 50 16:44 13.10.2019
258 Clouds 8 1020 87 10000 1.5 50 16:44 13.10.2019
259 Clouds 8 1020 81 10000 2.1 150 16:20 13.10.2019
260 Clouds 8 1020 81 10000 2.1 150 16:20 13.10.2019
261 Clouds 9 1020 81 10000 3.1 150 15:59 13.10.2019
262 Clouds 7 1020 81 10000 3.1 150 15:39 13.10.2019
263 Clouds 9 1020 81 10000 4.1 140 15:21 13.10.2019
264 Clouds 9 1020 87 10000 4.1 150 14:59 13.10.2019
265 Clouds 9 1020 87 10000 4.1 150 14:40 13.10.2019
266 Clouds 9 1020 76 10000 4.1 150 14:22 13.10.2019
267 Clouds 9 1021 81 10000 5.1 160 13:59 13.10.2019
268 Clouds 9 1021 81 10000 5.1 160 13:38 13.10.2019
269 Clouds 9 1021 81 10000 5.7 170 13:20 13.10.2019
270 Clouds 9 1021 81 10000 5.1 170 12:56 13.10.2019
271 Clouds 9 1021 81 10000 5.1 170 12:38 13.10.2019
272 Clear 9 1021 81 10000 4.1 170 12:18 13.10.2019
273 Clear 9 1021 81 10000 4.1 170 11:55 13.10.2019
274 Clear 9 1021 81 10000 4.1 170 11:55 13.10.2019
275 Clear 10 1021 81 10000 4.1 170 11:37 13.10.2019
276 Clear 10 1021 81 10000 4.1 170 11:37 13.10.2019
277 Clear 9 1021 87 10000 4.6 170 11:18 13.10.2019
278 Clear 9 1021 81 10000 4.6 170 10:41 13.10.2019
279 Clear 10 1021 81 10000 5.1 170 10:23 13.10.2019
280 Clear 10 1021 81 10000 5.1 170 10:23 13.10.2019
281 Clear 10 1020 81 10000 4.6 170 09:41 13.10.2019
282 Clear 10 1020 81 10000 5.1 180 09:22 13.10.2019
283 Clear 11 1020 76 10000 5.1 170 08:59 13.10.2019
284 Clear 11 1020 76 10000 5.1 170 08:40 13.10.2019
285 Clear 12 1020 76 10000 5.7 180 08:21 13.10.2019
286 Clear 12 1020 76 10000 5.1 180 07:46 13.10.2019
287 Clear 13 1020 76 10000 6.2 180 07:21 13.10.2019
288 Clear 13 1020 76 10000 6.2 170 06:41 13.10.2019
289 Clear 14 1020 71 10000 5.7 170 05:46 13.10.2019
290 Clear 14 1020 71 10000 5.7 170 04:49 13.10.2019
291 Clear 14 1021 71 10000 5.1 180 04:29 13.10.2019
292 Clouds 15 1021 71 10000 4.6 190 02:42 13.10.2019
293 Clouds 15 1021 71 10000 5.7 180 01:54 13.10.2019
294 Clouds 15 1021 71 10000 5.1 190 01:30 13.10.2019
295 Clouds 14 1021 71 10000 5.7 180 00:49 13.10.2019
296 Clear 13 1022 76 10000 5.1 180 00:22 13.10.2019
297 Clear 13 1021 76 10000 5.1 180 23:57 12.10.2019
298 Clear 13 1021 76 10000 5.1 180 23:39 12.10.2019
299 Clear 13 1022 76 10000 4.1 180 23:19 12.10.2019
300 Clear 13 1021 81 10000 4.1 180 22:57 12.10.2019
301 Clear 12 1021 81 10000 4.1 180 22:38 12.10.2019
302 Clear 12 1021 81 10000 3.6 190 22:20 12.10.2019
303 Clear 12 1021 81 10000 3.6 180 21:55 12.10.2019
304 Clear 11 1021 81 10000 3.6 180 21:36 12.10.2019
305 Clouds 11 1021 81 10000 4.1 190 21:18 12.10.2019
306 Clouds 10 1021 81 10000 4.1 180 20:40 12.10.2019
307 Clouds 10 1020 81 10000 4.6 170 20:22 12.10.2019
308 Clouds 10 1020 81 10000 4.6 160 19:38 12.10.2019
309 Clouds 10 1020 87 10000 5.1 170 19:20 12.10.2019
310 Clouds 10 1020 87 10000 6.2 180 18:57 12.10.2019
311 Clouds 10 1020 87 10000 6.2 180 18:39 12.10.2019
312 Clouds 10 1020 81 10000 5.1 170 18:20 12.10.2019
313 Clouds 10 1020 76 10000 5.1 150 17:43 12.10.2019
314 Clouds 10 1020 81 10000 6.2 160 17:19 12.10.2019
315 Clouds 10 1020 81 10000 6.7 170 16:54 12.10.2019
316 Clouds 10 1020 81 10000 6.7 170 16:54 12.10.2019
317 Clouds 10 1020 81 10000 6.7 170 16:36 12.10.2019
318 Clouds 10 1020 76 10000 5.7 170 16:18 12.10.2019
319 Clouds 10 1020 76 10000 5.7 170 15:43 12.10.2019
320 Clouds 11 1020 81 10000 5.1 150 15:23 12.10.2019
321 Clouds 11 1020 81 10000 5.1 160 14:43 12.10.2019
322 Clouds 11 1020 81 10000 5.7 180 14:22 12.10.2019
323 Clouds 11 1020 81 10000 5.7 170 13:58 12.10.2019
324 Clouds 11 1020 81 10000 5.7 170 13:40 12.10.2019
325 Clouds 11 1020 81 10000 5.7 170 13:40 12.10.2019
326 Clouds 11 1020 87 10000 5.1 160 13:21 12.10.2019
327 Clouds 11 1020 81 10000 5.1 170 12:39 12.10.2019
328 Clouds 11 1020 81 10000 5.7 160 12:21 12.10.2019
329 Clouds 11 1019 87 10000 5.7 160 11:58 12.10.2019
330 Clouds 11 1019 87 10000 5.7 160 11:39 12.10.2019
331 Clouds 11 1019 87 10000 5.7 160 11:39 12.10.2019
332 Clouds 11 1019 87 10000 6.2 160 11:20 12.10.2019
333 Clouds 11 1019 81 10000 6.2 150 10:43 12.10.2019
334 Clouds 11 1019 81 10000 6.2 150 10:23 12.10.2019
335 Clouds 11 1018 81 10000 6.2 150 09:58 12.10.2019
336 Clouds 11 1018 81 10000 6.2 150 09:39 12.10.2019
337 Clouds 12 1018 81 10000 6.7 160 09:21 12.10.2019
338 -273 0 0 0 0 0 08:57 12.10.2019
339 Clouds 12 1018 87 10000 6.2 160 08:57 12.10.2019
340 Clouds 12 1018 87 10000 6.2 160 08:38 12.10.2019
341 Clouds 13 1017 87 10000 7.2 160 08:19 12.10.2019
342 Clouds 13 1017 87 10000 6.2 170 07:34 12.10.2019
343 Clouds 14 1017 87 10000 6.2 170 06:51 12.10.2019
344 Clouds 15 1017 87 10000 5.7 180 05:47 12.10.2019
345 Clouds 15 1017 87 10000 5.7 190 05:22 12.10.2019
346 Rain 15 1017 82 10000 4.1 190 03:59 12.10.2019
347 Clouds 15 1017 82 10000 3.6 180 03:30 12.10.2019
348 Rain 15 1017 82 10000 4.1 180 01:38 12.10.2019
349 Rain 15 1017 71 10000 3.6 200 01:19 12.10.2019
350 Rain 16 1017 71 10000 4.1 210 00:40 12.10.2019
351 Clouds 15 1017 71 10000 2.6 190 23:59 11.10.2019
352 Clouds 15 1017 71 10000 2.6 190 23:40 11.10.2019
353 Clouds 15 1017 76 10000 3.1 280 23:20 11.10.2019
354 Clouds 15 1017 76 10000 3.1 280 23:20 11.10.2019
355 Clouds 15 1016 67 10000 2.6 10 22:40 11.10.2019
356 Clouds 15 1016 67 10000 2.6 10 22:40 11.10.2019
357 Clouds 14 1016 71 10000 3.1 40 22:21 11.10.2019
358 Clouds 14 1016 76 10000 2.6 50 21:56 11.10.2019
359 Clouds 13 1016 76 10000 2.6 50 21:38 11.10.2019
360 Clear 12 1016 82 10000 2.6 40 21:20 11.10.2019
361 Clear 11 1016 87 10000 1.5 30 20:44 11.10.2019
362 Clear 9 1015 87 10000 3.1 40 20:26 11.10.2019
363 Clear 10 1015 87 10000 3.6 20 19:57 11.10.2019
364 Clear 10 1015 87 10000 3.6 20 19:38 11.10.2019
365 Clear 11 1015 87 10000 4.6 10 19:18 11.10.2019
366 Clear 11 1015 81 10000 4.1 360 18:58 11.10.2019
367 Clear 11 1015 81 10000 4.1 360 18:58 11.10.2019
368 Clear 11 1015 81 10000 4.1 360 18:38 11.10.2019
369 Clear 11 1015 76 10000 3.6 340 18:19 11.10.2019
370 Clear 11 1014 76 10000 4.1 350 17:58 11.10.2019
371 Clear 11 1014 76 10000 4.1 350 17:37 11.10.2019
372 Clear 12 1014 76 10000 3.6 340 17:19 11.10.2019
373 Clear 11 1014 87 10000 3.6 360 16:56 11.10.2019
374 Clear 11 1014 87 10000 3.6 360 16:37 11.10.2019
375 Clear 11 1014 82 10000 3.6 10 16:18 11.10.2019
376 Clear 11 1014 82 10000 3.6 10 16:18 11.10.2019
377 Clear 11 1014 82 10000 4.1 360 15:41 11.10.2019
378 Clear 11 1014 82 10000 4.6 350 15:20 11.10.2019
379 Clear 11 1014 82 9000 4.1 330 14:58 11.10.2019
380 Clear 11 1014 82 9000 4.1 330 14:58 11.10.2019
381 Clear 11 1014 82 9000 4.1 330 14:37 11.10.2019
382 Clear 12 1014 82 10000 4.6 330 14:19 11.10.2019
383 Clear 12 1014 76 10000 4.6 350 13:43 11.10.2019
384 Clear 12 1014 76 10000 2.1 340 13:24 11.10.2019
385 Clear 12 1014 82 10000 5.1 340 12:56 11.10.2019
386 Clear 12 1014 82 10000 5.1 340 12:38 11.10.2019
387 Clear 12 1014 82 10000 5.1 340 12:20 11.10.2019
388 Clear 12 1013 82 10000 6.2 340 11:56 11.10.2019
389 Clear 12 1013 82 10000 6.2 340 11:38 11.10.2019
390 Clear 12 1013 76 10000 5.1 340 11:20 11.10.2019
391 Clear 12 1013 82 10000 8.2 360 10:42 11.10.2019
392 Clear 12 1013 82 10000 7.2 360 10:23 11.10.2019
393 Clear 12 1012 82 10000 7.2 360 09:59 11.10.2019
394 Clear 12 1012 82 10000 7.2 360 09:40 11.10.2019
395 Clear 13 1012 82 10000 5.1 10 09:20 11.10.2019
396 Clear 13 1012 76 10000 5.1 360 08:56 11.10.2019
397 Clear 13 1012 76 10000 5.1 360 08:37 11.10.2019
398 Clear 14 1011 76 10000 5.7 360 08:19 11.10.2019
399 Clear 14 1011 72 10000 5.7 350 07:45 11.10.2019
400 Clear 14 1011 72 10000 7.7 350 07:27 11.10.2019
401 Clear 15 1010 72 10000 8.7 360 06:49 11.10.2019
402 Clear 15 1010 67 10000 8.2 350 06:24 11.10.2019
403 Clear 16 1010 72 10000 8.7 360 05:41 11.10.2019
404 Clear 15 1010 77 10000 8.2 360 05:23 11.10.2019
405 Clear 15 1010 72 10000 7.7 350 04:38 11.10.2019
406 Clouds 16 1011 77 10000 7.7 360 02:47 11.10.2019
407 Clouds 15 1011 77 10000 5.7 350 00:52 11.10.2019
408 Clouds 15 1012 72 10000 5.7 350 00:30 11.10.2019
409 Clouds 15 1011 77 10000 6.2 360 23:50 10.10.2019
410 Clouds 14 1011 77 10000 4.6 340 23:24 10.10.2019
411 Clouds 14 1011 87 10000 3.6 350 22:59 10.10.2019
412 Clouds 14 1011 87 10000 3.6 350 22:40 10.10.2019
413 Rain 13 1011 93 10000 4.1 360 22:21 10.10.2019
414 Rain 13 1011 93 10000 4.1 360 22:21 10.10.2019
415 Rain 13 1011 93 10000 4.1 360 22:21 10.10.2019
416 Rain 13 1011 93 10000 4.1 360 22:21 10.10.2019
417 Clouds 13 1011 93 10000 4.6 10 21:59 10.10.2019
418 Clouds 13 1011 93 10000 4.6 10 21:40 10.10.2019
419 Clouds 13 1011 93 10000 4.6 10 21:40 10.10.2019
420 Rain 12 1011 93 10000 5.1 10 21:22 10.10.2019
421 Rain 13 1011 93 10000 6.2 10 20:57 10.10.2019
422 Rain 12 1011 93 10000 6.2 10 20:39 10.10.2019
423 Rain 12 1011 93 10000 6.2 10 20:19 10.10.2019
424 Rain 12 1010 93 10000 6.7 10 19:54 10.10.2019
425 Rain 12 1010 93 10000 6.7 10 19:36 10.10.2019
426 Rain 12 1010 93 10000 6.2 20 19:18 10.10.2019
427 Rain 12 1010 93 10000 5.7 20 18:41 10.10.2019
428 Rain 12 1010 100 10000 5.1 20 18:20 10.10.2019
429 Rain 12 1010 93 10000 5.7 20 17:56 10.10.2019
430 Rain 12 1010 93 10000 5.7 20 17:37 10.10.2019
431 Rain 12 1010 100 10000 4.6 20 17:18 10.10.2019
432 Rain 12 1011 93 9000 5.1 30 16:47 10.10.2019
433 Rain 12 1011 93 10000 4.6 20 16:26 10.10.2019
434 Rain 12 1011 93 10000 3.6 30 15:58 10.10.2019
435 Rain 12 1011 93 10000 3.6 30 15:38 10.10.2019
436 Rain 13 1011 87 10000 3.1 360 15:20 10.10.2019
437 Rain 13 1011 87 10000 5.7 330 14:55 10.10.2019
438 Rain 14 1011 87 10000 5.7 330 14:36 10.10.2019
439 Rain 14 1011 87 10000 6.7 20 14:18 10.10.2019
440 Rain 14 1011 93 10000 5.7 10 13:46 10.10.2019
441 Rain 15 1011 87 10000 6.7 360 13:27 10.10.2019
442 Rain 15 1011 82 10000 7.2 20 12:59 10.10.2019
443 Rain 15 1011 82 10000 7.2 20 12:40 10.10.2019
444 Rain 15 1011 82 10000 7.7 10 12:20 10.10.2019
445 Rain 15 1011 87 10000 6.7 10 11:58 10.10.2019
446 Rain 15 1011 87 10000 6.7 10 11:38 10.10.2019
447 Rain 15 1011 87 10000 7.2 360 11:19 10.10.2019
448 Rain 15 1011 93 6000 7.2 360 10:45 10.10.2019
449 Rain 15 1012 82 10000 6.2 360 10:26 10.10.2019
450 Rain 15 1012 82 10000 5.7 10 09:58 10.10.2019
451 Rain 15 1012 82 10000 5.7 10 09:39 10.10.2019
452 Rain 15 1011 82 10000 5.7 10 09:21 10.10.2019
453 Rain 15 1011 82 10000 6.2 10 08:57 10.10.2019
454 Rain 15 1011 82 10000 6.2 10 08:38 10.10.2019
455 Rain 15 1011 82 10000 6.2 10 08:19 10.10.2019
456 Rain 15 1011 82 10000 6.2 10 08:19 10.10.2019
457 Rain 16 1012 82 10000 6.2 360 07:45 10.10.2019
458 Rain 16 1012 87 10000 8.2 360 07:22 10.10.2019
459 Rain 16 1011 77 10000 7.7 360 06:48 10.10.2019
460 Rain 15 1011 82 10000 7.2 360 06:29 10.10.2019
461 Rain 16 1012 82 10000 7.7 10 05:28 10.10.2019
462 Rain 16 1012 82 10000 7.7 10 05:28 10.10.2019
463 Rain 17 1012 82 10000 8.7 360 04:54 10.10.2019
464 Rain 16 1013 82 10000 9.3 360 04:33 10.10.2019
465 Rain 15 1014 93 8000 8.7 360 01:46 10.10.2019
466 Rain 15 1014 93 8000 8.7 360 01:46 10.10.2019
467 Rain 15 1014 93 6000 5.7 360 01:26 10.10.2019
468 Rain 15 1014 87 5000 5.7 360 01:00 10.10.2019
469 Rain 15 1014 87 10000 6.2 20 00:24 10.10.2019
470 Rain 15 1015 87 10000 6.2 20 23:40 09.10.2019
471 Rain 15 1015 87 10000 6.7 20 23:22 09.10.2019
472 Rain 15 1014 87 10000 6.2 20 22:59 09.10.2019
473 Rain 15 1014 87 10000 6.2 20 22:40 09.10.2019
474 Rain 15 1015 82 10000 7.7 10 22:22 09.10.2019
475 Rain 14 1015 77 10000 6.7 10 21:41 09.10.2019
476 Rain 14 1015 77 10000 7.2 10 21:21 09.10.2019
477 Rain 14 1015 72 10000 7.7 360 20:56 09.10.2019
478 Clouds 14 1015 72 10000 7.7 360 20:38 09.10.2019
479 Clouds 14 1015 76 10000 7.2 360 20:19 09.10.2019
480 Clouds 14 1014 76 10000 7.7 360 19:58 09.10.2019
481 Clouds 14 1014 76 10000 7.7 360 19:40 09.10.2019
482 Clouds 14 1014 76 10000 6.7 360 19:22 09.10.2019
483 Clouds 14 1014 76 10000 6.7 360 19:22 09.10.2019
484 Clouds 13 1014 82 10000 6.2 360 18:38 09.10.2019
485 Clouds 13 1015 82 10000 6.2 10 18:20 09.10.2019
486 Clouds 13 1015 82 10000 5.7 10 17:58 09.10.2019
487 Clouds 13 1015 82 10000 5.7 10 17:37 09.10.2019
488 Clouds 13 1015 82 10000 5.7 10 17:37 09.10.2019
489 Clouds 12 1015 87 10000 7.2 360 17:19 09.10.2019
490 Clouds 12 1015 87 10000 7.7 360 16:56 09.10.2019
491 Clouds 12 1015 87 10000 7.7 360 16:37 09.10.2019
492 Clouds 12 1015 87 10000 8.2 360 16:18 09.10.2019
493 Clouds 12 1015 87 10000 8.2 360 16:18 09.10.2019
494 Clouds 12 1016 76 10000 7.7 350 15:55 09.10.2019
495 Clouds 12 1016 76 10000 7.7 350 15:36 09.10.2019
496 Clouds 12 1016 87 10000 8.7 360 15:18 09.10.2019
497 Clouds 11 1017 87 10000 7.7 10 14:44 09.10.2019
498 Clouds 11 1017 87 10000 7.7 10 14:19 09.10.2019
499 Clouds 12 1017 87 10000 7.7 10 13:59 09.10.2019
500 Clouds 12 1017 87 10000 7.7 10 13:37 09.10.2019
501 Clouds 12 1017 87 10000 9.3 360 13:18 09.10.2019
502 Clouds 12 1017 87 10000 8.7 10 12:43 09.10.2019
503 Clouds 12 1017 87 10000 8.2 360 12:22 09.10.2019
504 Clouds 13 1018 82 10000 7.2 360 11:58 09.10.2019
505 Clouds 13 1018 82 10000 7.2 360 11:39 09.10.2019
506 Clouds 13 1018 87 10000 6.7 360 11:20 09.10.2019
507 Clouds 13 1018 82 10000 7.7 350 10:58 09.10.2019
508 Clouds 13 1018 82 10000 7.7 350 10:40 09.10.2019
509 Clouds 13 1018 82 10000 6.7 340 10:18 09.10.2019
510 Clouds 13 1018 82 10000 9.3 330 09:43 09.10.2019
511 Clouds 14 1017 82 10000 8.7 350 09:20 09.10.2019
512 Clouds 14 1018 87 10000 9.8 10 08:57 09.10.2019
513 Clouds 14 1018 87 10000 9.8 10 08:37 09.10.2019
514 Clouds 14 1018 77 10000 7.7 350 08:19 09.10.2019
515 Clouds 14 1018 82 10000 9.8 360 07:47 09.10.2019
516 Clouds 14 1018 82 10000 9.3 350 07:24 09.10.2019
517 Clouds 15 1018 82 10000 11.3 360 06:56 09.10.2019
518 Clouds 15 1018 82 10000 11.3 360 06:25 09.10.2019
519 Clouds 16 1018 77 10000 10.8 350 05:47 09.10.2019
520 Clouds 16 1018 72 10000 10.3 350 04:41 09.10.2019
521 Clouds 16 1018 77 10000 9.3 360 03:43 09.10.2019
522 Clouds 16 1018 77 10000 9.3 360 03:43 09.10.2019
523 Clouds 14 1019 82 10000 9.8 350 02:27 09.10.2019
524 Clouds 14 1019 82 10000 11.8 350 01:22 09.10.2019
525 Clouds 14 1019 82 10000 11.8 350 01:22 09.10.2019
526 Clouds 14 1019 87 10000 11.3 350 00:59 09.10.2019
527 Rain 14 1019 87 10000 11.3 350 00:40 09.10.2019
528 Rain 14 1019 87 10000 11.3 340 00:22 09.10.2019
529 Rain 14 1019 93 10000 10.3 350 23:58 08.10.2019
530 Clouds 14 1019 93 10000 10.3 350 23:37 08.10.2019
531 Clouds 14 1019 93 10000 10.8 350 23:18 08.10.2019
532 Rain 13 1019 93 10000 12.3 360 22:41 08.10.2019
533 Rain 13 1019 93 10000 12.3 360 22:41 08.10.2019
534 Rain 13 1019 93 8000 9.8 20 22:21 08.10.2019
535 Rain 13 1018 93 6000 8.7 20 21:58 08.10.2019
536 Rain 13 1018 93 6000 8.7 20 21:39 08.10.2019
537 Rain 13 1018 93 5000 10.8 10 21:20 08.10.2019
538 Rain 13 1018 87 10000 10.3 10 20:58 08.10.2019
539 Clear 14 1018 87 10000 10.3 10 20:39 08.10.2019
540 Clear 13 1018 87 10000 9.3 20 20:21 08.10.2019
541 Clear 13 1018 87 10000 8.7 20 19:59 08.10.2019
542 Clear 13 1018 87 10000 8.7 20 19:41 08.10.2019
543 Clear 13 1018 87 10000 10.8 10 19:23 08.10.2019
544 Clear 13 1018 87 10000 8.7 10 18:57 08.10.2019
545 Clear 13 1018 87 10000 8.7 10 18:39 08.10.2019
546 Clear 13 1018 87 10000 9.8 10 18:19 08.10.2019
547 Clear 13 1018 87 10000 8.7 20 17:55 08.10.2019
548 Clear 13 1018 87 10000 8.7 20 17:36 08.10.2019
549 Clear 13 1018 87 10000 8.7 20 17:18 08.10.2019
550 Clear 13 1019 87 10000 10.3 20 16:41 08.10.2019
551 Clear 13 1018 87 10000 9.8 10 16:22 08.10.2019
552 Clear 13 1018 87 10000 11.8 350 15:57 08.10.2019
553 Clear 13 1018 87 10000 11.8 350 15:37 08.10.2019
554 Clear 13 1018 82 10000 11.3 340 15:19 08.10.2019
555 Clear 13 1018 82 10000 11.3 340 15:19 08.10.2019
556 Clear 13 1019 82 10000 10.8 350 14:42 08.10.2019
557 Clear 13 1019 82 10000 9.3 350 14:21 08.10.2019
558 Clear 13 1019 82 10000 7.7 350 13:58 08.10.2019
559 Clear 13 1019 82 10000 7.7 350 13:39 08.10.2019
560 Clear 13 1019 82 10000 7.7 350 13:39 08.10.2019
561 Clear 13 1019 82 10000 9.8 350 13:20 08.10.2019
562 Clear 13 1018 82 10000 7.7 360 12:59 08.10.2019
563 Clear 13 1018 82 10000 7.7 360 12:39 08.10.2019
564 Clear 13 1018 82 10000 7.2 10 12:19 08.10.2019
565 Clear 13 1018 82 10000 8.7 10 11:43 08.10.2019
566 Clear 14 1018 82 10000 9.3 360 11:24 08.10.2019
567 Clear 13 1019 82 10000 10.3 360 10:59 08.10.2019
568 Clear 13 1019 82 10000 10.3 360 10:40 08.10.2019
569 Clear 13 1019 82 10000 10.3 360 10:21 08.10.2019
570 Clear 13 1018 82 10000 10.3 10 09:58 08.10.2019
571 Clear 13 1018 82 10000 10.3 10 09:39 08.10.2019
572 Clouds 13 1018 87 10000 12.3 360 09:20 08.10.2019
573 Clouds 13 1017 76 10000 11.8 350 08:43 08.10.2019
574 Clouds 13 1016 82 10000 12.9 340 08:25 08.10.2019
575 Clouds 14 1017 76 10000 8.7 340 07:46 08.10.2019
576 Clouds 13 1017 76 10000 10.3 350 07:22 08.10.2019
577 Clouds 14 1017 77 10000 8.7 350 06:56 08.10.2019
578 Clouds 14 1017 72 10000 10.3 360 06:33 08.10.2019
579 Clouds 14 1017 72 10000 12.9 10 05:57 08.10.2019
580 Clouds 14 1017 72 10000 12.9 10 05:57 08.10.2019
581 Clouds 14 1017 72 10000 12.9 10 05:36 08.10.2019
582 Clouds 14 1017 72 10000 12.9 10 05:36 08.10.2019
583 Clouds 15 1017 72 10000 12.3 360 04:36 08.10.2019
584 Clouds 15 1018 62 10000 12.3 350 03:29 08.10.2019
585 Clouds 15 1018 62 10000 12.3 340 02:39 08.10.2019
586 Clouds 15 1018 67 10000 11.8 350 01:49 08.10.2019
587 Clouds 15 1018 62 10000 11.3 360 01:31 08.10.2019
588 Clouds 15 1018 62 10000 12.3 360 00:50 08.10.2019
589 Clear 15 1018 58 10000 12.3 360 00:21 08.10.2019
590 Clear 14 1018 62 10000 12.3 360 23:41 07.10.2019
591 Clear 14 1018 62 10000 13.4 360 23:20 07.10.2019
592 Clear 14 1018 62 10000 13.4 360 23:20 07.10.2019
593 Clear 13 1017 66 10000 13.4 360 22:58 07.10.2019
594 Clear 13 1017 66 10000 13.4 360 22:40 07.10.2019
595 Clear 13 1017 66 10000 12.3 350 22:20 07.10.2019
596 Clear 13 1017 62 10000 11.8 340 21:57 07.10.2019
597 Clear 13 1017 62 10000 11.8 340 21:39 07.10.2019
598 Clear 12 1017 66 10000 12.3 350 21:20 07.10.2019
599 Clear 12 1017 66 10000 13.4 350 20:58 07.10.2019
600 Clear 12 1017 66 10000 13.4 350 20:39 07.10.2019
601 Clear 12 1017 66 10000 11.8 340 20:20 07.10.2019
602 Clear 12 1017 66 10000 11.3 350 19:58 07.10.2019
603 Clear 12 1017 66 10000 11.3 350 19:40 07.10.2019
604 Clear 12 1017 71 10000 12.3 350 19:19 07.10.2019
605 Clear 12 1017 71 10000 12.3 350 18:57 07.10.2019
606 Clear 12 1017 71 10000 12.3 350 18:38 07.10.2019
607 Clear 12 1017 76 10000 12.3 350 18:18 07.10.2019
608 Clear 12 1017 81 10000 10.8 360 17:43 07.10.2019
609 Clear 12 1017 81 10000 12.3 360 17:22 07.10.2019
610 Clear 12 1017 81 10000 11.8 360 16:58 07.10.2019
611 Clear 12 1017 81 10000 11.8 360 16:39 07.10.2019
612 Clear 12 1017 81 10000 12.3 360 16:20 07.10.2019
613 Clear 12 1017 87 10000 11.3 350 15:45 07.10.2019
614 Clear 12 1018 81 10000 10.8 350 15:26 07.10.2019
615 Clear 12 1018 76 10000 11.8 350 14:55 07.10.2019
616 Clear 12 1018 76 10000 11.8 350 14:37 07.10.2019
617 Clear 12 1018 82 10000 11.8 350 14:19 07.10.2019
618 Clear 12 1018 76 10000 10.8 350 13:43 07.10.2019
619 Clear 12 1018 76 10000 9.3 350 13:20 07.10.2019
620 Clear 12 1017 82 10000 10.3 10 12:56 07.10.2019
621 Clear 12 1017 82 10000 10.3 10 12:38 07.10.2019
622 -273 0 0 0 0 0 12:19 07.10.2019
623 Clear 12 1017 82 10000 10.3 10 11:57 07.10.2019
624 Clear 12 1017 82 10000 10.3 10 11:37 07.10.2019
625 Clear 12 1018 82 10000 10.3 10 11:18 07.10.2019
626 Clear 12 1018 87 10000 10.3 10 10:41 07.10.2019
627 Clear 12 1018 87 10000 10.3 10 10:41 07.10.2019
628 Clear 12 1018 87 10000 10.3 10 10:20 07.10.2019
629 Clear 12 1018 87 10000 10.3 10 10:20 07.10.2019
630 Clear 12 1018 82 10000 10.3 10 09:42 07.10.2019
631 Clear 12 1018 82 10000 9.3 10 09:23 07.10.2019
632 Clear 12 1017 87 10000 9.8 360 08:57 07.10.2019
633 Clear 13 1017 87 10000 9.8 360 08:39 07.10.2019
634 Clear 13 1018 82 10000 9.8 360 08:19 07.10.2019
635 Clear 14 1017 82 10000 11.3 10 07:41 07.10.2019
636 Clear 14 1018 82 10000 10.8 10 07:23 07.10.2019
637 Clear 13 1018 76 10000 9.8 360 06:54 07.10.2019
638 Clear 14 1018 82 10000 10.3 360 06:34 07.10.2019
639 Clear 14 1018 82 10000 9.8 360 05:49 07.10.2019
640 Clear 14 1018 76 10000 8.7 350 05:23 07.10.2019
641 Clear 15 1019 77 10000 9.3 350 04:28 07.10.2019
642 Clear 14 1019 72 10000 8.7 350 03:45 07.10.2019
643 Clear 15 1019 72 10000 8.2 350 03:21 07.10.2019
644 Clear 14 1019 76 10000 10.8 350 02:22 07.10.2019
645 Clear 14 1019 72 10000 11.3 350 01:52 07.10.2019
646 Clear 15 1020 76 10000 9.8 350 01:22 07.10.2019
647 Clear 14 1020 76 10000 10.3 360 00:41 07.10.2019
648 Clear 14 1020 76 10000 10.8 360 00:22 07.10.2019
649 Clear 14 1020 76 10000 10.3 360 23:54 06.10.2019
650 Clear 14 1020 76 10000 10.3 360 23:36 06.10.2019
651 Clear 14 1021 76 10000 8.7 360 23:18 06.10.2019
652 Clear 13 1021 76 10000 6.2 10 22:41 06.10.2019
653 Clear 12 1021 81 10000 6.7 10 22:22 06.10.2019
654 Clear 11 1021 81 10000 5.1 20 21:58 06.10.2019
655 Clear 11 1021 81 10000 5.1 20 21:38 06.10.2019
656 Clear 9 1021 81 10000 4.6 30 21:19 06.10.2019
657 Clear 7 1021 87 10000 4.6 40 20:58 06.10.2019
658 Clear 7 1021 87 10000 4.6 40 20:58 06.10.2019
659 Clear 6 1021 87 10000 4.6 40 20:40 06.10.2019
660 Clear 5 1021 93 10000 3.1 20 20:21 06.10.2019
661 Clear 5 1021 87 10000 4.6 20 19:58 06.10.2019
662 Clear 3 1021 87 10000 4.6 20 19:38 06.10.2019
663 Clear 3 1021 93 10000 4.6 30 19:19 06.10.2019
664 Clear 3 1021 93 10000 4.6 40 18:57 06.10.2019
665 Clear 3 1021 93 10000 4.6 40 18:39 06.10.2019
666 Clear 5 1021 87 10000 3.6 30 18:19 06.10.2019
667 Clear 5 1021 87 10000 3.1 30 17:58 06.10.2019
668 Clear 4 1021 87 10000 3.1 30 17:39 06.10.2019
669 Clear 4 1021 87 10000 3.1 30 17:19 06.10.2019
670 Clear 4 1021 87 10000 3.1 30 16:42 06.10.2019
671 Clear 4 1021 87 10000 2.6 20 16:24 06.10.2019
672 Clear 4 1021 87 10000 2.6 10 15:59 06.10.2019
673 Clear 4 1021 87 10000 2.6 10 15:41 06.10.2019
674 Clear 4 1022 87 10000 2.6 30 15:18 06.10.2019
675 Clear 5 1022 81 10000 2.6 50 14:43 06.10.2019
676 Clear 5 1022 81 10000 1 30 14:24 06.10.2019
677 Clear 5 1022 75 10000 3.1 10 13:58 06.10.2019
678 Clear 5 1022 75 10000 3.1 10 13:39 06.10.2019
679 Clear 5 1022 75 10000 3.1 10 13:39 06.10.2019
680 Clear 5 1022 75 10000 3.6 10 13:21 06.10.2019
681 Clear 5 1022 75 10000 3.6 10 13:21 06.10.2019
682 Clear 6 1022 75 10000 4.1 10 12:57 06.10.2019
683 Clear 6 1022 75 10000 4.1 10 12:39 06.10.2019
684 Clear 7 1022 75 10000 2.6 20 12:20 06.10.2019
685 Clear 7 1022 75 10000 2.6 20 12:20 06.10.2019
686 Clear 7 1022 75 10000 2.1 360 11:57 06.10.2019
687 Clear 7 1022 75 10000 2.1 360 11:38 06.10.2019
688 Clear 7 1022 75 10000 2.1 360 11:20 06.10.2019
689 Clear 7 1023 70 10000 3.1 10 10:44 06.10.2019
690 Clear 8 1022 66 10000 2.6 20 10:25 06.10.2019
691 Clear 8 1022 66 10000 1.5 20 09:58 06.10.2019
692 Clear 8 1022 66 10000 1.5 20 09:39 06.10.2019
693 Clear 10 1022 66 10000 2.1 320 09:18 06.10.2019
694 Clear 10 1022 62 10000 2.6 210 08:43 06.10.2019
695 Clear 10 1021 62 10000 3.6 170 08:21 06.10.2019
696 Clear 11 1021 66 10000 5.7 170 07:44 06.10.2019
697 Clear 12 1021 57 10000 6.7 170 07:19 06.10.2019
698 Clear 13 1021 58 10000 8.2 170 06:20 06.10.2019
699 Clear 13 1022 62 10000 8.2 160 05:34 06.10.2019
700 Clear 13 1022 62 10000 7.7 170 03:42 06.10.2019
701 Clear 13 1022 62 10000 7.2 170 02:43 06.10.2019
702 Clear 14 1022 58 10000 6.7 170 02:21 06.10.2019
703 Clear 14 1023 62 10000 6.7 170 01:44 06.10.2019
704 Clear 14 1023 62 10000 6.7 170 01:26 06.10.2019
705 Clear 13 1022 58 10000 6.7 170 00:52 06.10.2019
706 Clear 12 1022 66 10000 6.2 170 00:26 06.10.2019
707 Clear 11 1022 62 10000 5.7 170 23:45 05.10.2019
708 Clear 12 1022 62 10000 5.1 160 23:22 05.10.2019
709 Clear 11 1022 61 10000 5.1 160 22:58 05.10.2019
710 Clear 11 1022 61 10000 5.1 160 22:40 05.10.2019
711 Clear 11 1022 61 10000 5.1 160 22:40 05.10.2019
712 Clear 10 1022 61 10000 5.7 160 22:20 05.10.2019
713 Clear 10 1022 61 10000 5.7 160 22:20 05.10.2019
714 Clear 9 1021 61 10000 5.1 160 21:57 05.10.2019
715 Clear 9 1021 61 10000 5.1 160 21:38 05.10.2019
716 Clouds 8 1021 66 10000 5.7 160 21:18 05.10.2019
717 Clouds 7 1021 66 10000 6.2 170 20:56 05.10.2019
718 Clear 7 1021 66 10000 6.2 170 20:37 05.10.2019
719 Clear 6 1021 78 0 1.34 206 20:18 05.10.2019
720 Clear 6 1020 79 0 1.34 210 19:38 05.10.2019
721 Clear 6 1020 70 10000 6.7 170 19:19 05.10.2019
722 Clear 7 1020 70 10000 6.7 170 18:55 05.10.2019
723 Clear 7 1020 70 10000 6.7 170 18:55 05.10.2019
724 Clear 6 1020 80 0 1.79 202 18:37 05.10.2019
725 Rain 7 1020 80 0 1.79 202 18:19 05.10.2019
726 Rain 7 1020 70 10000 6.7 170 17:43 05.10.2019
727 Rain 7 1020 80 0 1.79 203 17:25 05.10.2019
728 Rain 7 1019 81 9000 8.2 150 16:58 05.10.2019
729 Drizzle 7 1019 81 9000 8.2 150 16:40 05.10.2019
730 Rain 8 1019 70 10000 7.2 160 16:21 05.10.2019
731 Rain 7 1019 70 10000 8.2 170 15:57 05.10.2019
732 Rain 8 1019 70 10000 8.2 170 15:38 05.10.2019
733 Clouds 8 1019 76 10000 8.2 170 15:20 05.10.2019
734 Clouds 8 1018 70 10000 8.2 170 14:44 05.10.2019
735 Clouds 8 1018 70 10000 8.7 160 14:26 05.10.2019
736 Clouds 8 1018 70 10000 8.7 160 14:26 05.10.2019
737 Clouds 8 1018 70 10000 9.3 170 13:59 05.10.2019
738 Clouds 8 1018 70 10000 9.3 170 13:40 05.10.2019
739 Clouds 8 1018 71 10000 9.8 170 13:20 05.10.2019
740 Clouds 8 1018 76 10000 9.8 170 12:44 05.10.2019
741 Clouds 8 1017 76 10000 9.8 180 12:20 05.10.2019
742 Clouds 8 1017 81 10000 10.3 180 11:45 05.10.2019
743 Rain 8 1017 76 10000 10.8 170 11:23 05.10.2019
744 Rain 8 1016 81 10000 8.7 170 10:59 05.10.2019
745 Rain 7 1016 81 10000 8.7 170 10:41 05.10.2019
746 Rain 7 1015 87 10000 7.7 170 10:23 05.10.2019
747 Rain 7 1015 81 7000 9.8 180 09:56 05.10.2019
748 Rain 7 1015 91 0 1.79 206 09:38 05.10.2019
749 Rain 7 1015 91 0 1.79 206 09:38 05.10.2019
750 Rain 7 1015 81 10000 10.8 170 09:20 05.10.2019
751 Rain 7 1014 81 9000 10.8 170 08:39 05.10.2019
752 Rain 7 1014 93 0 4.02 205 08:19 05.10.2019
753 Rain 7 1008 89 0 0.45 186 07:53 05.10.2019
754 Rain 7 1012 87 8000 11.3 180 07:32 05.10.2019
755 Rain 8 1011 93 5000 11.3 180 06:57 05.10.2019
756 Rain 8 1011 93 2900 10.8 180 06:26 05.10.2019
757 Rain 9 1010 93 5000 10.8 180 05:40 05.10.2019
758 Rain 13 1008 87 9000 7.2 330 03:41 05.10.2019
759 Rain 13 1008 82 10000 8.7 340 03:22 05.10.2019
760 Clouds 13 1008 76 10000 10.8 340 01:30 05.10.2019
761 Clouds 13 1008 76 10000 10.8 340 01:30 05.10.2019
762 Clouds 14 1008 76 10000 9.3 340 00:58 05.10.2019
763 Clouds 14 1008 76 10000 9.3 340 00:40 05.10.2019
764 Clouds 14 1008 76 10000 8.7 340 00:22 05.10.2019
765 Clouds 13 1008 76 10000 9.3 350 23:43 04.10.2019
766 Clouds 13 1008 76 10000 9.3 350 23:24 04.10.2019
767 Clouds 13 1008 71 10000 8.7 350 22:58 04.10.2019
768 Clouds 13 1008 71 10000 8.7 350 22:38 04.10.2019
769 Clouds 13 1008 71 10000 9.3 360 22:19 04.10.2019
770 Clouds 13 1008 71 10000 9.3 360 22:19 04.10.2019
771 Clouds 13 1008 76 10000 9.3 10 21:55 04.10.2019
772 Clouds 13 1008 76 10000 9.3 10 21:36 04.10.2019
773 Clear 12 1008 76 10000 9.8 360 21:18 04.10.2019
774 Clouds 12 1007 71 10000 10.8 360 20:42 04.10.2019
775 Clouds 11 1007 71 10000 11.8 360 20:23 04.10.2019
776 Clouds 12 1006 71 10000 10.3 350 19:58 04.10.2019
777 Clouds 12 1006 71 10000 10.3 350 19:39 04.10.2019
778 Clouds 12 1006 71 10000 11.8 360 19:21 04.10.2019
779 Clouds 12 1006 71 10000 11.3 350 18:56 04.10.2019
780 Clouds 12 1006 71 10000 11.3 350 18:37 04.10.2019
781 Clear 12 1006 71 10000 12.3 350 18:18 04.10.2019
782 Clear 12 1006 71 10000 12.3 350 18:18 04.10.2019
783 Clear 12 1006 71 10000 12.9 340 17:41 04.10.2019
784 Clear 12 1006 71 10000 12.9 340 17:41 04.10.2019
785 Clear 11 1007 71 10000 13.4 350 17:22 04.10.2019
786 Clear 11 1006 71 10000 12.9 340 16:59 04.10.2019
787 Clear 11 1006 71 10000 12.9 340 16:41 04.10.2019
788 Clear 11 1007 76 10000 12.3 350 16:19 04.10.2019
789 Clear 11 1007 76 10000 12.3 350 16:19 04.10.2019
790 Clear 11 1008 76 10000 11.3 360 15:58 04.10.2019
791 Clear 11 1008 76 10000 11.3 360 15:39 04.10.2019
792 Clear 11 1008 76 10000 12.3 360 15:20 04.10.2019
793 Clear 11 1008 81 10000 11.8 360 14:57 04.10.2019
794 Clear 11 1008 81 10000 11.8 360 14:39 04.10.2019
795 Clear 11 1009 81 10000 13.9 360 14:21 04.10.2019
796 Clear 11 1009 76 10000 13.4 360 13:45 04.10.2019
797 Clear 12 1009 76 10000 11.8 350 13:23 04.10.2019
798 Clear 12 1009 76 10000 10.8 350 12:58 04.10.2019
799 Clear 12 1009 76 10000 10.8 350 12:40 04.10.2019
800 Clear 12 1010 81 10000 12.9 360 12:21 04.10.2019
801 Clear 11 1010 81 10000 11.8 360 11:43 04.10.2019
802 Clear 11 1010 81 10000 11.8 360 11:42 04.10.2019
803 Clear 12 1010 81 10000 11.8 360 11:22 04.10.2019
804 Clear 12 1010 81 10000 12.9 360 10:55 04.10.2019
805 Clear 12 1010 81 10000 12.9 360 10:37 04.10.2019
806 Clear 12 1010 76 10000 12.3 350 10:18 04.10.2019
807 Clear 12 1011 76 10000 12.3 350 09:41 04.10.2019
808 Clear 12 1011 76 10000 11.3 350 09:23 04.10.2019
809 Clear 12 1011 76 10000 11.8 360 08:45 04.10.2019
810 Clear 12 1011 71 10000 10.8 360 08:26 04.10.2019
811 Clear 12 1011 71 10000 11.8 10 07:47 04.10.2019
812 Clear 12 1012 71 10000 11.8 10 07:26 04.10.2019
813 Clear 13 1012 66 10000 11.3 360 06:59 04.10.2019
814 Clear 13 1012 66 10000 11.3 360 06:39 04.10.2019
815 Clear 13 1012 71 10000 10.3 360 06:20 04.10.2019
816 Clear 13 1012 71 10000 10.3 360 06:20 04.10.2019
817 Clear 13 1013 66 10000 10.8 360 05:21 04.10.2019
818 Clear 13 1013 58 10000 10.3 360 04:38 04.10.2019
819 Clear 13 1014 67 10000 9.3 350 03:18 04.10.2019
820 Clear 13 1014 71 10000 10.3 360 02:43 04.10.2019
821 Clear 13 1015 66 10000 10.3 360 01:53 04.10.2019
822 Clear 13 1015 66 10000 10.3 360 01:53 04.10.2019
823 Clear 13 1016 66 10000 8.7 350 01:26 04.10.2019
824 Clear 13 1016 71 10000 7.2 360 00:33 04.10.2019
825 Clear 11 1016 66 10000 6.2 20 23:40 03.10.2019
826 Clear 11 1017 71 10000 6.2 30 23:21 03.10.2019
827 Clear 10 1017 76 10000 6.2 30 22:57 03.10.2019
828 Clear 10 1017 76 10000 6.2 30 22:39 03.10.2019
829 Clear 10 1017 76 10000 6.2 30 22:39 03.10.2019
830 Clear 10 1017 76 10000 6.2 30 22:39 03.10.2019
831 Clear 9 1017 75 10000 5.1 30 22:21 03.10.2019
832 Clear 8 1017 81 10000 4.1 20 21:58 03.10.2019
833 Clear 7 1017 81 10000 4.1 20 21:39 03.10.2019
834 Clear 6 1017 87 10000 2.6 20 21:19 03.10.2019
835 Clear 4 1016 86 10000 3.1 20 20:58 03.10.2019
836 Clear 4 1016 86 10000 3.1 20 20:58 03.10.2019
837 Clear 3 1016 86 10000 3.1 20 20:38 03.10.2019
838 Clear 3 1016 93 10000 2.6 30 20:20 03.10.2019
839 Clear 3 1016 86 10000 2.6 30 19:56 03.10.2019
840 Clear 3 1016 86 10000 2.6 30 19:37 03.10.2019
841 Clear 3 1016 86 10000 3.1 30 19:19 03.10.2019
842 Clear 3 1016 93 10000 2.1 40 18:55 03.10.2019
843 Clear 3 1016 93 10000 2.1 40 18:37 03.10.2019
844 Clear 3 1016 93 10000 2.1 30 18:18 03.10.2019
845 Clear 3 1016 86 10000 1.5 20 17:42 03.10.2019
846 Clear 3 1016 86 10000 1.5 20 17:42 03.10.2019
847 Clear 3 1016 86 10000 2.1 40 17:21 03.10.2019
848 Clear 4 1016 86 10000 2.1 20 16:55 03.10.2019
849 Clear 4 1016 86 10000 2.1 20 16:37 03.10.2019
850 Clear 3 1016 86 10000 1.5 20 16:19 03.10.2019
851 Clear 6 1016 87 10000 2.1 50 15:43 03.10.2019
852 Clear 6 1016 87 10000 2.1 50 15:43 03.10.2019
853 Clouds 4 1016 81 10000 1 70 15:23 03.10.2019
854 Clouds 4 1016 81 10000 1.5 50 14:57 03.10.2019
855 Clouds 4 1016 81 10000 1.5 50 14:36 03.10.2019
856 -273 0 0 0 0 0 14:36 03.10.2019
857 Clouds 4 1016 81 10000 1.5 50 14:36 03.10.2019
858 Clouds 4 1016 75 10000 1.5 10 14:18 03.10.2019
859 Clouds 4 1015 65 10000 2.1 150 13:43 03.10.2019
860 -273 0 0 0 0 0 13:43 03.10.2019
861 Clouds 5 1015 70 10000 3.6 170 13:22 03.10.2019
862 Clouds 5 1015 66 10000 4.1 170 12:58 03.10.2019
863 Clouds 6 1015 66 10000 4.1 170 12:39 03.10.2019
864 Clouds 6 1015 66 10000 4.1 170 12:39 03.10.2019
865 Clouds 6 1015 66 10000 4.1 170 12:19 03.10.2019
866 Clouds 7 1015 70 10000 2.6 180 11:57 03.10.2019
867 Clouds 7 1015 70 10000 2.6 180 11:38 03.10.2019
868 Clouds 8 1015 66 10000 3.6 170 11:20 03.10.2019
869 Clouds 8 1015 66 10000 4.1 160 10:56 03.10.2019
870 Clouds 8 1015 66 10000 4.1 160 10:38 03.10.2019
871 Clouds 8 1015 66 10000 4.6 170 10:18 03.10.2019
872 Clouds 8 1015 70 10000 4.6 160 09:56 03.10.2019
873 Clouds 8 1015 70 10000 4.6 160 09:37 03.10.2019
874 Clouds 9 1015 70 10000 4.6 170 09:19 03.10.2019
875 Clouds 9 1014 70 10000 5.1 160 08:42 03.10.2019
876 Clouds 9 1014 61 10000 4.6 160 08:23 03.10.2019
877 Clouds 9 1014 66 10000 5.1 150 07:42 03.10.2019
878 Clouds 10 1014 61 10000 5.1 160 07:20 03.10.2019
879 Clouds 10 1014 61 10000 5.1 160 07:20 03.10.2019
880 Clouds 10 1014 61 10000 5.7 160 06:52 03.10.2019
881 Clouds 11 1014 61 10000 5.1 150 06:26 03.10.2019
882 Clouds 11 1014 62 10000 5.7 160 05:48 03.10.2019
883 Clouds 11 1014 66 10000 5.1 150 05:27 03.10.2019
884 Clouds 11 1014 66 10000 5.7 150 04:44 03.10.2019
885 Clouds 11 1015 57 10000 5.7 170 03:54 03.10.2019
886 Clouds 11 1015 66 10000 5.1 170 03:18 03.10.2019
887 Clouds 11 1015 71 10000 6.7 160 02:21 03.10.2019
888 Clouds 12 1015 62 10000 5.7 170 01:37 03.10.2019
889 Clouds 11 1016 62 10000 6.2 180 00:52 03.10.2019
890 Clouds 10 1016 71 10000 5.1 160 00:31 03.10.2019
891 Clouds 10 1016 66 10000 7.7 190 23:44 02.10.2019
892 Clouds 10 1015 66 10000 8.7 190 23:25 02.10.2019
893 Clouds 9 1015 70 10000 6.7 180 22:57 02.10.2019
894 Clouds 9 1015 70 10000 6.7 180 22:38 02.10.2019
895 Clouds 9 1015 81 10000 9.8 170 22:18 02.10.2019
896 Clouds 9 1015 70 10000 9.3 180 21:55 02.10.2019
897 Clouds 7 1015 70 10000 9.3 180 21:36 02.10.2019
898 Clear 6 1015 75 10000 10.8 180 21:18 02.10.2019
899 Clear 7 1014 66 10000 13.4 190 20:55 02.10.2019
900 Clear 7 1014 66 10000 13.4 190 20:36 02.10.2019
901 Clear 7 1014 66 10000 12.3 200 20:18 02.10.2019
902 Clear 7 1014 66 10000 12.9 200 19:43 02.10.2019
903 Clear 7 1014 70 10000 11.8 200 19:22 02.10.2019
904 Clear 7 1014 81 10000 10.3 180 18:58 02.10.2019
905 Clear 7 1014 81 10000 10.3 180 18:39 02.10.2019
906 Clear 7 1014 76 9000 11.3 200 18:21 02.10.2019
907 Rain 6 1014 81 10000 12.9 180 17:57 02.10.2019
908 Rain 7 1014 81 10000 12.9 180 17:38 02.10.2019
909 Clear 7 1013 70 10000 12.9 200 17:20 02.10.2019
910 Clear 7 1013 70 10000 14.9 200 16:45 02.10.2019
911 Clear 7 1014 81 10000 12.9 200 16:22 02.10.2019
912 Clear 7 1014 81 10000 12.9 200 15:59 02.10.2019
913 Clear 7 1014 81 9000 12.9 190 15:41 02.10.2019
914 -273 0 0 0 0 0 15:23 02.10.2019
915 Rain 6 1013 87 4500 13.4 200 14:58 02.10.2019
916 Rain 7 1013 76 10000 13.4 200 14:39 02.10.2019
917 Rain 7 1013 76 10000 13.4 200 14:20 02.10.2019
918 Rain 7 1013 81 6000 12.9 190 13:45 02.10.2019
919 Rain 6 1013 87 6000 12.9 190 13:26 02.10.2019
920 Rain 7 1012 76 10000 12.3 200 12:59 02.10.2019
921 Rain 7 1011 76 10000 11.8 220 12:38 02.10.2019
922 Rain 8 1011 76 10000 11.8 220 12:20 02.10.2019
923 Rain 7 1011 66 9000 13.4 190 11:45 02.10.2019
924 Rain 8 1011 66 9000 13.4 190 11:23 02.10.2019
925 Rain 7 1010 66 9000 14.9 190 10:42 02.10.2019
926 Rain 8 1010 66 10000 14.4 180 10:20 02.10.2019
927 Rain 8 1009 71 10000 15.4 200 09:59 02.10.2019
928 Rain 8 1009 71 9000 14.4 190 09:38 02.10.2019
929 Rain 8 1009 71 9000 14.4 190 09:20 02.10.2019
930 Clouds 8 1008 71 9000 14.9 190 08:46 02.10.2019
931 Clouds 8 1008 71 10000 15.4 190 08:25 02.10.2019
932 Rain 8 1007 76 10000 12.9 190 07:59 02.10.2019
933 Rain 7 1006 87 4200 15.9 190 07:39 02.10.2019
934 Rain 7 1006 87 4200 15.9 190 07:20 02.10.2019
935 Clouds 7 1004 81 10000 15.4 200 06:40 02.10.2019
936 Rain 7 1004 81 9000 14.9 200 05:55 02.10.2019
937 Rain 7 1003 81 6000 15.9 200 05:24 02.10.2019
938 Rain 6 1003 93 2900 17.5 200 04:53 02.10.2019
939 Rain 7 1002 93 3400 18.5 210 03:52 02.10.2019
940 Rain 13 1000 62 10000 7.7 350 02:42 02.10.2019
941 Rain 13 1000 62 10000 7.7 350 02:23 02.10.2019
942 Rain 14 1002 62 10000 9.8 360 01:40 02.10.2019
943 Rain 14 1002 58 10000 8.7 10 00:50 02.10.2019
944 Rain 13 1003 62 10000 7.7 360 00:26 02.10.2019
945 Clear 13 1004 62 10000 8.2 360 23:43 01.10.2019
946 Clear 13 1004 62 10000 8.2 360 23:25 01.10.2019
947 Clear 12 1004 58 10000 6.2 350 22:59 01.10.2019
948 Clear 12 1004 58 10000 7.7 360 22:40 01.10.2019
949 Clear 12 1004 58 10000 7.7 360 22:20 01.10.2019
950 Clear 12 1004 58 10000 7.7 360 22:20 01.10.2019
951 Clear 11 1004 62 10000 6.2 10 21:57 01.10.2019
952 Clear 10 1004 66 10000 5.7 360 21:38 01.10.2019
953 Clouds 9 1004 66 10000 5.7 360 21:20 01.10.2019
954 Clouds 9 1005 66 10000 6.2 350 20:56 01.10.2019
955 Clouds 9 1005 66 10000 6.2 350 20:38 01.10.2019
956 Clouds 9 1005 66 10000 6.2 350 20:19 01.10.2019
957 Clouds 9 1005 66 10000 5.7 340 19:56 01.10.2019
958 Clouds 9 1005 71 10000 7.2 350 19:38 01.10.2019
959 Clouds 8 1005 71 10000 7.2 350 19:18 01.10.2019
960 Clouds 7 1006 81 10000 7.2 350 18:40 01.10.2019
961 Clouds 7 1006 81 10000 7.2 350 18:22 01.10.2019
962 Clouds 6 1007 76 10000 6.2 360 17:58 01.10.2019
963 Clouds 7 1008 81 10000 5.1 30 17:40 01.10.2019
964 Clouds 6 1008 81 10000 5.1 30 17:19 01.10.2019
965 Clouds 5 1008 87 10000 5.1 30 16:57 01.10.2019
966 Clouds 4 1009 87 10000 4.1 20 16:39 01.10.2019
967 Clouds 4 1009 87 10000 4.1 20 16:21 01.10.2019
968 Clouds 4 1010 87 10000 4.1 20 15:46 01.10.2019
969 Clouds 4 1010 80 10000 3.1 20 15:23 01.10.2019
970 Clouds 4 1011 75 10000 1 70 14:42 01.10.2019
971 Clouds 4 1011 75 10000 1 70 14:21 01.10.2019
972 Clouds 5 1011 70 10000 1 70 13:59 01.10.2019
973 Clouds 5 1011 65 10000 3.1 190 13:40 01.10.2019
974 Clouds 5 1011 65 10000 3.1 190 13:21 01.10.2019
975 Clouds 5 1011 65 10000 3.1 190 13:21 01.10.2019
976 Clouds 5 1011 61 10000 4.6 190 12:58 01.10.2019
977 Clouds 6 1011 66 10000 5.7 180 12:39 01.10.2019
978 Clouds 7 1011 66 10000 5.7 180 12:19 01.10.2019
979 Clouds 7 1011 66 10000 6.2 180 11:58 01.10.2019
980 Clouds 7 1011 70 10000 7.2 180 11:38 01.10.2019
981 Clouds 8 1011 70 10000 7.2 180 11:18 01.10.2019
982 Clouds 7 1011 70 10000 8.2 180 10:49 01.10.2019
983 Clouds 7 1010 84 0 2.24 207 10:29 01.10.2019
984 Clouds 8 1010 76 10000 8.7 170 09:49 01.10.2019
985 Clouds 8 1010 76 10000 9.8 170 09:31 01.10.2019
986 Rain 8 1010 76 10000 10.3 170 08:57 01.10.2019
987 Rain 8 1009 76 10000 10.3 180 08:39 01.10.2019
988 Rain 8 1009 76 10000 10.3 180 08:21 01.10.2019
989 Rain 9 1009 66 10000 10.8 180 07:43 01.10.2019
990 Rain 9 1009 76 10000 9.8 170 07:24 01.10.2019
991 Rain 9 1009 81 10000 10.8 170 06:47 01.10.2019
992 Rain 9 1008 87 10000 10.8 180 06:18 01.10.2019
993 Rain 9 1008 81 10000 10.3 170 05:46 01.10.2019
994 Rain 9 1008 81 10000 10.3 170 05:18 01.10.2019
995 Rain 9 1008 87 10000 9.8 170 04:29 01.10.2019
996 Rain 9 1007 76 10000 8.2 180 02:28 01.10.2019
997 Rain 9 1007 76 10000 7.2 190 01:58 01.10.2019
998 Rain 10 1007 71 10000 6.7 170 00:53 01.10.2019
999 Rain 11 1007 76 10000 6.2 170 00:28 01.10.2019
1000 Rain 11 1006 81 10000 4.6 160 23:56 30.09.2019
1001 Drizzle 12 1006 81 10000 4.1 150 23:38 30.09.2019
1002 Drizzle 11 1006 81 10000 4.1 150 23:19 30.09.2019
1003 Rain 11 1006 81 10000 2.6 140 22:43 30.09.2019
1004 Rain 11 1006 81 10000 2.6 150 22:24 30.09.2019
1005 Drizzle 10 1006 81 10000 0.5 200 21:57 30.09.2019
1006 Rain 9 1006 87 10000 2.1 130 21:38 30.09.2019
1007 Rain 8 1006 87 10000 2.1 130 21:19 30.09.2019
1008 Rain 9 1006 81 10000 1.5 120 20:57 30.09.2019
1009 Rain 8 1005 81 10000 1.5 140 20:38 30.09.2019
1010 Rain 8 1005 81 10000 1.5 140 20:20 30.09.2019
1011 Rain 7 1005 87 10000 1 150 19:56 30.09.2019
1012 Rain 7 1005 87 10000 2.1 170 19:38 30.09.2019
1013 Rain 9 1005 87 10000 2.1 170 19:19 30.09.2019
1014 Rain 8 1005 87 10000 2.6 180 18:57 30.09.2019
1015 Rain 8 1005 87 10000 2.6 180 18:57 30.09.2019
1016 Rain 8 1004 87 10000 2.6 180 18:37 30.09.2019
1017 Rain 9 1004 87 10000 2.6 180 18:19 30.09.2019
1018 Rain 10 1004 87 10000 3.1 210 17:42 30.09.2019
1019 Rain 10 1004 87 10000 3.1 210 17:22 30.09.2019
1020 Rain 10 1004 87 10000 4.1 210 16:57 30.09.2019
1021 Rain 11 1004 87 10000 5.1 200 16:39 30.09.2019
1022 Rain 11 1004 87 10000 5.1 200 16:19 30.09.2019
1023 Rain 11 1004 87 10000 5.1 210 15:58 30.09.2019
1024 Rain 11 1003 93 10000 5.1 210 15:37 30.09.2019
1025 Rain 11 1003 93 10000 5.1 210 15:19 30.09.2019
1026 Rain 11 1003 81 10000 3.1 330 14:57 30.09.2019
1027 Rain 12 1002 81 10000 4.6 320 14:37 30.09.2019
1028 Rain 12 1002 81 10000 4.6 320 14:18 30.09.2019
1029 Rain 12 1002 81 10000 4.6 320 14:18 30.09.2019
1030 Rain 12 1002 81 10000 4.6 320 14:18 30.09.2019
1031 Rain 12 1002 76 10000 5.7 340 13:56 30.09.2019
1032 Rain 12 1002 71 10000 4.6 330 13:37 30.09.2019
1033 Rain 12 1002 71 10000 4.6 330 13:19 30.09.2019
1034 Rain 12 1001 71 10000 6.2 330 12:42 30.09.2019
1035 Clouds 12 1001 71 10000 6.2 330 12:22 30.09.2019
1036 Clouds 12 1001 67 10000 6.7 330 11:56 30.09.2019
1037 Clouds 12 1001 67 10000 6.7 330 11:56 30.09.2019
1038 Clouds 12 1001 67 10000 5.1 340 11:38 30.09.2019
1039 Clouds 12 1001 67 10000 5.1 340 11:19 30.09.2019
1040 Clouds 13 999 67 10000 7.2 310 10:41 30.09.2019
1041 Clouds 13 999 67 10000 7.2 310 10:41 30.09.2019
1042 Clouds 13 999 67 10000 7.2 310 10:19 30.09.2019
1043 Clouds 13 998 67 10000 9.3 310 09:59 30.09.2019
1044 Clouds 12 998 71 10000 5.7 330 09:39 30.09.2019
1045 Clouds 12 995 81 0 0.89 104 09:20 30.09.2019
1046 Clouds 13 998 71 10000 5.1 360 08:47 30.09.2019
1047 Clouds 13 998 71 10000 5.1 360 08:47 30.09.2019
1048 Clouds 13 997 71 10000 6.7 360 08:29 30.09.2019
1049 Clouds 13 997 76 10000 7.7 350 07:46 30.09.2019
1050 Clouds 14 997 77 10000 7.2 330 07:28 30.09.2019
1051 Clouds 14 997 87 10000 7.2 360 06:56 30.09.2019
1052 Clouds 14 997 87 10000 7.2 360 06:56 30.09.2019
1053 Clouds 14 997 87 10000 7.2 360 06:56 30.09.2019
1054 Clouds 13 997 87 10000 7.7 340 06:34 30.09.2019
1055 Clouds 13 997 87 10000 7.7 340 06:34 30.09.2019
1056 Clouds 13 997 82 10000 6.7 330 05:48 30.09.2019
1057 Clouds 13 997 82 10000 6.7 330 05:48 30.09.2019
1058 Clouds 13 997 93 10000 9.8 360 04:53 30.09.2019
1059 Rain 13 999 87 10000 8.7 350 02:48 30.09.2019
1060 Rain 14 1000 71 10000 9.3 360 01:39 30.09.2019
1061 Rain 13 1001 71 10000 9.3 10 00:43 30.09.2019
1062 Rain 14 1001 71 10000 9.3 10 00:23 30.09.2019
1063 Drizzle 14 1002 76 10000 9.3 10 23:56 29.09.2019
1064 Drizzle 14 1002 76 10000 9.3 10 23:38 29.09.2019
1065 Drizzle 13 1002 76 10000 9.3 10 23:19 29.09.2019
1066 Rain 13 1003 82 10000 10.3 360 22:42 29.09.2019
1067 Rain 13 1003 82 10000 10.3 360 22:23 29.09.2019
1068 Rain 13 1003 82 10000 10.3 360 22:23 29.09.2019
1069 Rain 13 1004 82 10000 10.3 350 21:58 29.09.2019
1070 Rain 13 1004 76 10000 10.8 350 21:38 29.09.2019
1071 Clouds 13 1004 76 10000 10.8 350 21:19 29.09.2019
1072 Clouds 13 1004 82 10000 11.3 350 20:57 29.09.2019
1073 Clouds 13 1004 82 10000 11.3 350 20:57 29.09.2019
1074 Clouds 13 1004 82 10000 11.3 340 20:39 29.09.2019
1075 Clouds 13 1004 82 10000 11.3 340 20:19 29.09.2019
1076 Clouds 13 1005 82 10000 10.8 340 19:39 29.09.2019
1077 Clouds 13 1005 82 10000 10.8 340 19:19 29.09.2019
1078 Clouds 13 1006 82 10000 12.9 350 18:57 29.09.2019
1079 Clouds 13 1006 82 10000 12.9 350 18:57 29.09.2019
1080 Clouds 13 1007 82 10000 10.3 340 18:39 29.09.2019
1081 Clear 13 1007 82 10000 10.3 340 18:20 29.09.2019
1082 Clear 14 1007 82 10000 9.8 340 17:59 29.09.2019
1083 Clear 14 1008 82 10000 11.8 350 17:41 29.09.2019
1084 Clear 13 1008 82 10000 11.8 350 17:20 29.09.2019
1085 Clear 13 1008 87 10000 11.8 350 17:00 29.09.2019
1086 Clear 13 1008 87 10000 11.8 350 17:00 29.09.2019
1087 Clear 13 1008 87 10000 11.8 350 17:00 29.09.2019
1088 Clear 13 1009 87 10000 9.3 350 16:41 29.09.2019
1089 Clear 13 1009 87 10000 9.3 350 16:20 29.09.2019
1090 Clear 14 1009 82 10000 10.3 350 15:58 29.09.2019
1091 Clear 14 1009 87 10000 9.8 350 15:37 29.09.2019
1092 Clouds 14 1009 87 10000 9.8 350 15:18 29.09.2019
1093 Clouds 13 1009 82 10000 9.3 340 14:56 29.09.2019
1094 Clouds 13 1010 87 10000 9.3 340 14:37 29.09.2019
1095 Clouds 13 1010 87 10000 9.3 340 14:18 29.09.2019
1096 Clouds 14 1011 87 10000 9.3 350 13:55 29.09.2019
1097 Clouds 13 1011 82 10000 9.8 350 13:36 29.09.2019
1098 Clouds 13 1011 82 10000 9.8 350 13:18 29.09.2019
1099 Clouds 13 1011 87 10000 10.8 350 12:55 29.09.2019
1100 Clouds 13 1011 87 10000 10.8 350 12:55 29.09.2019
1101 Clouds 14 1011 82 10000 10.3 340 12:37 29.09.2019
1102 Clouds 14 1011 82 10000 10.3 340 12:18 29.09.2019
1103 Clouds 13 1011 93 10000 9.8 340 11:41 29.09.2019
1104 Clouds 13 1011 93 10000 9.8 340 11:19 29.09.2019
1105 Clouds 14 1011 82 10000 10.8 330 10:58 29.09.2019
1106 Clouds 14 1011 82 10000 10.8 330 10:58 29.09.2019
1107 Clouds 14 1011 82 10000 8.7 340 10:38 29.09.2019
1108 Clouds 14 1011 82 10000 8.7 340 10:20 29.09.2019
1109 Clouds 13 1011 87 10000 8.7 340 09:57 29.09.2019
1110 Clouds 14 1011 87 10000 9.8 340 09:38 29.09.2019
1111 Clouds 14 1011 87 10000 9.8 340 09:18 29.09.2019
1112 Clouds 14 1011 82 10000 10.8 350 08:42 29.09.2019
1113 Clouds 14 1011 82 10000 10.8 350 08:21 29.09.2019
1114 Clouds 14 1011 82 10000 10.8 340 07:44 29.09.2019
1115 Clouds 14 1011 82 10000 10.8 340 07:26 29.09.2019
1116 Clouds 14 1012 82 10000 8.7 340 06:49 29.09.2019
1117 Clouds 15 1012 82 10000 9.8 350 05:58 29.09.2019
1118 Clouds 14 1013 82 10000 9.8 350 04:45 29.09.2019
1119 -273 0 0 0 0 0 04:45 29.09.2019
1120 Clouds 15 1013 87 10000 10.8 360 04:23 29.09.2019
1121 Clouds 15 1014 77 10000 9.3 350 02:58 29.09.2019
1122 Clouds 15 1013 77 10000 9.8 350 02:19 29.09.2019
1123 Clouds 15 1014 77 10000 10.8 360 01:40 29.09.2019
1124 Clouds 14 1014 82 10000 10.3 360 00:55 29.09.2019
1125 Clouds 14 1014 82 10000 8.7 10 00:36 29.09.2019
1126 Clouds 15 1014 82 10000 8.7 10 00:18 29.09.2019
1127 Clouds 14 1014 77 10000 8.7 10 23:37 28.09.2019
1128 Clouds 14 1014 77 10000 8.7 10 23:37 28.09.2019
1129 Clouds 14 1014 77 10000 8.7 10 23:19 28.09.2019
1130 Clouds 14 1014 72 10000 9.3 360 22:40 28.09.2019
1131 Clouds 14 1014 72 10000 9.3 360 22:21 28.09.2019
1132 Clouds 14 1014 76 10000 8.2 10 21:58 28.09.2019
1133 Clouds 14 1014 76 10000 7.2 10 21:40 28.09.2019
1134 Clouds 13 1014 76 10000 7.2 10 21:21 28.09.2019
1135 Clouds 12 1013 76 10000 9.3 10 20:57 28.09.2019
1136 Clouds 12 1013 76 10000 7.7 10 20:39 28.09.2019
1137 Clouds 12 1013 76 10000 7.7 10 20:19 28.09.2019
1138 Clouds 12 1013 76 10000 7.7 10 20:19 28.09.2019
1139 Clouds 12 1013 76 10000 8.2 10 19:56 28.09.2019
1140 Clouds 12 1013 76 10000 8.2 10 19:38 28.09.2019
1141 Clouds 13 1013 76 10000 8.2 10 19:20 28.09.2019
1142 Clouds 13 1013 76 10000 7.7 20 18:57 28.09.2019
1143 Clouds 12 1013 71 10000 7.2 10 18:38 28.09.2019
1144 Clouds 12 1013 71 10000 7.2 10 18:20 28.09.2019
1145 Clouds 12 1012 71 10000 8.2 10 17:56 28.09.2019
1146 Clouds 12 1012 71 10000 10.3 360 17:37 28.09.2019
1147 Clouds 13 1012 71 10000 10.3 360 17:19 28.09.2019
1148 Clouds 13 1013 76 10000 8.7 360 16:41 28.09.2019
1149 Clouds 13 1013 76 10000 8.7 360 16:23 28.09.2019
1150 Clouds 13 1013 76 10000 8.7 360 15:42 28.09.2019
1151 Clear 13 1013 76 10000 8.7 360 15:23 28.09.2019
1152 Clear 13 1013 71 10000 8.7 360 14:57 28.09.2019
1153 Clear 13 1013 62 10000 8.7 340 14:39 28.09.2019
1154 Clear 13 1013 62 10000 8.7 340 14:21 28.09.2019
1155 Clear 13 1013 67 10000 8.7 340 13:57 28.09.2019
1156 Clear 13 1013 67 10000 8.2 350 13:38 28.09.2019
1157 Clouds 13 1013 67 10000 8.2 350 13:19 28.09.2019
1158 Clouds 13 1013 76 10000 9.3 360 12:44 28.09.2019
1159 Clear 13 1013 76 10000 9.3 360 12:20 28.09.2019
1160 Clear 13 1013 76 10000 8.2 360 11:55 28.09.2019
1161 Clear 13 1012 76 10000 8.2 350 11:37 28.09.2019
1162 Clear 13 1012 76 10000 8.2 350 11:18 28.09.2019
1163 Clear 13 1012 67 10000 8.2 350 10:42 28.09.2019
1164 Clear 13 1012 67 10000 8.2 350 10:20 28.09.2019
1165 Clear 13 1012 67 10000 7.2 350 09:56 28.09.2019
1166 Clear 13 1011 76 10000 8.2 350 09:37 28.09.2019
1167 Clear 13 1011 76 10000 8.2 350 09:18 28.09.2019
1168 Clear 13 1010 76 10000 8.7 10 08:44 28.09.2019
1169 Clear 13 1010 76 10000 9.3 10 08:26 28.09.2019
1170 Clear 14 1010 71 10000 9.8 360 07:45 28.09.2019
1171 Clear 14 1010 71 10000 10.3 360 07:21 28.09.2019
1172 Clear 14 1010 67 10000 10.3 350 06:55 28.09.2019
1173 Clear 14 1010 62 10000 10.8 360 06:31 28.09.2019
1174 Clear 16 1010 59 10000 10.3 360 05:55 28.09.2019
1175 Clear 16 1010 59 10000 11.3 360 05:21 28.09.2019
1176 Clear 16 1010 59 10000 11.3 360 04:40 28.09.2019
1177 Clear 15 1010 59 10000 11.8 360 03:58 28.09.2019
1178 Clear 15 1010 59 10000 11.8 360 03:58 28.09.2019
1179 Clear 16 1011 59 10000 11.3 360 03:24 28.09.2019
1180 Clear 16 1011 59 10000 10.8 360 02:57 28.09.2019
1181 Clear 16 1011 59 10000 9.3 350 02:34 28.09.2019
1182 Clear 17 1011 63 10000 9.8 360 01:50 28.09.2019
1183 Clouds 16 1011 55 10000 10.3 350 01:27 28.09.2019
1184 Clouds 16 1011 58 10000 9.8 350 00:58 28.09.2019
1185 Clouds 16 1011 62 10000 10.3 360 00:38 28.09.2019
1186 Clouds 15 1011 62 10000 10.3 360 00:18 28.09.2019
1187 Clouds 14 1011 67 10000 9.8 360 23:37 27.09.2019
1188 Clouds 15 1011 67 10000 9.8 360 23:19 27.09.2019
1189 Clouds 14 1011 71 10000 9.8 360 22:47 27.09.2019
1190 Clouds 14 1011 66 10000 8.7 350 22:19 27.09.2019
1191 Clouds 13 1011 71 10000 9.3 350 21:57 27.09.2019
1192 Clouds 12 1011 66 10000 9.3 350 21:37 27.09.2019
1193 Clear 13 1011 66 10000 9.3 350 21:19 27.09.2019
1194 Clear 12 1011 71 10000 9.3 350 20:58 27.09.2019
1195 Clear 12 1010 71 10000 8.2 350 20:39 27.09.2019
1196 Clear 12 1010 71 10000 8.2 350 20:19 27.09.2019
1197 Clear 11 1010 71 10000 8.2 360 19:57 27.09.2019
1198 Clear 12 1010 76 10000 7.7 360 19:37 27.09.2019
1199 Clear 11 1010 76 10000 7.7 360 19:18 27.09.2019
1200 Clear 11 1010 76 10000 7.7 10 18:40 27.09.2019
1201 Clear 11 1010 76 10000 7.7 10 18:22 27.09.2019
1202 Clear 11 1010 76 10000 8.2 360 17:56 27.09.2019
1203 Clear 11 1010 76 10000 7.7 10 17:37 27.09.2019
1204 Clear 11 1010 76 10000 7.7 10 17:18 27.09.2019
1205 Clear 11 1010 81 10000 7.2 20 16:57 27.09.2019
1206 Clear 11 1010 81 10000 7.2 20 16:56 27.09.2019
1207 Clear 12 1011 81 10000 6.2 30 16:37 27.09.2019
1208 Clear 12 1011 81 10000 6.2 30 16:37 27.09.2019
1209 Clear 10 1011 81 10000 6.2 30 16:18 27.09.2019
1210 Clear 10 1011 81 10000 5.7 20 15:44 27.09.2019
1211 Clear 10 1011 81 10000 5.7 20 15:20 27.09.2019
1212 Clear 10 1011 81 10000 7.2 360 14:57 27.09.2019
1213 Clear 10 1011 81 10000 3.6 30 14:39 27.09.2019
1214 Clear 10 1011 81 10000 3.6 30 14:20 27.09.2019
1215 Clear 10 1011 87 10000 3.6 20 13:57 27.09.2019
1216 Clear 9 1011 87 10000 4.6 20 13:39 27.09.2019
1217 Clear 9 1011 87 10000 4.6 20 13:20 27.09.2019
1218 Clear 10 1011 81 10000 3.6 20 12:52 27.09.2019
1219 Clear 10 1011 76 10000 4.6 10 12:23 27.09.2019
1220 Clear 10 1011 76 10000 4.1 20 11:57 27.09.2019
1221 Clear 10 1011 81 10000 4.1 10 11:38 27.09.2019
1222 Clear 10 1011 81 10000 4.1 10 11:19 27.09.2019
1223 Clear 10 1011 76 10000 4.6 10 10:43 27.09.2019
1224 Clear 10 1011 76 10000 4.6 10 10:21 27.09.2019
1225 Clear 11 1010 66 10000 4.6 10 09:56 27.09.2019
1226 Clear 12 1010 66 10000 4.6 10 09:38 27.09.2019
1227 Clouds 12 1010 66 10000 4.6 10 09:18 27.09.2019
1228 Clouds 12 1009 66 10000 4.1 360 08:41 27.09.2019
1229 Clouds 13 1009 66 10000 4.1 360 08:21 27.09.2019
1230 Clouds 13 1009 66 10000 4.1 360 08:21 27.09.2019
1231 Clouds 13 1009 62 10000 1.5 210 07:49 27.09.2019
1232 Clouds 14 1009 58 10000 1.5 200 07:26 27.09.2019
1233 Clouds 14 1009 58 10000 2.6 190 06:46 27.09.2019
1234 Clouds 15 1009 58 10000 2.6 190 06:28 27.09.2019
1235 Clouds 15 1009 62 10000 3.1 190 05:54 27.09.2019
1236 Clouds 15 1009 66 10000 4.1 170 05:33 27.09.2019
1237 Clouds 15 1009 67 10000 5.1 160 04:24 27.09.2019
1238 Clouds 15 1009 66 10000 5.7 170 03:38 27.09.2019
1239 Clouds 15 1009 71 10000 5.7 170 01:53 27.09.2019
1240 Clouds 15 1009 67 10000 6.2 160 01:30 27.09.2019
1241 Clouds 15 1008 71 10000 6.2 150 00:34 27.09.2019
1242 Clouds 14 1008 71 10000 6.2 150 23:57 26.09.2019
1243 Clouds 14 1007 71 10000 2.6 200 23:39 26.09.2019
1244 Clouds 14 1007 71 10000 2.6 200 23:19 26.09.2019
1245 Clouds 14 1007 62 10000 1 100 22:58 26.09.2019
1246 Clouds 14 1007 62 10000 1 100 22:58 26.09.2019
1247 Clouds 13 1006 71 10000 3.1 60 22:39 26.09.2019
1248 Clouds 13 1006 71 10000 3.1 60 22:18 26.09.2019
1249 Clouds 12 1006 76 10000 1.5 50 21:58 26.09.2019
1250 Clouds 10 1005 76 10000 2.1 20 21:37 26.09.2019
1251 Clouds 9 1005 76 10000 2.1 20 21:19 26.09.2019
1252 Clouds 9 1005 76 10000 2.1 20 21:19 26.09.2019
1253 Clouds 10 1005 76 10000 2.1 30 20:58 26.09.2019
1254 Clouds 9 1004 76 10000 2.1 20 20:39 26.09.2019
1255 Clouds 9 1004 76 10000 2.1 20 20:21 26.09.2019
1256 Clouds 8 1004 76 10000 2.1 60 19:56 26.09.2019
1257 Clouds 8 1004 75 10000 1.5 50 19:37 26.09.2019
1258 Clouds 8 1004 75 10000 2.1 30 19:18 26.09.2019
1259 Clouds 8 1004 75 10000 2.1 30 19:18 26.09.2019
1260 Clouds 10 1003 66 10000 1.5 50 18:42 26.09.2019
1261 Clouds 10 1003 66 10000 1.5 50 18:22 26.09.2019
1262 Clouds 10 1003 66 10000 1.5 50 18:22 26.09.2019
1263 Clouds 11 1003 66 10000 2.6 10 17:59 26.09.2019
1264 Clouds 11 1003 66 10000 3.1 30 17:38 26.09.2019
1265 Clouds 11 1003 66 10000 3.1 30 17:19 26.09.2019
1266 Clouds 11 1003 58 10000 2.1 110 16:55 26.09.2019
1267 Clouds 11 1003 50 10000 3.6 260 16:37 26.09.2019
1268 Clouds 11 1003 50 10000 3.6 260 16:18 26.09.2019
1269 Clouds 12 1002 47 10000 4.6 270 15:42 26.09.2019
1270 Clear 12 1002 47 10000 4.6 270 15:23 26.09.2019
1271 Clear 12 1002 50 10000 1.5 50 14:59 26.09.2019
1272 Clear 11 1002 50 10000 2.1 40 14:40 26.09.2019
1273 Clear 12 1002 50 10000 2.1 40 14:21 26.09.2019
1274 Clear 12 1002 50 10000 3.1 200 13:57 26.09.2019
1275 Clear 12 1001 50 10000 4.6 50 13:39 26.09.2019
1276 Clear 12 1001 50 10000 4.6 50 13:39 26.09.2019
1277 Clear 12 1001 50 10000 4.6 50 13:19 26.09.2019
1278 Clear 12 1001 47 10000 2.6 20 12:43 26.09.2019
1279 Clear 12 1001 47 10000 2.6 20 12:23 26.09.2019
1280 Clear 12 1001 47 10000 2.1 360 11:57 26.09.2019
1281 Clear 12 1001 47 10000 4.6 290 11:39 26.09.2019
1282 Clear 12 1001 47 10000 4.6 290 11:39 26.09.2019
1283 Clear 12 1001 47 10000 4.6 290 11:19 26.09.2019
1284 Clear 12 1001 47 10000 4.6 290 11:19 26.09.2019
1285 Clear 12 1000 43 10000 3.6 310 10:42 26.09.2019
1286 Clear 12 1000 43 10000 3.6 310 10:23 26.09.2019
1287 Clear 12 1000 47 10000 3.6 330 09:58 26.09.2019
1288 Clear 12 1000 43 10000 6.2 320 09:40 26.09.2019
1289 Clear 12 1000 43 10000 6.2 320 09:19 26.09.2019
1290 Clear 12 1000 44 10000 6.7 330 08:51 26.09.2019
1291 Clear 12 1000 54 10000 4.1 340 08:31 26.09.2019
1292 Clear 13 1000 47 10000 6.7 330 07:47 26.09.2019
1293 Clear 13 1000 47 10000 5.7 350 07:22 26.09.2019
1294 Clear 13 1000 47 10000 5.7 350 07:22 26.09.2019
1295 Clear 13 1000 44 10000 7.2 330 06:55 26.09.2019
1296 Clear 12 1000 50 10000 7.7 340 06:29 26.09.2019
1297 Clear 13 1001 47 10000 8.7 320 05:59 26.09.2019
1298 Clear 13 1001 50 10000 10.3 310 05:29 26.09.2019
1299 Clear 13 1001 41 10000 7.7 310 03:51 26.09.2019
1300 Clear 14 1003 35 10000 7.7 330 02:25 26.09.2019
1301 Clear 13 1003 40 10000 8.2 330 01:48 26.09.2019
1302 Clear 13 1003 40 10000 6.2 320 01:22 26.09.2019
1303 Clear 13 1003 43 10000 3.6 280 00:45 26.09.2019
1304 Clear 12 1003 43 10000 3.6 280 00:25 26.09.2019
1305 Clear 11 1003 53 10000 2.6 210 23:43 25.09.2019
1306 Clear 10 1003 53 10000 2.6 210 23:23 25.09.2019
1307 Clear 10 1003 53 10000 4.1 200 22:55 25.09.2019
1308 Clear 9 1003 57 10000 5.7 210 22:37 25.09.2019
1309 Clear 9 1003 57 10000 5.7 210 22:18 25.09.2019
1310 Clear 8 1002 61 10000 6.2 210 21:55 25.09.2019
1311 Clear 7 1002 61 10000 7.2 210 21:37 25.09.2019
1312 Clouds 6 1002 61 10000 7.2 210 21:18 25.09.2019
1313 Clouds 5 1001 61 10000 8.7 210 20:55 25.09.2019
1314 Clear 5 1001 61 10000 9.3 200 20:37 25.09.2019
1315 Clear 5 1001 61 10000 9.3 200 20:18 25.09.2019
1316 Clear 5 1000 61 10000 11.3 200 19:40 25.09.2019
1317 Clear 5 1000 61 10000 11.3 200 19:21 25.09.2019
1318 Clear 5 999 61 10000 12.9 190 18:56 25.09.2019
1319 Clear 5 999 57 10000 14.9 210 18:38 25.09.2019
1320 Rain 5 999 57 10000 14.9 210 18:19 25.09.2019
1321 Rain 6 997 70 10000 14.9 200 17:40 25.09.2019
1322 Rain 6 997 70 10000 14.9 200 17:22 25.09.2019
1323 Rain 6 997 70 10000 14.4 210 16:58 25.09.2019
1324 Rain 6 997 70 10000 14.4 210 16:58 25.09.2019
1325 Rain 6 997 76 10000 15.4 200 16:40 25.09.2019
1326 Rain 6 997 76 10000 15.4 200 16:22 25.09.2019
1327 Rain 6 996 76 10000 12.3 200 15:56 25.09.2019
1328 Rain 6 996 76 10000 10.8 200 15:38 25.09.2019
1329 Rain 7 996 76 10000 10.8 200 15:19 25.09.2019
1330 Rain 7 995 71 10000 9.8 210 14:42 25.09.2019
1331 Rain 7 995 71 10000 9.8 210 14:22 25.09.2019
1332 Rain 7 994 76 10000 9.3 210 13:58 25.09.2019
1333 Rain 7 994 76 10000 8.7 210 13:39 25.09.2019
1334 Rain 7 994 76 10000 8.7 210 13:20 25.09.2019
1335 Rain 8 993 76 10000 9.8 210 12:54 25.09.2019
1336 Rain 8 992 87 10000 12.3 210 12:36 25.09.2019
1337 Rain 9 992 87 10000 12.3 210 12:18 25.09.2019
1338 Clouds 9 991 50 10000 8.7 260 11:40 25.09.2019
1339 Clouds 9 991 50 10000 8.7 260 11:20 25.09.2019
1340 Clouds 10 990 50 10000 7.7 270 10:47 25.09.2019
1341 Clouds 10 990 61 10000 8.7 280 10:27 25.09.2019
1342 Clouds 10 990 61 10000 10.3 290 09:59 25.09.2019
1343 Clouds 10 990 61 10000 10.3 290 09:59 25.09.2019
1344 Clouds 10 990 61 10000 9.3 280 09:40 25.09.2019
1345 Clouds 10 990 57 10000 9.3 280 09:22 25.09.2019
1346 Clouds 11 989 46 10000 5.7 290 08:56 25.09.2019
1347 Clouds 11 989 46 10000 5.7 290 08:56 25.09.2019
1348 Clouds 11 990 55 10000 7.7 290 08:37 25.09.2019
1349 Clouds 11 990 55 10000 7.7 290 08:19 25.09.2019
1350 Clouds 12 990 62 10000 5.7 320 07:40 25.09.2019
1351 Clouds 13 990 62 10000 5.7 320 07:22 25.09.2019
1352 Clouds 13 990 58 10000 7.2 330 06:52 25.09.2019
1353 Clouds 13 990 62 10000 8.2 340 06:32 25.09.2019
1354 Clouds 12 992 66 10000 9.3 320 05:39 25.09.2019
1355 Clouds 13 992 62 10000 9.3 340 04:57 25.09.2019
1356 Clouds 13 996 58 10000 7.2 350 02:32 25.09.2019
1357 Clouds 14 997 50 10000 5.1 330 01:19 25.09.2019
1358 Clouds 13 997 43 10000 7.2 340 00:37 25.09.2019
1359 Clouds 13 997 43 10000 7.2 340 00:18 25.09.2019
1360 Clouds 12 997 54 10000 6.2 330 23:41 24.09.2019
1361 Clouds 12 997 54 10000 6.2 330 23:21 24.09.2019
1362 Clouds 12 998 53 10000 6.2 320 22:56 24.09.2019
1363 Clouds 11 998 50 10000 7.2 320 22:36 24.09.2019
1364 Clouds 10 998 50 10000 7.2 320 22:18 24.09.2019
1365 Clouds 10 998 50 10000 7.2 320 22:18 24.09.2019
1366 Clouds 10 998 50 10000 7.2 320 22:18 24.09.2019
1367 Clouds 10 998 50 10000 4.1 330 21:54 24.09.2019
1368 Clouds 10 998 57 10000 4.1 360 21:36 24.09.2019
1369 Clear 9 998 57 10000 4.1 360 21:18 24.09.2019
1370 Clear 9 998 57 10000 4.1 360 21:18 24.09.2019
1371 Clear 8 998 57 10000 3.1 30 20:54 24.09.2019
1372 Clear 8 998 57 10000 2.6 360 20:36 24.09.2019
1373 Clear 8 998 57 10000 2.6 360 20:18 24.09.2019
1374 Clear 7 997 65 10000 3.6 30 19:41 24.09.2019
1375 Clear 7 997 65 10000 3.6 30 19:19 24.09.2019
1376 Clear 8 997 70 10000 3.1 20 18:56 24.09.2019
1377 Clear 8 997 70 10000 3.1 20 18:56 24.09.2019
1378 Clear 8 997 61 10000 3.1 340 18:38 24.09.2019
1379 Clear 8 997 61 10000 3.1 340 18:20 24.09.2019
1380 Clear 8 997 66 10000 3.1 330 17:55 24.09.2019
1381 Clear 7 998 70 10000 1.5 350 17:37 24.09.2019
1382 Clear 7 998 70 10000 1.5 350 17:19 24.09.2019
1383 Clear 7 998 81 10000 2.1 340 16:42 24.09.2019
1384 Clear 7 998 81 10000 2.1 340 16:20 24.09.2019
1385 Clear 7 998 87 10000 2.6 340 15:58 24.09.2019
1386 Clear 7 998 87 10000 2.1 340 15:38 24.09.2019
1387 Clouds 7 998 87 10000 2.1 340 15:20 24.09.2019
1388 Clouds 8 999 93 10000 2.1 360 14:39 24.09.2019
1389 Clouds 9 999 93 10000 2.1 360 14:18 24.09.2019
1390 Clouds 8 999 81 10000 1.5 30 13:45 24.09.2019
1391 Clouds 8 999 81 10000 1 10 13:22 24.09.2019
1392 Clouds 9 999 81 10000 1 360 12:56 24.09.2019
1393 Clouds 9 999 87 10000 0.5 350 12:36 24.09.2019
1394 Clouds 9 999 87 10000 0.5 350 12:18 24.09.2019
1395 Clouds 10 999 81 10000 1.5 270 11:41 24.09.2019
1396 Clouds 9 999 81 10000 1.5 270 11:21 24.09.2019
1397 -273 0 0 0 0 0 10:55 24.09.2019
1398 Clouds 9 999 76 10000 3.1 220 10:36 24.09.2019
1399 Clouds 10 999 76 10000 3.1 220 10:18 24.09.2019
1400 Clouds 10 998 76 10000 3.6 190 09:43 24.09.2019
1401 Clouds 10 998 76 10000 4.6 210 09:21 24.09.2019
1402 Clouds 11 998 76 10000 2.6 190 08:57 24.09.2019
1403 Clouds 11 998 76 10000 2.6 190 08:57 24.09.2019
1404 Clouds 11 998 76 10000 2.6 160 08:38 24.09.2019
1405 Clouds 11 998 76 10000 2.6 160 08:19 24.09.2019
1406 Clouds 12 998 71 10000 3.6 180 07:46 24.09.2019
1407 Clouds 12 997 66 10000 3.6 170 07:25 24.09.2019
1408 Clouds 13 997 66 10000 4.1 170 06:51 24.09.2019
1409 Clouds 13 997 62 10000 4.6 160 06:32 24.09.2019
1410 Clouds 13 996 62 10000 4.6 170 05:51 24.09.2019
1411 Clouds 13 997 54 10000 5.1 150 05:18 24.09.2019
1412 Clouds 14 997 76 10000 2.6 170 03:44 24.09.2019
1413 Clouds 15 997 67 10000 1.5 90 02:48 24.09.2019
1414 Clouds 15 997 67 10000 3.6 50 02:30 24.09.2019
1415 Clouds 14 999 77 10000 5.7 10 00:44 24.09.2019
1416 Clouds 14 999 77 10000 5.7 10 00:26 24.09.2019
1417 Clouds 14 999 82 10000 4.6 10 23:58 23.09.2019
1418 Clouds 14 999 82 10000 4.6 20 23:40 23.09.2019
1419 Clouds 13 999 82 10000 4.6 20 23:20 23.09.2019
1420 Clouds 13 1000 87 10000 5.1 30 22:39 23.09.2019
1421 Clouds 13 1000 87 10000 5.1 30 22:21 23.09.2019
1422 Clouds 12 1000 87 10000 3.1 30 21:58 23.09.2019
1423 Clouds 13 999 87 10000 7.2 20 21:39 23.09.2019
1424 Clouds 12 999 87 10000 7.2 20 21:19 23.09.2019
1425 Clouds 12 1000 87 10000 5.1 360 20:41 23.09.2019
1426 Clouds 12 1000 87 10000 5.1 360 20:20 23.09.2019
1427 Clouds 12 1000 87 10000 5.1 360 20:20 23.09.2019
1428 Clouds 12 999 87 10000 6.2 50 19:59 23.09.2019
1429 Clouds 12 999 93 10000 4.1 20 19:39 23.09.2019
1430 Clouds 12 999 93 10000 4.1 20 19:21 23.09.2019
1431 Clouds 12 998 96 0 1.34 344 18:55 23.09.2019
1432 Clouds 12 999 87 10000 8.7 340 18:37 23.09.2019
1433 Clouds 12 999 87 10000 8.7 340 18:37 23.09.2019
1434 Clouds 12 999 87 10000 8.7 340 18:37 23.09.2019
1435 Rain 12 999 91 0 1.79 358 18:18 23.09.2019
1436 Rain 12 999 92 0 2.68 341 17:55 23.09.2019
1437 Rain 13 1000 87 9000 10.8 350 17:36 23.09.2019
1438 Rain 12 1000 93 0 4.02 342 17:18 23.09.2019
1439 Rain 13 1003 87 4200 8.7 340 16:40 23.09.2019
1440 Rain 13 1003 87 4200 8.7 340 16:22 23.09.2019
1441 Rain 13 1003 87 10000 10.8 340 15:59 23.09.2019
1442 Clouds 13 1004 87 10000 11.3 330 15:41 23.09.2019
1443 Clouds 13 1004 87 10000 11.3 330 15:20 23.09.2019
1444 Clouds 13 1004 87 10000 10.3 330 14:58 23.09.2019
1445 Clouds 13 1004 87 10000 11.8 340 14:39 23.09.2019
1446 Clouds 13 1004 87 10000 11.8 340 14:19 23.09.2019
1447 Clouds 13 1005 87 10000 12.3 330 13:57 23.09.2019
1448 Clouds 13 1005 87 8000 12.3 330 13:37 23.09.2019
1449 Rain 13 1005 87 8000 12.3 330 13:18 23.09.2019
1450 Rain 13 1005 87 8000 12.3 330 13:18 23.09.2019
1451 Rain 13 1006 87 10000 12.3 340 12:40 23.09.2019
1452 Rain 13 1007 87 6000 11.8 350 12:21 23.09.2019
1453 Rain 13 1007 87 6000 11.8 350 11:55 23.09.2019
1454 Rain 13 1007 87 9000 10.3 350 11:37 23.09.2019
1455 Rain 13 1007 87 9000 10.3 350 11:18 23.09.2019
1456 Rain 13 1009 87 10000 10.8 340 10:44 23.09.2019
1457 Rain 13 1009 87 6000 10.8 350 10:20 23.09.2019
1458 Rain 13 1010 87 10000 10.8 340 09:43 23.09.2019
1459 Rain 13 1010 87 10000 10.8 340 09:25 23.09.2019
1460 Clouds 13 1010 87 10000 11.3 350 08:58 23.09.2019
1461 Rain 13 1010 87 8000 10.3 350 08:38 23.09.2019
1462 Rain 13 1010 87 8000 10.3 350 08:18 23.09.2019
1463 Rain 13 1010 87 8000 10.3 350 08:18 23.09.2019
1464 Clouds 13 1009 77 10000 13.4 350 07:34 23.09.2019
1465 Clouds 14 1011 77 10000 11.3 340 06:58 23.09.2019
1466 Clouds 14 1011 77 10000 11.3 340 06:20 23.09.2019
1467 Clouds 13 1012 82 10000 8.7 340 05:28 23.09.2019
1468 Clouds 13 1013 82 10000 8.2 340 04:56 23.09.2019
1469 Clouds 14 1013 72 10000 7.7 340 03:59 23.09.2019
1470 Clouds 14 1016 62 10000 13.4 360 01:25 23.09.2019
1471 Clouds 14 1017 67 10000 12.3 360 00:26 23.09.2019
1472 Clouds 14 1017 62 10000 12.3 360 23:58 22.09.2019
1473 Clouds 13 1017 66 10000 11.8 350 23:40 22.09.2019
1474 Clouds 13 1017 66 10000 11.8 350 23:21 22.09.2019
1475 Clouds 13 1017 62 10000 12.3 350 22:55 22.09.2019
1476 Clouds 12 1017 66 10000 11.8 350 22:37 22.09.2019
1477 Clouds 12 1017 66 10000 11.8 350 22:18 22.09.2019
1478 Clouds 12 1018 71 10000 11.3 360 21:42 22.09.2019
1479 Clouds 12 1018 71 10000 11.3 360 21:42 22.09.2019
1480 Clouds 12 1018 71 10000 11.3 360 21:20 22.09.2019
1481 Clouds 11 1018 71 10000 11.3 360 20:45 22.09.2019
1482 Clouds 11 1018 71 10000 11.3 360 20:45 22.09.2019
1483 Clouds 11 1018 76 10000 12.3 360 20:27 22.09.2019
1484 Clouds 11 1018 71 10000 11.8 360 19:59 22.09.2019
1485 Clouds 11 1019 66 10000 12.3 350 19:40 22.09.2019
1486 Clouds 11 1019 66 10000 12.3 350 19:40 22.09.2019
1487 Clouds 11 1019 66 10000 12.3 350 19:20 22.09.2019
1488 Clouds 11 1019 71 10000 12.3 360 18:57 22.09.2019
1489 Clouds 11 1019 71 10000 12.3 360 18:57 22.09.2019
1490 Clouds 11 1019 71 10000 10.8 350 18:38 22.09.2019
1491 Clouds 11 1019 71 10000 10.8 350 18:18 22.09.2019
1492 Clouds 11 1020 76 10000 12.3 360 17:46 22.09.2019
1493 Clouds 11 1020 76 10000 12.3 360 17:27 22.09.2019
1494 Clouds 11 1020 71 10000 12.3 350 16:57 22.09.2019
1495 Clouds 11 1020 71 10000 12.3 350 16:57 22.09.2019
1496 Clouds 11 1021 76 10000 12.3 350 16:39 22.09.2019
1497 Clouds 11 1021 76 10000 12.3 350 16:20 22.09.2019
1498 Clouds 11 1021 76 10000 12.3 360 15:45 22.09.2019
1499 Clouds 11 1021 76 10000 12.3 360 15:26 22.09.2019
1500 Clouds 11 1022 76 10000 10.8 360 14:55 22.09.2019
1501 Clouds 11 1022 76 10000 12.3 360 14:37 22.09.2019
1502 Clouds 11 1022 76 10000 12.3 360 14:19 22.09.2019
1503 Clouds 11 1023 71 10000 11.8 360 13:43 22.09.2019
1504 Clouds 11 1023 71 10000 11.8 360 13:25 22.09.2019
1505 Clouds 11 1023 71 10000 12.9 10 12:57 22.09.2019
1506 Clouds 11 1024 71 10000 12.3 360 12:39 22.09.2019
1507 Clear 11 1024 71 10000 12.3 360 12:19 22.09.2019
1508 Clear 11 1024 76 10000 13.4 360 11:56 22.09.2019
1509 Clear 11 1024 71 10000 12.3 360 11:37 22.09.2019
1510 Clear 11 1024 71 10000 12.3 360 11:18 22.09.2019
1511 Clear 11 1025 76 10000 13.4 360 10:42 22.09.2019
1512 Clear 11 1025 76 10000 13.4 360 10:42 22.09.2019
1513 Clear 11 1025 76 10000 13.4 360 10:20 22.09.2019
1514 Clear 11 1025 76 10000 13.4 360 10:20 22.09.2019
1515 -273 0 0 0 0 0 09:54 22.09.2019
1516 Clear 12 1025 76 10000 12.9 10 09:36 22.09.2019
1517 Clear 12 1025 76 10000 12.9 10 09:18 22.09.2019
1518 Clear 12 1025 76 10000 10.8 10 08:42 22.09.2019
1519 Clear 12 1025 76 10000 10.8 10 08:22 22.09.2019
1520 Clear 12 1025 76 10000 11.8 10 07:46 22.09.2019
1521 Clear 12 1026 66 10000 12.9 360 07:26 22.09.2019
1522 Clear 13 1026 71 10000 12.9 360 06:58 22.09.2019
1523 Clear 13 1026 71 10000 12.9 360 06:34 22.09.2019
1524 Clear 14 1026 71 10000 11.8 360 05:18 22.09.2019
1525 Clouds 14 1028 71 10000 10.8 10 02:45 22.09.2019
1526 Clouds 14 1029 71 10000 9.8 360 02:24 22.09.2019
1527 Clouds 14 1030 71 10000 10.3 10 01:43 22.09.2019
1528 Clouds 13 1030 76 10000 8.7 10 00:53 22.09.2019
1529 Clouds 13 1030 71 10000 8.2 20 00:32 22.09.2019
1530 Clouds 12 1031 76 10000 8.2 10 23:54 21.09.2019
1531 Clouds 12 1031 76 10000 8.2 20 23:36 21.09.2019
1532 Clouds 11 1031 81 10000 7.7 30 22:47 21.09.2019
1533 Clouds 10 1031 81 10000 7.7 20 22:26 21.09.2019
1534 Clouds 10 1031 87 10000 6.7 10 21:59 21.09.2019
1535 Clouds 10 1031 87 10000 6.7 10 21:59 21.09.2019
1536 Clouds 9 1031 87 10000 6.2 20 21:41 21.09.2019
1537 Clear 9 1031 87 10000 6.2 20 21:19 21.09.2019
1538 Clear 8 1031 93 10000 6.2 20 20:56 21.09.2019
1539 Clear 8 1031 93 10000 6.7 30 20:36 21.09.2019
1540 Clear 8 1031 93 10000 6.7 30 20:18 21.09.2019
1541 Clear 8 1031 93 10000 6.7 30 20:18 21.09.2019
1542 Clear 8 1031 93 10000 5.7 30 19:43 21.09.2019
1543 Clear 8 1031 93 10000 5.7 30 19:19 21.09.2019
1544 Clear 7 1032 93 10000 5.7 30 18:40 21.09.2019
1545 Clear 7 1032 93 10000 5.7 30 18:21 21.09.2019
1546 Clear 6 1032 93 10000 4.1 20 17:43 21.09.2019
1547 Clear 6 1032 93 10000 4.1 20 17:23 21.09.2019
1548 Clear 7 1032 87 10000 3.6 30 16:57 21.09.2019
1549 Clear 7 1033 93 10000 3.1 30 16:38 21.09.2019
1550 Clear 7 1033 93 10000 3.1 30 16:19 21.09.2019
1551 Clear 6 1033 93 10000 3.1 350 15:44 21.09.2019
1552 Clear 6 1033 93 10000 3.1 350 15:22 21.09.2019
1553 Clear 6 1033 93 10000 2.6 20 14:48 21.09.2019
1554 Clear 7 1033 93 10000 2.1 10 14:30 21.09.2019
1555 Clear 7 1034 87 10000 2.6 30 13:54 21.09.2019
1556 Clear 7 1034 87 10000 2.1 30 13:36 21.09.2019
1557 Clear 7 1034 87 10000 2.1 30 13:18 21.09.2019
1558 Clear 8 1034 87 10000 2.1 10 12:41 21.09.2019
1559 Clear 8 1034 87 10000 2.1 10 12:22 21.09.2019
1560 Clear 8 1034 87 10000 2.1 10 11:59 21.09.2019
1561 Clear 8 1034 87 10000 1.5 10 11:41 21.09.2019
1562 Clear 8 1034 87 10000 1.5 10 11:22 21.09.2019
1563 Clear 9 1035 81 8000 0.5 300 10:41 21.09.2019
1564 Clear 9 1035 81 8000 0.5 300 10:23 21.09.2019
1565 Clear 10 1034 87 9000 2.1 270 09:57 21.09.2019
1566 Clear 10 1034 81 10000 1.5 240 09:38 21.09.2019
1567 Clear 10 1034 81 10000 1.5 240 09:20 21.09.2019
1568 Clear 10 1034 81 10000 3.1 170 08:51 21.09.2019
1569 Clear 11 1034 87 10000 3.6 170 08:27 21.09.2019
1570 Clear 12 1034 81 10000 4.1 160 07:41 21.09.2019
1571 Clear 13 1034 81 10000 4.1 160 07:23 21.09.2019
1572 Clear 13 1034 76 10000 4.1 160 06:51 21.09.2019
1573 Clear 14 1034 76 10000 3.6 160 06:31 21.09.2019
1574 Clear 14 1034 76 10000 3.6 160 04:53 21.09.2019
1575 Clear 14 1034 76 10000 3.6 160 04:53 21.09.2019
1576 Clear 14 1035 76 10000 3.6 170 04:34 21.09.2019
1577 Clear 14 1036 71 10000 4.1 200 02:31 21.09.2019
1578 Clear 15 1036 62 10000 2.6 70 01:54 21.09.2019
1579 Clear 14 1036 62 10000 2.6 70 01:36 21.09.2019
1580 Clear 13 1037 66 10000 3.1 60 00:40 21.09.2019
1581 Clear 13 1037 66 10000 3.1 60 00:18 21.09.2019
1582 Clear 12 1037 81 10000 2.6 10 23:42 20.09.2019
1583 Clear 11 1037 81 10000 2.6 10 23:23 20.09.2019
1584 Clear 10 1037 87 10000 2.1 10 22:41 20.09.2019
1585 Clear 9 1037 87 10000 2.1 10 22:23 20.09.2019
1586 Clear 8 1037 93 10000 2.6 20 21:57 20.09.2019
1587 Clear 7 1038 93 10000 2.1 30 21:37 20.09.2019
1588 Clouds 6 1038 93 10000 2.1 30 21:18 20.09.2019
1589 -273 0 0 0 0 0 20:55 20.09.2019
1590 Clouds 5 1037 93 10000 1.5 40 20:36 20.09.2019
1591 Clouds 5 1037 93 10000 1.5 40 20:18 20.09.2019
1592 Clouds 5 1037 93 10000 1.5 70 19:42 20.09.2019
1593 Clouds 5 1037 93 10000 1.5 70 19:21 20.09.2019
1594 Clouds 6 1037 93 10000 1 70 18:57 20.09.2019
1595 Clouds 6 1037 93 10000 2.1 360 18:37 20.09.2019
1596 Clouds 6 1037 93 10000 1.5 20 18:18 20.09.2019
1597 Clouds 6 1037 93 10000 1.5 20 18:18 20.09.2019
1598 Clouds 7 1037 87 10000 0.5 340 17:44 20.09.2019
1599 Clouds 7 1037 87 10000 0.5 340 17:25 20.09.2019
1600 Clouds 7 1037 87 10000 3.1 180 16:43 20.09.2019
1601 Clouds 7 1037 87 10000 3.1 180 16:22 20.09.2019
1602 Clouds 7 1037 87 10000 3.6 180 15:59 20.09.2019
1603 Clouds 7 1037 81 10000 2.1 150 15:40 20.09.2019
1604 Clear 8 1037 81 10000 2.1 150 15:22 20.09.2019
1605 Clear 8 1037 81 10000 3.1 170 14:43 20.09.2019
1606 Clear 8 1037 81 10000 3.1 170 14:20 20.09.2019
1607 Clear 8 1037 81 10000 2.6 150 13:55 20.09.2019
1608 Clear 8 1037 81 10000 2.6 150 13:36 20.09.2019
1609 Clear 8 1037 81 10000 2.6 150 13:18 20.09.2019
1610 Clear 8 1037 76 10000 3.6 150 12:38 20.09.2019
1611 Clear 8 1037 76 10000 3.6 150 12:19 20.09.2019
1612 Clear 9 1037 81 10000 4.1 160 11:50 20.09.2019
1613 Clear 9 1037 71 10000 5.1 150 11:22 20.09.2019
1614 Clear 9 1037 81 10000 5.1 150 10:58 20.09.2019
1615 Clear 9 1037 87 10000 6.2 140 10:39 20.09.2019
1616 Clear 9 1037 87 10000 6.2 140 10:20 20.09.2019
1617 Clear 10 1037 87 10000 7.7 150 09:38 20.09.2019
1618 Clear 10 1037 87 10000 7.7 150 09:18 20.09.2019
1619 Clear 10 1037 81 10000 8.2 150 08:46 20.09.2019
1620 Clear 10 1037 81 10000 9.8 150 08:26 20.09.2019
1621 Clear 11 1037 81 10000 10.3 160 07:49 20.09.2019
1622 Clear 11 1037 87 10000 9.8 170 07:29 20.09.2019
1623 Clear 11 1037 81 10000 9.8 160 06:48 20.09.2019
1624 Clear 12 1036 81 10000 9.8 170 06:30 20.09.2019
1625 Clear 12 1036 81 10000 9.3 160 05:58 20.09.2019
1626 Clear 12 1036 81 10000 9.3 160 05:58 20.09.2019
1627 Clear 12 1037 81 10000 8.7 170 04:28 20.09.2019
1628 Clear 13 1037 81 10000 9.3 170 03:26 20.09.2019
1629 Clouds 13 1037 81 10000 7.2 180 01:45 20.09.2019
1630 Clear 13 1037 76 10000 7.7 160 01:27 20.09.2019
1631 Clear 13 1037 87 10000 6.2 170 00:32 20.09.2019
1632 Clear 11 1036 87 10000 5.1 160 23:46 19.09.2019
1633 Clear 11 1036 87 10000 5.1 160 23:46 19.09.2019
1634 Clear 11 1036 87 10000 5.1 160 23:24 19.09.2019
1635 Clear 10 1036 87 10000 5.1 170 22:57 19.09.2019
1636 Clear 10 1036 87 10000 2.6 150 22:38 19.09.2019
1637 Clear 9 1036 87 10000 2.6 150 22:20 19.09.2019
1638 Clear 8 1035 93 10000 0.5 300 21:56 19.09.2019
1639 Clear 7 1035 93 10000 1 10 21:38 19.09.2019
1640 Clear 6 1035 93 10000 1 10 21:19 19.09.2019
1641 Clear 6 1034 93 10000 1 50 20:43 19.09.2019
1642 Clear 6 1034 93 10000 1 50 20:43 19.09.2019
1643 Clear 5 1034 93 10000 1 50 20:23 19.09.2019
1644 Clear 5 1034 93 10000 1 20 19:57 19.09.2019
1645 Clear 6 1034 93 10000 1.5 70 19:39 19.09.2019
1646 Clear 5 1033 93 10000 1.5 30 19:21 19.09.2019
1647 Clear 5 1033 93 10000 1.5 30 18:55 19.09.2019
1648 Clear 5 1033 93 10000 1.5 30 18:37 19.09.2019
1649 Clouds 6 1033 93 10000 1.5 50 18:18 19.09.2019
1650 Clouds 6 1033 93 10000 1.5 50 18:18 19.09.2019
1651 Clouds 6 1033 93 10000 1.5 30 17:42 19.09.2019
1652 Clouds 6 1033 93 10000 1.5 30 17:23 19.09.2019
1653 Clouds 6 1033 87 10000 1.5 30 16:58 19.09.2019
1654 Clouds 6 1033 93 10000 1 40 16:39 19.09.2019
1655 Clouds 7 1033 93 10000 1 40 16:19 19.09.2019
1656 Clouds 6 1033 87 10000 1 40 15:39 19.09.2019
1657 Clear 6 1033 87 10000 1 40 15:20 19.09.2019
1658 Clear 7 1032 87 10000 1.5 30 14:42 19.09.2019
1659 Clear 6 1032 87 10000 1.5 30 14:24 19.09.2019
1660 Clear 7 1033 87 10000 1 60 13:59 19.09.2019
1661 Clear 6 1033 81 10000 1.5 30 13:40 19.09.2019
1662 Clear 6 1033 81 10000 1.5 30 13:20 19.09.2019
1663 Clear 7 1032 76 10000 1.5 30 12:40 19.09.2019
1664 Clear 7 1032 76 10000 1.5 30 12:20 19.09.2019
1665 Clear 7 1032 81 10000 2.1 20 11:58 19.09.2019
1666 Clear 7 1032 81 10000 2.1 30 11:39 19.09.2019
1667 Clear 8 1032 81 10000 2.1 30 11:20 19.09.2019
1668 Clear 8 1032 76 10000 2.1 30 10:56 19.09.2019
1669 Clear 8 1032 76 10000 2.1 30 10:56 19.09.2019
1670 Clear 8 1032 76 10000 2.1 30 10:56 19.09.2019
1671 Clear 8 1032 76 10000 2.1 30 10:56 19.09.2019
1672 Clear 8 1032 76 10000 3.6 350 10:36 19.09.2019
1673 Clear 8 1032 76 10000 3.6 350 10:18 19.09.2019
1674 Clear 8 1031 66 10000 3.6 30 09:41 19.09.2019
1675 Clear 10 1031 66 10000 3.6 30 09:21 19.09.2019
1676 Clear 10 1031 66 10000 3.6 20 08:56 19.09.2019
1677 Clear 11 1031 71 10000 5.1 360 08:29 19.09.2019
1678 Clear 12 1031 62 10000 5.1 350 07:58 19.09.2019
1679 Clear 12 1031 58 10000 5.1 350 07:40 19.09.2019
1680 Clear 12 1031 58 10000 5.1 350 07:21 19.09.2019
1681 Clear 13 1031 59 0 1.79 339 06:45 19.09.2019
1682 Clear 13 1029 72 0 0.45 275 06:27 19.09.2019
1683 Clear 14 1031 54 10000 4.6 350 05:51 19.09.2019
1684 Clear 15 1032 47 10000 4.6 340 04:43 19.09.2019
1685 Clear 15 1032 58 10000 4.1 330 03:51 19.09.2019
1686 Clear 14 1033 54 10000 4.1 360 02:27 19.09.2019
1687 Clear 14 1033 62 10000 5.1 10 01:22 19.09.2019
1688 Clear 14 1033 62 10000 5.1 10 00:49 19.09.2019
1689 Clear 13 1033 66 10000 5.7 10 00:25 19.09.2019
1690 Clear 12 1033 66 10000 5.7 30 23:39 18.09.2019
1691 Clear 11 1033 66 10000 5.7 30 23:21 18.09.2019
1692 Clear 10 1033 71 10000 4.6 20 22:44 18.09.2019
1693 Clear 9 1033 76 10000 4.1 20 22:23 18.09.2019
1694 Clear 8 1033 81 10000 3.6 10 21:59 18.09.2019
1695 Clear 7 1033 87 10000 4.1 20 21:40 18.09.2019
1696 Clear 7 1033 87 10000 4.1 20 21:19 18.09.2019
1697 Clear 5 1033 87 10000 4.1 20 20:58 18.09.2019
1698 Clear 5 1032 87 10000 4.6 10 20:40 18.09.2019
1699 Clear 5 1032 87 10000 4.6 10 20:22 18.09.2019
1700 Clear 5 1032 87 10000 4.6 10 20:22 18.09.2019
1701 Clear 5 1032 87 10000 4.6 20 19:58 18.09.2019
1702 Clear 5 1032 87 10000 4.1 30 19:39 18.09.2019
1703 Clear 5 1032 87 10000 3.1 20 19:19 18.09.2019
1704 Clear 5 1032 87 10000 3.1 20 18:56 18.09.2019
1705 Clear 5 1032 87 10000 3.1 20 18:37 18.09.2019
1706 Clear 5 1032 87 10000 3.1 20 18:19 18.09.2019
1707 Clear 5 1032 81 10000 3.6 30 17:57 18.09.2019
1708 Clear 5 1032 81 10000 3.6 30 17:57 18.09.2019
1709 Clear 6 1032 81 10000 3.6 30 17:39 18.09.2019
1710 Clear 5 1032 81 10000 3.6 30 17:19 18.09.2019
1711 Clear 6 1032 81 10000 4.1 30 16:56 18.09.2019
1712 Clear 6 1032 81 10000 4.1 20 16:37 18.09.2019
1713 Clear 6 1032 81 10000 4.1 20 16:18 18.09.2019
1714 Clear 6 1032 81 10000 5.1 20 15:55 18.09.2019
1715 Clear 6 1032 76 10000 4.6 30 15:37 18.09.2019
1716 Clear 8 1032 76 10000 4.6 30 15:18 18.09.2019
1717 Clear 7 1032 87 10000 4.6 30 14:57 18.09.2019
1718 Clear 7 1031 81 10000 3.6 30 14:38 18.09.2019
1719 Clear 6 1031 81 10000 3.6 30 14:20 18.09.2019
1720 Clear 6 1031 76 10000 4.6 40 13:43 18.09.2019
1721 Clear 6 1031 76 10000 4.6 40 13:19 18.09.2019
1722 Clear 6 1031 76 10000 5.7 30 12:55 18.09.2019
1723 Clear 7 1031 76 10000 5.1 30 12:36 18.09.2019
1724 Clear 7 1031 71 10000 4.6 30 12:18 18.09.2019
1725 Clear 8 1031 76 10000 4.6 30 11:39 18.09.2019
1726 Clear 8 1031 76 10000 4.6 30 11:19 18.09.2019
1727 Clear 8 1030 71 10000 5.1 30 10:40 18.09.2019
1728 Clear 9 1030 71 10000 5.1 30 10:21 18.09.2019
1729 Clear 9 1030 71 10000 4.6 30 09:58 18.09.2019
1730 Clear 9 1030 71 10000 5.1 20 09:40 18.09.2019
1731 Clear 10 1030 71 10000 5.1 20 09:22 18.09.2019
1732 Clear 11 1029 71 10000 5.1 20 08:46 18.09.2019
1733 Clear 11 1029 62 10000 5.1 20 08:26 18.09.2019
1734 Clear 11 1029 58 10000 6.7 10 07:59 18.09.2019
1735 Clear 12 1029 50 10000 6.7 360 07:41 18.09.2019
1736 Clear 12 1029 50 10000 6.7 360 07:22 18.09.2019
1737 Clear 13 1028 54 10000 7.7 360 06:41 18.09.2019
1738 Clear 13 1028 50 10000 7.7 10 05:54 18.09.2019
1739 Clear 13 1029 50 10000 7.2 360 05:21 18.09.2019
1740 Clear 14 1029 50 10000 6.7 330 03:23 18.09.2019
1741 Clear 13 1030 58 10000 5.7 340 02:39 18.09.2019
1742 Clear 13 1030 62 10000 4.6 350 01:35 18.09.2019
1743 Clear 13 1030 66 10000 4.1 360 00:51 18.09.2019
1744 Clear 12 1030 66 10000 3.6 360 00:28 18.09.2019
1745 Clear 11 1030 76 10000 3.1 360 23:47 17.09.2019
1746 Clear 10 1030 76 10000 3.1 360 23:23 17.09.2019
1747 Clear 10 1030 81 10000 3.1 350 22:45 17.09.2019
1748 Clear 9 1030 81 10000 1.5 40 22:25 17.09.2019
1749 Clear 7 1030 87 10000 2.1 10 21:56 17.09.2019
1750 Clear 6 1029 93 10000 2.1 30 21:37 17.09.2019
1751 Clear 6 1029 93 10000 2.1 30 21:37 17.09.2019
1752 Clear 4 1029 93 10000 2.1 30 21:19 17.09.2019
1753 Clear 4 1029 93 10000 2.1 30 21:19 17.09.2019
1754 Clear 3 1029 87 10000 2.1 50 20:59 17.09.2019
1755 Clear 4 1028 86 10000 2.1 20 20:41 17.09.2019
1756 Clear 4 1028 86 10000 2.1 20 20:22 17.09.2019
1757 Clear 4 1028 93 10000 1.5 10 19:59 17.09.2019
1758 Clear 4 1028 93 10000 1.5 20 19:39 17.09.2019
1759 Clear 4 1027 86 10000 1.5 40 19:20 17.09.2019
1760 Clear 4 1027 86 10000 1.5 40 18:58 17.09.2019
1761 Clear 5 1027 87 10000 1.5 40 18:40 17.09.2019
1762 Clear 5 1027 87 10000 1.5 40 18:21 17.09.2019
1763 Clear 5 1027 93 10000 2.1 40 17:46 17.09.2019
1764 Clear 5 1027 93 10000 2.1 40 17:21 17.09.2019
1765 Clear 5 1027 93 10000 2.1 40 17:21 17.09.2019
1766 Clear 6 1026 87 10000 1.5 40 16:59 17.09.2019
1767 Clear 6 1026 87 10000 1.5 60 16:40 17.09.2019
1768 Clear 6 1026 87 10000 1.5 60 16:22 17.09.2019
1769 Clear 6 1026 87 10000 1.5 60 16:22 17.09.2019
1770 Clear 6 1026 87 10000 1.5 60 16:22 17.09.2019
1771 Clear 6 1025 81 10000 0.5 70 15:40 17.09.2019
1772 Rain 6 1025 81 10000 0.5 70 15:21 17.09.2019
1773 Rain 6 1025 81 10000 0.5 70 15:21 17.09.2019
1774 Rain 6 1025 81 10000 0.5 70 15:21 17.09.2019
1775 Rain 7 1025 87 10000 1.5 40 14:58 17.09.2019
1776 Rain 6 1024 81 10000 2.1 60 14:40 17.09.2019
1777 Rain 6 1024 81 10000 2.1 60 14:19 17.09.2019
1778 Rain 7 1024 76 10000 1.5 60 13:58 17.09.2019
1779 Rain 7 1024 76 10000 1.5 60 13:58 17.09.2019
1780 Rain 7 1023 76 10000 2.1 30 13:39 17.09.2019
1781 Clouds 7 1023 76 10000 2.1 30 13:21 17.09.2019
1782 Clouds 7 1022 70 10000 1.5 30 12:43 17.09.2019
1783 Rain 8 1022 70 10000 1.5 30 12:20 17.09.2019
1784 Rain 8 1022 70 10000 0.5 110 11:57 17.09.2019
1785 Rain 8 1021 70 10000 2.1 350 11:38 17.09.2019
1786 Rain 8 1021 70 10000 2.1 350 11:18 17.09.2019
1787 Rain 8 1021 70 10000 2.1 350 11:18 17.09.2019
1788 Rain 9 1020 57 10000 2.1 30 10:41 17.09.2019
1789 Rain 10 1020 57 10000 2.1 30 10:21 17.09.2019
1790 Rain 10 1019 50 10000 3.6 110 09:58 17.09.2019
1791 Rain 11 1018 50 10000 5.1 140 09:39 17.09.2019
1792 Clouds 11 1018 50 10000 5.1 140 09:19 17.09.2019
1793 Clouds 11 1018 50 10000 5.1 140 09:19 17.09.2019
1794 Clouds 12 1016 54 10000 4.6 110 08:44 17.09.2019
1795 Clouds 12 1016 54 10000 4.6 110 08:25 17.09.2019
1796 Clouds 13 1015 62 10000 1.5 170 07:46 17.09.2019
1797 Clouds 14 1015 71 10000 2.6 190 07:28 17.09.2019
1798 Clouds 14 1014 62 10000 4.6 180 06:59 17.09.2019
1799 Clouds 15 1013 59 10000 5.1 340 06:40 17.09.2019
1800 Clouds 15 1013 59 10000 5.7 330 05:56 17.09.2019
1801 Clouds 15 1013 59 10000 6.2 320 05:33 17.09.2019
1802 Clouds 15 1012 62 10000 6.2 350 04:19 17.09.2019
1803 Clouds 14 1011 67 10000 7.7 350 02:40 17.09.2019
1804 Clouds 16 1011 67 10000 8.7 350 01:53 17.09.2019
1805 Clouds 14 1011 77 10000 7.2 340 00:58 17.09.2019
1806 Clouds 14 1010 76 10000 8.7 330 23:57 16.09.2019
1807 Clouds 14 1009 76 10000 6.2 340 23:36 16.09.2019
1808 Clouds 14 1009 76 10000 6.2 340 23:36 16.09.2019
1809 Clouds 14 1009 76 10000 6.2 340 23:36 16.09.2019
1810 Clouds 15 1009 76 10000 6.2 340 23:18 16.09.2019
1811 Clouds 14 1007 77 10000 9.3 340 22:42 16.09.2019
1812 Clouds 14 1007 77 10000 9.3 340 22:24 16.09.2019
1813 Clouds 14 1008 77 10000 8.7 330 21:59 16.09.2019
1814 Rain 14 1007 82 10000 10.8 330 21:38 16.09.2019
1815 Rain 14 1007 82 10000 10.8 330 21:20 16.09.2019
1816 Rain 14 1007 82 10000 10.3 330 20:55 16.09.2019
1817 Clear 14 1007 82 10000 12.9 340 20:37 16.09.2019
1818 Clear 14 1007 82 10000 12.9 340 20:18 16.09.2019
1819 Clear 14 1006 82 10000 13.9 340 19:54 16.09.2019
1820 Clear 14 1006 82 10000 13.4 340 19:36 16.09.2019
1821 Clear 14 1006 82 10000 13.4 340 19:36 16.09.2019
1822 Clear 14 1005 82 10000 12.3 330 19:18 16.09.2019
1823 Clear 14 1005 82 10000 14.9 340 18:42 16.09.2019
1824 Clear 14 1005 82 10000 14.9 340 18:24 16.09.2019
1825 Clear 13 1005 87 10000 12.3 340 17:43 16.09.2019
1826 Clear 13 1005 87 10000 12.3 340 17:24 16.09.2019
1827 Clear 13 1006 82 10000 13.9 340 16:59 16.09.2019
1828 Clear 13 1006 82 10000 13.4 340 16:40 16.09.2019
1829 Clear 13 1006 82 10000 13.4 340 16:21 16.09.2019
1830 Clear 13 1007 82 10000 11.3 340 15:57 16.09.2019
1831 Clear 14 1007 76 10000 11.3 340 15:38 16.09.2019
1832 Clouds 14 1007 76 10000 11.3 340 15:20 16.09.2019
1833 Clouds 14 1006 76 10000 13.4 350 14:57 16.09.2019
1834 Clouds 14 1007 76 10000 12.3 350 14:38 16.09.2019
1835 Clouds 14 1007 76 10000 12.3 350 14:38 16.09.2019
1836 Clouds 14 1007 76 10000 12.3 350 14:19 16.09.2019
1837 Clouds 13 1007 82 10000 11.3 350 13:40 16.09.2019
1838 Clouds 13 1007 82 10000 11.3 350 13:22 16.09.2019
1839 Clouds 13 1008 82 10000 12.3 350 12:54 16.09.2019
1840 Clouds 13 1008 82 10000 12.3 350 12:54 16.09.2019
1841 Clouds 13 1007 82 10000 12.9 340 12:36 16.09.2019
1842 Clouds 13 1007 82 10000 12.9 340 12:18 16.09.2019
1843 Clouds 13 1007 82 10000 13.4 350 11:44 16.09.2019
1844 Clouds 13 1007 82 10000 13.4 350 11:21 16.09.2019
1845 Clouds 13 1009 76 10000 11.3 350 10:40 16.09.2019
1846 Clouds 13 1009 76 10000 11.3 350 10:21 16.09.2019
1847 Clouds 13 1009 76 10000 11.8 350 09:58 16.09.2019
1848 Clouds 13 1009 76 10000 9.3 340 09:40 16.09.2019
1849 Clouds 13 1009 76 10000 9.3 340 09:20 16.09.2019
1850 Clouds 13 1009 76 10000 8.7 330 08:48 16.09.2019
1851 Clouds 13 1009 76 10000 9.3 350 08:29 16.09.2019
1852 Clouds 13 1008 76 10000 11.3 330 07:57 16.09.2019
1853 Clouds 13 1008 76 10000 10.3 340 07:39 16.09.2019
1854 Clouds 13 1008 76 10000 10.3 340 07:39 16.09.2019
1855 Clouds 13 1008 76 10000 10.3 340 07:20 16.09.2019
1856 Clouds 13 1008 72 10000 8.2 340 06:49 16.09.2019
1857 Clouds 13 1009 72 10000 10.3 350 06:31 16.09.2019
1858 Clouds 14 1009 71 10000 10.3 360 05:57 16.09.2019
1859 Clouds 14 1009 76 10000 9.3 360 05:38 16.09.2019
1860 Clouds 14 1009 71 10000 8.7 350 04:55 16.09.2019
1861 Clouds 14 1011 67 10000 7.7 10 03:33 16.09.2019
1862 Clouds 13 1010 62 10000 6.7 10 00:44 16.09.2019
1863 Clouds 13 1010 62 10000 6.7 10 00:26 16.09.2019
1864 Clear 13 1010 66 10000 6.7 10 23:56 15.09.2019
1865 Clear 12 1010 62 10000 8.7 360 23:37 15.09.2019
1866 Clear 13 1010 62 10000 8.7 360 23:18 15.09.2019
1867 Clear 13 1010 62 10000 8.7 360 23:18 15.09.2019
1868 Clear 12 1009 71 10000 8.2 360 22:39 15.09.2019
1869 Clear 12 1009 71 10000 8.2 360 22:19 15.09.2019
1870 Clear 12 1009 71 10000 7.7 360 21:56 15.09.2019
1871 Clear 11 1009 66 10000 6.7 350 21:38 15.09.2019
1872 Clear 11 1009 66 10000 6.7 350 21:38 15.09.2019
1873 Clouds 10 1009 66 10000 6.7 350 21:19 15.09.2019
1874 Clear 11 1008 71 10000 7.2 360 20:45 15.09.2019
1875 Clear 10 1008 71 10000 6.7 360 20:26 15.09.2019
1876 Clear 10 1008 71 10000 6.7 360 20:26 15.09.2019
1877 Clear 10 1007 66 10000 7.7 350 19:56 15.09.2019
1878 Clear 10 1007 62 10000 7.7 340 19:38 15.09.2019
1879 Clear 10 1007 62 10000 7.7 340 19:19 15.09.2019
1880 Clear 10 1006 58 10000 8.2 340 18:40 15.09.2019
1881 Clear 10 1006 58 10000 8.2 340 18:22 15.09.2019
1882 Clear 10 1006 62 10000 6.2 350 17:43 15.09.2019
1883 Clear 10 1006 62 10000 6.2 350 17:22 15.09.2019
1884 Clear 10 1007 71 10000 5.1 20 16:58 15.09.2019
1885 Clear 10 1007 61 10000 5.1 20 16:40 15.09.2019
1886 Clear 10 1007 61 10000 5.1 20 16:22 15.09.2019
1887 Clear 10 1007 61 10000 5.1 20 16:22 15.09.2019
1888 Clear 9 1007 66 10000 5.1 360 15:56 15.09.2019
1889 Clear 9 1007 61 9000 3.1 340 15:38 15.09.2019
1890 Clouds 9 1007 61 9000 3.1 340 15:19 15.09.2019
1891 Clouds 9 1007 57 10000 3.1 350 14:55 15.09.2019
1892 Clouds 9 1007 57 10000 3.1 360 14:37 15.09.2019
1893 Clouds 9 1007 57 10000 3.1 360 14:18 15.09.2019
1894 Clouds 9 1007 66 10000 1.5 350 13:43 15.09.2019
1895 Clear 9 1007 66 10000 1.5 350 13:21 15.09.2019
1896 Clear 10 1007 62 10000 1.5 20 12:43 15.09.2019
1897 Clear 10 1007 62 10000 1.5 20 12:24 15.09.2019
1898 Clear 10 1007 62 6000 2.1 330 11:58 15.09.2019
1899 Clear 11 1007 62 10000 2.1 330 11:40 15.09.2019
1900 Clear 11 1007 62 10000 2.1 330 11:20 15.09.2019
1901 Clear 11 1007 71 10000 4.1 360 10:42 15.09.2019
1902 Clear 11 1007 71 10000 4.1 360 10:22 15.09.2019
1903 Clear 11 1006 66 10000 4.1 350 09:58 15.09.2019
1904 Clear 12 1006 66 10000 5.1 330 09:37 15.09.2019
1905 Clouds 11 1006 66 10000 5.1 330 09:19 15.09.2019
1906 Clouds 11 1006 62 10000 4.1 340 08:46 15.09.2019
1907 Clouds 12 1006 62 10000 4.1 340 08:26 15.09.2019
1908 Clouds 12 1006 58 10000 4.6 330 07:48 15.09.2019
1909 Clouds 12 1006 62 10000 6.2 320 07:26 15.09.2019
1910 Clouds 13 1005 67 10000 6.7 320 06:42 15.09.2019
1911 Clouds 13 1006 93 9000 1 190 03:31 15.09.2019
1912 Rain 11 1007 93 10000 4.1 210 02:33 15.09.2019
1913 Rain 11 1006 87 4300 5.1 210 01:40 15.09.2019
1914 Rain 11 1006 87 4300 5.1 210 01:19 15.09.2019
1915 Rain 11 1006 93 8000 5.1 220 00:43 15.09.2019
1916 Rain 10 1006 93 8000 5.1 220 00:21 15.09.2019
1917 Rain 10 1006 93 10000 5.7 230 23:58 14.09.2019
1918 Rain 10 1006 93 10000 5.7 230 23:58 14.09.2019
1919 Rain 10 1005 93 6000 6.7 230 23:39 14.09.2019
1920 Rain 11 1005 93 6000 6.7 230 23:21 14.09.2019
1921 Rain 11 1005 87 10000 4.6 230 22:59 14.09.2019
1922 Rain 10 1005 87 9000 3.1 230 22:40 14.09.2019
1923 Rain 10 1005 87 9000 3.1 230 22:20 14.09.2019
1924 Rain 10 1004 87 7000 6.2 260 21:55 14.09.2019
1925 Rain 10 1003 87 10000 7.7 360 21:36 14.09.2019
1926 Rain 10 1003 87 10000 7.7 360 21:36 14.09.2019
1927 Rain 10 1003 87 10000 7.7 360 21:36 14.09.2019
1928 Rain 10 1003 87 10000 7.7 360 21:18 14.09.2019
1929 Rain 10 1002 87 10000 7.2 10 20:40 14.09.2019
1930 Rain 10 1002 87 10000 7.2 10 20:22 14.09.2019
1931 Rain 10 1002 87 10000 7.7 350 19:57 14.09.2019
1932 Rain 10 1002 93 4800 6.2 20 19:37 14.09.2019
1933 Rain 10 1002 93 4800 6.2 20 19:19 14.09.2019
1934 Rain 10 1003 87 3900 5.1 20 18:41 14.09.2019
1935 Rain 10 1003 87 3900 5.1 20 18:21 14.09.2019
1936 Rain 10 1003 93 10000 4.6 350 17:58 14.09.2019
1937 Rain 10 1003 87 10000 4.6 20 17:39 14.09.2019
1938 Rain 10 1003 87 10000 4.6 20 17:21 14.09.2019
1939 Rain 10 1004 87 10000 4.1 20 16:44 14.09.2019
1940 Rain 10 1004 87 10000 3.1 360 16:22 14.09.2019
1941 Rain 10 1005 87 10000 3.1 10 15:56 14.09.2019
1942 Rain 10 1005 87 10000 3.1 10 15:56 14.09.2019
1943 Rain 10 1005 87 10000 4.1 360 15:37 14.09.2019
1944 Rain 10 1005 87 10000 4.1 360 15:18 14.09.2019
1945 Rain 10 1005 87 10000 2.1 10 14:43 14.09.2019
1946 Rain 10 1005 87 10000 2.1 10 14:43 14.09.2019
1947 Rain 10 1005 87 10000 2.1 10 14:19 14.09.2019
1948 Rain 10 1006 87 10000 1.5 360 13:48 14.09.2019
1949 Rain 10 1006 87 10000 2.6 360 13:22 14.09.2019
1950 Rain 10 1006 87 9000 1.5 350 12:48 14.09.2019
1951 Rain 11 1007 87 10000 2.1 20 12:27 14.09.2019
1952 Rain 11 1008 87 10000 3.1 30 11:44 14.09.2019
1953 Rain 11 1008 87 10000 3.1 30 11:22 14.09.2019
1954 Rain 11 1008 87 10000 2.1 350 10:59 14.09.2019
1955 Rain 12 1008 87 10000 3.1 20 10:37 14.09.2019
1956 Rain 12 1008 87 10000 3.1 20 10:19 14.09.2019
1957 Rain 12 1008 82 10000 4.1 30 09:56 14.09.2019
1958 Rain 12 1008 82 10000 4.6 10 09:38 14.09.2019
1959 Rain 12 1008 82 10000 4.6 10 09:19 14.09.2019
1960 Clouds 13 1008 76 10000 5.7 360 08:45 14.09.2019
1961 Clouds 13 1008 76 10000 6.2 20 08:23 14.09.2019
1962 Clouds 14 1008 76 10000 6.7 10 07:46 14.09.2019
1963 Clouds 14 1008 82 10000 6.2 360 07:28 14.09.2019
1964 Clouds 14 1008 77 10000 8.2 360 06:40 14.09.2019
1965 Rain 15 1008 77 10000 8.2 360 06:21 14.09.2019
1966 Rain 14 1008 77 10000 9.3 350 05:25 14.09.2019
1967 Rain 13 1009 82 10000 8.7 360 03:45 14.09.2019
1968 Rain 13 1010 93 2200 4.1 310 02:52 14.09.2019
1969 Rain 13 1010 82 10000 5.7 10 01:50 14.09.2019
1970 Rain 13 1011 82 10000 4.6 40 01:22 14.09.2019
1971 Rain 12 1011 87 10000 3.6 30 00:57 14.09.2019
1972 Rain 12 1011 93 10000 3.1 10 00:38 14.09.2019
1973 Rain 11 1011 93 10000 3.1 10 00:20 14.09.2019
1974 Rain 11 1012 93 10000 2.6 10 23:38 13.09.2019
1975 Rain 11 1012 93 10000 2.6 10 23:19 13.09.2019
1976 Rain 11 1012 93 10000 3.1 10 22:57 13.09.2019
1977 Rain 10 1012 93 10000 2.1 340 22:38 13.09.2019
1978 Rain 10 1012 93 10000 2.1 340 22:20 13.09.2019
1979 Rain 10 1012 100 10000 1.5 70 21:42 13.09.2019
1980 Rain 10 1012 100 10000 1.5 70 21:20 13.09.2019
1981 Rain 10 1012 100 7000 2.1 150 20:59 13.09.2019
1982 Rain 10 1012 100 5000 4.6 140 20:40 13.09.2019
1983 Rain 10 1012 100 5000 4.6 140 20:21 13.09.2019
1984 Rain 9 1012 100 10000 5.1 160 19:56 13.09.2019
1985 Rain 9 1011 100 9000 5.1 150 19:37 13.09.2019
1986 Rain 9 1011 100 7000 5.7 170 19:19 13.09.2019
1987 Rain 10 1011 100 7000 5.7 170 18:55 13.09.2019
1988 Rain 10 1011 100 10000 5.1 170 18:36 13.09.2019
1989 Rain 10 1012 100 6000 5.1 170 18:18 13.09.2019
1990 Rain 10 1012 100 9000 5.1 180 17:39 13.09.2019
1991 Rain 10 1012 100 9000 5.1 180 17:19 13.09.2019
1992 Rain 10 1012 93 7000 6.2 200 16:42 13.09.2019
1993 Rain 10 1012 93 7000 6.2 200 16:21 13.09.2019
1994 Rain 10 1012 93 8000 5.1 190 15:58 13.09.2019
1995 Rain 10 1012 93 8000 4.6 190 15:39 13.09.2019
1996 Rain 11 1012 93 8000 4.6 190 15:20 13.09.2019
1997 Rain 11 1011 93 9000 4.6 190 14:43 13.09.2019
1998 Rain 11 1011 93 9000 4.6 190 14:22 13.09.2019
1999 Rain 11 1011 100 4100 5.7 190 13:56 13.09.2019
2000 Rain 11 1011 93 5000 4.1 170 13:37 13.09.2019
2001 Rain 11 1011 93 5000 4.1 170 13:18 13.09.2019
2002 Rain 11 1011 93 7000 3.6 190 12:41 13.09.2019
2003 Rain 12 1011 93 7000 3.6 190 12:23 13.09.2019
2004 Rain 12 1011 93 4400 4.1 190 11:56 13.09.2019
2005 Rain 13 1011 81 10000 5.1 210 11:20 13.09.2019
2006 Clouds 13 1010 82 10000 5.7 330 10:40 13.09.2019
2007 Clouds 13 1010 82 10000 5.7 330 10:20 13.09.2019
2008 Clouds 13 1010 87 10000 6.2 330 09:46 13.09.2019
2009 Clouds 13 1009 82 10000 8.2 330 09:25 13.09.2019
2010 Clouds 13 1008 82 10000 8.7 330 08:59 13.09.2019
2011 Clouds 13 1008 76 10000 7.7 340 08:40 13.09.2019
2012 Clouds 13 1008 76 10000 7.7 340 08:21 13.09.2019
2013 Clouds 14 1008 76 10000 8.7 330 07:52 13.09.2019
2014 Clouds 14 1008 76 10000 7.7 330 07:34 13.09.2019
2015 Clouds 13 1007 76 10000 10.3 350 06:48 13.09.2019
2016 Clouds 14 1008 76 10000 8.2 340 05:49 13.09.2019
2017 Clouds 15 1008 72 10000 10.3 350 05:18 13.09.2019
2018 Clouds 15 1008 67 10000 9.8 340 03:40 13.09.2019
2019 Clouds 14 1009 67 10000 10.8 340 02:21 13.09.2019
2020 Clouds 15 1009 62 10000 9.8 340 01:59 13.09.2019
2021 Clouds 15 1009 62 10000 10.8 340 01:34 13.09.2019
2022 Clouds 15 1009 62 10000 9.3 340 00:58 13.09.2019
2023 Clouds 14 1009 67 10000 9.8 350 00:23 13.09.2019
2024 Clouds 13 1009 71 10000 10.8 350 23:39 12.09.2019
2025 Clouds 13 1009 71 10000 10.8 350 23:20 12.09.2019
2026 Clouds 13 1009 71 10000 10.8 350 23:20 12.09.2019
2027 Clouds 13 1009 71 10000 9.3 360 22:42 12.09.2019
2028 Clouds 12 1009 71 10000 9.3 360 22:24 12.09.2019
2029 Clouds 12 1009 76 10000 9.8 360 21:57 12.09.2019
2030 Clouds 12 1009 81 10000 9.8 10 21:38 12.09.2019
2031 Clouds 12 1009 81 10000 9.8 10 21:20 12.09.2019
2032 Clouds 12 1009 81 10000 7.2 20 20:56 12.09.2019
2033 Clouds 12 1009 81 10000 7.7 20 20:38 12.09.2019
2034 Clouds 12 1009 81 10000 7.7 20 20:20 12.09.2019
2035 Clouds 12 1009 81 10000 7.7 20 20:20 12.09.2019
2036 Clouds 11 1009 81 10000 8.2 10 19:54 12.09.2019
2037 Clouds 12 1009 81 10000 10.3 10 19:36 12.09.2019
2038 Clouds 12 1009 81 10000 8.7 10 19:18 12.09.2019
2039 Clouds 12 1009 81 10000 8.2 10 18:38 12.09.2019
2040 Clouds 12 1009 81 10000 8.2 10 18:38 12.09.2019
2041 Clouds 12 1009 81 10000 8.2 10 18:19 12.09.2019
2042 Clouds 11 1009 81 10000 7.7 10 17:57 12.09.2019
2043 Clouds 12 1009 76 10000 8.2 30 17:38 12.09.2019
2044 Clouds 12 1009 76 10000 8.2 30 17:19 12.09.2019
2045 Clouds 11 1009 71 10000 10.8 360 16:42 12.09.2019
2046 Clouds 12 1009 71 10000 10.8 360 16:22 12.09.2019
2047 Clouds 12 1009 62 10000 5.7 360 15:55 12.09.2019
2048 Clouds 12 1009 62 10000 5.7 360 15:55 12.09.2019
2049 Clouds 12 1009 62 10000 6.7 360 15:36 12.09.2019
2050 Clear 12 1009 62 10000 6.7 360 15:18 12.09.2019
2051 Clear 12 1009 62 10000 7.2 30 14:41 12.09.2019
2052 Clear 12 1009 62 10000 7.2 30 14:21 12.09.2019
2053 Clear 12 1009 71 10000 8.2 10 13:40 12.09.2019
2054 Clear 12 1009 71 10000 8.2 10 13:22 12.09.2019
2055 Clear 11 1009 71 10000 7.2 20 12:49 12.09.2019
2056 Clear 11 1009 71 10000 7.7 20 12:20 12.09.2019
2057 Clear 11 1010 71 10000 6.7 30 12:00 12.09.2019
2058 Clear 11 1010 71 10000 7.7 20 11:41 12.09.2019
2059 Clear 12 1010 71 10000 7.7 20 11:21 12.09.2019
2060 Clear 12 1010 76 10000 6.2 20 10:57 12.09.2019
2061 Clear 11 1010 76 10000 6.7 20 10:39 12.09.2019
2062 Clear 11 1010 76 10000 6.7 20 10:20 12.09.2019
2063 Clear 11 1010 76 10000 7.2 20 09:43 12.09.2019
2064 Clouds 11 1010 76 10000 7.2 20 09:20 12.09.2019
2065 Clouds 12 1009 66 10000 6.7 20 08:45 12.09.2019
2066 Clouds 12 1009 71 10000 9.3 10 08:25 12.09.2019
2067 Clouds 13 1009 71 10000 9.3 10 07:56 12.09.2019
2068 Clouds 13 1009 67 10000 9.3 10 07:38 12.09.2019
2069 Clouds 13 1009 62 10000 10.3 360 07:18 12.09.2019
2070 Clouds 14 1009 62 10000 9.8 10 06:46 12.09.2019
2071 Clear 14 1009 62 10000 9.8 10 06:19 12.09.2019
2072 Clear 14 1010 58 10000 9.8 360 05:47 12.09.2019
2073 Clear 13 1010 58 10000 9.8 360 05:27 12.09.2019
2074 Clear 15 1011 51 10000 10.3 360 03:59 12.09.2019
2075 Clear 14 1012 58 10000 8.7 350 01:47 12.09.2019
2076 Clear 14 1012 66 10000 9.3 360 01:28 12.09.2019
2077 Clear 13 1013 66 10000 8.7 360 00:50 12.09.2019
2078 Clear 12 1013 66 10000 7.2 20 00:31 12.09.2019
2079 Clear 12 1013 71 10000 6.7 20 23:55 11.09.2019
2080 Clear 11 1013 71 10000 6.2 20 23:36 11.09.2019
2081 Clear 11 1013 71 10000 6.2 20 23:18 11.09.2019
2082 Clear 10 1013 71 10000 5.1 20 22:55 11.09.2019
2083 Clear 10 1013 76 10000 5.7 40 22:36 11.09.2019
2084 Clear 9 1013 76 10000 5.7 40 22:18 11.09.2019
2085 Clear 7 1012 81 10000 5.1 30 21:41 11.09.2019
2086 Clouds 5 1012 81 10000 5.1 30 21:22 11.09.2019
2087 Clouds 6 1012 81 10000 4.1 20 20:56 11.09.2019
2088 Clouds 5 1012 81 10000 4.1 20 20:38 11.09.2019
2089 Clouds 5 1012 81 10000 4.1 20 20:19 11.09.2019
2090 Clouds 5 1012 81 10000 5.1 360 19:56 11.09.2019
2091 Clouds 6 1012 81 10000 5.1 20 19:37 11.09.2019
2092 Clouds 5 1012 81 10000 5.1 20 19:19 11.09.2019
2093 Clouds 6 1012 81 10000 4.1 10 18:44 11.09.2019
2094 Clouds 4 1012 81 10000 4.1 10 18:26 11.09.2019
2095 Clouds 5 1012 81 10000 3.6 20 18:00 11.09.2019
2096 Clouds 5 1012 81 10000 4.1 20 17:41 11.09.2019
2097 Clouds 5 1012 81 10000 4.1 20 17:22 11.09.2019
2098 Clouds 5 1012 81 10000 4.1 20 16:57 11.09.2019
2099 Clouds 4 1012 81 10000 3.1 20 16:38 11.09.2019
2100 Clouds 5 1012 81 10000 3.1 20 16:19 11.09.2019
2101 Clouds 5 1013 81 10000 3.6 20 15:47 11.09.2019
2102 Clouds 5 1013 81 10000 3.6 20 15:47 11.09.2019
2103 Clouds 6 1013 87 10000 2.6 360 15:24 11.09.2019
2104 Clouds 6 1013 81 10000 2.6 40 14:58 11.09.2019
2105 Clouds 6 1013 81 10000 1.5 70 14:39 11.09.2019
2106 Clouds 6 1013 81 10000 1.5 70 14:20 11.09.2019
2107 Clouds 6 1013 81 10000 1.5 70 14:20 11.09.2019
2108 Clouds 6 1012 75 10000 2.1 30 13:58 11.09.2019
2109 Clouds 7 1013 70 10000 1.5 80 13:37 11.09.2019
2110 Clouds 7 1013 66 10000 2.1 150 13:18 11.09.2019
2111 Clouds 8 1013 61 10000 2.6 140 12:42 11.09.2019
2112 Clouds 8 1013 61 10000 2.6 140 12:21 11.09.2019
2113 Clouds 8 1013 61 10000 3.1 140 11:56 11.09.2019
2114 Clouds 8 1013 61 10000 3.1 140 11:37 11.09.2019
2115 Clouds 8 1013 61 10000 3.1 140 11:18 11.09.2019
2116 Clouds 8 1013 61 10000 3.1 140 11:18 11.09.2019
2117 Clouds 8 1012 66 10000 1.5 140 10:41 11.09.2019
2118 Clouds 8 1012 66 10000 1.5 140 10:22 11.09.2019
2119 Clouds 9 1012 61 10000 2.6 150 09:57 11.09.2019
2120 Clouds 9 1012 61 10000 3.1 150 09:37 11.09.2019
2121 Clouds 9 1012 61 10000 3.1 150 09:18 11.09.2019
2122 Clouds 9 1011 66 10000 6.7 150 08:40 11.09.2019
2123 Clouds 9 1011 66 10000 6.7 150 08:21 11.09.2019
2124 Clouds 10 1011 66 10000 6.2 140 07:49 11.09.2019
2125 Clouds 10 1010 61 10000 6.2 150 07:23 11.09.2019
2126 Clouds 10 1010 66 10000 6.7 150 06:56 11.09.2019
2127 Clouds 11 1010 66 10000 6.7 170 06:36 11.09.2019
2128 Clouds 11 1010 66 10000 7.7 170 05:50 11.09.2019
2129 Clouds 11 1010 66 10000 8.7 170 05:30 11.09.2019
2130 Clouds 11 1010 71 10000 8.7 170 04:51 11.09.2019
2131 Clouds 12 1009 71 10000 8.7 180 03:40 11.09.2019
2132 Clouds 12 1009 71 10000 8.7 180 03:40 11.09.2019
2133 Clear 12 1009 71 10000 8.7 180 03:20 11.09.2019
2134 Rain 12 1009 71 10000 10.3 180 02:28 11.09.2019
2135 Rain 11 1008 76 10000 11.8 190 01:21 11.09.2019
2136 Clear 11 1007 71 10000 7.7 190 00:31 11.09.2019
2137 Clear 11 1007 66 10000 2.6 200 23:58 10.09.2019
2138 Clear 12 1006 66 10000 2.1 10 23:39 10.09.2019
2139 Clear 11 1006 66 10000 2.1 10 23:20 10.09.2019
2140 Clear 9 1005 76 10000 3.6 360 22:42 10.09.2019
2141 Clear 9 1005 76 10000 3.6 360 22:21 10.09.2019
2142 Clear 7 1005 81 10000 3.6 20 21:57 10.09.2019
2143 Clear 7 1004 81 10000 5.1 10 21:38 10.09.2019
2144 Clear 7 1004 81 10000 5.1 10 21:38 10.09.2019
2145 Clear 5 1004 81 10000 5.1 10 21:20 10.09.2019
2146 Clear 6 1003 70 10000 5.7 20 20:58 10.09.2019
2147 Clear 5 1003 70 10000 6.2 30 20:40 10.09.2019
2148 Clear 5 1003 70 10000 6.2 30 20:22 10.09.2019
2149 Clear 5 1002 75 10000 6.7 20 19:57 10.09.2019
2150 Clear 5 1002 75 10000 7.7 20 19:38 10.09.2019
2151 Clear 5 1002 75 10000 7.7 20 19:20 10.09.2019
2152 Clear 5 1002 75 10000 7.7 10 18:58 10.09.2019
2153 Clear 6 1002 75 10000 7.7 20 18:39 10.09.2019
2154 Clear 5 1002 75 10000 7.7 20 18:21 10.09.2019
2155 Clear 5 1002 87 10000 7.2 20 17:54 10.09.2019
2156 Clear 5 1002 87 10000 4.1 20 17:36 10.09.2019
2157 Clear 5 1002 87 10000 4.1 20 17:36 10.09.2019
2158 Clear 5 1002 87 10000 4.1 20 17:18 10.09.2019
2159 Clear 4 1002 81 10000 4.6 20 16:55 10.09.2019
2160 Clear 4 1002 81 10000 4.6 20 16:55 10.09.2019
2161 -273 0 0 0 0 0 16:55 10.09.2019
2162 Clear 3 1003 81 10000 3.6 20 16:36 10.09.2019
2163 Clear 5 1003 81 10000 3.6 20 16:18 10.09.2019
2164 Clear 5 1003 81 10000 3.6 20 16:18 10.09.2019
2165 Clear 4 1003 81 10000 3.1 30 15:42 10.09.2019
2166 Clouds 5 1003 81 10000 3.1 30 15:21 10.09.2019
2167 Clouds 4 1004 81 10000 2.6 20 14:43 10.09.2019
2168 Clouds 4 1004 81 10000 2.6 20 14:43 10.09.2019
2169 Clouds 4 1004 81 10000 2.6 20 14:25 10.09.2019
2170 Clouds 4 1004 75 10000 3.1 20 13:59 10.09.2019
2171 Clouds 4 1004 75 10000 3.1 10 13:40 10.09.2019
2172 Clouds 4 1004 75 10000 3.1 10 13:40 10.09.2019
2173 Clear 5 1004 75 10000 3.1 10 13:22 10.09.2019
2174 Clear 5 1004 75 10000 3.1 10 13:22 10.09.2019
2175 Clear 5 1004 70 10000 2.6 30 12:49 10.09.2019
2176 Clear 5 1005 65 10000 1 360 12:27 10.09.2019
2177 Clear 6 1004 66 10000 2.1 40 11:58 10.09.2019
2178 Clear 6 1004 66 10000 2.1 340 11:39 10.09.2019
2179 Clear 6 1004 66 10000 2.1 340 11:21 10.09.2019
2180 Clear 7 1004 66 10000 3.6 360 10:42 10.09.2019
2181 Clear 7 1004 66 10000 3.6 360 10:20 10.09.2019
2182 Clear 8 1003 61 10000 4.1 30 09:57 10.09.2019
2183 Clear 8 1003 61 10000 3.1 20 09:39 10.09.2019
2184 Clouds 9 1003 53 10000 3.1 50 09:19 10.09.2019
2185 Clouds 10 1003 46 10000 3.1 70 08:45 10.09.2019
2186 Clouds 10 1003 46 10000 3.1 70 08:27 10.09.2019
2187 Clouds 11 1003 47 10000 4.6 50 07:46 10.09.2019
2188 Clouds 11 1003 47 10000 4.6 50 07:27 10.09.2019
2189 Clouds 12 1003 50 10000 2.6 140 06:56 10.09.2019
2190 Clouds 13 1003 62 10000 5.1 150 06:36 10.09.2019
2191 Clouds 13 1003 66 10000 3.6 150 05:48 10.09.2019
2192 Clouds 13 1004 47 10000 1.5 60 03:58 10.09.2019
2193 Clouds 13 1004 47 10000 1.5 60 03:58 10.09.2019
2194 Clouds 13 1004 50 10000 2.6 70 02:38 10.09.2019
2195 Clouds 13 1005 50 10000 3.1 100 02:19 10.09.2019
2196 Clouds 13 1005 50 10000 4.1 100 01:45 10.09.2019
2197 Clouds 12 1005 50 10000 4.1 100 01:21 10.09.2019
2198 Clouds 12 1005 50 10000 4.1 100 01:21 10.09.2019
2199 Clouds 11 1005 62 10000 4.6 160 00:28 10.09.2019
2200 Clouds 10 1005 57 10000 3.6 150 23:48 09.09.2019
2201 Clouds 10 1005 57 10000 3.6 150 23:20 09.09.2019
2202 Clouds 9 1005 61 10000 4.1 150 22:58 09.09.2019
2203 Clouds 8 1005 57 10000 4.6 150 22:39 09.09.2019
2204 Clouds 8 1005 57 10000 4.6 150 22:21 09.09.2019
2205 Clouds 7 1005 61 10000 4.1 150 21:58 09.09.2019
2206 Clouds 7 1005 61 10000 4.6 160 21:40 09.09.2019
2207 Clouds 6 1005 61 10000 4.6 160 21:21 09.09.2019
2208 Clouds 5 1005 65 10000 4.1 150 20:57 09.09.2019
2209 Clouds 5 1005 65 10000 3.1 140 20:37 09.09.2019
2210 Clouds 5 1005 65 10000 4.1 140 20:19 09.09.2019
2211 Clouds 5 1005 65 10000 4.1 140 19:59 09.09.2019
2212 Clouds 5 1005 63 10000 3.1 130 19:39 09.09.2019
2213 Clouds 5 1005 56 10000 3.6 140 19:20 09.09.2019
2214 Clouds 5 1005 56 10000 3.6 140 19:20 09.09.2019
2215 Clouds 6 1005 56 10000 3.6 140 18:58 09.09.2019
2216 Clouds 6 1005 56 10000 3.6 140 18:40 09.09.2019
2217 Clouds 6 1005 56 10000 3.1 130 18:21 09.09.2019
2218 Clouds 6 1005 56 10000 3.1 130 17:58 09.09.2019
2219 Clouds 6 1005 62 10000 4.1 130 17:40 09.09.2019
2220 Clouds 6 1005 62 10000 4.1 130 17:21 09.09.2019
2221 Clouds 6 1005 62 10000 3.6 130 16:56 09.09.2019
2222 Clouds 6 1006 62 10000 4.1 120 16:38 09.09.2019
2223 Clouds 6 1006 62 10000 4.1 120 16:38 09.09.2019
2224 Clouds 6 1006 62 10000 3.6 130 16:19 09.09.2019
2225 Clouds 6 1006 62 10000 3.6 130 15:56 09.09.2019
2226 Clouds 6 1006 62 10000 3.6 130 15:56 09.09.2019
2227 Clouds 6 1006 56 10000 3.1 130 15:37 09.09.2019
2228 Clouds 5 1004 67 0 0.89 198 15:18 09.09.2019
2229 -273 0 0 0 0 0 14:55 09.09.2019
2230 Clouds 6 1006 52 10000 3.6 130 14:37 09.09.2019
2231 Clouds 6 1006 52 10000 3.6 130 14:37 09.09.2019
2232 Clouds 6 1004 66 0 0.45 115 14:18 09.09.2019
2233 Clouds 6 1004 66 0 0.45 206 13:44 09.09.2019
2234 Clouds 6 1004 68 0 0.45 128 13:20 09.09.2019
2235 Clouds 6 1006 56 10000 2.6 130 12:58 09.09.2019
2236 Clouds 6 1006 56 10000 3.1 120 12:38 09.09.2019
2237 Clouds 6 1006 56 10000 2.6 110 12:20 09.09.2019
2238 Clouds 6 1006 56 10000 2.6 110 12:19 09.09.2019
2239 Clouds 6 1001 62 0 0.45 180 11:47 09.09.2019
2240 Clouds 6 1006 49 10000 4.1 100 11:23 09.09.2019
2241 Clouds 7 1006 49 10000 4.1 120 10:58 09.09.2019
2242 Clouds 6 1006 49 10000 5.7 140 10:40 09.09.2019
2243 Clouds 7 1006 49 10000 5.7 140 10:20 09.09.2019
2244 Clouds 7 1006 52 10000 5.1 140 09:56 09.09.2019
2245 Clouds 7 1005 64 10000 7.2 140 09:37 09.09.2019
2246 Clouds 7 1005 64 10000 7.2 140 09:37 09.09.2019
2247 Clouds 7 1005 64 10000 6.7 140 09:19 09.09.2019
2248 Clouds 7 1005 61 10000 6.7 140 08:38 09.09.2019
2249 Clouds 7 1005 61 10000 6.7 140 08:20 09.09.2019
2250 Clouds 8 1005 61 10000 9.3 140 07:46 09.09.2019
2251 Clouds 8 1005 61 10000 9.3 140 07:22 09.09.2019
2252 Clouds 8 1005 57 10000 10.3 140 06:56 09.09.2019
2253 Clouds 8 1005 65 10000 9.8 140 06:32 09.09.2019
2254 Rain 10 1005 57 10000 9.3 140 04:55 09.09.2019
2255 Rain 10 1005 57 10000 9.3 140 04:55 09.09.2019
2256 Rain 10 1005 57 10000 9.3 140 04:55 09.09.2019
2257 Rain 9 1006 70 10000 8.7 150 02:43 09.09.2019
2258 Rain 8 1006 81 10000 8.7 140 02:19 09.09.2019
2259 Rain 8 1006 65 10000 8.7 160 00:41 09.09.2019
2260 Clouds 8 1006 75 10000 8.7 160 00:21 09.09.2019
2261 Clouds 8 1006 75 10000 9.8 160 23:44 08.09.2019
2262 Clouds 7 1006 75 10000 9.8 160 23:23 08.09.2019
2263 Rain 8 1006 70 10000 7.2 140 22:56 08.09.2019
2264 Clouds 7 1006 75 10000 9.3 160 22:37 08.09.2019
2265 Clouds 7 1005 70 10000 9.3 160 22:19 08.09.2019
2266 Drizzle 6 1005 70 10000 9.8 160 21:42 08.09.2019
2267 Drizzle 6 1005 70 10000 9.8 160 21:42 08.09.2019
2268 Drizzle 6 1005 70 10000 9.8 160 21:22 08.09.2019
2269 Clouds 6 1004 77 0 0.89 184 20:58 08.09.2019
2270 Clouds 6 1005 65 10000 9.8 160 20:39 08.09.2019
2271 Clouds 6 1005 65 10000 9.8 160 20:20 08.09.2019
2272 Clouds 6 1005 65 10000 10.3 140 19:58 08.09.2019
2273 Clouds 7 1004 61 10000 10.3 170 19:38 08.09.2019
2274 Clouds 7 1004 66 10000 9.8 160 19:19 08.09.2019
2275 Clouds 7 1004 66 10000 9.8 160 18:57 08.09.2019
2276 Clouds 6 1004 66 10000 9.8 160 18:38 08.09.2019
2277 Rain 6 1003 67 0 1.34 136 18:18 08.09.2019
2278 Rain 6 1004 70 10000 8.7 160 17:54 08.09.2019
2279 Rain 6 1005 61 10000 9.3 160 17:36 08.09.2019
2280 Rain 7 1005 65 10000 9.8 150 17:18 08.09.2019
2281 Rain 7 1005 61 10000 8.7 150 16:43 08.09.2019
2282 Rain 7 1005 61 10000 8.7 150 16:22 08.09.2019
2283 Rain 7 1005 61 10000 8.7 160 15:58 08.09.2019
2284 Rain 6 1005 75 10000 7.7 160 15:40 08.09.2019
2285 Rain 6 1005 75 10000 7.7 160 15:21 08.09.2019
2286 Clouds 6 1005 75 10000 11.3 160 14:55 08.09.2019
2287 Rain 7 1005 75 10000 8.2 160 14:36 08.09.2019
2288 Clouds 7 1005 65 10000 8.2 160 14:18 08.09.2019
2289 Clouds 7 1005 65 10000 8.2 160 13:55 08.09.2019
2290 Clouds 7 1005 61 10000 8.7 160 13:36 08.09.2019
2291 Clouds 7 1005 65 10000 8.2 150 13:18 08.09.2019
2292 Clouds 7 1005 70 10000 8.7 150 12:41 08.09.2019
2293 Clouds 7 1005 70 10000 8.7 150 12:23 08.09.2019
2294 Clouds 7 1005 70 10000 8.7 150 11:58 08.09.2019
2295 Clouds 7 1005 66 10000 8.7 150 11:38 08.09.2019
2296 Clouds 7 1005 66 10000 8.7 150 11:38 08.09.2019
2297 Clouds 7 1005 66 10000 8.7 150 11:38 08.09.2019
2298 Clouds 7 1005 66 10000 8.7 150 11:38 08.09.2019
2299 Clouds 7 1005 66 10000 8.7 150 11:20 08.09.2019
2300 Clouds 7 1004 66 10000 8.7 150 10:56 08.09.2019
2301 Clouds 7 999 73 0 1.34 68 10:38 08.09.2019
2302 Clouds 7 1004 75 10000 9.3 160 10:19 08.09.2019
2303 Clouds 7 1004 75 10000 9.8 160 09:38 08.09.2019
2304 Rain 8 1004 75 10000 9.8 160 09:20 08.09.2019
2305 Rain 8 1004 76 10000 9.3 150 08:56 08.09.2019
2306 Rain 8 1003 87 9000 9.3 150 08:37 08.09.2019
2307 Rain 8 1003 87 10000 9.8 160 08:18 08.09.2019
2308 Rain 8 1003 81 10000 8.2 160 07:39 08.09.2019
2309 Rain 9 1003 76 10000 8.7 150 07:20 08.09.2019
2310 Rain 9 1002 66 10000 7.7 160 06:47 08.09.2019
2311 Clouds 10 1002 71 10000 8.7 150 06:18 08.09.2019
2312 Clouds 10 1002 81 10000 8.7 160 05:36 08.09.2019
2313 Clouds 10 1002 66 10000 8.2 150 03:53 08.09.2019
2314 -273 0 0 0 0 0 02:55 08.09.2019
2315 Rain 9 1003 66 10000 4.6 150 02:26 08.09.2019
2316 Rain 9 1003 71 10000 3.6 160 01:39 08.09.2019
2317 Rain 9 1003 76 10000 5.1 150 01:18 08.09.2019
2318 Rain 10 1003 71 10000 5.1 150 00:42 08.09.2019
2319 Rain 9 1003 71 10000 5.1 150 00:23 08.09.2019
2320 Rain 9 1003 87 10000 2.6 200 23:38 07.09.2019
2321 Rain 9 1003 87 10000 2.6 200 23:38 07.09.2019
2322 Rain 9 1003 87 10000 2.6 200 23:19 07.09.2019
2323 Rain 8 1003 87 10000 1 150 22:57 07.09.2019
2324 Rain 8 1003 87 10000 1.5 30 22:38 07.09.2019
2325 Rain 7 1003 93 10000 1.5 360 22:19 07.09.2019
2326 Rain 7 1002 87 10000 1.5 10 21:42 07.09.2019
2327 Clouds 7 1002 87 10000 1.5 10 21:23 07.09.2019
2328 Clouds 7 1002 87 10000 1.5 40 20:57 07.09.2019
2329 Clouds 7 1002 87 10000 1 10 20:37 07.09.2019
2330 Clouds 7 1002 81 10000 1 80 20:18 07.09.2019
2331 Clouds 7 1002 81 10000 1 80 19:54 07.09.2019
2332 Clouds 7 1002 87 10000 1 350 19:36 07.09.2019
2333 Clouds 7 1002 87 10000 1 110 19:18 07.09.2019
2334 Clouds 7 1002 87 10000 1 110 18:54 07.09.2019
2335 Clouds 7 1002 87 10000 1 80 18:36 07.09.2019
2336 Clouds 7 1002 81 10000 0.5 100 18:18 07.09.2019
2337 Clouds 7 1002 81 10000 0.5 100 17:54 07.09.2019
2338 Clouds 6 1003 81 10000 2.1 30 17:36 07.09.2019
2339 Clouds 7 1004 81 10000 1.5 60 17:18 07.09.2019
2340 Clouds 7 1004 81 10000 1.5 30 16:42 07.09.2019
2341 Clouds 7 1004 81 10000 1.5 30 16:20 07.09.2019
2342 Clouds 7 1005 81 10000 1 60 15:49 07.09.2019
2343 Clouds 7 1005 81 10000 1 60 15:26 07.09.2019
2344 Clouds 7 1005 81 10000 1 80 14:58 07.09.2019
2345 Clouds 7 1005 81 10000 1.5 20 14:37 07.09.2019
2346 Clouds 7 1005 81 10000 1.5 20 14:19 07.09.2019
2347 Clouds 7 1005 75 10000 2.6 40 13:58 07.09.2019
2348 Clouds 7 1005 75 10000 1 70 13:40 07.09.2019
2349 Clouds 7 1005 75 10000 1 70 13:40 07.09.2019
2350 Clouds 7 1005 75 10000 1 70 13:40 07.09.2019
2351 Clouds 7 1005 75 10000 1 70 13:40 07.09.2019
2352 Clouds 7 1005 75 10000 1 70 13:22 07.09.2019
2353 Clouds 8 1005 70 9000 1.5 310 12:45 07.09.2019
2354 Clouds 8 1005 70 9000 1.5 310 12:26 07.09.2019
2355 Clouds 8 1005 66 10000 1.5 30 11:58 07.09.2019
2356 Clouds 8 1005 66 10000 1.5 110 11:39 07.09.2019
2357 Clouds 8 1005 66 10000 1.5 130 11:19 07.09.2019
2358 Clouds 8 1005 66 10000 2.6 130 10:41 07.09.2019
2359 Clouds 8 1005 66 10000 2.6 130 10:41 07.09.2019
2360 Clouds 8 1005 66 10000 2.6 130 10:22 07.09.2019
2361 Clouds 8 1005 70 10000 2.6 160 09:56 07.09.2019
2362 Clouds 8 1005 66 10000 2.1 140 09:38 07.09.2019
2363 Clouds 8 1005 66 10000 2.1 140 09:20 07.09.2019
2364 Clouds 8 1005 66 10000 2.1 140 09:20 07.09.2019
2365 Clouds 8 1004 66 10000 3.6 150 08:44 07.09.2019
2366 Clouds 8 1004 66 10000 3.6 150 08:26 07.09.2019
2367 Clouds 9 1004 66 10000 4.6 150 07:48 07.09.2019
2368 Clouds 9 1004 66 10000 4.6 150 07:28 07.09.2019
2369 Clouds 10 1004 66 10000 4.6 160 06:53 07.09.2019
2370 Clouds 10 1004 66 10000 5.7 180 06:21 07.09.2019
2371 Clouds 11 1004 66 10000 7.2 170 05:31 07.09.2019
2372 Clouds 11 1004 66 10000 7.7 170 04:23 07.09.2019
2373 Clouds 11 1005 66 10000 8.2 180 02:52 07.09.2019
2374 Clouds 11 1005 66 10000 9.3 180 02:20 07.09.2019
2375 Clouds 10 1005 71 10000 10.3 190 01:26 07.09.2019
2376 Clouds 10 1005 66 9000 11.3 190 00:44 07.09.2019
2377 Clouds 10 1005 71 10000 11.3 190 00:21 07.09.2019
2378 Clouds 9 1004 70 9000 9.8 190 23:43 06.09.2019
2379 Clouds 9 1004 70 9000 9.8 190 23:22 06.09.2019
2380 Clouds 9 1004 70 9000 10.3 190 22:58 06.09.2019
2381 Clouds 9 1004 66 9000 11.3 190 22:39 06.09.2019
2382 Clouds 8 1003 70 10000 12.3 190 22:19 06.09.2019
2383 Clouds 8 1003 70 10000 12.3 190 21:58 06.09.2019
2384 Clouds 8 1003 70 10000 12.3 190 21:58 06.09.2019
2385 Clouds 7 1003 70 10000 12.3 200 21:39 06.09.2019
2386 Clouds 7 1003 70 10000 12.3 200 21:21 06.09.2019
2387 Clouds 7 1003 70 9000 12.9 200 20:58 06.09.2019
2388 Rain 7 1002 76 10000 13.9 200 20:39 06.09.2019
2389 Rain 7 1002 76 10000 13.9 200 20:21 06.09.2019
2390 Rain 7 1002 76 9000 14.9 200 19:57 06.09.2019
2391 Clouds 7 1002 76 8000 14.4 200 19:39 06.09.2019
2392 Rain 7 1001 76 10000 15.4 200 19:20 06.09.2019
2393 Clouds 8 1001 76 7000 15.4 210 18:47 06.09.2019
2394 Clouds 7 1001 76 7000 15.4 210 18:27 06.09.2019
2395 Clouds 8 1000 76 8000 15.9 200 17:59 06.09.2019
2396 Clouds 8 1000 76 8000 15.9 200 17:59 06.09.2019
2397 Rain 8 1000 71 10000 15.4 190 17:38 06.09.2019
2398 Rain 8 1000 76 10000 15.9 200 17:19 06.09.2019
2399 Rain 8 999 71 10000 17.5 200 16:42 06.09.2019
2400 Rain 8 999 76 10000 17.5 200 16:19 06.09.2019
2401 Rain 8 999 76 10000 17.5 200 15:56 06.09.2019
2402 Haze 8 999 76 5000 18 200 15:38 06.09.2019
2403 Haze 8 999 76 5000 18 200 15:20 06.09.2019
2404 Rain 8 998 76 10000 17 200 14:39 06.09.2019
2405 Clouds 8 998 81 7000 16.5 200 14:18 06.09.2019
2406 Clouds 8 997 87 7000 15.9 200 13:43 06.09.2019
2407 Clouds 8 997 87 7000 15.9 200 13:22 06.09.2019
2408 Rain 8 997 87 10000 15.9 200 12:41 06.09.2019
2409 Rain 8 997 87 10000 15.9 200 12:23 06.09.2019
2410 Rain 8 997 81 10000 16.5 200 11:58 06.09.2019
2411 Rain 8 996 87 6000 13.9 190 11:40 06.09.2019
2412 Rain 8 996 87 6000 13.9 190 11:21 06.09.2019
2413 Rain 8 996 81 10000 16.5 200 10:43 06.09.2019
2414 Rain 8 996 81 10000 16.5 200 10:22 06.09.2019
2415 Rain 8 996 87 10000 13.9 200 09:58 06.09.2019
2416 Rain 8 995 93 10000 14.9 200 09:37 06.09.2019
2417 Rain 8 995 81 10000 14.9 200 09:19 06.09.2019
2418 Rain 9 995 81 6000 14.9 200 08:45 06.09.2019
2419 Rain 9 995 81 6000 14.9 200 08:45 06.09.2019
2420 Rain 9 995 81 6000 14.9 200 08:26 06.09.2019
2421 Rain 9 994 81 10000 15.4 200 07:51 06.09.2019
2422 Rain 9 994 81 10000 14.9 200 07:28 06.09.2019
2423 Rain 9 993 81 8000 14.4 190 06:59 06.09.2019
2424 Rain 9 993 81 10000 14.9 190 06:41 06.09.2019
2425 Clouds 10 993 76 10000 14.4 200 05:47 06.09.2019
2426 Clouds 10 993 76 10000 12.9 200 04:55 06.09.2019
2427 Clouds 11 992 76 10000 11.8 200 04:25 06.09.2019
2428 Clouds 11 993 76 10000 11.8 200 02:46 06.09.2019
2429 Clouds 11 992 81 10000 10.8 190 00:58 06.09.2019
2430 Clouds 10 992 76 10000 10.8 200 00:22 06.09.2019
2431 Rain 10 992 81 10000 8.2 190 23:41 05.09.2019
2432 Rain 10 992 81 10000 8.2 190 23:22 05.09.2019
2433 Clouds 10 991 76 10000 8.2 180 22:46 05.09.2019
2434 Clouds 10 991 76 10000 8.2 180 22:46 05.09.2019
2435 Clouds 9 991 76 10000 8.2 180 22:26 05.09.2019
2436 Drizzle 9 991 81 10000 8.7 190 21:58 05.09.2019
2437 Rain 9 991 81 10000 8.2 190 21:39 05.09.2019
2438 Rain 9 991 81 10000 8.2 190 21:20 05.09.2019
2439 Rain 9 991 81 10000 8.7 180 20:58 05.09.2019
2440 Rain 9 991 81 10000 9.3 190 20:39 05.09.2019
2441 Rain 9 991 87 10000 9.3 190 20:20 05.09.2019
2442 Rain 9 991 87 10000 9.3 190 19:57 05.09.2019
2443 Rain 9 990 87 10000 9.3 190 19:39 05.09.2019
2444 Rain 9 990 87 10000 10.8 200 19:20 05.09.2019
2445 Rain 9 990 87 9000 8.7 190 18:45 05.09.2019
2446 Rain 9 990 87 9000 8.7 190 18:27 05.09.2019
2447 Rain 9 990 93 10000 9.3 200 17:59 05.09.2019
2448 Rain 9 990 87 9000 10.8 200 17:40 05.09.2019
2449 Rain 9 990 87 9000 10.8 200 17:22 05.09.2019
2450 Rain 9 990 87 8000 10.3 190 16:57 05.09.2019
2451 Rain 9 990 87 8000 10.3 190 16:57 05.09.2019
2452 Rain 9 990 87 9000 10.8 190 16:39 05.09.2019
2453 Rain 9 990 87 7000 11.3 190 16:19 05.09.2019
2454 Rain 9 990 87 3900 11.3 200 15:40 05.09.2019
2455 Rain 9 990 87 10000 10.3 190 15:19 05.09.2019
2456 Rain 9 990 87 10000 10.3 190 14:58 05.09.2019
2457 Rain 9 990 87 9000 10.3 190 14:40 05.09.2019
2458 Drizzle 9 990 87 10000 9.3 190 14:19 05.09.2019
2459 Rain 10 990 87 9000 9.8 190 13:43 05.09.2019
2460 Rain 10 990 87 9000 9.8 190 13:21 05.09.2019
2461 Rain 10 990 93 10000 8.2 180 12:46 05.09.2019
2462 Rain 10 990 93 10000 8.2 180 12:27 05.09.2019
2463 Rain 10 990 93 9000 9.8 190 11:58 05.09.2019
2464 Drizzle 10 990 87 10000 8.2 180 11:40 05.09.2019
2465 Drizzle 10 990 87 10000 8.7 180 11:19 05.09.2019
2466 Rain 10 990 93 10000 8.2 180 10:42 05.09.2019
2467 Rain 10 990 93 10000 8.2 180 10:22 05.09.2019
2468 Rain 10 990 93 10000 8.2 180 10:22 05.09.2019
2469 Rain 10 990 93 10000 8.7 180 09:58 05.09.2019
2470 Rain 10 990 93 10000 8.7 180 09:58 05.09.2019
2471 Rain 10 990 93 10000 7.2 180 09:39 05.09.2019
2472 Rain 10 990 93 10000 7.2 170 09:18 05.09.2019
2473 Rain 10 990 93 10000 7.2 170 09:18 05.09.2019
2474 Rain 10 990 93 10000 7.2 170 09:18 05.09.2019
2475 Rain 10 990 93 10000 6.7 170 08:45 05.09.2019
2476 Rain 10 990 93 10000 6.7 170 08:26 05.09.2019
2477 Rain 11 990 93 10000 7.7 180 07:46 05.09.2019
2478 Rain 11 990 93 10000 7.7 180 07:27 05.09.2019
2479 Rain 10 990 93 8000 8.7 180 06:58 05.09.2019
2480 Rain 11 990 93 9000 9.3 180 06:31 05.09.2019
2481 Rain 11 990 93 9000 9.3 180 06:31 05.09.2019
2482 Rain 11 990 93 5000 8.7 190 05:50 05.09.2019
2483 Rain 10 990 93 5000 8.7 190 05:30 05.09.2019
2484 Rain 11 991 93 10000 8.2 180 04:50 05.09.2019
2485 Rain 11 991 93 10000 8.2 180 04:25 05.09.2019
2486 Rain 11 992 93 10000 7.2 180 03:38 05.09.2019
2487 Rain 11 992 93 7000 8.7 180 02:46 05.09.2019
2488 Rain 11 992 93 7000 8.7 180 02:26 05.09.2019
2489 Rain 11 993 93 6000 7.2 180 01:37 05.09.2019
2490 Rain 11 993 93 6000 7.2 180 01:37 05.09.2019
2491 Rain 11 994 93 5000 7.2 170 00:44 05.09.2019
2492 Rain 11 994 93 5000 7.2 170 00:21 05.09.2019
2493 Rain 11 994 93 5000 7.2 170 23:55 04.09.2019
2494 Rain 11 994 100 7000 7.2 180 23:36 04.09.2019
2495 Rain 11 994 100 8000 8.2 180 23:18 04.09.2019
2496 Rain 11 994 100 5000 8.7 180 22:40 04.09.2019
2497 Rain 11 994 100 3400 9.3 180 22:19 04.09.2019
2498 Drizzle 11 994 100 4000 8.7 180 21:40 04.09.2019
2499 Drizzle 11 994 100 4000 8.7 180 21:20 04.09.2019
2500 Rain 11 994 100 10000 7.7 180 20:57 04.09.2019
2501 Rain 11 994 100 10000 7.7 190 20:39 04.09.2019
2502 Clouds 11 995 100 9000 6.7 190 20:19 04.09.2019
2503 Clouds 11 995 100 9000 6.7 190 19:56 04.09.2019
2504 Mist 11 995 100 6000 6.2 180 19:38 04.09.2019
2505 Mist 11 995 100 6000 6.2 180 19:38 04.09.2019
2506 Clouds 12 995 100 10000 5.1 180 19:19 04.09.2019
2507 Rain 12 995 100 8000 5.1 180 18:38 04.09.2019
2508 Rain 12 995 100 8000 4.6 200 18:20 04.09.2019
2509 Rain 12 995 100 8000 4.6 200 17:54 04.09.2019
2510 Rain 12 996 100 4300 3.6 200 17:36 04.09.2019
2511 Rain 12 996 100 4100 4.1 210 17:18 04.09.2019
2512 Rain 12 997 100 5000 3.6 200 16:42 04.09.2019
2513 Rain 12 997 100 5000 3.6 200 16:24 04.09.2019
2514 -273 0 0 0 0 0 15:56 04.09.2019
2515 Clouds 12 997 100 8000 2.1 180 15:38 04.09.2019
2516 Clouds 12 997 100 7000 3.1 220 15:20 04.09.2019
2517 Clouds 12 997 100 7000 3.1 220 14:55 04.09.2019
2518 Clouds 12 997 100 7000 3.1 220 14:55 04.09.2019
2519 Clouds 12 997 100 8000 1.5 250 14:37 04.09.2019
2520 Rain 12 997 93 10000 1 10 14:18 04.09.2019
2521 Rain 12 998 93 9000 1.5 50 13:40 04.09.2019
2522 Rain 13 998 93 8000 1.5 230 13:22 04.09.2019
2523 Rain 13 998 93 8000 1.5 230 13:22 04.09.2019
2524 Clouds 12 998 93 8000 1.5 230 12:58 04.09.2019
2525 Rain 13 998 93 9000 4.1 210 12:38 04.09.2019
2526 Rain 13 998 93 10000 2.6 150 12:19 04.09.2019
2527 Rain 13 998 93 10000 2.6 150 11:55 04.09.2019
2528 Rain 13 999 93 9000 1 160 11:36 04.09.2019
2529 Rain 13 999 93 7000 3.1 210 11:18 04.09.2019
2530 Rain 13 999 87 7000 3.6 210 10:42 04.09.2019
2531 Clouds 13 999 87 7000 3.6 210 10:23 04.09.2019
2532 Haze 14 999 87 5000 2.1 180 09:47 04.09.2019
2533 Haze 14 999 87 5000 2.1 180 09:27 04.09.2019
2534 Rain 14 999 87 10000 0.5 70 08:59 04.09.2019
2535 Rain 14 999 87 10000 1.5 160 08:40 04.09.2019
2536 Rain 14 999 87 10000 1.5 160 08:21 04.09.2019
2537 Rain 15 999 82 10000 1.5 160 07:49 04.09.2019
2538 Rain 15 999 82 10000 1.5 160 07:29 04.09.2019
2539 Rain 15 999 87 10000 3.1 190 06:40 04.09.2019
2540 Drizzle 15 1000 77 10000 1.5 20 05:51 04.09.2019
2541 Rain 15 1001 82 10000 2.6 10 04:52 04.09.2019
2542 Rain 16 1002 72 10000 4.1 40 03:52 04.09.2019
2543 Rain 16 1005 72 10000 4.6 50 01:39 04.09.2019
2544 Rain 15 1006 77 10000 4.1 40 00:54 04.09.2019
2545 Rain 15 1006 77 10000 4.1 40 00:32 04.09.2019
2546 Rain 14 1006 82 10000 4.1 40 23:54 03.09.2019
2547 Rain 14 1007 72 10000 4.1 50 23:28 03.09.2019
2548 Rain 14 1007 76 10000 3.6 30 22:59 03.09.2019
2549 Rain 13 1007 76 10000 2.6 60 22:40 03.09.2019
2550 Rain 13 1007 76 10000 2.6 60 22:21 03.09.2019
2551 Rain 13 1008 76 10000 2.6 60 21:56 03.09.2019
2552 Rain 13 1008 76 10000 2.6 60 21:56 03.09.2019
2553 Rain 13 1008 82 10000 2.6 40 21:37 03.09.2019
2554 Rain 12 1008 82 10000 4.6 30 21:19 03.09.2019
2555 Clouds 13 1008 71 10000 3.6 50 20:42 03.09.2019
2556 Clouds 13 1008 71 10000 3.6 50 20:42 03.09.2019
2557 Clouds 12 1008 71 10000 3.6 50 20:24 03.09.2019
2558 Clouds 12 1008 71 10000 3.6 50 20:24 03.09.2019
2559 Clouds 12 1008 71 10000 3.6 50 20:24 03.09.2019
2560 Clouds 12 1008 76 10000 2.1 60 19:56 03.09.2019
2561 Clouds 12 1009 81 10000 1.5 160 19:38 03.09.2019
2562 Clouds 12 1009 81 10000 1.5 160 19:38 03.09.2019
2563 Clouds 12 1009 81 9000 1 240 19:19 03.09.2019
2564 Clouds 12 1009 81 8000 1 230 18:47 03.09.2019
2565 Clouds 12 1009 81 8000 1 230 18:27 03.09.2019
2566 Rain 12 1010 81 10000 1 170 17:59 03.09.2019
2567 Rain 11 1010 76 9000 1 170 17:41 03.09.2019
2568 Clouds 12 1011 71 10000 0.5 170 17:20 03.09.2019
2569 Rain 11 1011 71 10000 0.5 170 16:58 03.09.2019
2570 Clouds 12 1011 71 10000 1 90 16:38 03.09.2019
2571 Clouds 11 1011 66 10000 0.5 110 16:20 03.09.2019
2572 Clouds 11 1011 66 10000 0.5 110 16:20 03.09.2019
2573 Clouds 11 1011 66 10000 3.1 50 15:41 03.09.2019
2574 Clouds 11 1011 66 10000 3.1 50 15:21 03.09.2019
2575 Clouds 11 1012 66 9000 1 20 14:58 03.09.2019
2576 Clouds 11 1012 76 10000 1.5 200 14:40 03.09.2019
2577 Clouds 11 1012 76 10000 1.5 200 14:20 03.09.2019
2578 Clouds 11 1012 71 10000 1.5 140 13:57 03.09.2019
2579 Clouds 11 1012 71 10000 1.5 140 13:57 03.09.2019
2580 Clouds 11 1012 71 10000 1 110 13:37 03.09.2019
2581 Clouds 11 1012 71 10000 1 110 13:37 03.09.2019
2582 Clouds 11 1012 71 10000 1.5 130 13:19 03.09.2019
2583 Clouds 11 1012 71 10000 1.5 130 13:19 03.09.2019
2584 Clouds 11 1012 71 10000 1.5 130 12:55 03.09.2019
2585 Clouds 11 1013 71 10000 2.6 120 12:37 03.09.2019
2586 Clouds 12 1013 71 10000 2.1 110 12:19 03.09.2019
2587 Clouds 12 1013 71 10000 1 110 11:39 03.09.2019
2588 Clouds 11 1013 71 10000 1 110 11:21 03.09.2019
2589 Clouds 12 1013 71 10000 0.5 150 10:56 03.09.2019
2590 Clouds 12 1013 71 10000 1.5 30 10:38 03.09.2019
2591 Clouds 12 1013 66 10000 2.1 20 10:19 03.09.2019
2592 Clouds 12 1013 66 10000 2.6 40 09:43 03.09.2019
2593 Clouds 12 1013 66 10000 2.6 40 09:25 03.09.2019
2594 Clouds 12 1013 71 10000 3.1 140 08:44 03.09.2019
2595 Clouds 13 1013 71 10000 3.1 140 08:26 03.09.2019
2596 Clouds 13 1013 76 10000 4.6 170 07:58 03.09.2019
2597 Clouds 13 1013 82 10000 4.6 210 07:39 03.09.2019
2598 Clouds 13 1014 82 10000 5.7 220 07:21 03.09.2019
2599 Clouds 14 1014 82 10000 5.1 200 06:43 03.09.2019
2600 Clouds 15 1014 76 10000 5.7 210 05:36 03.09.2019
2601 Clouds 15 1009 60 0 0.45 37 03:34 03.09.2019
2602 Clouds 15 1016 66 10000 2.6 190 02:43 03.09.2019
2603 Clouds 15 1016 66 10000 2.6 190 02:23 03.09.2019
2604 Clouds 14 1017 62 10000 2.1 190 01:47 03.09.2019
2605 Clouds 14 1017 62 10000 2.1 190 01:28 03.09.2019
2606 Clouds 13 1017 66 10000 1 290 00:40 03.09.2019
2607 Clear 12 1017 71 10000 1.5 340 00:18 03.09.2019
2608 Clear 10 1017 76 10000 2.6 360 23:39 02.09.2019
2609 Clear 10 1017 76 10000 2.6 360 23:39 02.09.2019
2610 Clear 10 1017 87 10000 3.6 360 23:19 02.09.2019
2611 Clear 10 1017 87 10000 3.6 360 23:19 02.09.2019
2612 Clear 9 1017 87 10000 3.6 360 22:56 02.09.2019
2613 Clear 8 1017 81 10000 3.1 30 22:37 02.09.2019
2614 Clear 7 1017 87 10000 3.1 40 22:19 02.09.2019
2615 Clear 6 1017 87 10000 3.1 40 21:56 02.09.2019
2616 Clear 6 1017 87 10000 3.1 40 21:56 02.09.2019
2617 Clear 6 1017 87 10000 2.1 40 21:38 02.09.2019
2618 Clear 6 1017 93 10000 2.1 30 21:19 02.09.2019
2619 Clear 5 1017 93 10000 2.1 30 20:54 02.09.2019
2620 Clear 5 1017 93 10000 2.1 30 20:54 02.09.2019
2621 Clear 5 1017 93 10000 2.1 10 20:36 02.09.2019
2622 Clear 6 1017 87 10000 2.6 20 20:18 02.09.2019
2623 Clear 5 1017 87 10000 2.6 20 19:54 02.09.2019
2624 Clear 5 1017 87 10000 1.5 30 19:36 02.09.2019
2625 Clear 5 1017 87 10000 2.6 40 19:18 02.09.2019
2626 Clear 6 1017 87 10000 2.1 50 18:37 02.09.2019
2627 Clear 6 1017 87 10000 2.6 30 18:19 02.09.2019
2628 -273 0 0 0 0 0 17:55 02.09.2019
2629 Clear 6 1017 87 10000 2.6 30 17:55 02.09.2019
2630 Clear 6 1017 87 10000 2.6 30 17:55 02.09.2019
2631 Clear 6 1017 87 10000 3.6 20 17:37 02.09.2019
2632 Clear 6 1018 87 10000 3.1 20 17:18 02.09.2019
2633 Clear 6 1018 93 10000 2.6 50 16:41 02.09.2019
2634 Clear 6 1018 93 10000 2.6 50 16:21 02.09.2019
2635 Clear 5 1018 87 10000 1.5 60 15:54 02.09.2019
2636 Clear 6 1018 93 10000 2.1 20 15:36 02.09.2019
2637 Clear 6 1018 87 10000 2.6 30 15:18 02.09.2019
2638 Clear 7 1018 87 10000 2.6 30 14:55 02.09.2019
2639 Clear 6 1019 93 10000 1.5 20 14:36 02.09.2019
2640 Clear 7 1019 87 10000 1.5 40 14:18 02.09.2019
2641 Clear 6 1019 93 10000 2.6 20 13:41 02.09.2019
2642 Clear 7 1019 93 10000 2.6 20 13:23 02.09.2019
2643 Clear 7 1019 100 10000 1 40 12:45 02.09.2019
2644 Clear 7 1019 100 10000 1 40 12:26 02.09.2019
2645 Clear 8 1020 93 10000 1.5 360 11:59 02.09.2019
2646 Clear 8 1020 93 10000 1.5 10 11:40 02.09.2019
2647 Clear 8 1020 93 10000 1.5 10 11:21 02.09.2019
2648 Clear 9 1020 87 10000 1.5 20 10:58 02.09.2019
2649 Clear 9 1020 93 10000 2.1 30 10:39 02.09.2019
2650 Clear 9 1020 93 10000 2.1 30 10:20 02.09.2019
2651 Clear 9 1020 87 10000 1.5 10 09:57 02.09.2019
2652 Clear 9 1020 87 10000 1.5 320 09:37 02.09.2019
2653 Clear 11 1019 93 10000 2.6 250 09:18 02.09.2019
2654 Clear 11 1020 87 10000 2.6 230 08:39 02.09.2019
2655 Clear 11 1020 87 10000 4.1 210 08:18 02.09.2019
2656 Clear 12 1020 87 10000 4.6 220 07:41 02.09.2019
2657 Clear 13 1020 87 10000 4.6 230 07:21 02.09.2019
2658 Clear 13 1020 87 10000 5.1 230 06:48 02.09.2019
2659 Clear 14 1020 87 10000 5.1 230 06:30 02.09.2019
2660 Clear 14 1020 82 10000 5.7 210 05:49 02.09.2019
2661 Clear 14 1020 82 10000 5.7 210 05:19 02.09.2019
2662 Clear 14 1020 82 8000 6.2 200 04:33 02.09.2019
2663 Clouds 15 1022 76 10000 3.1 210 01:48 02.09.2019
2664 Clouds 15 1023 81 10000 3.6 200 00:53 02.09.2019
2665 Clouds 15 1023 81 10000 3.6 200 00:32 02.09.2019
2666 Clouds 13 1022 71 10000 2.1 30 23:48 01.09.2019
2667 Clouds 13 1022 71 10000 2.1 30 23:23 01.09.2019
2668 Clouds 13 1022 81 10000 2.6 20 22:59 01.09.2019
2669 Clouds 13 1022 76 10000 2.6 20 22:40 01.09.2019
2670 Clouds 11 1022 81 10000 3.1 30 22:20 01.09.2019
2671 Clouds 11 1022 81 10000 3.1 30 21:57 01.09.2019
2672 Clouds 11 1021 81 10000 4.6 20 21:39 01.09.2019
2673 Clouds 11 1021 81 10000 5.1 10 21:21 01.09.2019
2674 Clouds 11 1021 81 10000 5.1 10 20:57 01.09.2019
2675 Clouds 11 1021 81 10000 6.2 20 20:38 01.09.2019
2676 Clouds 11 1021 81 10000 6.7 20 20:19 01.09.2019
2677 Clouds 11 1021 81 10000 6.7 20 19:58 01.09.2019
2678 Clouds 11 1020 81 10000 6.7 20 19:38 01.09.2019
2679 Clouds 11 1020 81 10000 7.7 10 19:19 01.09.2019
2680 Clouds 11 1020 76 10000 7.7 10 18:43 01.09.2019
2681 Clouds 11 1020 76 10000 8.7 10 18:25 01.09.2019
2682 Clouds 11 1020 76 10000 8.7 10 18:25 01.09.2019
2683 Clear 11 1020 76 10000 8.7 10 17:57 01.09.2019
2684 Clear 11 1020 76 10000 7.2 360 17:38 01.09.2019
2685 Clear 11 1020 76 10000 9.8 350 17:19 01.09.2019
2686 Clear 11 1020 76 10000 9.8 10 16:41 01.09.2019
2687 Clear 11 1020 76 10000 9.8 10 16:41 01.09.2019
2688 Clear 11 1020 76 10000 10.3 350 16:20 01.09.2019
2689 Clear 11 1020 76 10000 10.3 350 15:55 01.09.2019
2690 Clear 11 1021 76 10000 10.8 360 15:37 01.09.2019
2691 Clear 11 1021 76 10000 10.8 360 15:37 01.09.2019
2692 Clear 11 1021 71 10000 10.3 360 15:19 01.09.2019
2693 Clear 11 1021 76 10000 9.8 350 14:42 01.09.2019
2694 Clear 11 1021 76 10000 9.8 350 14:21 01.09.2019
2695 Clear 11 1021 71 10000 9.8 350 13:58 01.09.2019
2696 Clear 12 1021 76 10000 9.8 360 13:40 01.09.2019
2697 Clear 12 1022 71 10000 8.7 350 13:21 01.09.2019
2698 Clear 12 1022 71 10000 9.8 350 12:43 01.09.2019
2699 Clear 12 1022 71 10000 9.8 350 12:25 01.09.2019
2700 Clear 12 1022 76 10000 8.7 350 11:55 01.09.2019
2701 Clear 12 1022 76 10000 11.3 360 11:37 01.09.2019
2702 Clear 12 1022 76 10000 10.3 350 11:18 01.09.2019
2703 Clear 12 1022 76 10000 9.3 350 10:43 01.09.2019
2704 Clear 11 1022 76 10000 9.3 350 10:23 01.09.2019
2705 Clear 12 1022 81 10000 9.3 350 09:47 01.09.2019
2706 Clear 12 1022 81 10000 9.3 350 09:26 01.09.2019
2707 Clear 12 1022 81 10000 9.3 350 08:56 01.09.2019
2708 Clear 12 1022 81 10000 7.2 360 08:37 01.09.2019
2709 Clear 12 1023 76 10000 9.8 360 08:19 01.09.2019
2710 Clear 13 1023 76 10000 8.7 10 07:41 01.09.2019
2711 Clear 13 1023 76 10000 9.8 10 07:19 01.09.2019
2712 Clear 13 1023 71 10000 9.8 10 06:38 01.09.2019
2713 Clear 14 1023 71 10000 10.3 360 05:58 01.09.2019
2714 Clear 14 1023 71 10000 10.3 360 05:58 01.09.2019
2715 Clear 14 1024 67 10000 9.8 360 04:40 01.09.2019
2716 Clear 14 1025 67 10000 8.7 360 03:44 01.09.2019
2717 Clear 14 1025 71 10000 9.3 360 03:19 01.09.2019
2718 Clear 14 1026 71 10000 9.3 360 02:30 01.09.2019
2719 Clear 14 1026 71 10000 8.7 360 01:58 01.09.2019
2720 Clear 13 1026 76 10000 8.2 10 01:26 01.09.2019
2721 Clear 13 1026 76 10000 8.7 10 00:47 01.09.2019
2722 Clear 13 1026 76 10000 8.7 10 00:23 01.09.2019
2723 Clear 13 1026 76 10000 8.7 10 00:23 01.09.2019
2724 Clear 12 1026 71 10000 10.3 10 23:56 31.08.2019
2725 Clear 12 1026 71 10000 7.2 10 23:38 31.08.2019
2726 Clear 11 1026 71 10000 6.7 10 23:19 31.08.2019
2727 Clear 10 1026 71 10000 6.7 10 22:54 31.08.2019
2728 Clear 9 1026 76 10000 7.2 10 22:36 31.08.2019
2729 Clear 9 1026 76 10000 7.2 10 22:36 31.08.2019
2730 Clear 9 1026 76 10000 7.2 10 22:36 31.08.2019
2731 Clear 8 1026 81 10000 6.7 360 22:18 31.08.2019
2732 Clear 8 1026 87 10000 6.7 360 21:40 31.08.2019
2733 Clear 8 1026 87 10000 6.7 360 21:40 31.08.2019
2734 Clear 8 1026 87 10000 6.7 360 21:21 31.08.2019
2735 Clear 7 1026 87 10000 5.1 30 20:50 31.08.2019
2736 Clear 8 1026 87 10000 5.1 30 20:31 31.08.2019
2737 Clear 8 1026 81 10000 7.2 10 19:59 31.08.2019
2738 Clear 8 1026 87 10000 5.1 30 19:40 31.08.2019
2739 Clear 7 1026 81 10000 5.1 40 19:21 31.08.2019
2740 Clear 7 1026 81 10000 4.6 30 18:41 31.08.2019
2741 Clear 7 1026 81 10000 4.6 30 18:21 31.08.2019
2742 Clear 7 1026 81 10000 4.6 30 17:58 31.08.2019
2743 Clear 8 1026 81 10000 4.6 20 17:37 31.08.2019
2744 Clear 7 1027 81 10000 4.6 30 17:19 31.08.2019
2745 Clear 7 1027 81 10000 4.6 30 16:59 31.08.2019
2746 Clear 7 1027 81 10000 5.1 30 16:41 31.08.2019
2747 Clear 7 1027 81 10000 5.1 30 16:21 31.08.2019
2748 Clear 7 1027 81 10000 5.1 30 15:59 31.08.2019
2749 Clear 6 1027 87 10000 4.1 30 15:38 31.08.2019
2750 Clear 7 1027 87 10000 4.1 20 15:18 31.08.2019
2751 Clear 7 1026 81 10000 3.6 20 14:42 31.08.2019
2752 Clear 8 1026 81 10000 3.6 20 14:22 31.08.2019
2753 Clear 6 1026 87 10000 3.6 10 13:42 31.08.2019
2754 Clear 6 1026 87 10000 3.6 10 13:23 31.08.2019
2755 Clear 6 1026 87 10000 3.6 10 13:23 31.08.2019
2756 Clear 6 1026 87 10000 3.6 20 12:59 31.08.2019
2757 Clear 6 1026 87 10000 3.1 360 12:40 31.08.2019
2758 Clear 7 1026 81 10000 2.6 360 12:21 31.08.2019
2759 Clear 7 1026 81 10000 2.6 360 12:21 31.08.2019
2760 Clear 8 1026 81 10000 2.6 360 11:56 31.08.2019
2761 Clear 8 1026 81 10000 2.6 30 11:38 31.08.2019
2762 Clear 8 1026 81 10000 2.6 30 11:20 31.08.2019
2763 Clear 8 1025 76 10000 2.1 30 10:43 31.08.2019
2764 Clear 8 1025 66 10000 2.1 30 10:19 31.08.2019
2765 Clear 8 1025 66 10000 2.1 30 09:59 31.08.2019
2766 Clear 8 1025 50 10000 1 40 09:39 31.08.2019
2767 Clear 9 1025 50 10000 1 40 09:21 31.08.2019
2768 Clear 10 1024 62 10000 2.6 230 08:44 31.08.2019
2769 Clear 11 1024 62 10000 2.6 230 08:26 31.08.2019
2770 Clear 11 1023 47 10000 2.1 230 07:42 31.08.2019
2771 Clear 13 1023 47 10000 2.1 230 07:23 31.08.2019
2772 Clear 13 1023 62 10000 1.5 200 06:49 31.08.2019
2773 Clear 14 1023 62 10000 2.6 180 06:21 31.08.2019
2774 Clear 14 1023 67 10000 2.6 190 05:34 31.08.2019
2775 Clear 14 1023 76 10000 3.6 190 04:39 31.08.2019
2776 Clear 15 1023 71 10000 4.1 200 03:50 31.08.2019
2777 Clear 14 1023 71 10000 4.6 210 02:59 31.08.2019
2778 Clear 14 1023 62 10000 3.6 10 01:59 31.08.2019
2779 Clear 14 1023 58 10000 3.6 10 01:41 31.08.2019
2780 Clear 14 1022 62 10000 4.1 10 01:22 31.08.2019
2781 Clear 13 1022 62 10000 4.6 10 00:42 31.08.2019
2782 Clear 12 1022 76 10000 4.1 360 00:24 31.08.2019
2783 Clear 11 1022 76 10000 4.1 350 23:47 30.08.2019
2784 Clear 10 1021 81 10000 4.1 350 23:18 30.08.2019
2785 Clear 8 1021 81 10000 4.1 350 22:55 30.08.2019
2786 Clear 8 1021 81 10000 4.1 350 22:55 30.08.2019
2787 Clear 8 1021 81 10000 5.1 360 22:37 30.08.2019
2788 Clear 7 1021 81 10000 5.1 360 22:18 30.08.2019
2789 Clear 6 1021 81 10000 5.1 360 21:54 30.08.2019
2790 Clouds 6 1020 87 10000 5.1 360 21:36 30.08.2019
2791 Clouds 5 1020 87 10000 4.6 10 21:18 30.08.2019
2792 Clouds 5 1019 87 10000 4.6 20 20:42 30.08.2019
2793 Clouds 5 1019 87 10000 4.6 20 20:22 30.08.2019
2794 Clouds 5 1019 93 10000 4.1 10 19:59 30.08.2019
2795 Clouds 6 1019 87 10000 3.6 10 19:40 30.08.2019
2796 Clouds 5 1019 87 10000 4.1 10 19:21 30.08.2019
2797 Clouds 4 1019 87 10000 4.6 30 18:55 30.08.2019
2798 Clouds 6 1019 87 10000 4.6 30 18:37 30.08.2019
2799 Clear 5 1019 87 10000 3.1 20 18:18 30.08.2019
2800 Clear 5 1019 87 10000 3.1 20 17:55 30.08.2019
2801 Clear 5 1019 87 10000 3.1 360 17:37 30.08.2019
2802 Clear 5 1019 87 10000 4.1 10 17:18 30.08.2019
2803 Clear 4 1019 87 10000 4.6 10 16:43 30.08.2019
2804 Clear 4 1019 87 10000 4.6 10 16:25 30.08.2019
2805 Clear 5 1019 81 10000 4.1 10 15:45 30.08.2019
2806 Clear 6 1019 81 10000 4.1 10 15:25 30.08.2019
2807 Clear 6 1019 81 10000 4.1 10 14:59 30.08.2019
2808 Clear 6 1019 87 10000 4.6 360 14:41 30.08.2019
2809 Clear 6 1019 87 10000 4.6 360 14:23 30.08.2019
2810 Clear 6 1019 87 10000 4.6 360 14:23 30.08.2019
2811 Clear 5 1019 87 10000 4.1 350 13:44 30.08.2019
2812 Clear 6 1019 87 10000 4.1 350 13:23 30.08.2019
2813 Clear 6 1019 87 10000 4.1 10 12:58 30.08.2019
2814 Clear 6 1019 87 10000 4.1 10 12:40 30.08.2019
2815 Clear 7 1019 81 10000 3.6 20 12:22 30.08.2019
2816 Clear 7 1019 81 10000 3.6 20 12:22 30.08.2019
2817 Clear 6 1019 81 10000 3.6 10 11:43 30.08.2019
2818 Clear 8 1019 81 10000 3.6 10 11:24 30.08.2019
2819 Clear 8 1018 81 10000 2.6 10 10:43 30.08.2019
2820 Clear 8 1018 81 10000 2.6 10 10:24 30.08.2019
2821 Clear 8 1018 76 10000 3.1 20 09:59 30.08.2019
2822 Clear 8 1018 76 10000 1.5 10 09:40 30.08.2019
2823 Clouds 9 1018 81 10000 1 350 09:19 30.08.2019
2824 Clouds 10 1018 81 10000 1 350 08:56 30.08.2019
2825 Clouds 10 1018 87 10000 1 270 08:38 30.08.2019
2826 Clouds 10 1018 87 10000 1 270 08:20 30.08.2019
2827 Clouds 12 1018 76 10000 0.5 180 07:40 30.08.2019
2828 Clouds 12 1018 87 10000 1.5 160 07:21 30.08.2019
2829 Clouds 13 1018 81 10000 1.5 180 06:47 30.08.2019
2830 Clouds 13 1018 81 10000 1.5 180 06:28 30.08.2019
2831 Rain 14 1018 81 10000 3.1 190 05:46 30.08.2019
2832 Rain 14 1018 81 10000 4.6 170 03:59 30.08.2019
2833 Rain 14 1018 71 10000 4.6 200 03:38 30.08.2019
2834 Rain 14 1018 71 10000 4.6 200 03:38 30.08.2019
2835 Rain 14 1018 50 10000 5.1 210 02:56 30.08.2019
2836 Rain 14 1018 58 10000 5.7 210 02:29 30.08.2019
2837 Rain 15 1018 62 10000 4.6 210 01:29 30.08.2019
2838 Rain 14 1018 76 10000 4.1 190 00:38 30.08.2019
2839 Rain 14 1018 67 10000 2.1 360 00:18 30.08.2019
2840 Rain 14 1018 67 10000 2.1 360 00:18 30.08.2019
2841 Rain 14 1018 76 10000 3.1 10 23:41 29.08.2019
2842 Rain 13 1018 76 10000 3.1 10 23:21 29.08.2019
2843 Rain 11 1018 87 10000 2.6 20 22:44 29.08.2019
2844 Rain 10 1018 87 10000 2.6 20 22:25 29.08.2019
2845 Rain 10 1017 93 10000 3.1 10 21:57 29.08.2019
2846 Rain 9 1017 93 10000 2.6 10 21:38 29.08.2019
2847 Clouds 8 1017 93 10000 2.6 10 21:20 29.08.2019
2848 Clouds 8 1017 87 10000 2.1 340 20:54 29.08.2019
2849 Clouds 8 1017 93 10000 3.1 20 20:36 29.08.2019
2850 Clouds 8 1017 93 10000 3.1 20 20:18 29.08.2019
2851 Clouds 7 1017 93 10000 3.1 20 19:44 29.08.2019
2852 Clouds 7 1017 100 10000 3.1 10 19:25 29.08.2019
2853 Clouds 7 1017 93 10000 1.5 20 18:45 29.08.2019
2854 Clear 7 1017 93 10000 1.5 30 18:21 29.08.2019
2855 Clear 7 1017 87 10000 1.5 50 17:58 29.08.2019
2856 Clear 7 1017 87 10000 1.5 50 17:39 29.08.2019
2857 Clear 7 1017 87 10000 1.5 50 17:20 29.08.2019
2858 Clear 7 1017 87 10000 1.5 50 17:20 29.08.2019
2859 Clear 7 1017 87 10000 1.5 50 17:20 29.08.2019
2860 Clear 8 1017 87 10000 1 130 16:59 29.08.2019
2861 Clear 7 1017 87 10000 1 130 16:40 29.08.2019
2862 Clear 8 1017 87 10000 3.6 170 16:22 29.08.2019
2863 Clear 8 1017 87 10000 3.6 180 15:40 29.08.2019
2864 Clouds 9 1017 87 10000 3.6 180 15:21 29.08.2019
2865 Clouds 9 1017 87 10000 4.1 210 14:56 29.08.2019
2866 Clouds 9 1017 87 10000 4.1 220 14:37 29.08.2019
2867 Clouds 9 1016 81 10000 5.1 250 14:19 29.08.2019
2868 Clouds 10 1016 81 10000 5.1 250 13:54 29.08.2019
2869 Clouds 10 1016 81 10000 2.6 330 13:36 29.08.2019
2870 Clouds 10 1015 81 10000 4.1 30 13:18 29.08.2019
2871 Clouds 11 1015 81 10000 4.1 30 12:55 29.08.2019
2872 Clouds 11 1015 81 10000 4.6 30 12:36 29.08.2019
2873 Clouds 11 1015 76 10000 3.6 40 12:18 29.08.2019
2874 Clouds 11 1015 76 10000 5.7 30 11:40 29.08.2019
2875 Clouds 12 1015 76 10000 5.7 30 11:20 29.08.2019
2876 Clouds 12 1014 76 10000 5.1 30 10:56 29.08.2019
2877 Clouds 12 1014 66 10000 5.1 30 10:38 29.08.2019
2878 Clouds 12 1014 66 10000 5.7 20 10:19 29.08.2019
2879 Clouds 13 1014 66 10000 5.7 20 09:41 29.08.2019
2880 Clouds 12 1013 66 10000 5.7 20 09:18 29.08.2019
2881 Clouds 13 1013 66 10000 7.7 10 08:45 29.08.2019
2882 Clouds 13 1013 66 10000 7.7 10 08:25 29.08.2019
2883 Clouds 13 1013 62 10000 7.7 360 07:54 29.08.2019
2884 Clouds 13 1013 62 10000 7.7 360 07:34 29.08.2019
2885 Clouds 13 1013 62 10000 7.7 360 07:34 29.08.2019
2886 Clouds 13 1013 67 10000 9.3 360 06:57 29.08.2019
2887 Clouds 14 1013 62 10000 8.7 360 06:37 29.08.2019
2888 Clear 14 1013 58 10000 9.3 350 05:52 29.08.2019
2889 Clear 14 1013 58 10000 9.3 350 05:29 29.08.2019
2890 Clear 15 1013 58 10000 7.7 350 04:48 29.08.2019
2891 Clear 15 1013 58 10000 7.7 350 04:27 29.08.2019
2892 Clear 15 1014 58 10000 9.8 330 01:54 29.08.2019
2893 Clear 14 1014 58 10000 9.8 340 01:35 29.08.2019
2894 Clear 14 1014 54 10000 7.7 330 00:47 29.08.2019
2895 Clear 13 1015 62 10000 8.2 350 00:23 29.08.2019
2896 Clear 13 1015 62 10000 8.2 350 23:58 28.08.2019
2897 Clear 13 1015 58 10000 6.7 340 23:38 28.08.2019
2898 Clear 13 1015 58 10000 6.7 340 23:20 28.08.2019
2899 Clear 13 1015 62 10000 8.2 360 22:56 28.08.2019
2900 Clear 12 1015 66 10000 7.7 360 22:37 28.08.2019
2901 Clear 12 1015 71 10000 7.7 360 22:18 28.08.2019
2902 Clear 11 1015 71 10000 6.7 20 21:41 28.08.2019
2903 Clouds 10 1015 76 10000 6.2 20 21:23 28.08.2019
2904 Clouds 11 1015 76 10000 6.2 20 20:56 28.08.2019
2905 Clouds 10 1015 71 10000 6.7 20 20:38 28.08.2019
2906 Clouds 11 1015 71 10000 7.7 10 20:20 28.08.2019
2907 Clouds 11 1015 66 10000 6.2 340 19:42 28.08.2019
2908 Clouds 10 1014 66 10000 7.2 340 19:22 28.08.2019
2909 Clouds 11 1014 66 10000 6.7 340 18:57 28.08.2019
2910 Clouds 11 1014 66 10000 6.7 340 18:37 28.08.2019
2911 Clouds 11 1015 66 10000 5.7 350 18:19 28.08.2019
2912 Clouds 11 1015 66 10000 5.1 360 17:38 28.08.2019
2913 Clouds 11 1015 62 10000 8.2 10 17:19 28.08.2019
2914 Clouds 11 1016 66 10000 6.7 350 16:45 28.08.2019
2915 Clouds 11 1016 66 10000 6.7 350 16:23 28.08.2019
2916 Clouds 11 1015 62 10000 6.7 340 15:59 28.08.2019
2917 Clouds 11 1016 66 10000 3.1 360 15:38 28.08.2019
2918 Clouds 11 1016 76 10000 6.2 10 15:19 28.08.2019
2919 Clouds 11 1016 76 10000 6.2 10 14:57 28.08.2019
2920 Clouds 11 1016 81 10000 6.7 20 14:38 28.08.2019
2921 Clouds 10 1016 81 10000 6.7 20 14:20 28.08.2019
2922 Clouds 11 1016 87 10000 6.7 10 13:58 28.08.2019
2923 Clouds 11 1016 87 10000 7.7 30 13:38 28.08.2019
2924 Clouds 11 1017 81 10000 7.2 20 13:19 28.08.2019
2925 Clouds 11 1017 81 10000 8.2 20 12:42 28.08.2019
2926 Clouds 11 1017 81 10000 8.2 20 12:23 28.08.2019
2927 Clouds 11 1017 87 10000 8.2 20 11:56 28.08.2019
2928 Clouds 11 1017 87 10000 8.2 20 11:56 28.08.2019
2929 Clouds 11 1017 81 10000 9.3 20 11:37 28.08.2019
2930 Clouds 11 1016 76 10000 7.7 20 11:18 28.08.2019
2931 Clouds 10 1017 81 10000 6.7 20 10:41 28.08.2019
2932 Clouds 10 1017 81 10000 6.7 20 10:22 28.08.2019
2933 Clouds 10 1016 81 10000 6.7 20 09:59 28.08.2019
2934 Clouds 10 1016 81 10000 7.7 20 09:41 28.08.2019
2935 Clouds 11 1016 76 10000 8.2 20 09:19 28.08.2019
2936 Clouds 11 1016 76 10000 8.2 10 08:39 28.08.2019
2937 Clouds 11 1016 76 10000 8.2 10 08:21 28.08.2019
2938 Clouds 12 1016 66 10000 8.2 10 07:45 28.08.2019
2939 Clouds 12 1016 66 10000 8.2 10 07:25 28.08.2019
2940 Clouds 13 1016 58 10000 8.2 10 06:56 28.08.2019
2941 Clouds 13 1017 54 10000 7.7 360 06:37 28.08.2019
2942 Clouds 14 1017 58 10000 7.2 360 05:44 28.08.2019
2943 Clouds 14 1018 62 10000 8.7 360 03:32 28.08.2019
2944 Clouds 14 1018 66 10000 6.7 10 01:50 28.08.2019
2945 Clouds 14 1018 66 10000 6.7 10 01:29 28.08.2019
2946 Clouds 13 1018 71 10000 5.1 20 00:41 28.08.2019
2947 Clouds 11 1018 71 10000 5.1 30 23:59 27.08.2019
2948 Clouds 11 1018 76 10000 4.6 20 23:40 27.08.2019
2949 Clouds 11 1018 76 10000 4.6 20 23:21 27.08.2019
2950 Clouds 10 1018 76 10000 4.6 30 22:56 27.08.2019
2951 Clouds 9 1018 76 10000 4.6 30 22:38 27.08.2019
2952 Clouds 10 1018 76 10000 5.1 30 22:19 27.08.2019
2953 Clouds 10 1018 76 10000 5.1 30 21:55 27.08.2019
2954 Clouds 10 1018 76 10000 5.1 30 21:55 27.08.2019
2955 Clouds 9 1017 81 10000 4.6 30 21:36 27.08.2019
2956 Clear 9 1017 76 10000 6.7 30 21:18 27.08.2019
2957 Clear 9 1017 81 10000 5.7 30 20:41 27.08.2019
2958 Clear 9 1017 81 10000 5.7 30 20:21 27.08.2019
2959 Clear 8 1017 87 10000 5.1 10 19:58 27.08.2019
2960 Clear 8 1016 87 10000 5.7 20 19:39 27.08.2019
2961 Clear 7 1016 87 10000 6.2 360 19:21 27.08.2019
2962 Clear 6 1016 93 10000 5.1 10 18:43 27.08.2019
2963 Clear 6 1016 87 10000 4.1 10 18:19 27.08.2019
2964 Clear 5 1016 87 10000 4.1 10 17:59 27.08.2019
2965 Clear 5 1017 81 10000 4.1 20 17:41 27.08.2019
2966 Clear 5 1017 81 10000 4.1 20 17:22 27.08.2019
2967 Clear 5 1017 87 10000 3.1 20 16:47 27.08.2019
2968 Clear 5 1017 87 10000 3.1 20 16:28 27.08.2019
2969 Clear 5 1017 87 10000 4.1 30 15:58 27.08.2019
2970 Clear 6 1017 87 10000 3.6 10 15:40 27.08.2019
2971 Clouds 6 1017 87 10000 3.6 10 15:21 27.08.2019
2972 Clouds 5 1017 87 10000 4.6 360 14:55 27.08.2019
2973 Clouds 5 1017 87 10000 4.6 20 14:37 27.08.2019
2974 Clouds 5 1017 81 10000 5.1 10 14:18 27.08.2019
2975 Clouds 5 1017 87 10000 4.1 360 13:41 27.08.2019
2976 Clear 5 1017 81 10000 4.6 30 13:21 27.08.2019
2977 Clear 7 1017 87 10000 5.1 30 12:42 27.08.2019
2978 Clouds 7 1017 81 10000 4.1 20 12:21 27.08.2019
2979 Clouds 7 1017 81 10000 4.1 20 11:58 27.08.2019
2980 Clouds 7 1017 76 10000 4.6 20 11:40 27.08.2019
2981 Clouds 7 1017 76 10000 4.6 20 11:21 27.08.2019
2982 Clouds 7 1017 81 10000 4.1 20 10:41 27.08.2019
2983 Clouds 7 1017 81 10000 4.1 20 10:20 27.08.2019
2984 Clouds 8 1017 71 10000 4.1 20 09:57 27.08.2019
2985 Clouds 8 1017 71 10000 4.1 20 09:37 27.08.2019
2986 Clear 8 1016 71 10000 4.6 10 09:19 27.08.2019
2987 Clear 8 1016 71 10000 3.6 360 08:46 27.08.2019
2988 Clear 9 1016 71 10000 3.6 360 08:24 27.08.2019
2989 Clear 10 1016 62 10000 3.6 340 07:55 27.08.2019
2990 Clear 10 1016 62 10000 3.6 360 07:37 27.08.2019
2991 Clear 11 1016 58 10000 1 270 07:18 27.08.2019
2992 Clear 11 1015 58 10000 1.5 210 06:45 27.08.2019
2993 Clouds 11 1015 62 10000 2.6 190 06:19 27.08.2019
2994 Clouds 12 1016 58 10000 2.6 180 05:28 27.08.2019
2995 Clouds 12 1016 66 10000 2.6 190 03:43 27.08.2019
2996 Clouds 12 1016 62 10000 3.6 190 02:55 27.08.2019
2997 Clouds 11 1016 66 10000 4.6 170 01:46 27.08.2019
2998 Clouds 12 1016 66 10000 4.6 170 01:25 27.08.2019
2999 Clouds 11 1016 71 10000 4.6 180 00:49 27.08.2019
3000 Clouds 11 1016 71 10000 4.6 180 00:28 27.08.2019
3001 Clouds 9 1016 71 10000 6.7 180 23:44 26.08.2019
3002 Rain 9 1016 71 10000 6.7 180 23:25 26.08.2019
3003 Rain 8 1016 81 10000 6.7 180 22:59 26.08.2019
3004 Rain 8 1015 76 10000 7.7 180 22:37 26.08.2019
3005 Rain 8 1015 71 10000 9.8 190 22:18 26.08.2019
3006 Rain 7 1014 76 5000 9.8 210 21:39 26.08.2019
3007 Rain 7 1014 76 5000 9.8 210 21:21 26.08.2019
3008 Rain 7 1014 71 10000 7.7 180 20:59 26.08.2019
3009 Rain 7 1013 71 10000 7.7 190 20:40 26.08.2019
3010 Rain 7 1013 71 10000 7.7 190 20:20 26.08.2019
3011 Rain 7 1013 76 10000 8.7 200 19:58 26.08.2019
3012 Rain 7 1013 76 10000 5.7 200 19:39 26.08.2019
3013 Rain 7 1013 76 10000 5.7 200 19:18 26.08.2019
3014 Rain 7 1012 76 10000 4.1 200 18:39 26.08.2019
3015 Rain 7 1012 76 10000 4.1 200 18:39 26.08.2019
3016 Rain 7 1012 76 10000 4.1 200 18:20 26.08.2019
3017 Rain 7 1012 81 10000 2.6 190 17:59 26.08.2019
3018 Rain 8 1011 81 10000 3.6 180 17:40 26.08.2019
3019 Rain 8 1011 81 10000 3.6 180 17:19 26.08.2019
3020 Rain 8 1011 81 10000 3.6 200 16:56 26.08.2019
3021 Rain 8 1011 76 10000 4.6 200 16:38 26.08.2019
3022 Rain 8 1011 76 10000 4.6 200 16:18 26.08.2019
3023 Rain 8 1011 76 10000 4.6 200 16:18 26.08.2019
3024 Rain 8 1011 87 10000 4.6 190 15:42 26.08.2019
3025 Rain 9 1011 87 10000 5.1 180 15:22 26.08.2019
3026 Rain 9 1011 81 10000 5.1 190 14:56 26.08.2019
3027 Rain 9 1010 81 10000 4.6 170 14:37 26.08.2019
3028 Rain 9 1010 81 10000 4.6 170 14:37 26.08.2019
3029 Rain 9 1010 81 10000 4.6 170 14:18 26.08.2019
3030 Rain 9 1010 81 10000 6.7 180 13:40 26.08.2019
3031 Rain 9 1010 81 10000 6.7 180 13:21 26.08.2019
3032 Rain 9 1009 81 10000 7.2 190 12:45 26.08.2019
3033 Rain 9 1009 76 10000 8.2 190 12:27 26.08.2019
3034 Rain 10 1009 81 10000 8.7 180 11:56 26.08.2019
3035 Rain 10 1008 87 10000 8.2 190 11:37 26.08.2019
3036 Rain 10 1008 87 10000 8.2 190 11:18 26.08.2019
3037 Rain 10 1007 87 10000 6.7 200 10:44 26.08.2019
3038 Rain 10 1007 87 10000 6.2 190 10:24 26.08.2019
3039 Rain 10 1006 87 10000 5.7 180 09:59 26.08.2019
3040 Rain 10 1005 87 9000 5.1 180 09:39 26.08.2019
3041 Rain 11 1005 87 9000 5.1 180 09:21 26.08.2019
3042 Rain 11 1005 81 8000 7.2 180 08:55 26.08.2019
3043 Rain 11 1004 81 10000 5.7 170 08:36 26.08.2019
3044 Rain 11 1004 81 10000 5.7 170 08:18 26.08.2019
3045 Clouds 12 1003 66 10000 6.7 190 07:41 26.08.2019
3046 Clouds 12 1003 66 10000 6.7 190 07:23 26.08.2019
3047 Rain 13 1002 62 10000 8.2 190 06:48 26.08.2019
3048 Rain 14 1001 58 10000 6.7 260 06:25 26.08.2019
3049 Clouds 15 1000 48 10000 4.1 310 05:49 26.08.2019
3050 Clouds 15 1000 55 10000 6.7 340 04:31 26.08.2019
3051 Clear 15 999 59 10000 6.2 340 03:19 26.08.2019
3052 Clear 14 1000 54 10000 7.7 330 01:40 26.08.2019
3053 Clear 14 1000 54 10000 7.7 330 01:21 26.08.2019
3054 Clear 14 1000 54 10000 4.6 340 00:41 26.08.2019
3055 Clear 14 999 54 10000 5.7 330 00:22 26.08.2019
3056 Clear 14 999 58 10000 4.6 310 23:43 25.08.2019
3057 Clear 13 999 58 10000 6.2 320 23:19 25.08.2019
3058 Clear 13 999 62 10000 7.2 330 22:56 25.08.2019
3059 Clear 13 999 67 10000 4.6 340 22:38 25.08.2019
3060 Clear 13 999 67 10000 4.6 340 22:38 25.08.2019
3061 Clear 13 999 67 10000 4.6 340 22:19 25.08.2019
3062 Clear 12 999 71 10000 6.2 330 21:56 25.08.2019
3063 Clear 13 999 76 10000 7.7 320 21:37 25.08.2019
3064 Clouds 13 999 76 10000 7.7 320 21:18 25.08.2019
3065 Rain 13 999 87 7000 9.3 330 20:40 25.08.2019
3066 Rain 13 999 87 7000 9.3 330 20:20 25.08.2019
3067 Rain 13 1000 87 8000 9.8 330 19:58 25.08.2019
3068 Rain 13 1000 76 10000 8.2 330 19:38 25.08.2019
3069 Rain 13 1000 76 10000 8.2 330 19:19 25.08.2019
3070 Rain 13 1000 76 10000 9.3 330 18:57 25.08.2019
3071 Rain 13 1001 87 10000 9.8 340 18:39 25.08.2019
3072 Rain 13 1001 87 10000 9.8 340 18:21 25.08.2019
3073 Rain 13 1002 87 6000 8.7 340 17:43 25.08.2019
3074 Rain 13 1002 76 10000 10.8 340 17:25 25.08.2019
3075 Clouds 13 1003 76 10000 9.3 340 16:56 25.08.2019
3076 Clouds 13 1004 76 10000 9.8 350 16:36 25.08.2019
3077 Clouds 13 1004 76 10000 9.8 350 16:18 25.08.2019
3078 Clouds 13 1004 82 10000 8.2 350 15:42 25.08.2019
3079 Clouds 13 1004 76 10000 8.2 340 15:24 25.08.2019
3080 Clouds 13 1004 76 10000 9.8 340 14:43 25.08.2019
3081 Clouds 13 1005 87 10000 8.2 350 14:24 25.08.2019
3082 Clouds 13 1005 82 10000 8.2 350 13:56 25.08.2019
3083 Clouds 13 1005 67 10000 7.7 350 13:37 25.08.2019
3084 Clouds 13 1005 67 10000 7.7 350 13:18 25.08.2019
3085 Clouds 13 1005 67 10000 7.7 340 12:44 25.08.2019
3086 Clouds 13 1006 76 10000 6.2 360 12:25 25.08.2019
3087 Clouds 13 1006 62 10000 6.7 350 11:59 25.08.2019
3088 Clouds 13 1005 62 10000 10.3 320 11:38 25.08.2019
3089 Clouds 13 1005 62 10000 10.3 320 11:20 25.08.2019
3090 Clouds 13 1005 54 10000 7.2 330 10:57 25.08.2019
3091 Clouds 13 1005 58 10000 4.1 360 10:38 25.08.2019
3092 Clouds 13 1005 58 10000 4.1 360 10:19 25.08.2019
3093 Clouds 13 1005 67 10000 5.7 30 09:44 25.08.2019
3094 Clouds 13 1005 67 10000 6.2 360 09:24 25.08.2019
3095 Clouds 13 1005 67 10000 7.2 360 08:48 25.08.2019
3096 Clouds 13 1005 67 10000 6.2 360 08:29 25.08.2019
3097 Clouds 13 1005 67 10000 5.7 340 07:55 25.08.2019
3098 Clouds 13 1004 67 10000 7.2 360 07:33 25.08.2019
3099 Clouds 14 1004 55 10000 6.2 350 06:40 25.08.2019
3100 Clear 15 1003 48 10000 6.7 340 05:35 25.08.2019
3101 Clear 16 1004 62 10000 9.8 360 03:51 25.08.2019
3102 Clear 15 1005 62 10000 10.8 10 02:55 25.08.2019
3103 Clear 15 1005 62 10000 8.7 360 02:36 25.08.2019
3104 Clear 15 1005 62 10000 7.7 10 00:58 25.08.2019
3105 Clear 13 1005 67 10000 7.2 20 00:24 25.08.2019
3106 Clear 13 1005 66 10000 7.7 20 23:59 24.08.2019
3107 Clear 13 1006 76 10000 7.2 20 23:40 24.08.2019
3108 Clear 12 1006 76 10000 7.2 20 23:22 24.08.2019
3109 Clear 11 1005 76 10000 6.7 20 22:54 24.08.2019
3110 Clear 10 1005 81 10000 6.7 20 22:36 24.08.2019
3111 Clear 10 1005 81 10000 6.7 20 22:18 24.08.2019
3112 Clear 9 1005 81 10000 5.7 20 21:42 24.08.2019
3113 Clear 7 1005 81 10000 5.1 10 21:24 24.08.2019
3114 Clear 7 1005 81 10000 5.1 10 21:24 24.08.2019
3115 Clear 7 1005 87 10000 5.1 10 20:59 24.08.2019
3116 Clear 6 1005 87 10000 5.1 10 20:40 24.08.2019
3117 Clear 6 1005 87 10000 5.1 360 20:20 24.08.2019
3118 Clear 5 1005 93 10000 3.1 350 19:59 24.08.2019
3119 Clear 5 1005 93 10000 2.6 10 19:39 24.08.2019
3120 Clear 5 1005 93 10000 2.6 10 19:21 24.08.2019
3121 Clear 5 1005 87 10000 4.1 20 18:47 24.08.2019
3122 Clear 5 1005 100 10000 3.6 20 18:25 24.08.2019
3123 Clear 5 1005 93 10000 3.1 20 17:59 24.08.2019
3124 Clear 5 1005 93 10000 3.1 20 17:41 24.08.2019
3125 Clear 4 1005 93 10000 2.6 40 17:22 24.08.2019
3126 Clear 4 1005 93 10000 1.5 40 16:42 24.08.2019
3127 Clear 4 1005 93 10000 3.1 350 16:19 24.08.2019
3128 Clear 4 1005 93 10000 3.1 360 15:55 24.08.2019
3129 Clear 5 1006 93 10000 3.1 20 15:37 24.08.2019
3130 Clear 5 1006 93 10000 3.1 20 15:18 24.08.2019
3131 Clear 5 1006 93 10000 3.1 20 14:41 24.08.2019
3132 Clear 5 1006 93 10000 2.1 20 14:19 24.08.2019
3133 Clear 5 1006 87 10000 1 30 13:55 24.08.2019
3134 Clear 5 1006 93 10000 1 30 13:36 24.08.2019
3135 Clear 5 1006 93 10000 1 30 13:18 24.08.2019
3136 Clear 5 1006 87 10000 1.5 30 12:42 24.08.2019
3137 Clouds 6 1005 93 10000 2.1 20 12:23 24.08.2019
3138 Clouds 6 1005 87 10000 1.5 360 11:54 24.08.2019
3139 Clouds 7 1005 87 10000 1.5 20 11:36 24.08.2019
3140 Clouds 7 1005 87 10000 1.5 20 11:18 24.08.2019
3141 Clouds 7 1005 87 10000 1 40 10:40 24.08.2019
3142 Clouds 7 1005 87 10000 1 350 10:21 24.08.2019
3143 Clouds 7 1005 81 10000 1 350 09:43 24.08.2019
3144 Clouds 8 1004 81 10000 2.1 30 09:19 24.08.2019
3145 Clouds 8 1004 81 10000 1.5 340 08:43 24.08.2019
3146 Clouds 9 1004 76 10000 1.54 68.551 08:25 24.08.2019
3147 Clouds 10 1004 76 10000 1.5 150 07:53 24.08.2019
3148 Clouds 10 1004 71 10000 2.1 150 07:31 24.08.2019
3149 Clouds 11 1004 81 10000 2.1 180 06:53 24.08.2019
3150 Clear 12 1004 76 10000 3.6 170 06:23 24.08.2019
3151 Clear 12 1004 76 10000 4.6 170 05:39 24.08.2019
3152 Clear 13 1004 76 10000 6.2 170 03:51 24.08.2019
3153 Clear 13 1004 71 10000 7.2 170 03:32 24.08.2019
3154 Clear 12 1004 76 10000 7.7 180 02:23 24.08.2019
3155 Clear 11 1005 76 10000 10.3 180 01:29 24.08.2019
3156 Clear 10 1004 76 10000 11.3 190 00:49 24.08.2019
3157 Rain 10 1004 81 10000 10.3 190 00:24 24.08.2019
3158 Rain 10 1004 76 10000 11.3 170 23:47 23.08.2019
3159 Rain 9 1004 76 10000 11.8 180 23:23 23.08.2019
3160 Rain 9 1004 81 10000 12.3 180 22:58 23.08.2019
3161 Rain 9 1003 87 7000 12.9 190 22:40 23.08.2019
3162 Rain 9 1003 87 7000 12.9 190 22:20 23.08.2019
3163 Rain 9 1002 87 6000 11.8 190 21:38 23.08.2019
3164 Rain 9 1002 87 6000 11.8 190 21:19 23.08.2019
3165 Rain 9 1002 81 10000 11.8 180 20:53 23.08.2019
3166 Rain 9 1001 81 10000 11.8 180 20:35 23.08.2019
3167 Rain 9 1001 76 10000 12.3 180 19:58 23.08.2019
3168 Rain 9 1001 76 10000 12.9 180 19:40 23.08.2019
3169 Rain 9 1001 76 10000 12.9 180 19:18 23.08.2019
3170 Rain 9 1001 76 10000 12.9 180 19:18 23.08.2019
3171 Rain 9 1000 76 10000 13.4 180 18:43 23.08.2019
3172 Clear 9 1000 76 10000 13.4 180 18:24 23.08.2019
3173 Clear 9 999 76 10000 14.4 180 17:46 23.08.2019
3174 Clear 9 999 76 10000 13.9 180 17:28 23.08.2019
3175 Clear 9 999 76 10000 14.4 180 16:59 23.08.2019
3176 Clear 9 999 76 10000 14.4 180 16:40 23.08.2019
3177 Clear 9 999 76 10000 13.9 180 16:22 23.08.2019
3178 Clear 9 999 81 10000 13.4 180 15:41 23.08.2019
3179 Clouds 9 999 81 10000 14.4 180 15:22 23.08.2019
3180 Clouds 9 998 76 10000 14.9 190 14:59 23.08.2019
3181 Clouds 8 998 76 10000 14.9 190 14:40 23.08.2019
3182 Clouds 8 998 81 10000 13.4 190 14:20 23.08.2019
3183 Clouds 9 998 76 10000 13.4 190 13:56 23.08.2019
3184 Clouds 9 998 81 10000 12.9 190 13:38 23.08.2019
3185 Clear 9 998 81 10000 12.9 190 13:19 23.08.2019
3186 Clear 9 997 81 10000 12.3 190 12:57 23.08.2019
3187 Clear 8 997 81 10000 8.7 190 12:38 23.08.2019
3188 Clear 8 997 81 10000 8.7 190 12:20 23.08.2019
3189 Clear 7 997 87 10000 1 30 11:54 23.08.2019
3190 Clear 7 996 81 10000 1 80 11:36 23.08.2019
3191 Clear 7 996 81 10000 1 80 11:18 23.08.2019
3192 Clear 8 996 87 10000 1 340 10:42 23.08.2019
3193 Clear 8 996 87 10000 2.6 20 10:21 23.08.2019
3194 Clear 9 996 81 10000 1.5 10 09:48 23.08.2019
3195 Clear 9 996 81 10000 2.1 20 09:30 23.08.2019
3196 Clear 10 995 81 10000 3.6 10 08:59 23.08.2019
3197 Clear 10 994 76 10000 4.1 360 08:39 23.08.2019
3198 Clear 10 994 76 10000 4.1 360 08:19 23.08.2019
3199 Clear 11 994 76 10000 5.1 360 07:42 23.08.2019
3200 Clear 11 994 71 10000 5.1 350 07:24 23.08.2019
3201 Clear 12 993 62 10000 5.7 340 06:57 23.08.2019
3202 Clear 12 992 62 10000 5.1 350 06:37 23.08.2019
3203 Clear 12 992 62 10000 5.1 350 06:19 23.08.2019
3204 Clear 13 992 62 10000 5.1 10 05:33 23.08.2019
3205 Clear 13 992 66 10000 6.7 360 04:45 23.08.2019
3206 Clouds 12 993 62 10000 5.7 350 02:58 23.08.2019
3207 Clouds 12 993 62 10000 5.7 340 02:23 23.08.2019
3208 Clouds 12 993 66 10000 5.7 340 01:40 23.08.2019
3209 Clouds 12 993 71 10000 4.6 350 00:45 23.08.2019
3210 Clouds 11 993 71 10000 4.6 340 00:19 23.08.2019
3211 Clouds 11 993 76 10000 3.6 350 23:47 22.08.2019
3212 Rain 10 993 76 10000 5.7 340 23:25 22.08.2019
3213 Rain 10 993 76 10000 4.1 350 22:56 22.08.2019
3214 Clouds 11 993 76 10000 4.6 350 22:38 22.08.2019
3215 Clouds 10 993 76 10000 4.6 350 22:19 22.08.2019
3216 Rain 10 993 81 10000 5.1 350 21:55 22.08.2019
3217 Clouds 9 992 76 10000 5.1 10 21:37 22.08.2019
3218 Clouds 10 992 76 10000 5.7 360 21:18 22.08.2019
3219 Clouds 10 992 76 10000 5.7 360 20:55 22.08.2019
3220 Clouds 9 992 76 10000 6.2 10 20:37 22.08.2019
3221 Clouds 9 992 76 10000 6.2 10 20:18 22.08.2019
3222 Clouds 9 992 76 10000 7.2 360 19:40 22.08.2019
3223 Clouds 9 992 76 10000 7.2 360 19:22 22.08.2019
3224 Rain 9 991 71 10000 6.2 360 18:59 22.08.2019
3225 Clouds 9 991 76 10000 6.2 10 18:41 22.08.2019
3226 Clouds 9 991 76 10000 6.2 10 18:20 22.08.2019
3227 Clouds 10 991 76 10000 6.2 350 17:58 22.08.2019
3228 Clouds 10 991 71 10000 5.7 340 17:39 22.08.2019
3229 Clouds 10 991 76 10000 6.2 340 17:20 22.08.2019
3230 Clouds 10 991 76 10000 6.2 340 16:57 22.08.2019
3231 Clouds 10 991 71 10000 8.2 330 16:38 22.08.2019
3232 Clouds 10 991 71 10000 8.2 330 16:20 22.08.2019
3233 Clouds 10 991 71 10000 8.2 330 16:20 22.08.2019
3234 Clouds 10 991 71 10000 8.2 330 16:20 22.08.2019
3235 Clouds 10 991 71 10000 8.2 330 16:20 22.08.2019
3236 Clouds 10 991 71 10000 7.7 340 15:55 22.08.2019
3237 Clouds 10 991 71 10000 7.7 340 15:55 22.08.2019
3238 Clouds 10 991 71 10000 7.7 340 15:36 22.08.2019
3239 Clouds 10 991 71 10000 7.7 340 15:18 22.08.2019
3240 Clouds 10 991 71 10000 7.7 340 15:18 22.08.2019
3241 Clouds 10 991 71 10000 7.7 340 15:18 22.08.2019
3242 Clouds 10 991 71 10000 6.7 350 14:41 22.08.2019
3243 Clouds 10 990 71 10000 7.2 350 14:22 22.08.2019
3244 Rain 10 990 76 10000 5.1 350 13:59 22.08.2019
3245 Rain 10 990 76 10000 6.2 350 13:40 22.08.2019
3246 Rain 10 990 76 10000 6.2 350 13:21 22.08.2019
3247 Clouds 10 990 76 10000 8.7 350 12:56 22.08.2019
3248 Clouds 10 990 76 10000 7.2 350 12:38 22.08.2019
3249 Clouds 10 990 76 10000 7.2 350 12:38 22.08.2019
3250 Clouds 10 990 76 10000 7.2 350 12:19 22.08.2019
3251 Rain 11 989 81 10000 7.2 350 11:42 22.08.2019
3252 Rain 10 989 76 10000 7.2 350 11:21 22.08.2019
3253 Clouds 10 989 81 10000 5.7 350 10:58 22.08.2019
3254 Rain 10 989 81 10000 7.2 350 10:40 22.08.2019
3255 Rain 10 989 81 10000 7.2 350 10:22 22.08.2019
3256 Rain 10 988 87 10000 8.2 10 09:57 22.08.2019
3257 Rain 10 989 81 10000 8.7 360 09:39 22.08.2019
3258 Rain 10 989 81 10000 8.7 360 09:20 22.08.2019
3259 Rain 10 988 81 10000 8.7 350 08:54 22.08.2019
3260 Rain 10 987 76 10000 8.7 350 08:36 22.08.2019
3261 Rain 10 987 76 10000 8.7 350 08:18 22.08.2019
3262 Clear 11 987 66 10000 6.7 350 07:39 22.08.2019
3263 Clear 11 987 66 10000 6.7 350 07:19 22.08.2019
3264 Clear 11 987 71 10000 8.2 350 06:48 22.08.2019
3265 Clear 12 986 66 10000 10.8 350 06:23 22.08.2019
3266 Clear 12 986 71 10000 10.3 360 05:36 22.08.2019
3267 Clear 13 986 62 10000 10.8 340 04:20 22.08.2019
3268 Clouds 13 987 67 10000 9.3 340 02:38 22.08.2019
3269 Clouds 13 987 71 10000 8.7 330 01:45 22.08.2019
3270 Clouds 13 987 71 10000 8.7 340 01:21 22.08.2019
3271 Clouds 12 987 82 10000 8.7 350 00:41 22.08.2019
3272 Clouds 12 987 82 10000 8.7 350 00:22 22.08.2019
3273 Clouds 12 987 81 10000 9.8 360 23:48 21.08.2019
3274 Clouds 11 987 87 10000 8.7 360 23:29 21.08.2019
3275 Rain 10 986 87 10000 5.7 10 22:59 21.08.2019
3276 Rain 10 986 87 10000 5.7 10 22:41 21.08.2019
3277 Rain 10 981 91 0 0.45 70 22:21 21.08.2019
3278 Rain 10 986 87 10000 6.2 350 21:58 21.08.2019
3279 Rain 10 986 93 5000 7.2 10 21:38 21.08.2019
3280 Rain 10 986 92 0 1.34 332 21:20 21.08.2019
3281 Rain 10 986 93 10000 7.7 20 20:58 21.08.2019
3282 Rain 10 986 93 5000 8.7 20 20:39 21.08.2019
3283 Rain 10 986 93 5000 8.7 20 20:20 21.08.2019
3284 Rain 10 984 94 0 1.34 332 19:44 21.08.2019
3285 Rain 10 987 87 10000 10.8 20 19:25 21.08.2019
3286 Rain 10 986 87 10000 9.8 20 18:59 21.08.2019
3287 Rain 10 986 87 10000 9.8 20 18:59 21.08.2019
3288 Rain 10 987 93 6000 10.8 10 18:40 21.08.2019
3289 Rain 10 987 93 6000 10.8 10 18:22 21.08.2019
3290 Rain 10 987 87 10000 10.3 10 17:45 21.08.2019
3291 Rain 11 987 87 10000 8.7 20 17:25 21.08.2019
3292 Rain 11 988 87 10000 9.3 10 16:59 21.08.2019
3293 Rain 11 988 87 10000 9.3 10 16:40 21.08.2019
3294 Rain 10 988 87 10000 7.7 20 16:21 21.08.2019
3295 Rain 10 989 93 5000 8.7 20 15:58 21.08.2019
3296 Rain 10 989 87 10000 9.3 360 15:39 21.08.2019
3297 Rain 10 989 87 10000 9.3 360 15:20 21.08.2019
3298 Clear 10 990 93 10000 9.3 10 14:57 21.08.2019
3299 Rain 10 990 93 10000 8.7 360 14:38 21.08.2019
3300 Rain 10 990 93 10000 8.7 360 14:19 21.08.2019
3301 Rain 11 991 87 8000 8.7 350 13:43 21.08.2019
3302 Rain 11 991 87 10000 8.7 350 13:21 21.08.2019
3303 Rain 11 991 87 10000 8.7 350 13:21 21.08.2019
3304 Rain 11 991 76 10000 7.7 350 12:58 21.08.2019
3305 Clear 11 992 71 10000 6.2 350 12:40 21.08.2019
3306 Clear 11 992 71 10000 6.2 350 12:20 21.08.2019
3307 Clear 11 992 71 10000 8.2 350 11:56 21.08.2019
3308 Clear 11 992 76 10000 8.7 350 11:38 21.08.2019
3309 Clear 11 992 76 10000 8.7 350 11:19 21.08.2019
3310 Clear 11 992 71 10000 8.7 340 10:56 21.08.2019
3311 Clear 11 992 71 10000 7.7 360 10:37 21.08.2019
3312 Clear 11 992 71 10000 7.7 360 10:19 21.08.2019
3313 Clear 10 992 66 10000 8.2 10 09:42 21.08.2019
3314 Clouds 10 992 71 10000 8.2 360 09:23 21.08.2019
3315 Clouds 10 992 76 10000 7.7 360 08:57 21.08.2019
3316 Clouds 10 992 71 10000 7.7 360 08:38 21.08.2019
3317 Clouds 10 992 71 10000 7.7 360 08:19 21.08.2019
3318 Clouds 11 992 66 10000 7.2 350 07:40 21.08.2019
3319 Clouds 11 992 66 10000 7.2 350 07:20 21.08.2019
3320 Clouds 12 992 66 10000 7.2 350 06:47 21.08.2019
3321 Clouds 12 992 76 10000 6.2 360 06:21 21.08.2019
3322 Clouds 13 992 76 10000 3.6 360 05:38 21.08.2019
3323 Clouds 13 992 76 10000 3.6 360 05:19 21.08.2019
3324 Rain 12 992 87 10000 4.1 230 03:23 21.08.2019
3325 Rain 12 992 87 10000 4.1 360 01:42 21.08.2019
3326 Rain 12 993 87 10000 5.7 10 00:44 21.08.2019
3327 Rain 11 993 87 10000 7.7 10 00:24 21.08.2019
3328 Rain 11 993 87 10000 6.2 10 23:57 20.08.2019
3329 Rain 11 993 87 10000 7.2 10 23:38 20.08.2019
3330 Rain 11 993 87 10000 7.2 10 23:18 20.08.2019
3331 Rain 10 993 87 10000 6.7 10 22:55 20.08.2019
3332 Rain 10 993 87 10000 5.7 10 22:36 20.08.2019
3333 Rain 10 993 87 10000 5.7 10 22:18 20.08.2019
3334 Rain 10 993 81 10000 4.6 30 21:56 20.08.2019
3335 Rain 10 993 87 10000 2.6 360 21:37 20.08.2019
3336 Rain 10 993 87 10000 2.6 360 21:18 20.08.2019
3337 Rain 10 993 87 10000 3.1 350 20:42 20.08.2019
3338 Rain 10 993 87 10000 4.1 360 20:24 20.08.2019
3339 Rain 10 993 87 10000 3.6 10 19:54 20.08.2019
3340 Rain 10 994 87 10000 3.6 20 19:36 20.08.2019
3341 Rain 10 994 87 10000 3.6 20 19:36 20.08.2019
3342 Rain 10 994 87 10000 3.6 20 19:18 20.08.2019
3343 Rain 10 994 87 10000 3.6 20 19:18 20.08.2019
3344 Rain 10 994 87 10000 3.1 350 18:54 20.08.2019
3345 Rain 10 994 87 10000 3.1 350 18:54 20.08.2019
3346 Rain 10 995 87 10000 4.6 10 18:36 20.08.2019
3347 Rain 10 995 87 10000 4.6 10 18:18 20.08.2019
3348 Rain 10 995 87 10000 3.1 360 17:39 20.08.2019
3349 Rain 10 995 87 10000 3.1 360 17:20 20.08.2019
3350 Rain 10 996 81 10000 4.6 20 16:47 20.08.2019
3351 Rain 9 996 81 10000 4.6 20 16:28 20.08.2019
3352 Rain 9 997 87 10000 4.1 30 15:59 20.08.2019
3353 Rain 9 997 81 10000 6.7 10 15:41 20.08.2019
3354 Rain 10 997 81 10000 6.7 10 15:18 20.08.2019
3355 Rain 10 998 81 10000 6.7 10 14:44 20.08.2019
3356 Rain 10 998 81 10000 6.7 10 14:22 20.08.2019
3357 Rain 10 998 76 10000 6.2 20 13:59 20.08.2019
3358 Rain 10 998 76 10000 6.7 10 13:40 20.08.2019
3359 Rain 10 998 76 10000 6.7 10 13:21 20.08.2019
3360 Rain 10 999 76 10000 6.7 10 12:59 20.08.2019
3361 Rain 11 999 81 10000 7.2 10 12:40 20.08.2019
3362 Rain 11 999 81 10000 7.2 10 12:22 20.08.2019
3363 Rain 11 999 71 10000 7.7 10 11:42 20.08.2019
3364 Rain 11 999 71 10000 7.7 10 11:22 20.08.2019
3365 Rain 12 1000 66 10000 6.2 10 10:58 20.08.2019
3366 Rain 11 1000 76 10000 7.7 10 10:40 20.08.2019
3367 Rain 11 1000 76 10000 7.7 10 10:22 20.08.2019
3368 Rain 11 1000 76 10000 8.2 10 09:59 20.08.2019
3369 Rain 11 1001 66 10000 7.7 10 09:40 20.08.2019
3370 Clouds 11 1001 66 10000 7.7 10 09:21 20.08.2019
3371 Clouds 11 1001 62 10000 8.7 10 08:42 20.08.2019
3372 Clouds 11 1001 62 10000 8.7 10 08:24 20.08.2019
3373 Clouds 11 1002 66 10000 9.3 10 07:58 20.08.2019
3374 Clouds 12 1002 62 10000 8.7 10 07:39 20.08.2019
3375 Clouds 12 1003 62 10000 9.3 10 07:20 20.08.2019
3376 Clouds 12 1004 62 10000 8.7 10 06:44 20.08.2019
3377 Clouds 12 1004 62 10000 11.3 10 06:20 20.08.2019
3378 Clouds 12 1004 58 10000 11.8 10 05:42 20.08.2019
3379 Clouds 12 1006 62 10000 12.9 360 04:30 20.08.2019
3380 Clouds 11 1008 58 10000 12.9 360 02:51 20.08.2019
3381 Clouds 12 1010 62 10000 12.3 10 01:58 20.08.2019
3382 Clouds 12 1010 62 10000 12.9 10 01:21 20.08.2019
3383 Clouds 11 1011 62 10000 10.8 360 00:45 20.08.2019
3384 Clouds 11 1011 62 10000 10.8 360 00:24 20.08.2019
3385 Clouds 11 1012 66 10000 8.7 20 23:45 19.08.2019
3386 Clouds 10 1013 66 10000 10.3 20 23:19 19.08.2019
3387 Clouds 10 1013 66 10000 10.3 20 22:58 19.08.2019
3388 Clouds 10 1013 66 10000 10.3 20 22:40 19.08.2019
3389 Clouds 10 1013 66 10000 10.3 20 22:21 19.08.2019
3390 Clouds 9 1013 70 10000 10.3 10 21:57 19.08.2019
3391 Clouds 9 1013 70 10000 10.3 10 21:57 19.08.2019
3392 Clouds 9 1014 70 10000 9.8 10 21:38 19.08.2019
3393 Clouds 9 1014 70 10000 10.3 20 21:19 19.08.2019
3394 Clouds 9 1014 70 10000 10.3 20 20:55 19.08.2019
3395 Clouds 9 1014 66 10000 10.8 10 20:37 19.08.2019
3396 Clouds 9 1014 70 10000 11.8 10 20:19 19.08.2019
3397 Clouds 9 1014 70 10000 11.8 10 19:54 19.08.2019
3398 Clouds 9 1015 66 10000 11.3 10 19:36 19.08.2019
3399 Clouds 9 1016 66 10000 10.8 10 19:18 19.08.2019
3400 Clouds 9 1016 66 10000 11.3 10 18:41 19.08.2019
3401 Clouds 9 1016 66 10000 10.3 10 18:22 19.08.2019
3402 Clouds 9 1016 66 10000 10.3 10 17:56 19.08.2019
3403 Clouds 9 1017 70 10000 10.8 10 17:38 19.08.2019
3404 Clouds 9 1018 70 10000 10.8 10 17:19 19.08.2019
3405 Clouds 9 1018 70 10000 10.8 10 16:54 19.08.2019
3406 Clouds 9 1018 61 10000 9.8 20 16:36 19.08.2019
3407 Clouds 9 1018 61 10000 9.8 20 16:18 19.08.2019
3408 Clouds 9 1018 61 10000 9.8 10 15:44 19.08.2019
3409 Clouds 9 1019 61 10000 9.3 10 15:19 19.08.2019
3410 Clouds 9 1019 57 10000 10.3 360 14:44 19.08.2019
3411 Clouds 9 1019 57 10000 10.3 360 14:44 19.08.2019
3412 Clouds 9 1020 53 10000 9.8 360 14:24 19.08.2019
3413 Clouds 9 1020 61 10000 8.7 10 13:59 19.08.2019
3414 Clouds 9 1020 66 10000 6.7 10 13:40 19.08.2019
3415 Clouds 9 1020 66 10000 6.7 10 13:20 19.08.2019
3416 Clouds 9 1020 66 10000 6.7 10 13:20 19.08.2019
3417 Clouds 9 1021 66 10000 7.7 10 12:58 19.08.2019
3418 Clouds 9 1021 61 10000 8.7 10 12:40 19.08.2019
3419 Clear 9 1021 61 10000 8.7 10 12:20 19.08.2019
3420 Clear 9 1021 61 10000 7.7 360 11:41 19.08.2019
3421 Clear 9 1021 61 10000 7.7 360 11:41 19.08.2019
3422 Clear 8 1022 65 10000 7.2 20 11:23 19.08.2019
3423 Clear 8 1022 65 10000 7.2 20 10:59 19.08.2019
3424 Clear 8 1021 65 10000 8.2 20 10:39 19.08.2019
3425 Clear 8 1021 65 10000 8.2 20 10:19 19.08.2019
3426 Clear 8 1021 65 10000 8.2 20 09:54 19.08.2019
3427 Clear 8 1022 65 10000 9.3 20 09:36 19.08.2019
3428 Clear 8 1022 65 10000 9.3 20 09:18 19.08.2019
3429 Clear 8 1022 65 10000 9.3 20 08:41 19.08.2019
3430 Clear 8 1021 65 10000 8.7 20 08:20 19.08.2019
3431 Clear 7 1022 61 10000 8.7 10 07:52 19.08.2019
3432 Clear 8 1022 57 10000 8.7 360 07:32 19.08.2019
3433 Clear 9 1022 53 10000 9.8 350 06:59 19.08.2019
3434 Clear 9 1022 57 10000 10.3 350 06:36 19.08.2019
3435 Clear 10 1022 57 10000 10.3 360 05:26 19.08.2019
3436 Clear 10 1023 50 10000 8.2 350 04:33 19.08.2019
3437 Clear 10 1024 53 10000 8.7 350 03:25 19.08.2019
3438 Clear 10 1025 53 10000 8.7 360 02:30 19.08.2019
3439 Clear 10 1026 57 10000 6.2 20 01:36 19.08.2019
3440 Clear 9 1026 61 10000 6.7 30 00:46 19.08.2019
3441 Clear 8 1026 65 10000 5.7 20 00:23 19.08.2019
3442 Rain 7 1027 75 10000 6.2 30 23:43 18.08.2019
3443 Rain 6 1027 75 10000 3.1 10 23:22 18.08.2019
3444 Rain 6 1027 75 10000 3.1 10 23:22 18.08.2019
3445 Rain 4 1027 80 10000 4.1 20 22:59 18.08.2019
3446 Clear 4 1027 86 10000 2.6 30 22:39 18.08.2019
3447 Clear 3 1027 86 10000 2.6 30 22:21 18.08.2019
3448 Clear 2 1027 86 10000 4.1 360 21:56 18.08.2019
3449 Clear 2 1027 93 10000 3.6 40 21:38 18.08.2019
3450 Clear 2 1027 93 10000 3.6 40 21:20 18.08.2019
3451 Clear 2 1027 93 10000 3.1 30 20:45 18.08.2019
3452 Clear 1 1027 67 10000 2.1 10 20:26 18.08.2019
3453 Clear 2 1027 93 10000 2.6 30 19:59 18.08.2019
3454 Clear 2 1027 93 10000 2.6 30 19:40 18.08.2019
3455 Clear 2 1028 67 10000 2.1 10 19:22 18.08.2019
3456 Clear 1 1027 67 10000 1.5 30 18:56 18.08.2019
3457 Clear 2 1027 93 10000 1.5 30 18:38 18.08.2019
3458 Clear 2 1027 93 10000 1.5 30 18:19 18.08.2019
3459 Clear 2 1028 55 10000 2.6 40 17:43 18.08.2019
3460 Clear 2 1028 55 10000 1.5 60 17:19 18.08.2019
3461 Clear 2 1028 55 10000 1.5 60 17:19 18.08.2019
3462 Clear 2 1028 55 10000 1.5 60 16:59 18.08.2019
3463 Clear 2 1028 55 10000 1.5 60 16:41 18.08.2019
3464 Clear 2 1029 55 10000 1.5 60 16:20 18.08.2019
3465 Clear 2 1029 86 10000 2.1 50 15:58 18.08.2019
3466 Clear 2 1029 86 9000 1 330 15:39 18.08.2019
3467 Clear 3 1029 86 9000 1 330 15:20 18.08.2019
3468 Clear 3 1029 86 9000 1 330 15:20 18.08.2019
3469 Clear 3 1029 80 10000 1.5 80 14:56 18.08.2019
3470 Clear 3 1028 86 9000 2.1 330 14:37 18.08.2019
3471 Clear 3 1028 86 9000 2.1 330 14:18 18.08.2019
3472 Clear 3 1028 80 10000 1.5 90 13:43 18.08.2019
3473 Clear 4 1028 80 10000 2.1 10 13:24 18.08.2019
3474 Clear 4 1028 80 10000 2.1 10 13:24 18.08.2019
3475 Clear 4 1028 80 10000 1.5 350 12:59 18.08.2019
3476 Clear 5 1028 75 10000 1.5 20 12:40 18.08.2019
3477 Clear 5 1028 75 10000 1.5 20 12:22 18.08.2019
3478 Clear 6 1028 70 10000 1.5 100 11:54 18.08.2019
3479 Clear 7 1029 58 10000 2.6 140 11:36 18.08.2019
3480 Clear 7 1029 58 10000 2.6 140 11:18 18.08.2019
3481 Clear 7 1028 58 10000 1.5 130 10:41 18.08.2019
3482 Clear 7 1028 58 10000 3.1 140 10:19 18.08.2019
3483 Clear 8 1028 61 10000 5.1 140 09:48 18.08.2019
3484 Rain 8 1028 61 10000 5.7 140 09:21 18.08.2019
3485 Rain 7 1027 70 10000 6.2 160 08:54 18.08.2019
3486 Rain 7 1027 81 10000 8.7 140 08:36 18.08.2019
3487 Rain 7 1027 81 10000 8.7 140 08:18 18.08.2019
3488 Rain 9 1027 49 10000 7.7 140 07:42 18.08.2019
3489 Rain 9 1026 62 10000 8.7 150 07:23 18.08.2019
3490 Rain 9 1026 57 10000 8.2 140 05:47 18.08.2019
3491 Rain 10 1026 53 10000 9.3 160 04:52 18.08.2019
3492 Rain 9 1026 57 10000 9.8 160 03:23 18.08.2019
3493 Rain 10 1026 57 10000 9.3 160 02:46 18.08.2019
3494 Rain 10 1026 53 10000 10.3 160 02:23 18.08.2019
3495 Rain 9 1026 57 10000 11.3 170 01:30 18.08.2019
3496 Rain 9 1026 66 10000 9.8 160 00:56 18.08.2019
3497 Rain 9 1025 61 10000 10.3 160 00:37 18.08.2019
3498 Rain 9 1025 61 10000 10.3 160 00:18 18.08.2019
3499 Rain 8 1025 70 10000 9.3 150 23:56 17.08.2019
3500 Rain 8 1025 65 10000 10.8 160 23:36 17.08.2019
3501 Rain 8 1025 65 10000 10.8 160 23:18 17.08.2019
3502 Rain 8 1024 61 10000 11.3 160 22:41 17.08.2019
3503 Rain 7 1024 81 9000 13.4 190 22:23 17.08.2019
3504 Rain 7 1023 70 10000 10.8 150 21:59 17.08.2019
3505 Rain 7 1023 65 10000 12.3 150 21:40 17.08.2019
3506 Rain 7 1023 65 10000 12.3 150 21:21 17.08.2019
3507 Rain 8 1022 65 10000 10.3 170 20:40 17.08.2019
3508 Rain 6 1022 65 10000 10.3 170 20:21 17.08.2019
3509 Rain 6 1021 61 10000 11.3 170 19:57 17.08.2019
3510 Rain 6 1021 61 10000 12.3 170 19:39 17.08.2019
3511 Rain 6 1021 61 10000 12.3 170 19:20 17.08.2019
3512 Rain 6 1021 65 10000 11.8 170 18:41 17.08.2019
3513 Rain 6 1021 65 10000 11.8 170 18:19 17.08.2019
3514 Rain 6 1020 75 10000 12.3 200 17:58 17.08.2019
3515 Rain 6 1020 70 10000 11.8 180 17:40 17.08.2019
3516 Rain 6 1020 70 10000 11.8 180 17:21 17.08.2019
3517 Rain 6 1020 70 10000 11.3 190 16:45 17.08.2019
3518 Rain 6 1019 75 10000 11.3 190 16:26 17.08.2019
3519 Rain 6 1019 75 10000 11.3 180 15:59 17.08.2019
3520 Rain 7 1019 65 10000 12.9 170 15:40 17.08.2019
3521 Rain 7 1019 65 10000 12.9 170 15:20 17.08.2019
3522 Rain 7 1019 61 10000 12.3 170 14:43 17.08.2019
3523 Rain 7 1019 70 10000 13.4 170 14:23 17.08.2019
3524 Rain 7 1018 65 10000 11.8 170 13:49 17.08.2019
3525 Rain 7 1018 70 10000 12.3 170 13:23 17.08.2019
3526 Rain 7 1018 75 10000 11.8 180 12:59 17.08.2019
3527 Clouds 7 1017 65 10000 13.9 170 12:41 17.08.2019
3528 Rain 7 1017 65 10000 13.9 170 12:19 17.08.2019
3529 Rain 7 1017 72 0 4.47 202 11:57 17.08.2019
3530 Rain 8 1016 70 10000 12.9 170 11:36 17.08.2019
3531 Rain 8 1016 70 10000 12.9 170 11:18 17.08.2019
3532 Rain 8 1015 66 10000 13.4 170 10:39 17.08.2019
3533 Rain 8 1015 66 10000 13.4 170 10:19 17.08.2019
3534 Rain 8 1015 61 10000 14.4 170 09:50 17.08.2019
3535 Rain 7 1010 74 0 1.34 121 09:31 17.08.2019
3536 Rain 7 1013 66 10000 14.4 170 08:54 17.08.2019
3537 Rain 7 1013 66 10000 15.4 170 08:26 17.08.2019
3538 Rain 7 1012 70 10000 13.9 180 07:53 17.08.2019
3539 Rain 7 1007 88 0 0.89 152 07:22 17.08.2019
3540 Rain 7 1007 88 0 0.89 152 07:22 17.08.2019
3541 Rain 7 1010 93 7000 11.8 170 06:55 17.08.2019
3542 Rain 7 1010 93 5000 12.3 190 05:55 17.08.2019
3543 Rain 7 1009 93 3500 10.8 180 04:30 17.08.2019
3544 Rain 7 1008 93 6000 10.8 180 03:35 17.08.2019
3545 Rain 8 1008 93 6000 10.3 180 01:48 17.08.2019
3546 Rain 8 1007 93 5000 11.3 180 01:29 17.08.2019
3547 Rain 11 1006 93 4200 11.8 190 00:55 17.08.2019
3548 Rain 11 1006 87 10000 8.2 270 00:31 17.08.2019
3549 Rain 13 1004 76 10000 8.2 320 23:52 16.08.2019
3550 Rain 13 1004 87 10000 6.7 340 23:30 16.08.2019
3551 Rain 13 1004 82 10000 5.7 330 22:58 16.08.2019
3552 Rain 13 1005 82 10000 6.2 340 22:39 16.08.2019
3553 Rain 13 1005 82 10000 6.2 340 22:19 16.08.2019
3554 Rain 12 1004 82 10000 6.2 350 21:42 16.08.2019
3555 Clouds 12 1004 82 10000 7.7 340 21:21 16.08.2019
3556 Clouds 12 1004 76 10000 7.7 330 20:58 16.08.2019
3557 Clouds 13 1004 76 10000 7.2 340 20:39 16.08.2019
3558 Clouds 13 1004 76 10000 7.2 340 20:19 16.08.2019
3559 Clouds 12 1004 76 10000 8.2 350 19:44 16.08.2019
3560 Clouds 12 1004 76 10000 8.2 350 19:23 16.08.2019
3561 Clouds 12 1005 76 10000 8.2 360 18:55 16.08.2019
3562 Clouds 12 1005 76 10000 6.7 340 18:36 16.08.2019
3563 Clouds 13 1005 76 10000 6.7 340 18:18 16.08.2019
3564 Clouds 13 1004 71 10000 7.7 340 17:44 16.08.2019
3565 Clouds 13 1004 66 10000 5.7 350 17:25 16.08.2019
3566 Clouds 13 1004 66 10000 6.2 330 16:56 16.08.2019
3567 Clouds 13 1004 66 10000 8.2 330 16:37 16.08.2019
3568 Clouds 12 1004 66 10000 8.2 330 16:18 16.08.2019
3569 Clouds 12 1004 62 10000 8.2 330 15:41 16.08.2019
3570 Clouds 12 1005 71 10000 7.2 360 15:22 16.08.2019
3571 Clouds 12 1005 76 10000 6.2 350 14:58 16.08.2019
3572 Clouds 12 1005 71 10000 6.7 350 14:39 16.08.2019
3573 Clouds 12 1005 71 10000 6.7 350 14:19 16.08.2019
3574 Clouds 12 1006 76 10000 5.1 350 13:57 16.08.2019
3575 Clouds 12 1006 76 10000 7.7 360 13:37 16.08.2019
3576 Clouds 12 1006 76 10000 7.7 360 13:37 16.08.2019
3577 Clouds 12 1006 76 10000 7.7 360 13:19 16.08.2019
3578 Clouds 12 1007 76 10000 7.2 20 12:39 16.08.2019
3579 Clear 12 1007 76 10000 7.2 20 12:20 16.08.2019
3580 Clear 12 1007 81 10000 6.7 20 11:42 16.08.2019
3581 Clear 12 1007 81 10000 8.2 10 11:24 16.08.2019
3582 Clear 11 1007 76 10000 7.7 20 10:54 16.08.2019
3583 Clear 11 1007 71 10000 7.2 350 10:36 16.08.2019
3584 Clear 11 1007 71 10000 7.2 350 10:36 16.08.2019
3585 Clear 12 1007 71 10000 7.2 350 10:18 16.08.2019
3586 Clear 12 1007 62 10000 6.2 340 09:38 16.08.2019
3587 Clouds 11 1007 62 10000 6.2 340 09:18 16.08.2019
3588 Clouds 11 1007 62 10000 5.1 350 08:56 16.08.2019
3589 Clouds 12 1007 62 10000 5.7 350 08:37 16.08.2019
3590 Clouds 12 1007 62 10000 5.7 350 08:18 16.08.2019
3591 Clouds 12 1007 58 10000 6.7 340 07:42 16.08.2019
3592 Clouds 12 1007 58 10000 7.7 350 07:24 16.08.2019
3593 Clouds 13 1007 58 10000 6.7 10 06:33 16.08.2019
3594 Clouds 13 1007 62 10000 8.7 360 05:43 16.08.2019
3595 Clouds 13 1008 62 10000 6.7 350 04:33 16.08.2019
3596 Clear 13 1008 62 10000 6.2 340 03:18 16.08.2019
3597 Clear 13 1010 62 10000 10.3 360 01:43 16.08.2019
3598 Clouds 13 1010 62 10000 8.7 360 01:21 16.08.2019
3599 Clouds 13 1010 71 10000 8.7 360 00:43 16.08.2019
3600 Clear 12 1011 66 10000 9.8 350 00:22 16.08.2019
3601 Clear 12 1011 62 10000 8.7 360 23:46 15.08.2019
3602 Clear 11 1011 66 10000 8.2 360 23:22 15.08.2019
3603 Clear 11 1011 62 10000 9.3 360 22:58 15.08.2019
3604 Clear 11 1010 62 10000 8.7 360 22:40 15.08.2019
3605 Clear 10 1010 62 10000 8.7 360 22:21 15.08.2019
3606 Clear 10 1010 71 10000 8.2 350 21:56 15.08.2019
3607 Clear 10 1010 76 10000 7.7 360 21:38 15.08.2019
3608 Clouds 10 1010 76 10000 7.7 360 21:18 15.08.2019
3609 Clouds 10 1010 71 10000 6.2 350 20:43 15.08.2019
3610 Clouds 10 1011 66 10000 7.2 350 20:22 15.08.2019
3611 Clouds 10 1010 62 10000 5.7 350 19:58 15.08.2019
3612 Clouds 10 1011 66 10000 6.2 350 19:39 15.08.2019
3613 Clouds 9 1011 66 10000 6.2 350 19:21 15.08.2019
3614 Clouds 9 1011 76 10000 7.2 360 18:47 15.08.2019
3615 Clouds 9 1011 76 10000 5.7 10 18:23 15.08.2019
3616 Clouds 9 1012 71 10000 6.2 20 17:58 15.08.2019
3617 Clouds 9 1012 81 10000 6.2 30 17:38 15.08.2019
3618 Clouds 8 1012 81 10000 6.2 30 17:19 15.08.2019
3619 Clouds 8 1013 81 10000 5.7 30 16:57 15.08.2019
3620 Clouds 8 1013 81 10000 5.1 30 16:38 15.08.2019
3621 Clouds 8 1013 81 10000 5.1 30 16:20 15.08.2019
3622 Clouds 8 1013 81 10000 5.1 30 15:38 15.08.2019
3623 Clouds 8 1013 81 10000 5.1 30 15:20 15.08.2019
3624 Clouds 8 1014 81 10000 5.1 30 14:56 15.08.2019
3625 Clouds 8 1014 76 10000 5.1 30 14:37 15.08.2019
3626 Clouds 8 1014 76 10000 5.1 30 14:18 15.08.2019
3627 Clouds 8 1014 76 10000 5.7 30 13:55 15.08.2019
3628 Clouds 9 1014 76 10000 5.1 30 13:37 15.08.2019
3629 Clouds 9 1014 76 10000 5.1 30 13:19 15.08.2019
3630 Clouds 9 1014 76 10000 5.1 30 13:19 15.08.2019
3631 Clouds 9 1015 76 10000 5.1 20 12:40 15.08.2019
3632 Clouds 9 1015 76 10000 5.1 20 12:20 15.08.2019
3633 Clouds 9 1015 76 10000 4.6 30 11:58 15.08.2019
3634 Clouds 9 1015 76 10000 5.7 30 11:38 15.08.2019
3635 Clouds 9 1015 76 10000 5.7 30 11:38 15.08.2019
3636 Clouds 9 1015 76 10000 5.7 30 11:19 15.08.2019
3637 Clouds 9 1015 76 10000 5.7 30 10:58 15.08.2019
3638 Clouds 9 1015 76 10000 5.1 30 10:37 15.08.2019
3639 Clouds 9 1015 76 10000 5.1 30 10:37 15.08.2019
3640 Clouds 9 1015 76 10000 5.1 30 10:18 15.08.2019
3641 Clouds 9 1015 81 10000 4.6 30 09:43 15.08.2019
3642 Clear 9 1015 81 10000 5.1 10 09:22 15.08.2019
3643 Clear 9 1015 71 10000 5.1 20 08:39 15.08.2019
3644 Clear 9 1015 71 10000 5.1 20 08:21 15.08.2019
3645 Clear 9 1015 66 10000 5.7 20 07:58 15.08.2019
3646 Clear 10 1015 66 10000 6.2 10 07:39 15.08.2019
3647 Clear 10 1015 66 10000 6.2 10 07:20 15.08.2019
3648 Clear 11 1015 62 10000 7.2 10 06:48 15.08.2019
3649 Clear 11 1015 66 10000 7.7 10 06:25 15.08.2019
3650 Clear 12 1015 71 10000 7.7 10 05:30 15.08.2019
3651 Clear 12 1015 66 10000 8.2 10 04:58 15.08.2019
3652 Clear 12 1015 76 10000 7.7 360 04:19 15.08.2019
3653 Rain 11 1016 76 10000 7.7 360 03:21 15.08.2019
3654 Clouds 11 1017 71 10000 5.7 10 02:34 15.08.2019
3655 Rain 11 1017 66 10000 4.6 20 01:45 15.08.2019
3656 Rain 10 1018 70 10000 4.6 30 00:59 15.08.2019
3657 Rain 9 1018 76 10000 4.1 20 00:37 15.08.2019
3658 Rain 9 1018 76 10000 4.1 20 00:19 15.08.2019
3659 Rain 9 1018 76 10000 4.1 20 00:19 15.08.2019
3660 Rain 8 1018 81 10000 3.6 10 23:56 14.08.2019
3661 Clouds 7 1018 87 10000 5.1 10 23:37 14.08.2019
3662 Clouds 6 1018 87 10000 5.1 10 23:19 14.08.2019
3663 Clouds 6 1018 81 10000 3.6 30 22:42 14.08.2019
3664 Clouds 6 1018 87 10000 4.1 360 22:23 14.08.2019
3665 Clouds 5 1018 86 10000 2.6 10 21:57 14.08.2019
3666 Clouds 5 1018 87 10000 3.6 20 21:39 14.08.2019
3667 Clouds 5 1018 87 10000 3.6 20 21:21 14.08.2019
3668 Clouds 5 1017 87 10000 2.6 40 20:57 14.08.2019
3669 Clouds 4 1017 93 10000 2.6 20 20:39 14.08.2019
3670 Clouds 4 1017 93 10000 2.6 20 20:19 14.08.2019
3671 Clouds 4 1017 87 10000 2.1 40 19:55 14.08.2019
3672 Clouds 6 1017 87 10000 2.1 30 19:36 14.08.2019
3673 Clouds 7 1017 81 10000 1.5 40 19:18 14.08.2019
3674 Clouds 7 1017 81 10000 1.5 40 18:43 14.08.2019
3675 Clouds 9 1017 70 8000 2.1 280 18:25 14.08.2019
3676 Clouds 10 1017 66 9000 4.1 210 17:59 14.08.2019
3677 Clouds 9 1017 70 10000 4.1 190 17:40 14.08.2019
3678 Clouds 9 1017 70 10000 4.1 190 17:22 14.08.2019
3679 Clouds 10 1017 71 10000 4.6 190 16:58 14.08.2019
3680 Clouds 10 1017 66 10000 5.7 180 16:39 14.08.2019
3681 Clouds 10 1017 66 10000 5.7 180 16:39 14.08.2019
3682 Clouds 10 1017 66 10000 5.7 180 16:19 14.08.2019
3683 Clouds 9 1016 70 9000 5.1 180 15:43 14.08.2019
3684 Clouds 9 1016 70 10000 5.1 180 15:20 14.08.2019
3685 Clouds 9 1016 70 10000 5.1 180 14:58 14.08.2019
3686 Clouds 9 1016 70 10000 6.2 170 14:39 14.08.2019
3687 Clouds 9 1016 70 10000 6.2 170 14:19 14.08.2019
3688 Clouds 9 1016 70 10000 7.2 180 13:44 14.08.2019
3689 Clouds 9 1016 70 10000 7.2 180 13:44 14.08.2019
3690 Rain 9 1016 70 10000 6.2 170 13:25 14.08.2019
3691 Rain 9 1016 70 10000 6.7 170 12:59 14.08.2019
3692 Rain 9 1016 70 10000 7.2 170 12:40 14.08.2019
3693 Rain 9 1016 70 10000 7.2 170 12:22 14.08.2019
3694 Rain 9 1016 70 10000 7.2 170 12:22 14.08.2019
3695 Rain 9 1016 70 10000 6.7 160 11:58 14.08.2019
3696 Clouds 9 1016 76 10000 6.7 160 11:40 14.08.2019
3697 Clouds 9 1016 76 10000 6.7 160 11:21 14.08.2019
3698 Clouds 9 1015 70 10000 6.7 160 10:45 14.08.2019
3699 Clouds 9 1015 70 10000 6.7 160 10:25 14.08.2019
3700 Clouds 9 1015 70 10000 6.7 160 10:25 14.08.2019
3701 Rain 9 1015 66 10000 7.2 160 09:59 14.08.2019
3702 Rain 9 1015 66 10000 7.2 160 09:41 14.08.2019
3703 Rain 9 1014 70 10000 7.2 170 09:20 14.08.2019
3704 Rain 9 1014 70 10000 6.7 160 08:41 14.08.2019
3705 Clouds 9 1014 66 10000 7.2 160 08:23 14.08.2019
3706 Clouds 9 1013 70 9000 6.2 160 07:54 14.08.2019
3707 Clouds 9 1013 66 10000 6.7 170 07:34 14.08.2019
3708 Clouds 9 1012 66 10000 7.7 160 06:49 14.08.2019
3709 Clouds 10 1012 66 10000 7.2 160 06:18 14.08.2019
3710 Rain 10 1011 66 10000 6.7 170 05:28 14.08.2019
3711 Clouds 10 1011 76 10000 6.7 170 03:40 14.08.2019
3712 Rain 11 1011 76 10000 5.1 160 02:36 14.08.2019
3713 Rain 11 1011 81 10000 5.1 160 01:55 14.08.2019
3714 Rain 11 1010 81 10000 4.6 150 01:23 14.08.2019
3715 Rain 10 1010 81 10000 6.7 160 00:23 14.08.2019
3716 Rain 7 1009 81 10000 4.1 140 23:40 13.08.2019
3717 Rain 7 1009 81 10000 4.1 140 23:19 13.08.2019
3718 Rain 7 1008 81 10000 4.6 140 22:43 13.08.2019
3719 Rain 7 1008 87 10000 6.7 150 22:24 13.08.2019
3720 Rain 7 1007 93 10000 6.7 150 21:59 13.08.2019
3721 Rain 6 1006 93 10000 6.7 150 21:39 13.08.2019
3722 Rain 6 1006 93 10000 6.7 150 21:20 13.08.2019
3723 Rain 6 1005 93 8000 5.7 140 20:58 13.08.2019
3724 Rain 6 1005 93 8000 5.7 140 20:40 13.08.2019
3725 Rain 6 1004 87 10000 4.1 130 20:19 13.08.2019
3726 Rain 6 1004 81 10000 3.1 130 19:55 13.08.2019
3727 Rain 6 1003 87 10000 1 40 19:37 13.08.2019
3728 Rain 5 1003 87 10000 1 40 19:18 13.08.2019
3729 Rain 6 1002 76 10000 3.6 160 18:41 13.08.2019
3730 Rain 6 1002 76 10000 3.6 160 18:22 13.08.2019
3731 Rain 6 1002 76 10000 4.6 160 17:44 13.08.2019
3732 Rain 6 1002 76 10000 4.1 160 17:25 13.08.2019
3733 Rain 7 1002 71 10000 4.6 170 16:59 13.08.2019
3734 Rain 8 1002 76 10000 4.6 170 16:40 13.08.2019
3735 Rain 8 1002 76 10000 4.6 170 16:21 13.08.2019
3736 Rain 8 1001 76 10000 5.7 160 15:59 13.08.2019
3737 Rain 9 1001 81 10000 5.7 170 15:38 13.08.2019
3738 Clear 9 1001 81 10000 5.7 170 15:19 13.08.2019
3739 Clear 9 1000 87 10000 6.2 180 14:45 13.08.2019
3740 Clear 10 1000 54 10000 2.6 320 14:20 13.08.2019
3741 Clear 10 999 57 10000 3.1 30 13:58 13.08.2019
3742 Clear 10 999 62 10000 2.1 340 13:40 13.08.2019
3743 Clear 11 999 62 10000 2.1 340 13:20 13.08.2019
3744 Clear 11 998 57 10000 3.1 40 12:57 13.08.2019
3745 Clear 11 998 57 10000 3.6 40 12:39 13.08.2019
3746 Clear 11 998 57 10000 3.6 40 12:20 13.08.2019
3747 Clear 11 998 50 10000 4.1 20 11:42 13.08.2019
3748 Clear 11 997 50 10000 4.1 30 11:22 13.08.2019
3749 Clear 11 997 58 10000 5.1 30 10:58 13.08.2019
3750 Clear 11 997 62 10000 4.6 10 10:38 13.08.2019
3751 Clear 11 997 62 10000 4.6 10 10:19 13.08.2019
3752 Clear 11 996 66 10000 6.2 20 09:46 13.08.2019
3753 Clouds 11 996 66 10000 7.7 360 09:25 13.08.2019
3754 Clouds 11 996 58 10000 8.2 360 08:59 13.08.2019
3755 Clouds 11 996 58 10000 6.7 360 08:39 13.08.2019
3756 Clouds 11 996 58 10000 6.7 360 08:20 13.08.2019
3757 Clouds 11 995 58 10000 6.2 340 07:47 13.08.2019
3758 Clouds 12 995 54 10000 7.2 360 07:28 13.08.2019
3759 Clouds 12 995 58 10000 9.3 350 06:44 13.08.2019
3760 Clear 12 995 54 10000 7.2 340 05:59 13.08.2019
3761 Clear 12 995 54 10000 8.7 330 05:32 13.08.2019
3762 Clear 13 996 58 10000 7.2 360 02:32 13.08.2019
3763 Clear 13 997 54 10000 6.2 340 01:46 13.08.2019
3764 Clear 12 996 50 10000 4.6 340 00:52 13.08.2019
3765 Clouds 12 996 66 10000 6.2 350 00:22 13.08.2019
3766 Clouds 11 996 71 10000 4.6 350 23:47 12.08.2019
3767 Clouds 11 996 71 10000 5.7 340 23:21 12.08.2019
3768 Clouds 10 996 87 10000 5.7 360 22:56 12.08.2019
3769 Clouds 9 996 81 10000 6.2 30 22:38 12.08.2019
3770 Clouds 8 996 81 10000 6.2 30 22:18 12.08.2019
3771 Clouds 8 996 87 10000 6.2 40 21:54 12.08.2019
3772 Rain 9 996 87 10000 5.1 40 21:36 12.08.2019
3773 Clouds 7 996 87 10000 5.1 40 21:18 12.08.2019
3774 Clouds 6 995 81 10000 5.1 40 20:42 12.08.2019
3775 Clouds 6 995 93 10000 5.7 30 20:21 12.08.2019
3776 Clouds 5 995 93 10000 5.1 20 19:59 12.08.2019
3777 Clouds 4 995 93 10000 4.1 30 19:39 12.08.2019
3778 Clouds 5 995 93 10000 4.1 30 19:21 12.08.2019
3779 Clouds 4 995 100 10000 2.6 30 18:59 12.08.2019
3780 Clouds 4 995 93 10000 2.6 40 18:40 12.08.2019
3781 Clear 4 995 93 10000 2.6 40 18:21 12.08.2019
3782 Clear 5 995 93 10000 2.1 10 17:56 12.08.2019
3783 Clear 5 995 93 10000 2.1 10 17:56 12.08.2019
3784 Clear 6 996 75 10000 2.1 310 17:38 12.08.2019
3785 Clear 6 996 75 10000 2.1 310 17:20 12.08.2019
3786 Clear 6 995 76 10000 5.1 200 16:55 12.08.2019
3787 Clear 6 995 76 10000 5.1 200 16:55 12.08.2019
3788 Clear 6 995 71 10000 5.7 190 16:37 12.08.2019
3789 Clear 6 995 71 10000 5.7 190 16:18 12.08.2019
3790 Clear 6 995 71 10000 5.7 190 16:18 12.08.2019
3791 Clear 7 995 76 10000 6.7 200 15:42 12.08.2019
3792 Rain 7 995 76 10000 6.7 200 15:41 12.08.2019
3793 Rain 7 995 81 10000 5.1 180 15:21 12.08.2019
3794 Rain 7 995 87 10000 5.7 180 14:56 12.08.2019
3795 Clouds 8 994 87 10000 7.2 180 14:38 12.08.2019
3796 Clouds 7 994 87 10000 7.2 180 14:19 12.08.2019
3797 Clouds 8 994 81 10000 7.2 180 13:43 12.08.2019
3798 Clouds 8 994 81 10000 7.7 180 13:24 12.08.2019
3799 Clouds 8 993 87 10000 8.2 180 12:58 12.08.2019
3800 Clouds 8 993 87 10000 8.2 180 12:58 12.08.2019
3801 Clouds 8 993 87 10000 9.3 170 12:39 12.08.2019
3802 Clouds 8 993 87 10000 9.3 170 12:18 12.08.2019
3803 Rain 8 993 93 10000 9.3 170 11:42 12.08.2019
3804 Rain 8 993 93 10000 9.3 170 11:42 12.08.2019
3805 Rain 8 992 87 10000 9.3 160 11:23 12.08.2019
3806 Rain 8 992 93 6000 9.3 160 10:43 12.08.2019
3807 Rain 8 992 93 9000 8.7 150 10:23 12.08.2019
3808 Rain 8 991 93 10000 8.7 150 09:57 12.08.2019
3809 Rain 8 991 100 7000 9.8 150 09:38 12.08.2019
3810 Rain 8 991 100 7000 9.8 150 09:20 12.08.2019
3811 Rain 8 990 93 4800 9.3 140 08:58 12.08.2019
3812 Rain 8 990 93 5000 10.3 150 08:39 12.08.2019
3813 Rain 9 990 93 5000 10.3 150 08:20 12.08.2019
3814 Rain 9 990 93 5000 10.3 150 08:20 12.08.2019
3815 Rain 9 989 93 4900 9.8 150 07:52 12.08.2019
3816 Rain 9 989 93 3800 8.7 150 07:28 12.08.2019
3817 Rain 10 989 93 4900 7.2 150 06:52 12.08.2019
3818 Rain 11 990 93 5000 4.6 160 05:40 12.08.2019
3819 Rain 10 991 93 10000 3.6 140 02:44 12.08.2019
3820 Rain 10 992 87 10000 1.5 160 01:55 12.08.2019
3821 Rain 10 992 87 10000 2.1 160 01:22 12.08.2019
3822 Clouds 10 992 87 10000 2.1 170 00:58 12.08.2019
3823 Clouds 10 992 81 10000 1 180 00:39 12.08.2019
3824 Clouds 10 992 81 10000 1 180 00:20 12.08.2019
3825 Clouds 9 992 87 10000 1 70 23:55 11.08.2019
3826 Clouds 9 992 87 10000 2.1 60 23:37 11.08.2019
3827 Clouds 9 992 87 10000 2.1 60 23:18 11.08.2019
3828 Clouds 9 992 93 10000 2.1 60 22:40 11.08.2019
3829 Clouds 8 992 93 10000 2.1 60 22:20 11.08.2019
3830 Clouds 8 992 93 10000 2.1 60 22:20 11.08.2019
3831 Clouds 8 992 93 10000 1 120 21:59 11.08.2019
3832 Clouds 8 992 93 10000 1 120 21:41 11.08.2019
3833 Rain 8 992 93 10000 1.5 150 21:22 11.08.2019
3834 Rain 8 991 87 10000 2.1 190 20:57 11.08.2019
3835 Rain 8 991 87 10000 3.6 220 20:39 11.08.2019
3836 Rain 8 991 87 10000 3.6 220 20:20 11.08.2019
3837 Rain 8 991 93 10000 5.1 210 19:44 11.08.2019
3838 Rain 9 991 93 6000 5.7 210 19:20 11.08.2019
3839 Rain 8 990 93 10000 4.1 220 18:42 11.08.2019
3840 Rain 8 990 93 9000 3.6 230 18:23 11.08.2019
3841 Rain 9 990 93 10000 3.6 220 17:59 11.08.2019
3842 Rain 9 990 93 10000 3.6 220 17:41 11.08.2019
3843 Rain 9 990 93 10000 4.1 220 17:20 11.08.2019
3844 Rain 9 990 93 10000 4.1 220 16:57 11.08.2019
3845 Rain 9 989 93 10000 3.6 220 16:38 11.08.2019
3846 Rain 9 989 93 10000 3.6 220 16:20 11.08.2019
3847 Rain 9 989 100 9000 3.6 210 15:44 11.08.2019
3848 Rain 9 989 100 4400 3.6 240 15:25 11.08.2019
3849 Rain 9 989 100 10000 1 310 14:59 11.08.2019
3850 Rain 9 989 93 10000 1 360 14:39 11.08.2019
3851 Rain 9 989 93 10000 1 360 14:20 11.08.2019
3852 Rain 9 989 93 10000 2.6 10 13:45 11.08.2019
3853 Rain 9 989 100 10000 2.1 10 13:26 11.08.2019
3854 Rain 9 989 100 6000 1 40 12:57 11.08.2019
3855 Rain 9 989 93 10000 4.1 180 12:37 11.08.2019
3856 Rain 9 989 93 10000 4.1 180 12:19 11.08.2019
3857 Rain 9 989 87 10000 3.1 20 11:40 11.08.2019
3858 Rain 9 989 87 10000 3.1 20 11:22 11.08.2019
3859 Rain 10 989 87 10000 3.6 350 10:56 11.08.2019
3860 Rain 10 990 87 10000 5.1 350 10:37 11.08.2019
3861 Rain 10 990 87 10000 5.1 350 10:19 11.08.2019
3862 Rain 10 990 87 10000 5.1 10 09:43 11.08.2019
3863 Rain 10 990 87 10000 5.1 360 09:24 11.08.2019
3864 Rain 10 990 81 10000 6.2 350 08:56 11.08.2019
3865 Rain 10 990 93 10000 6.7 360 08:36 11.08.2019
3866 Rain 10 990 93 10000 6.7 360 08:18 11.08.2019
3867 Rain 11 991 87 10000 4.1 30 07:32 11.08.2019
3868 Rain 11 991 87 10000 2.1 340 06:52 11.08.2019
3869 Rain 11 991 87 10000 3.1 350 06:31 11.08.2019
3870 Rain 12 992 87 10000 4.1 340 04:46 11.08.2019
3871 Rain 13 994 71 10000 5.7 340 02:53 11.08.2019
3872 Clouds 13 994 71 10000 6.2 340 01:58 11.08.2019
3873 Clouds 13 995 71 10000 6.7 350 01:32 11.08.2019
3874 Rain 13 994 71 10000 6.2 330 00:56 11.08.2019
3875 Rain 13 994 71 10000 6.2 330 00:56 11.08.2019
3876 Rain 13 995 76 10000 6.7 330 00:36 11.08.2019
3877 Rain 12 995 76 10000 7.7 330 23:55 10.08.2019
3878 Rain 12 995 76 10000 7.2 330 23:34 10.08.2019
3879 Rain 12 994 71 10000 7.7 330 22:57 10.08.2019
3880 Rain 12 994 76 10000 6.2 330 22:38 10.08.2019
3881 Rain 12 994 76 10000 6.2 330 22:19 10.08.2019
3882 Clouds 11 994 81 10000 7.2 330 21:41 10.08.2019
3883 Clear 11 993 71 10000 9.3 330 21:21 10.08.2019
3884 Rain 12 993 71 10000 8.7 330 20:59 10.08.2019
3885 Rain 12 993 71 10000 8.7 330 20:59 10.08.2019
3886 Rain 11 993 71 10000 8.7 330 20:40 10.08.2019
3887 Rain 11 992 76 10000 9.3 330 20:20 10.08.2019
3888 Clear 11 992 81 10000 7.7 340 19:54 10.08.2019
3889 Rain 11 992 71 10000 9.3 330 19:36 10.08.2019
3890 Rain 11 992 71 10000 9.3 330 19:18 10.08.2019
3891 Rain 11 992 76 10000 8.2 330 18:38 10.08.2019
3892 Rain 12 992 76 10000 8.2 330 18:20 10.08.2019
3893 Rain 12 992 81 10000 7.2 340 17:40 10.08.2019
3894 Rain 11 992 81 10000 7.2 340 17:21 10.08.2019
3895 Rain 11 992 81 10000 9.8 340 16:43 10.08.2019
3896 Rain 11 992 81 10000 8.2 340 16:25 10.08.2019
3897 Clear 11 993 76 10000 8.2 350 15:51 10.08.2019
3898 Clouds 11 993 81 10000 9.3 350 15:22 10.08.2019
3899 Rain 11 993 81 10000 8.7 340 14:44 10.08.2019
3900 Rain 10 993 81 10000 7.7 340 14:21 10.08.2019
3901 Clouds 10 993 81 10000 8.2 350 13:42 10.08.2019
3902 Rain 10 993 76 10000 9.3 340 13:20 10.08.2019
3903 Rain 10 994 71 10000 5.7 350 12:57 10.08.2019
3904 Rain 10 994 81 10000 5.1 280 12:39 10.08.2019
3905 Rain 10 994 81 10000 5.1 280 12:20 10.08.2019
3906 Rain 11 995 81 3300 6.7 320 11:42 10.08.2019
3907 Rain 11 994 82 8000 6.2 330 11:23 10.08.2019
3908 Rain 12 994 76 10000 10.8 330 10:57 10.08.2019
3909 Thunderstorm 13 993 82 10000 9.3 340 10:37 10.08.2019
3910 Thunderstorm 13 993 82 10000 9.3 340 10:19 10.08.2019
3911 Rain 13 993 82 10000 7.7 350 09:43 10.08.2019
3912 Rain 13 994 82 10000 7.2 350 09:23 10.08.2019
3913 -273 0 0 0 0 0 08:55 10.08.2019
3914 Rain 13 994 82 10000 8.7 350 08:55 10.08.2019
3915 Rain 13 994 76 10000 8.7 340 08:37 10.08.2019
3916 Rain 13 994 76 10000 8.7 340 08:18 10.08.2019
3917 Rain 13 994 87 10000 5.7 340 07:43 10.08.2019
3918 Rain 12 994 93 10000 2.6 350 07:19 10.08.2019
3919 Rain 11 994 93 450 10.8 270 06:43 10.08.2019
3920 Rain 12 993 87 10000 6.2 30 05:44 10.08.2019
3921 Rain 12 994 87 10000 5.7 30 05:19 10.08.2019
3922 Rain 11 995 76 10000 5.1 20 03:51 10.08.2019
3923 Rain 12 997 81 10000 3.6 350 02:38 10.08.2019
3924 Rain 11 998 87 10000 3.6 20 01:44 10.08.2019
3925 Rain 10 998 93 6000 4.6 30 01:24 10.08.2019
3926 Rain 10 999 93 10000 3.1 360 00:59 10.08.2019
3927 Rain 10 999 93 10000 3.1 350 00:40 10.08.2019
3928 Rain 9 999 93 10000 3.1 350 00:18 10.08.2019
3929 Rain 9 999 87 10000 2.6 350 23:39 09.08.2019
3930 Rain 9 999 87 10000 2.6 350 23:20 09.08.2019
3931 Rain 9 999 87 10000 2.6 350 23:20 09.08.2019
3932 Rain 9 999 87 10000 2.6 350 23:20 09.08.2019
3933 Clouds 9 999 81 10000 1.5 350 22:55 09.08.2019
3934 Clouds 9 999 81 10000 1.5 350 22:55 09.08.2019
3935 Clouds 9 999 81 10000 2.1 50 22:37 09.08.2019
3936 Clouds 9 999 81 10000 2.1 50 22:18 09.08.2019
3937 Clouds 9 998 76 10000 2.6 140 21:40 09.08.2019
3938 Clouds 9 998 76 10000 2.6 140 21:21 09.08.2019
3939 Clouds 9 998 76 10000 3.6 140 20:57 09.08.2019
3940 Clouds 9 998 81 10000 5.7 140 20:39 09.08.2019
3941 Clouds 9 998 81 10000 5.7 140 20:18 09.08.2019
3942 Clouds 9 998 81 10000 5.7 150 19:43 09.08.2019
3943 Clouds 8 998 81 10000 5.7 150 19:23 09.08.2019
3944 Clouds 8 998 87 10000 6.2 160 18:58 09.08.2019
3945 Clouds 9 998 81 10000 5.7 150 18:38 09.08.2019
3946 Clouds 9 998 81 10000 5.7 150 18:19 09.08.2019
3947 Clouds 9 998 81 10000 5.1 160 17:43 09.08.2019
3948 Clouds 9 998 81 10000 5.1 160 17:43 09.08.2019
3949 Clouds 9 998 76 10000 6.7 150 17:24 09.08.2019
3950 -273 0 0 0 0 0 16:56 09.08.2019
3951 Clouds 9 998 81 10000 6.7 160 16:37 09.08.2019
3952 Clouds 9 998 81 10000 6.7 160 16:18 09.08.2019
3953 Clouds 9 997 81 10000 7.7 160 15:42 09.08.2019
3954 Clouds 9 997 81 10000 7.7 160 15:21 09.08.2019
3955 Clouds 9 997 81 10000 7.7 160 14:58 09.08.2019
3956 Clouds 9 997 81 10000 6.7 160 14:39 09.08.2019
3957 Clouds 9 997 81 10000 6.7 160 14:20 09.08.2019
3958 Clouds 10 996 87 10000 7.2 150 13:46 09.08.2019
3959 Clouds 10 996 87 10000 6.7 150 13:21 09.08.2019
3960 Clouds 10 996 87 10000 4.6 160 12:58 09.08.2019
3961 Clouds 10 996 87 10000 5.7 140 12:40 09.08.2019
3962 Clear 10 996 87 10000 5.7 140 12:21 09.08.2019
3963 Clear 9 996 87 10000 5.1 150 11:41 09.08.2019
3964 Clear 10 995 93 10000 3.6 200 11:21 09.08.2019
3965 Clear 10 995 93 10000 5.7 220 10:57 09.08.2019
3966 Clear 8 995 93 10000 3.6 170 10:38 09.08.2019
3967 Clear 9 995 93 10000 3.6 170 10:20 09.08.2019
3968 Clear 9 995 87 10000 2.6 160 09:41 09.08.2019
3969 Clouds 10 995 87 10000 2.6 150 09:19 09.08.2019
3970 Clouds 11 994 87 10000 3.1 220 08:45 09.08.2019
3971 Clouds 10 994 76 10000 1 240 08:25 09.08.2019
3972 Clouds 10 994 71 10000 1.5 290 07:58 09.08.2019
3973 Clouds 11 994 71 10000 2.1 350 07:40 09.08.2019
3974 Clouds 11 994 71 10000 2.1 350 07:40 09.08.2019
3975 Clouds 12 994 71 10000 2.1 350 07:20 09.08.2019
3976 Clouds 13 993 67 10000 3.1 10 06:44 09.08.2019
3977 Clouds 13 993 71 10000 3.6 10 06:21 09.08.2019
3978 Clouds 14 994 71 10000 5.1 20 05:37 09.08.2019
3979 Clouds 13 996 82 10000 6.7 360 02:28 09.08.2019
3980 Clear 13 997 82 10000 7.2 360 01:26 09.08.2019
3981 Clear 12 997 82 10000 8.2 360 00:42 09.08.2019
3982 Clouds 12 997 82 10000 8.2 360 00:23 09.08.2019
3983 Clouds 12 997 82 10000 8.2 360 23:57 08.08.2019
3984 Clouds 12 997 82 10000 8.2 360 23:57 08.08.2019
3985 Clouds 12 997 87 10000 6.7 360 23:37 08.08.2019
3986 Clouds 12 997 87 10000 6.7 360 23:19 08.08.2019
3987 Clouds 11 997 81 10000 7.7 10 22:55 08.08.2019
3988 Clouds 11 998 87 10000 6.2 10 22:36 08.08.2019
3989 Clouds 11 998 87 10000 6.2 10 22:18 08.08.2019
3990 Clouds 11 997 81 10000 7.7 360 21:42 08.08.2019
3991 Clouds 11 997 81 10000 7.7 360 21:42 08.08.2019
3992 Clouds 11 997 81 10000 6.7 20 21:23 08.08.2019
3993 Clouds 11 997 87 10000 8.2 360 20:57 08.08.2019
3994 Clouds 11 998 87 10000 7.2 360 20:39 08.08.2019
3995 Clouds 11 998 87 10000 7.2 360 20:39 08.08.2019
3996 Clouds 11 998 87 10000 7.2 360 20:19 08.08.2019
3997 Clouds 11 998 76 10000 7.2 360 19:48 08.08.2019
3998 Clouds 11 998 81 10000 5.7 10 19:29 08.08.2019
3999 Clouds 11 999 81 10000 5.1 350 18:57 08.08.2019
4000 Clouds 11 999 81 10000 5.7 10 18:37 08.08.2019
4001 Clouds 11 999 81 10000 5.7 10 18:18 08.08.2019
4002 Clouds 11 999 81 10000 5.7 10 18:18 08.08.2019
4003 Clouds 11 1000 81 10000 5.1 10 17:42 08.08.2019
4004 Clouds 11 1000 81 10000 6.2 360 17:24 08.08.2019
4005 Clouds 11 1001 76 10000 6.7 340 16:57 08.08.2019
4006 Clouds 11 1001 87 10000 8.7 350 16:39 08.08.2019
4007 Clouds 11 1001 87 10000 8.7 350 16:39 08.08.2019
4008 Clouds 12 1001 87 10000 8.7 350 16:20 08.08.2019
4009 Clouds 12 1001 76 10000 8.2 340 15:57 08.08.2019
4010 Clouds 12 1001 76 10000 9.8 340 15:37 08.08.2019
4011 Clouds 12 1001 76 10000 9.8 340 15:19 08.08.2019
4012 Clouds 13 1002 82 10000 10.3 340 14:38 08.08.2019
4013 Clouds 12 1002 82 10000 10.3 340 14:19 08.08.2019
4014 Clouds 13 1002 82 10000 8.7 340 13:42 08.08.2019
4015 Clouds 13 1003 82 10000 8.2 350 13:24 08.08.2019
4016 Clouds 13 1003 82 10000 8.7 350 12:58 08.08.2019
4017 Rain 13 1003 82 10000 8.2 360 12:38 08.08.2019
4018 Rain 13 1003 82 10000 8.2 360 12:18 08.08.2019
4019 Rain 12 1003 76 10000 7.7 350 11:43 08.08.2019
4020 Clouds 12 1004 82 10000 6.7 350 11:24 08.08.2019
4021 Clouds 12 1004 82 10000 7.2 350 10:42 08.08.2019
4022 Clouds 12 1005 76 10000 7.2 350 10:22 08.08.2019
4023 Clouds 12 1005 81 10000 7.2 350 09:58 08.08.2019
4024 Clouds 12 1005 76 10000 7.7 340 09:39 08.08.2019
4025 Clouds 12 1005 76 10000 7.7 340 09:20 08.08.2019
4026 Clouds 12 1005 76 10000 6.2 330 08:42 08.08.2019
4027 Clouds 12 1004 76 10000 8.7 330 08:21 08.08.2019
4028 Clouds 12 1004 76 10000 6.2 340 07:56 08.08.2019
4029 Clouds 12 1005 76 10000 8.7 350 07:37 08.08.2019
4030 Clouds 12 1005 76 10000 8.7 350 07:37 08.08.2019
4031 Clouds 12 1005 76 10000 8.7 350 07:18 08.08.2019
4032 Clouds 13 1005 76 10000 9.3 350 06:41 08.08.2019
4033 Clouds 13 1005 82 10000 8.7 350 05:57 08.08.2019
4034 Rain 13 1006 82 10000 8.2 350 05:39 08.08.2019
4035 Clouds 13 1007 71 10000 7.7 350 03:59 08.08.2019
4036 Clouds 14 1007 71 10000 9.3 360 03:39 08.08.2019
4037 Clear 13 1009 71 10000 8.2 340 01:47 08.08.2019
4038 Clear 13 1009 66 10000 9.3 360 00:59 08.08.2019
4039 Clear 12 1009 66 10000 8.7 350 00:22 08.08.2019
4040 Clear 12 1009 71 10000 8.2 350 23:38 07.08.2019
4041 Clear 11 1009 71 10000 8.2 350 23:18 07.08.2019
4042 Clear 11 1009 76 10000 7.2 360 22:41 07.08.2019
4043 Clear 11 1009 81 10000 5.7 350 22:21 07.08.2019
4044 Clear 10 1009 87 10000 7.2 360 21:58 07.08.2019
4045 Clear 10 1009 87 10000 6.7 350 21:40 07.08.2019
4046 Clear 10 1009 87 10000 6.7 350 21:21 07.08.2019
4047 Clear 10 1009 81 10000 5.7 340 20:59 07.08.2019
4048 Clear 10 1009 81 10000 5.7 340 20:40 07.08.2019
4049 Clear 10 1008 76 10000 6.2 350 20:20 07.08.2019
4050 Clear 10 1008 76 10000 6.2 350 20:20 07.08.2019
4051 Clear 11 1008 76 10000 5.7 340 19:55 07.08.2019
4052 Clear 11 1008 81 10000 6.2 340 19:36 07.08.2019
4053 Clear 11 1008 81 10000 6.2 340 19:18 07.08.2019
4054 Clear 11 1009 81 10000 7.2 10 18:40 07.08.2019
4055 Clear 11 1009 81 10000 7.2 10 18:20 07.08.2019
4056 Clear 11 1009 76 10000 5.1 350 17:55 07.08.2019
4057 Clear 11 1009 76 10000 5.1 350 17:55 07.08.2019
4058 Clear 11 1009 76 10000 5.1 360 17:37 07.08.2019
4059 Clear 11 1009 76 10000 5.1 360 17:19 07.08.2019
4060 Clear 11 1009 76 10000 6.7 350 16:56 07.08.2019
4061 Clear 11 1009 76 10000 6.7 350 16:56 07.08.2019
4062 Clear 11 1009 76 10000 5.7 350 16:38 07.08.2019
4063 Clear 11 1009 76 10000 5.7 350 16:19 07.08.2019
4064 Clear 11 1009 71 10000 5.1 360 15:43 07.08.2019
4065 Clouds 11 1010 71 10000 5.1 360 15:21 07.08.2019
4066 Clouds 11 1010 71 10000 4.1 350 14:50 07.08.2019
4067 Clouds 11 1009 71 10000 6.2 340 14:31 07.08.2019
4068 Clouds 11 1010 71 10000 6.2 340 13:59 07.08.2019
4069 Clouds 11 1009 76 10000 6.2 340 13:40 07.08.2019
4070 Clouds 11 1009 76 10000 6.2 340 13:19 07.08.2019
4071 Clouds 11 1009 76 10000 5.7 340 12:57 07.08.2019
4072 Clouds 12 1009 76 10000 6.7 340 12:38 07.08.2019
4073 Clouds 12 1009 76 10000 6.7 340 12:19 07.08.2019
4074 Clouds 12 1010 71 10000 5.1 360 11:58 07.08.2019
4075 Clouds 12 1010 71 10000 5.1 360 11:58 07.08.2019
4076 Clouds 12 1009 76 10000 7.2 30 11:40 07.08.2019
4077 Clouds 12 1009 76 10000 7.2 30 11:18 07.08.2019
4078 Clouds 11 1010 71 10000 6.2 40 10:41 07.08.2019
4079 Clouds 11 1010 71 10000 5.7 30 10:20 07.08.2019
4080 Clouds 11 1010 71 10000 6.2 10 09:59 07.08.2019
4081 Clouds 11 1010 76 10000 6.2 10 09:39 07.08.2019
4082 Clouds 11 1010 76 10000 6.2 10 09:18 07.08.2019
4083 Clouds 11 1009 76 10000 5.1 20 08:45 07.08.2019
4084 Clouds 11 1009 76 10000 6.7 20 08:24 07.08.2019
4085 Clouds 12 1009 76 10000 7.2 20 07:51 07.08.2019
4086 Clouds 12 1009 76 10000 7.7 10 07:30 07.08.2019
4087 Clouds 12 1009 76 10000 7.2 350 06:47 07.08.2019
4088 Clouds 13 1009 76 10000 6.7 350 06:22 07.08.2019
4089 Clouds 12 1009 76 10000 6.2 350 05:42 07.08.2019
4090 Clouds 12 1010 76 10000 7.2 340 04:40 07.08.2019
4091 Clouds 12 1011 62 10000 7.7 330 02:58 07.08.2019
4092 Clouds 12 1011 58 10000 6.7 360 02:38 07.08.2019
4093 Clouds 13 1012 50 10000 5.7 350 01:51 07.08.2019
4094 Clouds 13 1012 47 10000 4.6 350 00:57 07.08.2019
4095 Clouds 12 1012 58 10000 5.7 10 00:24 07.08.2019
4096 Clouds 12 1012 62 10000 5.7 10 23:58 06.08.2019
4097 Clouds 11 1012 66 10000 5.1 20 23:37 06.08.2019
4098 Clouds 11 1012 66 10000 5.1 20 23:18 06.08.2019
4099 Clouds 9 1012 66 10000 3.6 360 22:40 06.08.2019
4100 Clouds 8 1012 66 10000 3.6 360 22:21 06.08.2019
4101 Clouds 9 1012 70 10000 2.1 360 21:57 06.08.2019
4102 Clouds 8 1012 70 10000 3.1 20 21:38 06.08.2019
4103 Clouds 8 1012 70 10000 3.1 20 21:19 06.08.2019
4104 Clouds 8 1011 75 10000 2.1 10 20:45 06.08.2019
4105 Clouds 8 1011 81 10000 3.1 360 20:27 06.08.2019
4106 Clouds 8 1011 81 10000 3.1 20 19:56 06.08.2019
4107 Clouds 8 1011 81 10000 2.6 360 19:37 06.08.2019
4108 Clouds 8 1011 81 10000 2.6 360 19:18 06.08.2019
4109 Clouds 8 1011 87 10000 3.1 360 18:41 06.08.2019
4110 Clear 8 1011 87 10000 3.1 360 18:21 06.08.2019
4111 Clear 9 1011 93 10000 3.1 20 17:57 06.08.2019
4112 Clear 9 1011 87 10000 3.6 20 17:37 06.08.2019
4113 Clear 8 1011 87 10000 3.6 20 17:19 06.08.2019
4114 Clear 7 1011 87 10000 3.1 20 16:44 06.08.2019
4115 Clear 7 1011 87 10000 3.1 30 16:25 06.08.2019
4116 Clear 6 1011 81 10000 3.1 10 15:58 06.08.2019
4117 Clear 6 1011 81 10000 3.1 10 15:40 06.08.2019
4118 Clouds 6 1011 87 10000 3.6 10 15:21 06.08.2019
4119 Clouds 6 1012 87 10000 2.6 360 14:54 06.08.2019
4120 Clouds 6 1012 81 10000 2.6 10 14:36 06.08.2019
4121 Clouds 7 1012 81 10000 2.6 10 14:18 06.08.2019
4122 Clouds 7 1012 81 10000 2.6 10 14:18 06.08.2019
4123 Clouds 6 1012 87 10000 2.6 10 13:45 06.08.2019
4124 Clouds 7 1012 81 10000 3.6 20 13:26 06.08.2019
4125 Clouds 7 1012 75 10000 2.6 360 12:59 06.08.2019
4126 Clouds 7 1012 75 10000 2.6 30 12:39 06.08.2019
4127 Clouds 7 1012 75 10000 2.6 30 12:21 06.08.2019
4128 Clouds 7 1012 75 10000 2.6 30 12:21 06.08.2019
4129 Clouds 8 1012 75 10000 2.6 360 11:45 06.08.2019
4130 Clouds 8 1012 75 10000 2.6 20 11:20 06.08.2019
4131 Clouds 8 1012 75 10000 2.6 10 10:56 06.08.2019
4132 Clouds 8 1012 70 10000 2.1 10 10:38 06.08.2019
4133 Clouds 8 1012 70 10000 2.1 10 10:20 06.08.2019
4134 Clouds 9 1012 70 10000 3.1 360 09:41 06.08.2019
4135 Clouds 9 1012 66 10000 2.6 360 09:21 06.08.2019
4136 Clouds 10 1012 62 10000 3.1 330 08:51 06.08.2019
4137 Clouds 10 1011 58 10000 3.6 340 08:28 06.08.2019
4138 Clouds 11 1011 58 10000 3.6 330 07:59 06.08.2019
4139 Clouds 11 1011 58 10000 4.1 350 07:29 06.08.2019
4140 Clouds 12 1011 54 10000 4.1 340 06:44 06.08.2019
4141 Clouds 13 1011 47 10000 5.1 340 06:23 06.08.2019
4142 Clouds 13 1011 47 10000 4.6 350 05:31 06.08.2019
4143 Clouds 13 1012 41 10000 2.6 320 02:48 06.08.2019
4144 Clouds 13 1012 50 10000 2.6 340 01:25 06.08.2019
4145 Clouds 12 1012 54 10000 3.1 360 00:51 06.08.2019
4146 Clouds 11 1012 66 10000 3.1 30 00:19 06.08.2019
4147 Clouds 9 1012 76 9000 3.1 340 23:20 05.08.2019
4148 Clouds 8 1011 81 10000 3.1 360 22:57 05.08.2019
4149 Clouds 8 1011 81 10000 2.6 350 22:38 05.08.2019
4150 Clouds 7 1011 81 10000 2.6 350 22:20 05.08.2019
4151 Clouds 6 1011 81 10000 3.6 20 21:42 05.08.2019
4152 Clear 6 1011 81 10000 3.6 360 21:20 05.08.2019
4153 Clear 6 1011 81 10000 3.1 350 20:57 05.08.2019
4154 Clear 6 1010 81 10000 4.1 30 20:39 05.08.2019
4155 Clear 6 1010 81 10000 4.1 30 20:21 05.08.2019
4156 -273 0 0 0 0 0 19:55 05.08.2019
4157 Clear 6 1010 81 10000 3.6 20 19:37 05.08.2019
4158 Clear 7 1010 81 10000 3.6 20 19:18 05.08.2019
4159 Clear 7 1010 75 10000 2.6 350 18:41 05.08.2019
4160 Clear 7 1010 75 10000 2.6 350 18:20 05.08.2019
4161 Clear 6 1010 75 10000 3.6 360 17:47 05.08.2019
4162 Clear 7 1010 75 10000 3.1 30 17:29 05.08.2019
4163 Clear 7 1010 81 10000 4.1 20 16:58 05.08.2019
4164 Clear 7 1010 81 10000 4.1 30 16:40 05.08.2019
4165 Clear 7 1010 81 10000 4.1 30 16:22 05.08.2019
4166 Clear 7 1009 75 10000 2.6 20 15:40 05.08.2019
4167 Clear 7 1009 70 10000 3.1 30 15:20 05.08.2019
4168 Clear 7 1009 75 10000 3.1 30 14:42 05.08.2019
4169 Clear 7 1009 75 10000 3.1 360 14:21 05.08.2019
4170 Clear 8 1009 70 10000 2.6 10 13:48 05.08.2019
4171 Clear 6 1009 65 10000 3.1 350 13:24 05.08.2019
4172 Clear 6 1009 70 10000 2.6 10 12:51 05.08.2019
4173 Clear 6 1008 60 10000 2.6 40 12:22 05.08.2019
4174 Clear 7 1008 56 10000 1.5 70 11:59 05.08.2019
4175 Clear 7 1008 60 10000 2.6 300 11:40 05.08.2019
4176 Clear 7 1008 60 10000 2.6 300 11:22 05.08.2019
4177 Clear 7 1008 49 10000 1.5 310 10:44 05.08.2019
4178 Clear 8 1007 45 10000 2.1 360 10:26 05.08.2019
4179 Clear 8 1007 49 10000 1.5 300 09:55 05.08.2019
4180 Clear 8 1007 42 10000 1 340 09:36 05.08.2019
4181 Clear 8 1007 42 10000 1 340 09:18 05.08.2019
4182 Clear 8 1006 45 10000 2.1 330 08:41 05.08.2019
4183 -273 0 0 0 0 0 08:21 05.08.2019
4184 Clear 10 1005 46 10000 2.1 320 07:47 05.08.2019
4185 Clear 9 1005 34 10000 3.1 320 07:27 05.08.2019
4186 Clear 11 1005 32 10000 3.6 320 06:41 05.08.2019
4187 Clear 11 1005 30 10000 3.1 290 05:53 05.08.2019
4188 Clear 11 1004 32 10000 3.6 290 05:22 05.08.2019
4189 Clear 11 1004 31 10000 5.1 300 04:32 05.08.2019
4190 Clear 11 1004 32 10000 3.1 270 03:42 05.08.2019
4191 Clear 10 1005 42 10000 5.7 240 02:37 05.08.2019
4192 Clear 9 1005 52 10000 6.7 250 01:40 05.08.2019
4193 Clear 8 1005 52 10000 7.2 240 00:54 05.08.2019
4194 Clear 8 1004 52 10000 6.7 240 00:36 05.08.2019
4195 Clear 8 1004 52 10000 6.7 240 00:18 05.08.2019
4196 Clear 7 1004 49 10000 6.2 250 23:41 04.08.2019
4197 Clear 7 1004 49 10000 5.7 250 23:20 04.08.2019
4198 Clear 6 1003 54 10000 4.1 260 22:56 04.08.2019
4199 Clear 5 1003 54 10000 3.6 260 22:37 04.08.2019
4200 Clear 4 1003 54 10000 3.6 260 22:19 04.08.2019
4201 Clear 4 1002 54 10000 4.6 250 21:44 04.08.2019
4202 Clouds 4 1002 61 10000 5.7 250 21:22 04.08.2019
4203 Clouds 3 1001 65 10000 4.1 260 20:55 04.08.2019
4204 Rain 4 1001 61 10000 8.2 220 20:37 04.08.2019
4205 Rain 5 1001 61 10000 8.2 220 20:18 04.08.2019
4206 Clouds 4 1000 57 10000 6.7 230 19:42 04.08.2019
4207 Clouds 4 1000 57 10000 8.2 210 19:24 04.08.2019
4208 Clouds 3 999 52 10000 7.2 240 18:42 04.08.2019
4209 Clouds 5 999 52 10000 6.7 250 18:21 04.08.2019
4210 Clouds 6 999 52 10000 6.7 250 17:54 04.08.2019
4211 Clouds 7 998 58 10000 6.7 240 17:36 04.08.2019
4212 Clouds 7 998 58 10000 6.7 240 17:18 04.08.2019
4213 Clouds 5 998 58 10000 7.2 240 16:41 04.08.2019
4214 Clouds 5 998 58 10000 7.2 240 16:41 04.08.2019
4215 Clouds 5 998 52 10000 4.6 250 16:22 04.08.2019
4216 Clouds 6 998 48 10000 2.1 340 15:45 04.08.2019
4217 Rain 6 997 49 10000 2.6 250 15:23 04.08.2019
4218 Rain 5 997 60 10000 2.1 100 14:46 04.08.2019
4219 Rain 5 997 61 10000 2.1 90 14:27 04.08.2019
4220 Rain 4 997 75 10000 2.1 360 13:59 04.08.2019
4221 Rain 4 997 75 10000 2.1 360 13:41 04.08.2019
4222 Clouds 5 997 70 10000 2.1 50 13:22 04.08.2019
4223 Clouds 6 997 61 10000 1.5 280 12:45 04.08.2019
4224 Clouds 6 997 65 10000 2.6 310 12:27 04.08.2019
4225 Clear 7 996 70 10000 1.5 270 11:57 04.08.2019
4226 Rain 7 996 81 10000 6.2 190 11:37 04.08.2019
4227 Rain 7 996 81 10000 6.2 190 11:19 04.08.2019
4228 Clear 7 996 81 10000 7.7 220 10:41 04.08.2019
4229 Clear 7 996 70 10000 1.5 350 10:20 04.08.2019
4230 Clear 8 995 70 10000 3.1 350 09:45 04.08.2019
4231 Clouds 8 995 65 10000 2.6 330 09:22 04.08.2019
4232 Rain 8 995 66 10000 6.2 330 08:47 04.08.2019
4233 Rain 8 995 66 10000 6.7 340 08:26 04.08.2019
4234 Rain 9 996 66 10000 5.1 330 07:52 04.08.2019
4235 Rain 10 996 53 10000 6.2 340 06:57 04.08.2019
4236 Rain 10 996 46 10000 8.7 330 06:28 04.08.2019
4237 Clouds 12 998 46 10000 5.7 340 04:26 04.08.2019
4238 Clouds 13 999 62 10000 1.5 220 02:41 04.08.2019
4239 Clouds 12 1000 66 10000 2.6 160 01:39 04.08.2019
4240 Clouds 12 1000 66 10000 2.6 160 01:18 04.08.2019
4241 Clouds 12 1000 66 10000 2.6 160 01:18 04.08.2019
4242 Clouds 12 1000 71 10000 5.1 170 00:41 04.08.2019
4243 Rain 11 1000 71 10000 5.1 170 00:19 04.08.2019
4244 Rain 11 999 76 10000 8.7 190 23:40 03.08.2019
4245 Rain 11 999 76 10000 8.7 190 23:18 03.08.2019
4246 Rain 11 999 58 10000 10.3 230 22:44 03.08.2019
4247 Rain 12 998 54 10000 5.7 270 22:22 03.08.2019
4248 Rain 11 997 62 10000 5.7 310 21:56 03.08.2019
4249 Rain 11 997 76 10000 5.1 320 21:36 03.08.2019
4250 Rain 11 997 76 10000 5.1 320 21:36 03.08.2019
4251 Clouds 11 997 76 10000 5.1 320 21:18 03.08.2019
4252 Clouds 11 997 76 10000 5.1 320 21:18 03.08.2019
4253 Clouds 11 997 81 10000 5.7 320 20:41 03.08.2019
4254 Clouds 12 996 76 10000 4.1 340 20:20 03.08.2019
4255 Clouds 12 997 76 10000 6.7 330 19:42 03.08.2019
4256 Clouds 12 997 76 10000 6.7 330 19:42 03.08.2019
4257 Clouds 12 997 71 10000 6.2 320 19:23 03.08.2019
4258 Clouds 12 997 71 10000 7.2 320 18:50 03.08.2019
4259 Clouds 12 997 71 10000 5.7 340 18:27 03.08.2019
4260 Clouds 12 998 76 10000 7.7 360 17:49 03.08.2019
4261 Clouds 12 998 71 10000 9.3 340 17:21 03.08.2019
4262 Clouds 12 998 71 10000 7.7 350 16:56 03.08.2019
4263 Clouds 12 998 76 10000 8.7 360 16:37 03.08.2019
4264 Clouds 12 998 76 10000 8.7 360 16:19 03.08.2019
4265 Clouds 12 998 71 10000 8.7 350 15:43 03.08.2019
4266 Clouds 12 999 76 10000 6.7 350 15:22 03.08.2019
4267 Clouds 12 1000 71 10000 8.2 360 14:40 03.08.2019
4268 Clouds 12 1000 71 10000 8.2 360 14:21 03.08.2019
4269 Clouds 11 1000 66 10000 7.7 350 13:51 03.08.2019
4270 Clouds 11 1000 76 10000 6.2 20 13:25 03.08.2019
4271 Clouds 11 1000 66 10000 7.2 360 12:57 03.08.2019
4272 Clouds 11 1000 71 10000 6.7 360 12:39 03.08.2019
4273 Clouds 11 1000 71 10000 6.7 360 12:21 03.08.2019
4274 Clouds 11 1001 66 10000 5.1 360 11:48 03.08.2019
4275 Clouds 11 1001 58 10000 5.7 350 11:26 03.08.2019
4276 Clouds 11 1001 62 10000 4.6 360 10:41 03.08.2019
4277 Clouds 11 1001 58 10000 3.6 350 10:22 03.08.2019
4278 Clouds 11 1001 62 10000 4.6 360 09:41 03.08.2019
4279 Clear 11 1002 66 10000 4.6 20 09:21 03.08.2019
4280 Clear 11 1002 66 10000 4.6 30 08:51 03.08.2019
4281 Clear 10 1002 66 10000 4.6 20 07:52 03.08.2019
4282 Clear 11 1002 66 10000 5.1 20 07:31 03.08.2019
4283 Clear 12 1003 62 10000 5.7 350 06:24 03.08.2019
4284 Clear 12 1005 50 10000 3.6 190 03:58 03.08.2019
4285 Clear 12 1006 62 10000 8.2 200 02:36 03.08.2019
4286 Clear 11 1006 66 9000 9.8 200 01:36 03.08.2019
4287 Clear 11 1006 62 10000 12.3 200 00:38 03.08.2019
4288 Clear 10 1005 66 10000 12.3 190 23:58 02.08.2019
4289 Clear 10 1005 62 9000 12.3 190 23:40 02.08.2019
4290 Clear 9 1005 62 9000 12.3 190 23:18 02.08.2019
4291 Clear 9 1005 66 9000 13.4 200 22:56 02.08.2019
4292 Clear 9 1004 66 10000 13.4 200 22:38 02.08.2019
4293 Clear 9 1004 66 10000 13.4 200 22:18 02.08.2019
4294 Clear 8 1004 66 9000 14.9 200 21:42 02.08.2019
4295 Clouds 8 1004 66 9000 14.9 200 21:22 02.08.2019
4296 Rain 8 1003 71 10000 13.4 210 20:46 02.08.2019
4297 Rain 8 1002 66 10000 10.3 210 20:28 02.08.2019
4298 Clouds 8 1002 66 10000 9.8 210 19:56 02.08.2019
4299 Clouds 9 1002 66 10000 12.3 200 19:35 02.08.2019
4300 Rain 9 1001 71 10000 13.4 200 18:57 02.08.2019
4301 Rain 8 1001 71 10000 10.8 200 18:39 02.08.2019
4302 Rain 7 1001 71 10000 10.8 200 18:20 02.08.2019
4303 Clouds 7 1001 66 10000 10.3 180 17:42 02.08.2019
4304 Clouds 7 1001 76 10000 7.7 200 17:24 02.08.2019
4305 Rain 7 1001 81 10000 10.8 200 16:56 02.08.2019
4306 Rain 8 1000 76 10000 10.8 200 16:37 02.08.2019
4307 Rain 7 1000 76 10000 10.8 200 16:18 02.08.2019
4308 Rain 7 999 71 10000 9.8 200 15:38 02.08.2019
4309 Rain 7 999 71 10000 9.8 200 15:19 02.08.2019
4310 Clouds 8 999 71 10000 8.7 210 14:45 02.08.2019
4311 Clouds 8 999 71 10000 8.7 210 14:45 02.08.2019
4312 Clouds 8 999 71 10000 9.8 210 14:18 02.08.2019
4313 Clouds 8 999 71 10000 9.8 210 14:18 02.08.2019
4314 Clouds 8 998 71 10000 10.3 220 13:47 02.08.2019
4315 Clouds 8 998 66 10000 5.7 220 13:23 02.08.2019
4316 Clouds 8 998 57 10000 6.2 240 12:44 02.08.2019
4317 Rain 8 998 62 10000 6.2 250 12:21 02.08.2019
4318 Clouds 8 997 61 10000 3.6 270 11:48 02.08.2019
4319 Clouds 9 996 57 10000 1 360 11:26 02.08.2019
4320 Clouds 10 996 57 10000 2.6 270 10:55 02.08.2019
4321 Clouds 10 996 57 10000 2.6 270 10:55 02.08.2019
4322 Clouds 10 995 50 10000 4.6 250 10:37 02.08.2019
4323 Clouds 10 995 50 10000 4.6 250 10:19 02.08.2019
4324 Clouds 10 995 53 10000 5.7 280 09:48 02.08.2019
4325 Clouds 10 995 53 10000 4.6 280 09:24 02.08.2019
4326 Clouds 10 995 53 10000 6.2 290 08:47 02.08.2019
4327 Clouds 10 994 50 10000 4.1 300 08:21 02.08.2019
4328 Clouds 10 994 59 10000 6.2 290 07:48 02.08.2019
4329 Clouds 11 994 46 10000 5.7 280 07:29 02.08.2019
4330 Clouds 11 994 43 10000 7.7 280 06:44 02.08.2019
4331 Clear 12 995 43 10000 8.7 290 05:52 02.08.2019
4332 Clear 13 994 54 10000 7.7 270 05:21 02.08.2019
4333 Clear 14 995 58 8000 6.2 320 03:27 02.08.2019
4334 Clouds 13 996 67 10000 8.7 330 02:33 02.08.2019
4335 Clouds 12 999 66 10000 9.8 10 00:38 02.08.2019
4336 Clouds 12 999 58 10000 7.2 330 23:46 01.08.2019
4337 Clouds 11 999 62 10000 9.3 330 23:28 01.08.2019
4338 Clouds 10 999 62 10000 6.7 350 22:58 01.08.2019
4339 Clouds 10 999 66 10000 6.2 340 22:38 01.08.2019
4340 Clouds 9 999 66 10000 6.2 340 22:19 01.08.2019
4341 Clouds 10 1000 66 10000 3.1 350 21:43 01.08.2019
4342 Clear 10 1000 76 10000 4.6 30 21:23 01.08.2019
4343 Clear 10 1000 70 10000 4.6 10 20:55 01.08.2019
4344 Clear 10 1000 70 10000 5.1 40 20:36 01.08.2019
4345 Clear 10 1000 70 10000 5.1 40 20:18 01.08.2019
4346 Clear 8 1000 75 10000 5.1 20 19:40 01.08.2019
4347 Clear 7 1000 75 10000 5.1 20 19:19 01.08.2019
4348 Clear 8 1001 75 10000 4.6 20 18:44 01.08.2019
4349 Clear 5 1001 81 10000 4.1 10 18:24 01.08.2019
4350 Clear 5 1001 86 10000 3.1 350 17:51 01.08.2019
4351 Clear 4 1002 80 10000 2.1 10 17:32 01.08.2019
4352 Clear 4 1002 86 10000 3.1 10 16:57 01.08.2019
4353 Clear 4 1003 80 10000 3.6 360 16:39 01.08.2019
4354 Clear 5 1003 80 10000 3.6 360 16:19 01.08.2019
4355 Clear 5 1003 80 10000 3.1 360 15:41 01.08.2019
4356 Clouds 4 1003 87 10000 4.1 20 15:19 01.08.2019
4357 Clouds 4 1004 86 10000 3.1 20 14:43 01.08.2019
4358 Clouds 5 1004 81 10000 3.6 30 14:20 01.08.2019
4359 Clouds 4 1004 80 10000 3.1 30 13:58 01.08.2019
4360 Clouds 4 1005 81 10000 3.1 40 13:39 01.08.2019
4361 Clouds 4 1005 81 10000 3.1 40 13:20 01.08.2019
4362 Clouds 4 1005 75 10000 3.1 30 12:46 01.08.2019
4363 Clouds 4 1005 70 10000 2.6 40 12:27 01.08.2019
4364 Clouds 5 1005 65 10000 2.6 40 11:43 01.08.2019
4365 Clouds 7 1005 70 10000 2.1 30 11:24 01.08.2019
4366 Clouds 7 1005 70 10000 1 340 10:56 01.08.2019
4367 Clouds 6 1005 66 9000 1.5 310 10:38 01.08.2019
4368 Clouds 7 1005 66 9000 1.5 310 10:20 01.08.2019
4369 Clouds 8 1005 66 8000 2.6 290 09:44 01.08.2019
4370 Rain 7 1005 62 10000 4.6 220 09:23 01.08.2019
4371 Clouds 8 1005 71 10000 6.2 210 08:47 01.08.2019
4372 Clouds 8 1004 66 10000 8.7 210 08:21 01.08.2019
4373 Clouds 8 1004 62 10000 8.7 210 07:52 01.08.2019
4374 Clouds 8 1004 62 10000 8.7 210 07:52 01.08.2019
4375 Clouds 8 1004 57 10000 9.3 210 07:28 01.08.2019
4376 Clouds 9 1004 61 10000 9.3 210 06:49 01.08.2019
4377 Clouds 9 1004 61 10000 9.3 210 06:29 01.08.2019
4378 Rain 10 1004 61 10000 10.3 210 05:31 01.08.2019
4379 Clouds 10 1004 61 8000 16.5 200 02:35 01.08.2019
4380 Clouds 9 1004 66 10000 10.3 220 00:55 01.08.2019
4381 Clouds 9 1003 61 10000 8.7 230 00:26 01.08.2019
4382 Clouds 9 1003 61 10000 9.8 220 23:57 31.07.2019
4383 Clouds 8 1003 66 10000 11.8 210 23:39 31.07.2019
4384 Clouds 7 1003 66 10000 11.8 210 23:19 31.07.2019
4385 Clouds 7 1003 66 10000 9.8 230 22:44 31.07.2019
4386 Clouds 7 1003 70 10000 11.3 220 22:24 31.07.2019
4387 Clouds 7 1002 66 10000 16.5 210 21:41 31.07.2019
4388 Clouds 7 1002 70 10000 15.4 210 21:22 31.07.2019
4389 Clouds 7 1002 76 10000 15.9 200 20:49 31.07.2019
4390 Clouds 7 1002 76 10000 15.4 200 20:24 31.07.2019
4391 Clouds 7 1001 70 10000 13.9 200 19:49 31.07.2019
4392 Clouds 7 1001 70 10000 14.4 200 19:31 31.07.2019
4393 Clouds 7 1001 66 10000 14.4 200 18:57 31.07.2019
4394 Clouds 6 1001 70 10000 13.4 200 18:37 31.07.2019
4395 Clear 7 1001 70 10000 13.4 200 18:18 31.07.2019
4396 Clear 6 1001 70 10000 14.4 200 17:44 31.07.2019
4397 Clear 6 1002 76 10000 12.9 200 17:20 31.07.2019
4398 Clear 6 1001 70 10000 13.4 210 16:52 31.07.2019
4399 Clear 6 1001 76 10000 12.9 210 16:26 31.07.2019
4400 Clear 6 1001 66 10000 13.9 200 15:55 31.07.2019
4401 Clear 6 1001 70 10000 15.4 200 15:37 31.07.2019
4402 Clear 6 1001 70 10000 15.4 200 15:37 31.07.2019
4403 Clouds 6 1001 70 10000 15.4 200 15:18 31.07.2019
4404 Clouds 7 1001 70 10000 14.4 200 14:42 31.07.2019
4405 Clouds 7 1002 70 10000 13.9 200 14:19 31.07.2019
4406 Clouds 7 1001 70 10000 13.9 200 13:55 31.07.2019
4407 Clouds 7 1001 66 10000 13.4 200 13:36 31.07.2019
4408 Clouds 7 1001 66 10000 13.4 200 13:18 31.07.2019
4409 Clouds 7 1001 76 10000 12.3 180 12:40 31.07.2019
4410 Rain 7 1001 76 10000 12.3 180 12:21 31.07.2019
4411 Rain 7 1001 70 10000 13.9 200 11:39 31.07.2019
4412 Rain 7 1001 70 10000 13.9 200 11:20 31.07.2019
4413 Rain 7 1001 76 10000 14.9 200 10:46 31.07.2019
4414 Rain 7 1001 70 9000 14.9 200 10:21 31.07.2019
4415 Rain 7 1000 81 9000 13.9 190 09:59 31.07.2019
4416 Rain 7 1000 81 9000 13.9 190 09:41 31.07.2019
4417 Rain 7 1000 81 8000 14.9 200 09:23 31.07.2019
4418 Rain 7 1000 81 8000 15.4 200 08:43 31.07.2019
4419 Rain 7 1000 81 9000 15.9 200 08:23 31.07.2019
4420 Rain 7 999 87 7000 16.5 190 07:42 31.07.2019
4421 Rain 7 1000 81 0 4.47 207 07:22 31.07.2019
4422 Rain 7 997 81 7000 18 190 04:56 31.07.2019
4423 Rain 6 998 87 8000 13.9 230 03:33 31.07.2019
4424 Rain 11 996 81 10000 5.1 340 00:37 31.07.2019
4425 Rain 10 996 71 10000 5.1 340 23:47 30.07.2019
4426 Rain 10 996 71 10000 5.1 340 23:47 30.07.2019
4427 Rain 10 995 71 10000 6.7 340 23:25 30.07.2019
4428 Clear 9 996 71 10000 4.1 340 22:48 30.07.2019
4429 Rain 9 996 66 10000 5.1 320 22:26 30.07.2019
4430 Rain 9 995 62 10000 5.7 330 21:57 30.07.2019
4431 Clear 9 995 66 10000 6.7 340 21:37 30.07.2019
4432 Clear 10 995 66 10000 6.7 340 21:19 30.07.2019
4433 Clear 9 994 66 10000 6.2 340 20:44 30.07.2019
4434 Rain 9 995 62 10000 6.2 340 20:24 30.07.2019
4435 Clear 10 995 62 10000 6.2 330 19:59 30.07.2019
4436 Clear 10 995 62 10000 6.7 320 19:40 30.07.2019
4437 Clear 10 995 62 10000 6.7 320 19:21 30.07.2019
4438 Clear 10 995 62 10000 7.7 330 18:44 30.07.2019
4439 Clear 10 995 62 10000 6.7 340 18:20 30.07.2019
4440 Clear 10 995 57 10000 5.1 330 17:43 30.07.2019
4441 Clear 11 995 58 10000 5.7 330 17:20 30.07.2019
4442 Clear 11 995 62 10000 6.2 330 16:55 30.07.2019
4443 Clear 11 995 71 10000 6.7 340 16:37 30.07.2019
4444 Clear 11 995 71 10000 6.7 340 16:18 30.07.2019
4445 Clear 11 995 76 10000 5.1 350 15:39 30.07.2019
4446 Clear 11 995 76 10000 5.1 350 15:39 30.07.2019
4447 Clear 11 995 76 10000 5.1 350 15:19 30.07.2019
4448 Clear 11 995 81 10000 5.7 20 14:43 30.07.2019
4449 Clear 11 995 76 10000 6.2 360 14:22 30.07.2019
4450 Clear 11 995 81 10000 5.7 20 13:55 30.07.2019
4451 Clear 11 996 76 10000 7.7 360 13:36 30.07.2019
4452 Clear 12 996 76 10000 7.7 360 13:18 30.07.2019
4453 Clear 12 996 71 10000 7.2 10 12:43 30.07.2019
4454 Clear 12 996 71 10000 6.2 350 12:24 30.07.2019
4455 Clear 12 996 71 10000 5.7 360 11:44 30.07.2019
4456 Clear 12 996 71 10000 5.1 350 11:23 30.07.2019
4457 Clear 12 996 76 10000 5.7 350 10:55 30.07.2019
4458 Clear 12 996 76 10000 3.1 340 10:37 30.07.2019
4459 Clear 12 996 76 10000 3.1 340 10:37 30.07.2019
4460 Clear 12 996 76 10000 3.1 340 10:19 30.07.2019
4461 Clear 12 996 71 10000 3.6 10 09:46 30.07.2019
4462 Clear 12 996 76 10000 2.1 20 09:26 30.07.2019
4463 Clouds 12 995 76 10000 5.7 330 08:35 30.07.2019
4464 Clouds 12 995 76 10000 7.2 340 07:53 30.07.2019
4465 Clouds 12 995 71 10000 5.7 340 07:34 30.07.2019
4466 Clouds 13 996 76 10000 5.1 350 06:52 30.07.2019
4467 Clouds 13 996 76 10000 6.2 360 06:33 30.07.2019
4468 Clouds 13 996 82 10000 7.7 330 05:35 30.07.2019
4469 Rain 13 997 82 10000 5.7 340 04:29 30.07.2019
4470 Rain 12 1000 93 6000 7.2 20 01:23 30.07.2019
4471 Rain 11 1001 93 5000 5.1 20 00:27 30.07.2019
4472 Rain 11 1001 93 4700 5.1 20 23:59 29.07.2019
4473 Rain 11 1001 87 10000 5.7 20 23:39 29.07.2019
4474 Rain 11 1001 87 10000 5.7 20 23:20 29.07.2019
4475 Rain 11 1002 81 10000 5.1 20 22:55 29.07.2019
4476 Rain 11 1002 81 10000 5.1 10 22:37 29.07.2019
4477 Rain 11 1002 81 10000 5.1 10 22:18 29.07.2019
4478 Rain 11 1002 81 10000 5.7 10 21:41 29.07.2019
4479 Clouds 11 1002 81 10000 5.1 10 21:23 29.07.2019
4480 Clouds 11 1002 81 10000 5.1 10 20:57 29.07.2019
4481 Clouds 10 1003 76 10000 4.1 30 20:38 29.07.2019
4482 Clouds 10 1003 76 10000 4.1 30 20:19 29.07.2019
4483 Clouds 8 1003 81 10000 3.1 20 19:43 29.07.2019
4484 Clouds 6 1003 87 10000 1 40 19:23 29.07.2019
4485 Clouds 6 1004 81 10000 2.6 20 18:55 29.07.2019
4486 Clouds 8 1004 81 10000 3.1 20 18:37 29.07.2019
4487 Clouds 8 1004 81 10000 3.1 20 18:18 29.07.2019
4488 Clouds 9 1005 87 10000 3.6 20 17:46 29.07.2019
4489 Clouds 8 1005 93 10000 4.1 10 17:27 29.07.2019
4490 Clouds 7 1006 87 10000 4.1 360 16:46 29.07.2019
4491 Clouds 7 1006 87 10000 4.6 360 16:27 29.07.2019
4492 Clouds 7 1007 87 10000 3.6 350 15:54 29.07.2019
4493 Clouds 8 1007 87 10000 4.6 360 15:36 29.07.2019
4494 Clouds 8 1008 87 10000 3.1 360 14:58 29.07.2019
4495 Clouds 8 1008 81 10000 1.5 20 14:39 29.07.2019
4496 Clouds 8 1008 81 10000 1.5 20 14:21 29.07.2019
4497 Clouds 8 1009 87 10000 1.5 10 13:45 29.07.2019
4498 Clouds 8 1009 87 10000 2.6 10 13:24 29.07.2019
4499 Clouds 8 1010 87 10000 0.5 360 12:45 29.07.2019
4500 Clouds 8 1010 81 10000 1 340 12:26 29.07.2019
4501 Clouds 8 1010 87 10000 1 30 11:59 29.07.2019
4502 Clouds 8 1011 81 10000 1 10 11:39 29.07.2019
4503 Clouds 8 1011 81 10000 1 10 11:18 29.07.2019
4504 Clouds 8 1011 87 10000 2.1 40 10:42 29.07.2019
4505 Clouds 8 1011 81 10000 2.1 30 10:21 29.07.2019
4506 Clouds 9 1012 81 10000 2.1 20 09:43 29.07.2019
4507 Clouds 9 1012 76 10000 1 20 09:21 29.07.2019
4508 Clouds 10 1012 81 10000 1.5 20 08:43 29.07.2019
4509 Clouds 10 1012 76 10000 2.1 350 08:24 29.07.2019
4510 Clouds 10 1012 76 10000 2.6 10 07:46 29.07.2019
4511 Clouds 11 1012 71 10000 3.1 360 07:26 29.07.2019
4512 Clouds 14 1013 54 10000 5.1 360 05:57 29.07.2019
4513 Clouds 14 1013 54 10000 5.7 360 05:31 29.07.2019
4514 Clouds 14 1016 58 10000 5.1 10 02:43 29.07.2019
4515 Clouds 14 1017 58 10000 5.1 10 01:47 29.07.2019
4516 Clouds 13 1018 62 10000 4.6 10 01:26 29.07.2019
4517 Clouds 12 1018 66 10000 3.1 360 00:52 29.07.2019
4518 Clouds 12 1018 66 10000 3.1 360 00:23 29.07.2019
4519 Clouds 11 1019 76 10000 3.1 30 23:41 28.07.2019
4520 Clouds 9 1019 76 10000 2.6 60 23:22 28.07.2019
4521 Clouds 9 1019 76 10000 2.6 60 23:22 28.07.2019
4522 Clouds 9 1019 81 10000 2.6 20 22:43 28.07.2019
4523 Clouds 8 1019 81 10000 1.5 50 22:24 28.07.2019
4524 Clouds 7 1019 87 10000 2.1 20 21:50 28.07.2019
4525 Clouds 8 1019 87 10000 1.5 10 21:20 28.07.2019
4526 Clouds 8 1019 87 10000 2.6 350 20:49 28.07.2019
4527 Clouds 8 1019 87 10000 2.6 30 20:30 28.07.2019
4528 Clouds 7 1019 81 10000 1.5 350 19:57 28.07.2019
4529 Clouds 7 1019 81 10000 2.1 350 19:38 28.07.2019
4530 Clouds 8 1019 81 10000 2.1 350 19:20 28.07.2019
4531 Clouds 9 1020 87 10000 1.5 340 18:45 28.07.2019
4532 Clouds 9 1020 81 10000 1.5 350 18:25 28.07.2019
4533 Clouds 8 1020 87 10000 2.1 320 17:55 28.07.2019
4534 Clouds 8 1020 87 10000 1.5 310 17:37 28.07.2019
4535 Clouds 8 1020 87 10000 1.5 310 17:19 28.07.2019
4536 Clouds 8 1021 81 10000 2.1 350 16:41 28.07.2019
4537 Clouds 8 1021 81 10000 3.1 20 16:22 28.07.2019
4538 Clouds 8 1021 81 10000 2.1 30 15:44 28.07.2019
4539 Clouds 9 1021 81 10000 2.6 360 15:24 28.07.2019
4540 Clouds 9 1022 87 10000 2.6 10 14:39 28.07.2019
4541 Clouds 9 1022 87 10000 2.6 10 14:20 28.07.2019
4542 Clouds 9 1022 81 10000 2.6 10 13:56 28.07.2019
4543 Clouds 9 1022 81 10000 2.6 10 13:56 28.07.2019
4544 Clouds 10 1022 81 10000 4.1 10 13:37 28.07.2019
4545 Clouds 10 1022 81 10000 4.1 10 13:19 28.07.2019
4546 Clouds 10 1022 81 10000 4.1 20 12:42 28.07.2019
4547 Clouds 10 1022 81 10000 4.6 10 12:23 28.07.2019
4548 Clouds 10 1022 81 10000 5.1 20 11:49 28.07.2019
4549 Clouds 11 1022 81 10000 5.1 20 11:28 28.07.2019
4550 Clouds 11 1022 81 10000 5.1 30 10:56 28.07.2019
4551 Clouds 11 1022 81 10000 4.6 20 10:37 28.07.2019
4552 Clouds 11 1022 81 10000 4.6 20 10:18 28.07.2019
4553 Clouds 12 1023 76 10000 4.6 20 09:40 28.07.2019
4554 Clouds 12 1023 76 10000 4.6 20 09:20 28.07.2019
4555 Clouds 12 1023 76 10000 5.1 20 08:41 28.07.2019
4556 Clouds 12 1023 76 10000 5.7 20 08:21 28.07.2019
4557 Clouds 12 1022 76 10000 6.2 10 07:40 28.07.2019
4558 Clouds 13 1023 76 10000 6.7 360 06:59 28.07.2019
4559 Clouds 13 1022 76 10000 5.7 360 06:32 28.07.2019
4560 Clouds 13 1023 71 10000 7.2 360 05:19 28.07.2019
4561 Clouds 14 1025 76 10000 7.7 360 02:37 28.07.2019
4562 Clouds 13 1025 76 10000 7.2 10 01:32 28.07.2019
4563 Clouds 13 1025 76 10000 6.7 10 00:52 28.07.2019
4564 Clouds 13 1025 76 10000 5.7 10 00:25 28.07.2019
4565 Clouds 13 1025 82 10000 6.2 20 23:52 27.07.2019
4566 Clouds 12 1025 82 10000 7.2 20 23:27 27.07.2019
4567 Clouds 11 1025 82 10000 6.2 10 22:44 27.07.2019
4568 Clouds 11 1025 82 10000 6.7 10 22:26 27.07.2019
4569 Clouds 11 1025 82 10000 6.2 10 21:47 27.07.2019
4570 Clouds 12 1025 87 10000 6.2 10 21:23 27.07.2019
4571 Clouds 12 1025 87 10000 6.7 360 20:56 27.07.2019
4572 Clouds 11 1025 87 10000 6.7 360 20:37 27.07.2019
4573 Clouds 11 1025 87 10000 6.7 360 20:19 27.07.2019
4574 Clouds 11 1025 87 10000 6.2 10 19:39 27.07.2019
4575 Clouds 11 1025 87 10000 6.2 10 19:21 27.07.2019
4576 Clouds 12 1025 87 10000 6.2 20 18:47 27.07.2019
4577 Clouds 12 1025 87 10000 6.2 10 18:28 27.07.2019
4578 Clouds 12 1025 87 10000 6.7 10 17:50 27.07.2019
4579 Clouds 12 1025 87 10000 6.7 10 17:50 27.07.2019
4580 Clouds 12 1025 87 10000 6.2 10 17:32 27.07.2019
4581 Clouds 12 1025 87 10000 5.1 10 16:56 27.07.2019
4582 Clouds 12 1025 87 10000 5.1 360 16:37 27.07.2019
4583 Clouds 12 1025 87 10000 5.1 10 15:56 27.07.2019
4584 Clouds 12 1025 93 10000 5.1 360 15:38 27.07.2019
4585 Clouds 12 1025 93 10000 5.1 360 15:18 27.07.2019
4586 Clouds 12 1025 87 10000 5.1 360 14:45 27.07.2019
4587 Clouds 12 1026 87 10000 5.1 360 14:25 27.07.2019
4588 Clouds 12 1025 87 10000 5.7 10 13:48 27.07.2019
4589 Clouds 12 1025 87 10000 5.7 10 13:23 27.07.2019
4590 Clouds 12 1025 87 10000 4.6 20 12:50 27.07.2019
4591 Clouds 12 1025 87 10000 5.1 10 12:27 27.07.2019
4592 Clouds 12 1025 87 10000 5.7 10 11:56 27.07.2019
4593 Clouds 12 1025 87 10000 5.7 10 11:37 27.07.2019
4594 Clouds 12 1025 87 10000 5.7 10 11:19 27.07.2019
4595 Clouds 12 1025 87 10000 5.7 10 10:40 27.07.2019
4596 Clouds 12 1025 87 10000 5.7 10 10:21 27.07.2019
4597 Clouds 12 1025 87 10000 6.2 20 09:41 27.07.2019
4598 Clear 12 1025 87 10000 6.2 10 09:22 27.07.2019
4599 Clouds 12 1025 87 10000 6.2 10 08:48 27.07.2019
4600 Clouds 12 1024 87 10000 6.2 10 08:29 27.07.2019
4601 Clouds 13 1024 87 10000 6.7 10 07:54 27.07.2019
4602 Clouds 13 1024 87 10000 8.2 360 07:27 27.07.2019
4603 Clouds 13 1024 87 10000 7.7 10 06:56 27.07.2019
4604 Clouds 13 1024 82 10000 7.7 360 06:31 27.07.2019
4605 Clear 14 1024 82 10000 6.7 360 05:51 27.07.2019
4606 Clouds 14 1024 82 10000 7.7 10 05:18 27.07.2019
4607 Clear 14 1024 76 10000 7.7 20 04:30 27.07.2019
4608 Clear 14 1024 82 10000 8.7 10 02:58 27.07.2019
4609 Clouds 14 1025 82 10000 8.2 10 02:31 27.07.2019
4610 Clear 14 1025 82 10000 7.7 20 01:47 27.07.2019
4611 Clear 13 1025 82 10000 7.2 20 00:59 27.07.2019
4612 Clear 13 1025 82 10000 6.2 20 00:32 27.07.2019
4613 Clear 13 1025 87 10000 5.1 20 23:53 26.07.2019
4614 Clear 12 1025 87 10000 5.7 20 23:33 26.07.2019
4615 Clear 12 1025 87 10000 5.7 30 22:57 26.07.2019
4616 Clear 12 1025 87 10000 5.1 20 22:38 26.07.2019
4617 Clear 12 1025 87 10000 5.1 20 22:20 26.07.2019
4618 Clear 11 1024 93 10000 5.7 20 21:49 26.07.2019
4619 Clear 11 1024 87 10000 4.6 20 21:19 26.07.2019
4620 Clear 11 1024 87 10000 4.6 30 20:43 26.07.2019
4621 Clear 11 1024 87 10000 4.6 30 20:24 26.07.2019
4622 Clear 11 1024 87 10000 4.1 20 19:44 26.07.2019
4623 Clear 11 1024 87 10000 4.1 20 19:25 26.07.2019
4624 Clear 11 1024 87 10000 4.6 30 18:58 26.07.2019
4625 Clear 10 1024 93 10000 4.1 20 18:37 26.07.2019
4626 Clear 10 1024 93 10000 4.1 20 18:19 26.07.2019
4627 Clear 9 1024 87 10000 4.1 10 17:46 26.07.2019
4628 Clear 8 1024 93 10000 3.1 20 17:19 26.07.2019
4629 Clear 8 1024 93 10000 2.6 20 16:57 26.07.2019
4630 Clear 8 1024 93 10000 2.6 20 16:57 26.07.2019
4631 Clear 7 1024 93 10000 3.1 10 16:38 26.07.2019
4632 Clear 7 1024 93 10000 3.1 10 16:19 26.07.2019
4633 Clear 7 1024 93 10000 3.6 10 15:56 26.07.2019
4634 Clear 7 1024 87 10000 3.1 20 15:38 26.07.2019
4635 Clear 9 1024 87 10000 3.1 20 15:18 26.07.2019
4636 Clear 8 1024 81 10000 3.6 20 14:42 26.07.2019
4637 Clear 8 1024 81 10000 3.6 20 14:22 26.07.2019
4638 Clear 7 1024 87 10000 3.6 20 13:42 26.07.2019
4639 Clear 7 1024 93 10000 4.1 10 13:24 26.07.2019
4640 Clear 8 1024 87 10000 3.6 360 12:49 26.07.2019
4641 Clear 8 1024 87 10000 4.1 360 12:20 26.07.2019
4642 Clear 8 1024 93 10000 3.1 20 11:47 26.07.2019
4643 Clear 8 1024 87 10000 3.1 20 11:22 26.07.2019
4644 Clear 8 1024 93 10000 3.6 10 10:58 26.07.2019
4645 Clear 9 1024 87 10000 2.1 20 10:38 26.07.2019
4646 Clear 9 1024 87 10000 2.1 20 10:18 26.07.2019
4647 Clear 8 1024 93 10000 2.6 10 09:42 26.07.2019
4648 Clear 9 1023 93 10000 2.1 20 09:24 26.07.2019
4649 Clear 10 1023 87 10000 2.1 20 08:40 26.07.2019
4650 Clear 10 1023 87 10000 2.1 20 08:20 26.07.2019
4651 Clear 11 1023 76 10000 1 210 07:39 26.07.2019
4652 Clear 12 1023 76 10000 1 210 07:18 26.07.2019
4653 Clear 14 1022 82 10000 2.6 180 05:44 26.07.2019
4654 Clear 14 1022 76 10000 2.6 180 04:30 26.07.2019
4655 Clear 14 1022 76 10000 2.1 190 03:44 26.07.2019
4656 Clear 13 1024 76 10000 2.1 350 01:45 26.07.2019
4657 Clear 13 1024 87 10000 2.6 360 00:50 26.07.2019
4658 Clear 11 1024 87 10000 2.6 10 00:27 26.07.2019
4659 Clouds 8 1024 93 10000 2.1 50 23:40 25.07.2019
4660 Clouds 7 1024 93 10000 2.1 50 23:19 25.07.2019
4661 Clouds 6 1024 93 10000 2.1 20 22:41 25.07.2019
4662 Clouds 6 1023 93 10000 2.1 40 22:21 25.07.2019
4663 Clouds 5 1023 100 10000 1.5 20 21:47 25.07.2019
4664 Clear 5 1023 100 10000 1.5 20 21:23 25.07.2019
4665 Clear 5 1022 100 10000 1.5 360 20:57 25.07.2019
4666 Clear 5 1022 100 10000 2.1 30 20:38 25.07.2019
4667 Clear 6 1022 100 10000 2.1 30 20:18 25.07.2019
4668 Clear 5 1022 100 10000 1 50 19:40 25.07.2019
4669 Clear 5 1022 100 10000 1 50 19:21 25.07.2019
4670 Rain 6 1022 93 5000 0.5 340 18:41 25.07.2019
4671 Rain 6 1022 93 5000 0.5 340 18:23 25.07.2019
4672 Rain 6 1022 100 10000 1.5 40 17:50 25.07.2019
4673 Clear 6 1021 100 10000 1 40 17:31 25.07.2019
4674 Clear 7 1021 93 10000 2.6 40 16:56 25.07.2019
4675 Clear 6 1021 93 10000 1 50 16:37 25.07.2019
4676 Clear 6 1021 93 10000 1 50 16:19 25.07.2019
4677 Clear 6 1021 100 10000 2.1 40 15:43 25.07.2019
4678 Clear 7 1021 100 10000 1.5 40 15:19 25.07.2019
4679 Clear 7 1021 93 10000 0.5 20 14:42 25.07.2019
4680 Clear 7 1021 100 10000 0.5 60 14:23 25.07.2019
4681 Clear 7 1021 100 10000 1.5 30 13:44 25.07.2019
4682 Clear 7 1021 93 10000 2.1 20 13:26 25.07.2019
4683 Clear 7 1021 93 10000 2.1 40 12:58 25.07.2019
4684 Clear 7 1020 93 10000 2.1 30 12:29 25.07.2019
4685 Clear 8 1020 93 10000 1.5 10 11:47 25.07.2019
4686 Clear 8 1020 93 10000 1 20 11:25 25.07.2019
4687 Clear 8 1020 93 10000 1.5 40 10:59 25.07.2019
4688 Clear 8 1020 100 10000 2.1 30 10:37 25.07.2019
4689 Clear 8 1020 100 10000 2.1 30 10:18 25.07.2019
4690 Clear 8 1020 93 10000 1.5 360 09:42 25.07.2019
4691 Clear 9 1019 93 10000 1.5 10 09:23 25.07.2019
4692 Clear 9 1019 93 10000 1.5 20 08:42 25.07.2019
4693 -273 0 0 0 0 0 07:56 25.07.2019
4694 Clear 11 1018 87 10000 1.5 210 07:34 25.07.2019
4695 Clear 13 1018 82 10000 2.1 200 06:43 25.07.2019
4696 Clear 14 1018 82 10000 3.1 200 05:39 25.07.2019
4697 Clear 14 1018 82 10000 3.1 200 05:20 25.07.2019
4698 Clear 14 1018 82 10000 3.1 190 04:36 25.07.2019
4699 Clear 13 1019 67 10000 1.5 10 01:45 25.07.2019
4700 Clear 12 1019 76 10000 2.6 360 01:18 25.07.2019
4701 Clear 10 1019 81 10000 2.6 10 00:20 25.07.2019
4702 Clear 9 1019 87 10000 2.6 360 23:46 24.07.2019
4703 Clear 9 1018 93 10000 3.1 20 23:27 24.07.2019
4704 Clear 8 1018 93 10000 2.1 30 22:55 24.07.2019
4705 Clear 7 1018 93 10000 1.5 10 22:36 24.07.2019
4706 Clear 7 1018 93 10000 1.5 10 22:18 24.07.2019
4707 Clear 7 1018 93 10000 2.6 40 21:43 24.07.2019
4708 Clear 7 1018 93 10000 1.5 30 21:21 24.07.2019
4709 Clear 7 1018 93 10000 1.5 30 21:21 24.07.2019
4710 -273 0 0 0 0 0 20:56 24.07.2019
4711 Clear 7 1017 93 10000 1 20 20:37 24.07.2019
4712 Clear 7 1017 93 10000 1 20 20:19 24.07.2019
4713 Clear 7 1017 93 10000 1.5 30 19:42 24.07.2019
4714 Clear 7 1017 93 10000 2.1 30 19:22 24.07.2019
4715 Clear 7 1017 93 10000 1.5 40 18:58 24.07.2019
4716 Clear 7 1017 93 10000 1 10 18:37 24.07.2019
4717 Clear 8 1017 93 10000 1 10 18:19 24.07.2019
4718 Clear 8 1017 100 10000 1.5 50 17:42 24.07.2019
4719 Clear 8 1018 93 10000 1 20 17:19 24.07.2019
4720 Clear 8 1018 93 10000 1 70 16:40 24.07.2019
4721 Clear 8 1018 93 10000 1 70 16:40 24.07.2019
4722 Clear 8 1018 93 10000 1 70 16:21 24.07.2019
4723 Clear 8 1018 93 10000 1.5 40 15:39 24.07.2019
4724 Clear 7 1018 93 10000 1.5 40 15:21 24.07.2019
4725 Clear 7 1018 93 10000 1 340 14:50 24.07.2019
4726 Clear 7 1018 93 10000 1 50 14:23 24.07.2019
4727 Clear 7 1018 93 10000 1 30 13:59 24.07.2019
4728 Clear 8 1018 93 10000 1.5 50 13:36 24.07.2019
4729 Clouds 8 1018 93 10000 1.5 50 13:18 24.07.2019
4730 Clouds 8 1018 93 10000 1 50 12:46 24.07.2019
4731 Clear 8 1018 93 10000 1.5 10 12:24 24.07.2019
4732 Clear 9 1017 93 10000 1.5 350 11:38 24.07.2019
4733 Clear 9 1017 93 10000 1.5 350 11:19 24.07.2019
4734 Clear 9 1017 87 10000 1 30 10:43 24.07.2019
4735 Clear 9 1017 87 10000 1.5 70 10:24 24.07.2019
4736 Clear 9 1017 87 10000 1.5 360 09:44 24.07.2019
4737 Clouds 10 1017 81 10000 1 30 09:24 24.07.2019
4738 Clouds 10 1017 81 10000 0.5 180 08:55 24.07.2019
4739 Clouds 10 1017 81 10000 1.5 180 08:30 24.07.2019
4740 Clouds 10 1017 81 10000 1.5 180 08:30 24.07.2019
4741 Clouds 11 1016 76 10000 1.5 190 07:51 24.07.2019
4742 Clouds 12 1016 76 10000 2.1 200 07:24 24.07.2019
4743 Clouds 13 1016 76 10000 1.5 220 06:29 24.07.2019
4744 Clouds 13 1016 76 10000 3.6 220 05:33 24.07.2019
4745 Rain 13 1018 81 10000 1.5 190 01:59 24.07.2019
4746 Rain 12 1018 81 10000 0.5 300 01:29 24.07.2019
4747 Rain 13 1018 87 10000 1.5 30 00:57 24.07.2019
4748 Rain 10 1018 93 10000 1.5 20 00:22 24.07.2019
4749 Rain 9 1018 100 10000 2.6 20 23:42 23.07.2019
4750 Rain 9 1017 100 10000 2.1 40 23:23 23.07.2019
4751 Fog 8 1017 93 10000 1.5 20 22:40 23.07.2019
4752 Fog 8 1017 93 10000 1.5 20 22:20 23.07.2019
4753 Fog 8 1017 100 650 2.1 20 21:58 23.07.2019
4754 Fog 8 1017 100 650 1.5 350 21:40 23.07.2019
4755 Fog 8 1017 100 650 1.5 350 21:21 23.07.2019
4756 Fog 8 1016 93 650 1.5 30 20:47 23.07.2019
4757 Fog 8 1016 93 200 2.1 30 20:21 23.07.2019
4758 Fog 8 1016 100 150 1.5 30 19:42 23.07.2019
4759 Mist 8 1016 100 5000 1.5 60 19:19 23.07.2019
4760 Rain 8 1016 93 10000 1.5 10 18:48 23.07.2019
4761 Rain 9 1016 93 10000 2.1 50 18:24 23.07.2019
4762 Rain 8 1016 93 10000 1.5 50 17:45 23.07.2019
4763 Rain 9 1016 93 10000 1.5 40 17:26 23.07.2019
4764 Rain 9 1017 93 10000 1 150 16:58 23.07.2019
4765 Rain 9 1017 87 10000 0.5 140 16:39 23.07.2019
4766 Rain 9 1017 87 10000 0.5 140 16:19 23.07.2019
4767 Rain 9 1017 93 10000 1.5 160 15:45 23.07.2019
4768 Rain 9 1017 93 10000 1.5 160 15:45 23.07.2019
4769 Rain 10 1017 93 10000 3.6 150 15:24 23.07.2019
4770 Rain 10 1017 93 10000 3.6 160 14:40 23.07.2019
4771 Rain 10 1017 93 10000 3.6 160 14:21 23.07.2019
4772 Rain 10 1017 93 10000 4.1 140 13:58 23.07.2019
4773 Rain 10 1017 93 10000 5.1 140 13:39 23.07.2019
4774 Rain 10 1017 93 10000 5.1 140 13:20 23.07.2019
4775 Rain 10 1017 93 10000 4.1 150 12:48 23.07.2019
4776 Rain 10 1017 93 10000 4.1 150 12:26 23.07.2019
4777 Rain 10 1017 93 10000 3.1 150 11:50 23.07.2019
4778 Rain 10 1017 95 0 5.54 172.364 11:32 23.07.2019
4779 Rain 11 1017 81 10000 4.6 140 10:59 23.07.2019
4780 Rain 11 1017 87 10000 5.1 140 10:40 23.07.2019
4781 Rain 11 1017 87 10000 5.1 140 10:20 23.07.2019
4782 Rain 11 1017 87 10000 5.1 140 09:41 23.07.2019
4783 Rain 11 1017 87 10000 4.6 150 09:19 23.07.2019
4784 Drizzle 11 1017 87 10000 5.1 150 08:43 23.07.2019
4785 Clear 11 1017 87 10000 4.1 160 08:19 23.07.2019
4786 Clear 11 1017 87 10000 4.6 170 07:55 23.07.2019
4787 Clear 11 1017 87 10000 5.1 180 07:34 23.07.2019
4788 Clear 12 1017 87 10000 4.6 150 06:46 23.07.2019
4789 Clear 12 1017 87 10000 4.6 160 06:28 23.07.2019
4790 Clear 12 1018 93 10000 4.1 200 02:57 23.07.2019
4791 Clear 11 1019 87 10000 2.1 160 01:32 23.07.2019
4792 Clear 10 1019 87 10000 2.1 160 00:30 23.07.2019
4793 Clear 8 1018 93 10000 1 200 23:43 22.07.2019
4794 Clear 7 1018 93 10000 1 60 23:22 22.07.2019
4795 Clear 6 1018 100 10000 1 360 22:59 22.07.2019
4796 Clear 7 1018 100 10000 1 360 22:41 22.07.2019
4797 Clear 6 1018 93 10000 1 20 22:20 22.07.2019
4798 Clear 5 1018 100 10000 1 50 21:43 22.07.2019
4799 Clouds 5 1017 93 10000 1 20 21:22 22.07.2019
4800 Clear 5 1017 100 10000 1.5 10 20:49 22.07.2019
4801 Clear 5 1017 93 10000 1.5 20 20:31 22.07.2019
4802 Clear 5 1017 100 10000 1 360 19:57 22.07.2019
4803 Clear 5 1017 100 10000 2.1 30 19:37 22.07.2019
4804 Clear 5 1017 100 10000 2.1 30 19:18 22.07.2019
4805 Clear 5 1017 100 10000 2.1 30 18:44 22.07.2019
4806 Clear 5 1017 93 10000 1.5 40 18:26 22.07.2019
4807 Clear 5 1017 93 10000 1.5 30 17:44 22.07.2019
4808 Clear 5 1017 93 10000 1.5 20 17:26 22.07.2019
4809 Clear 5 1017 100 10000 1.5 20 16:58 22.07.2019
4810 Clear 6 1017 93 10000 1 20 16:38 22.07.2019
4811 Clear 6 1017 93 10000 1 20 16:18 22.07.2019
4812 Clear 6 1017 93 10000 1.5 60 15:43 22.07.2019
4813 Clear 6 1017 93 10000 1 10 15:19 22.07.2019
4814 Clear 6 1017 100 10000 2.1 40 14:44 22.07.2019
4815 Clear 6 1017 93 10000 1.5 350 14:22 22.07.2019
4816 Clear 6 1017 93 10000 1 10 13:50 22.07.2019
4817 Clear 6 1017 93 10000 2.1 50 13:30 22.07.2019
4818 Clear 7 1016 93 10000 1 340 12:50 22.07.2019
4819 Clear 7 1017 93 8000 1.5 10 12:31 22.07.2019
4820 Haze 7 1016 93 4300 1 10 11:55 22.07.2019
4821 Clear 7 1016 93 10000 2.1 50 11:36 22.07.2019
4822 Clear 7 1016 93 10000 2.1 50 11:18 22.07.2019
4823 Clear 8 1016 93 10000 1.5 30 10:34 22.07.2019
4824 Clear 8 1016 93 10000 1.5 30 09:46 22.07.2019
4825 Clear 8 1016 93 10000 1 30 09:26 22.07.2019
4826 Clear 9 1015 87 10000 1.5 40 08:59 22.07.2019
4827 Clear 9 1015 87 10000 0.5 270 08:38 22.07.2019
4828 Clear 9 1015 87 10000 0.5 270 08:19 22.07.2019
4829 Clear 10 1015 87 10000 0.5 190 07:46 22.07.2019
4830 Clear 11 1015 87 10000 1.5 210 07:27 22.07.2019
4831 Clear 13 1015 82 10000 3.6 210 05:20 22.07.2019
4832 Clouds 13 1016 87 10000 4.6 220 02:59 22.07.2019
4833 Fog 11 1016 93 1500 1.5 30 00:59 22.07.2019
4834 Fog 11 1016 100 400 2.1 30 00:39 22.07.2019
4835 Fog 10 1016 100 400 2.1 30 00:20 22.07.2019
4836 Mist 10 1016 100 3000 2.1 10 23:45 21.07.2019
4837 Mist 8 1015 100 4000 2.1 30 22:57 21.07.2019
4838 Clouds 8 1015 100 10000 1.5 30 22:39 21.07.2019
4839 Clouds 8 1015 100 10000 1.5 30 22:20 21.07.2019
4840 Rain 8 1015 93 7000 2.1 10 21:49 21.07.2019
4841 Rain 8 1014 100 8000 1.5 20 21:26 21.07.2019
4842 Rain 8 1014 100 10000 0.5 360 20:57 21.07.2019
4843 Rain 8 1014 100 10000 1 80 20:39 21.07.2019
4844 Rain 9 1014 100 10000 1 80 20:21 21.07.2019
4845 Rain 9 1014 93 10000 1 20 19:48 21.07.2019
4846 Rain 9 1014 93 10000 1 40 19:28 21.07.2019
4847 Rain 9 1014 93 10000 2.1 350 18:51 21.07.2019
4848 Rain 9 1014 93 10000 1.5 30 18:28 21.07.2019
4849 Rain 10 1013 93 10000 0.5 10 17:55 21.07.2019
4850 Rain 10 1013 93 10000 0.5 260 17:36 21.07.2019
4851 Rain 10 1013 93 10000 0.5 260 17:18 21.07.2019
4852 Rain 10 1013 93 10000 1.5 100 16:40 21.07.2019
4853 Rain 10 1013 93 10000 1 40 16:22 21.07.2019
4854 Rain 10 1013 93 10000 1 40 16:22 21.07.2019
4855 Rain 10 1012 93 9000 2.1 330 15:40 21.07.2019
4856 Rain 10 1012 93 9000 2.1 330 15:20 21.07.2019
4857 Rain 10 1012 93 10000 1.5 10 14:44 21.07.2019
4858 Rain 10 1012 93 10000 2.1 40 14:24 21.07.2019
4859 Rain 10 1012 93 10000 2.1 20 13:53 21.07.2019
4860 Rain 10 1012 93 10000 1 360 13:33 21.07.2019
4861 Rain 10 1011 93 10000 2.1 250 12:55 21.07.2019
4862 Rain 10 1011 93 10000 2.1 200 12:37 21.07.2019
4863 Rain 10 1011 93 10000 2.1 200 12:18 21.07.2019
4864 Rain 10 1011 93 10000 0.5 220 11:44 21.07.2019
4865 Rain 10 1010 93 4800 0.5 120 11:25 21.07.2019
4866 Rain 10 1010 87 4300 0.5 50 10:43 21.07.2019
4867 Rain 10 1009 87 10000 1 330 10:23 21.07.2019
4868 Rain 10 1009 87 10000 1.5 350 09:49 21.07.2019
4869 Rain 10 1009 87 10000 2.1 60 09:30 21.07.2019
4870 Rain 10 1008 87 10000 1.5 30 08:45 21.07.2019
4871 Drizzle 11 1007 87 6000 3.6 50 08:27 21.07.2019
4872 Rain 11 1002 89 0 4.33 84.859 07:39 21.07.2019
4873 Rain 11 1006 76 10000 4.1 30 06:54 21.07.2019
4874 Rain 11 1005 81 10000 3.6 20 05:45 21.07.2019
4875 Rain 11 1004 87 10000 3.6 40 02:59 21.07.2019
4876 Rain 12 1004 81 10000 3.1 30 01:33 21.07.2019
4877 Rain 11 1004 87 10000 2.6 40 00:42 21.07.2019
4878 Rain 11 1004 87 10000 2.6 40 00:42 21.07.2019
4879 Rain 11 1003 87 10000 3.1 30 00:19 21.07.2019
4880 Rain 10 1003 93 10000 3.1 30 23:43 20.07.2019
4881 Rain 10 1002 93 10000 2.6 20 23:21 20.07.2019
4882 Rain 9 1002 87 10000 1 340 22:46 20.07.2019
4883 Rain 9 1001 93 10000 2.1 40 22:22 20.07.2019
4884 Rain 9 1001 87 10000 2.1 350 21:57 20.07.2019
4885 Rain 9 1001 87 10000 2.1 330 21:38 20.07.2019
4886 Rain 9 1001 87 10000 2.1 330 21:20 20.07.2019
4887 Rain 9 1000 87 10000 3.1 360 20:41 20.07.2019
4888 Rain 10 999 87 10000 3.1 20 20:19 20.07.2019
4889 Rain 10 999 93 10000 2.6 360 19:45 20.07.2019
4890 Rain 10 999 93 10000 2.6 360 19:45 20.07.2019
4891 Rain 9 999 93 10000 2.1 30 19:20 20.07.2019
4892 Rain 9 999 93 10000 2.6 30 18:43 20.07.2019
4893 Rain 10 999 93 10000 1.5 40 18:20 20.07.2019
4894 Rain 10 999 93 10000 1 30 17:54 20.07.2019
4895 Rain 9 999 100 10000 1.5 10 17:25 20.07.2019
4896 Drizzle 10 999 93 10000 1.5 340 16:44 20.07.2019
4897 Drizzle 10 998 93 10000 2.1 20 16:26 20.07.2019
4898 Rain 10 998 93 10000 1.5 320 15:58 20.07.2019
4899 Rain 10 998 93 10000 0.5 330 15:38 20.07.2019
4900 Rain 9 998 93 10000 0.5 330 15:20 20.07.2019
4901 Rain 9 998 93 10000 1 310 14:47 20.07.2019
4902 Rain 10 999 93 10000 0.5 350 14:28 20.07.2019
4903 Rain 9 999 93 10000 2.6 30 13:39 20.07.2019
4904 Rain 9 999 93 10000 2.6 30 13:20 20.07.2019
4905 Rain 9 999 93 10000 2.6 20 12:57 20.07.2019
4906 Rain 9 999 93 10000 2.1 40 12:26 20.07.2019
4907 Rain 9 999 93 10000 1.5 350 11:57 20.07.2019
4908 Rain 9 999 93 10000 2.6 10 11:27 20.07.2019
4909 Rain 9 999 93 10000 3.1 40 10:58 20.07.2019
4910 Rain 9 999 93 10000 3.1 360 10:37 20.07.2019
4911 Rain 10 999 93 10000 3.1 360 10:18 20.07.2019
4912 Rain 10 999 93 8000 1.5 300 09:45 20.07.2019
4913 Rain 10 999 93 10000 5.7 220 09:22 20.07.2019
4914 Rain 10 999 87 8000 7.2 200 08:46 20.07.2019
4915 Rain 10 999 93 7000 7.7 210 08:20 20.07.2019
4916 Rain 10 999 81 10000 7.7 210 07:21 20.07.2019
4917 Rain 10 999 81 10000 7.7 210 06:42 20.07.2019
4918 Clouds 10 999 87 10000 7.7 200 04:57 20.07.2019
4919 Clouds 10 999 87 10000 8.7 200 04:29 20.07.2019
4920 Rain 11 1000 93 5000 7.2 190 01:21 20.07.2019
4921 Rain 11 1000 93 5000 7.2 190 01:21 20.07.2019
4922 Rain 11 1000 93 6000 7.7 190 00:47 20.07.2019
4923 Rain 11 1000 93 8000 7.2 190 00:23 20.07.2019
4924 Rain 10 1000 100 8000 7.7 190 23:45 19.07.2019
4925 Rain 10 999 100 10000 7.2 180 23:26 19.07.2019
4926 Rain 10 999 100 7000 8.7 180 22:51 19.07.2019
4927 Rain 10 999 100 10000 8.2 170 22:26 19.07.2019
4928 Rain 10 999 100 4900 7.2 170 21:59 19.07.2019
4929 Rain 10 999 93 5000 5.1 170 21:39 19.07.2019
4930 Rain 10 999 93 5000 5.1 170 21:21 19.07.2019
4931 Rain 10 998 93 4100 2.1 140 20:42 19.07.2019
4932 Rain 11 998 93 7000 1 320 20:23 19.07.2019
4933 Rain 11 998 93 8000 1 340 19:37 19.07.2019
4934 Rain 11 998 93 10000 2.6 30 18:47 19.07.2019
4935 Rain 11 998 100 10000 4.1 360 18:26 19.07.2019
4936 Rain 11 998 93 7000 4.6 10 17:58 19.07.2019
4937 Rain 11 998 93 10000 3.6 20 17:40 19.07.2019
4938 Rain 11 998 93 10000 3.6 20 17:21 19.07.2019
4939 Rain 11 998 93 4000 4.6 20 16:47 19.07.2019
4940 Rain 11 998 93 10000 5.1 20 16:24 19.07.2019
4941 Rain 11 998 93 10000 4.6 20 15:47 19.07.2019
4942 Rain 11 997 93 10000 5.1 20 15:29 19.07.2019
4943 Rain 11 997 93 10000 4.1 20 14:55 19.07.2019
4944 Rain 12 998 93 10000 4.1 20 14:37 19.07.2019
4945 Rain 12 998 93 10000 4.1 20 14:19 19.07.2019
4946 Rain 12 998 93 10000 4.6 10 13:42 19.07.2019
4947 Rain 12 997 93 10000 5.7 20 13:22 19.07.2019
4948 Rain 12 997 87 10000 3.1 360 12:48 19.07.2019
4949 Drizzle 12 997 93 10000 2.6 20 12:28 19.07.2019
4950 Rain 12 997 87 10000 2.1 40 11:47 19.07.2019
4951 Rain 11 997 93 10000 1.5 30 11:19 19.07.2019
4952 Rain 11 997 93 10000 2.1 350 10:57 19.07.2019
4953 Rain 11 997 93 10000 2.1 350 10:57 19.07.2019
4954 Rain 12 997 87 10000 1.5 30 10:38 19.07.2019
4955 Rain 11 997 87 10000 1.5 30 10:18 19.07.2019
4956 Rain 11 996 87 10000 0.5 250 09:43 19.07.2019
4957 Rain 12 997 87 10000 1 340 09:22 19.07.2019
4958 Rain 12 997 87 10000 1 340 08:50 19.07.2019
4959 Rain 12 997 87 10000 1.5 20 08:28 19.07.2019
4960 Rain 12 997 93 10000 1 50 07:33 19.07.2019
4961 Rain 12 998 87 10000 1 260 06:37 19.07.2019
4962 Rain 13 998 76 10000 1.5 350 05:26 19.07.2019
4963 Clouds 15 1001 58 10000 3.1 40 01:45 19.07.2019
4964 Clouds 14 1002 67 10000 3.6 30 00:58 19.07.2019
4965 Clouds 13 1002 71 10000 3.6 10 00:21 19.07.2019
4966 Clouds 12 1003 71 10000 5.1 20 23:41 18.07.2019
4967 Clouds 12 1003 71 10000 5.1 20 23:23 18.07.2019
4968 Clouds 12 1003 76 10000 6.2 20 22:55 18.07.2019
4969 Clouds 12 1003 76 10000 4.6 30 22:36 18.07.2019
4970 Rain 12 1003 76 10000 4.6 30 22:18 18.07.2019
4971 Rain 12 1003 76 10000 5.7 20 21:39 18.07.2019
4972 Rain 12 1003 76 10000 5.7 20 21:19 18.07.2019
4973 Clouds 11 1003 81 10000 4.6 20 20:46 18.07.2019
4974 Clouds 11 1003 81 10000 5.1 20 20:25 18.07.2019
4975 Clouds 11 1003 81 10000 5.7 20 19:49 18.07.2019
4976 Clouds 11 1003 81 10000 6.7 20 19:27 18.07.2019
4977 Clouds 11 1004 81 10000 7.7 10 18:52 18.07.2019
4978 Rain 10 1004 81 10000 7.7 10 18:23 18.07.2019
4979 Rain 10 1004 87 10000 7.2 10 17:57 18.07.2019
4980 Rain 10 1004 81 10000 6.7 20 17:37 18.07.2019
4981 Rain 10 1004 81 10000 6.7 20 17:19 18.07.2019
4982 Rain 10 1005 87 10000 6.2 360 16:49 18.07.2019
4983 Rain 9 1005 87 10000 6.2 10 16:25 18.07.2019
4984 Rain 9 1005 93 10000 5.1 20 15:57 18.07.2019
4985 Rain 9 1006 93 10000 8.7 20 15:36 18.07.2019
4986 Clouds 10 1006 87 10000 7.7 20 14:56 18.07.2019
4987 Clouds 10 1006 93 10000 7.7 20 14:38 18.07.2019
4988 Clouds 10 1006 93 10000 7.7 20 14:19 18.07.2019
4989 Rain 11 1006 81 10000 6.2 30 13:38 18.07.2019
4990 Rain 11 1006 81 10000 7.2 40 13:19 18.07.2019
4991 Rain 10 1006 81 10000 6.2 20 12:44 18.07.2019
4992 Clouds 10 1006 76 10000 6.7 20 12:21 18.07.2019
4993 Clouds 10 1006 76 10000 6.7 20 11:51 18.07.2019
4994 Rain 10 1006 76 10000 7.2 10 11:33 18.07.2019
4995 Clouds 11 1006 71 10000 8.2 10 10:52 18.07.2019
4996 Clouds 11 1005 71 10000 8.2 20 10:23 18.07.2019
4997 Clouds 11 1005 71 10000 8.7 10 09:45 18.07.2019
4998 Clouds 11 1005 71 10000 7.2 10 09:23 18.07.2019
4999 Clouds 11 1005 71 10000 6.7 20 08:47 18.07.2019
5000 Clouds 11 1004 66 10000 7.2 360 08:20 18.07.2019
5001 Clouds 11 1004 66 10000 7.7 360 07:39 18.07.2019
5002 Clouds 11 1004 66 10000 5.1 360 07:20 18.07.2019
5003 Clouds 11 1003 66 10000 5.1 350 06:36 18.07.2019
5004 Clouds 12 1003 58 10000 9.3 330 04:21 18.07.2019
5005 Clear 13 1003 58 10000 6.2 350 02:52 18.07.2019
5006 Clear 12 1004 62 10000 6.7 360 01:38 18.07.2019
5007 Clear 12 1003 62 10000 7.2 360 00:35 18.07.2019
5008 Clear 11 1003 66 10000 8.2 20 23:49 17.07.2019
5009 Clear 11 1003 66 10000 7.7 360 23:19 17.07.2019
5010 Clear 10 1002 66 10000 5.7 10 22:55 17.07.2019
5011 Clear 9 1002 71 10000 5.7 20 22:36 17.07.2019
5012 Clear 10 1002 71 10000 5.7 20 22:18 17.07.2019
5013 Clear 8 1001 76 10000 5.7 20 21:43 17.07.2019
5014 Clouds 7 1001 76 10000 5.7 20 21:25 17.07.2019
5015 Clouds 7 1001 76 10000 5.7 360 20:58 17.07.2019
5016 Clouds 7 1000 66 10000 6.2 350 20:39 17.07.2019
5017 Clouds 8 1000 66 10000 6.2 350 20:20 17.07.2019
5018 Clouds 8 1000 66 10000 6.2 350 20:20 17.07.2019
5019 Clouds 7 1000 70 10000 5.1 360 19:43 17.07.2019
5020 Clouds 7 1000 75 10000 3.1 340 19:22 17.07.2019
5021 Clouds 7 1000 75 10000 3.1 340 18:58 17.07.2019
5022 Clouds 7 1000 87 10000 4.1 30 18:40 17.07.2019
5023 Clouds 6 999 87 10000 5.7 20 18:20 17.07.2019
5024 Clouds 7 999 87 10000 5.7 20 17:49 17.07.2019
5025 Clouds 5 999 87 10000 5.7 20 17:25 17.07.2019
5026 Clouds 5 999 87 10000 3.1 30 16:45 17.07.2019
5027 Clouds 5 999 87 10000 3.1 30 16:23 17.07.2019
5028 Clouds 5 999 87 10000 1.5 10 15:52 17.07.2019
5029 Clouds 5 999 87 10000 2.1 20 15:32 17.07.2019
5030 Clouds 5 999 87 10000 2.1 20 15:32 17.07.2019
5031 Clouds 6 999 76 10000 3.1 180 14:58 17.07.2019
5032 Clouds 6 998 71 10000 4.1 190 14:40 17.07.2019
5033 Clouds 6 998 71 10000 4.1 190 14:21 17.07.2019
5034 Clouds 7 998 71 10000 5.1 200 13:59 17.07.2019
5035 Clouds 7 997 76 10000 6.2 190 13:40 17.07.2019
5036 Rain 7 997 76 10000 8.7 200 13:19 17.07.2019
5037 Rain 8 997 76 10000 8.7 190 12:39 17.07.2019
5038 Rain 8 996 81 10000 9.8 200 12:20 17.07.2019
5039 Rain 8 996 76 10000 10.3 200 11:44 17.07.2019
5040 Rain 8 996 76 10000 10.3 200 11:21 17.07.2019
5041 Rain 9 995 81 10000 5.1 220 10:50 17.07.2019
5042 Rain 9 994 76 10000 9.8 200 10:29 17.07.2019
5043 Rain 10 993 71 10000 5.1 190 09:55 17.07.2019
5044 Rain 10 992 76 10000 6.2 180 09:37 17.07.2019
5045 Drizzle 10 991 76 10000 6.2 190 09:18 17.07.2019
5046 Rain 10 990 50 10000 2.6 300 08:41 17.07.2019
5047 Rain 10 990 50 10000 2.6 300 08:21 17.07.2019
5048 Rain 10 989 50 10000 6.7 290 07:47 17.07.2019
5049 Rain 11 989 50 10000 6.7 290 07:23 17.07.2019
5050 Rain 12 988 62 10000 4.1 320 06:46 17.07.2019
5051 Rain 12 988 62 10000 4.1 320 06:46 17.07.2019
5052 Rain 12 988 62 10000 4.1 320 06:28 17.07.2019
5053 Clear 12 988 58 10000 3.6 340 05:43 17.07.2019
5054 Clear 12 988 58 10000 3.6 340 05:23 17.07.2019
5055 Clear 13 987 62 10000 6.2 330 04:29 17.07.2019
5056 Clouds 13 988 62 10000 5.7 340 02:47 17.07.2019
5057 Clouds 13 987 66 10000 6.2 340 01:58 17.07.2019
5058 Clouds 13 987 66 10000 6.2 340 01:24 17.07.2019
5059 Clouds 12 987 71 10000 5.7 350 00:44 17.07.2019
5060 Clouds 12 987 71 10000 5.7 350 00:23 17.07.2019
5061 Clouds 11 987 71 10000 4.6 340 23:55 16.07.2019
5062 Clouds 11 987 71 10000 5.1 350 23:28 16.07.2019
5063 Clouds 11 986 76 10000 5.7 360 22:58 16.07.2019
5064 Clouds 11 986 71 10000 5.1 330 22:39 16.07.2019
5065 Clouds 10 986 76 10000 6.2 330 22:19 16.07.2019
5066 Clouds 11 985 76 10000 5.7 340 21:45 16.07.2019
5067 Rain 10 985 76 10000 5.7 340 21:21 16.07.2019
5068 Clouds 10 985 76 10000 5.1 340 20:58 16.07.2019
5069 Clouds 10 985 76 10000 4.6 340 20:38 16.07.2019
5070 Clouds 10 985 76 10000 4.6 340 20:20 16.07.2019
5071 Clouds 10 985 76 10000 6.2 340 19:46 16.07.2019
5072 Clouds 10 985 76 10000 6.2 340 19:27 16.07.2019
5073 Clouds 10 986 87 10000 6.2 30 18:46 16.07.2019
5074 Rain 10 986 87 10000 6.2 30 18:21 16.07.2019
5075 Rain 10 986 87 10000 7.2 10 17:58 16.07.2019
5076 Rain 9 986 93 10000 6.2 20 17:39 16.07.2019
5077 Rain 9 986 93 10000 6.2 20 17:20 16.07.2019
5078 Rain 9 987 87 5000 4.1 340 16:42 16.07.2019
5079 Rain 10 987 87 5000 4.1 340 16:20 16.07.2019
5080 Rain 10 988 81 10000 7.7 350 15:41 16.07.2019
5081 Rain 10 988 81 10000 7.7 350 15:21 16.07.2019
5082 Rain 11 988 71 10000 6.7 340 14:58 16.07.2019
5083 Rain 11 988 76 10000 7.7 340 14:40 16.07.2019
5084 Drizzle 11 988 76 10000 7.7 340 14:22 16.07.2019
5085 Clouds 11 988 62 10000 8.7 330 13:45 16.07.2019
5086 Clouds 11 988 62 10000 8.7 330 13:24 16.07.2019
5087 Clouds 11 988 66 10000 7.7 340 12:54 16.07.2019
5088 Clouds 11 989 66 10000 7.2 340 12:36 16.07.2019
5089 Clouds 11 989 66 10000 6.7 330 12:18 16.07.2019
5090 Clouds 11 989 71 10000 6.7 340 11:42 16.07.2019
5091 Clouds 11 989 71 10000 6.7 340 11:22 16.07.2019
5092 Clouds 11 989 71 10000 5.1 350 10:47 16.07.2019
5093 Clouds 11 989 71 10000 5.1 350 10:22 16.07.2019
5094 Clouds 11 989 71 10000 5.1 360 09:59 16.07.2019
5095 Clouds 11 988 76 10000 5.1 360 09:40 16.07.2019
5096 Clear 11 988 76 10000 6.2 350 09:19 16.07.2019
5097 Clear 12 988 81 10000 7.2 350 08:42 16.07.2019
5098 Rain 11 988 81 10000 7.2 350 08:20 16.07.2019
5099 Rain 12 988 76 10000 6.7 350 07:42 16.07.2019
5100 Clear 12 988 76 10000 6.7 350 07:24 16.07.2019
5101 Clear 12 988 76 10000 8.7 350 06:49 16.07.2019
5102 Clear 12 988 76 10000 8.7 350 06:31 16.07.2019
5103 Clear 13 987 76 10000 7.7 340 05:39 16.07.2019
5104 Rain 13 987 76 10000 7.7 340 05:21 16.07.2019
5105 Rain 13 988 71 10000 8.7 340 04:19 16.07.2019
5106 Rain 13 988 76 10000 6.7 350 03:21 16.07.2019
5107 Clouds 12 989 71 10000 7.2 340 02:31 16.07.2019
5108 Clouds 12 989 76 10000 10.3 350 01:49 16.07.2019
5109 Rain 11 989 76 10000 8.2 360 00:49 16.07.2019
5110 Rain 11 989 76 10000 8.2 360 00:22 16.07.2019
5111 Rain 11 989 81 8000 8.2 340 23:53 15.07.2019
5112 Rain 11 989 81 10000 9.3 350 23:34 15.07.2019
5113 Rain 11 989 81 2500 8.7 340 22:55 15.07.2019
5114 Rain 11 989 87 10000 8.2 10 22:36 15.07.2019
5115 Rain 11 989 87 10000 9.3 10 22:18 15.07.2019
5116 Rain 11 989 87 10000 7.7 20 21:42 15.07.2019
5117 Rain 11 989 87 10000 8.7 10 21:20 15.07.2019
5118 Rain 11 989 87 10000 8.7 10 21:20 15.07.2019
5119 Rain 11 989 87 10000 8.7 10 20:57 15.07.2019
5120 Rain 11 989 87 10000 8.7 10 20:57 15.07.2019
5121 Rain 11 989 87 10000 10.3 360 20:38 15.07.2019
5122 Rain 11 989 87 10000 10.3 360 20:20 15.07.2019
5123 Rain 11 989 93 3000 12.3 360 19:43 15.07.2019
5124 Rain 11 989 93 3000 12.3 360 19:21 15.07.2019
5125 Rain 10 989 87 3600 13.4 10 18:55 15.07.2019
5126 Rain 10 988 81 6000 16.5 10 18:37 15.07.2019
5127 Rain 10 989 87 10000 12.3 10 18:18 15.07.2019
5128 Rain 10 989 87 10000 12.3 10 18:18 15.07.2019
5129 Rain 10 989 87 10000 12.3 10 18:18 15.07.2019
5130 Rain 10 990 87 7000 13.4 10 17:44 15.07.2019
5131 -273 0 0 0 0 0 17:26 15.07.2019
5132 Rain 10 990 81 10000 14.4 10 16:59 15.07.2019
5133 Rain 11 991 76 10000 12.9 20 16:38 15.07.2019
5134 Rain 11 991 76 10000 12.9 20 16:20 15.07.2019
5135 Rain 11 992 76 10000 11.3 10 15:55 15.07.2019
5136 Rain 11 993 76 10000 11.8 20 15:37 15.07.2019
5137 Rain 11 994 76 10000 11.3 20 15:19 15.07.2019
5138 Rain 11 994 71 10000 11.8 20 14:43 15.07.2019
5139 Rain 11 994 71 10000 11.8 20 14:23 15.07.2019
5140 Rain 11 995 66 10000 12.3 10 13:51 15.07.2019
5141 Rain 12 995 66 10000 10.8 10 13:22 15.07.2019
5142 Rain 12 996 66 10000 11.3 10 12:58 15.07.2019
5143 Rain 12 996 66 10000 10.3 20 12:40 15.07.2019
5144 Clouds 12 997 66 10000 8.7 20 12:20 15.07.2019
5145 Clouds 11 998 71 10000 7.7 20 11:41 15.07.2019
5146 Clouds 11 998 71 10000 7.7 20 11:22 15.07.2019
5147 Clouds 11 999 71 10000 8.2 20 10:45 15.07.2019
5148 Clouds 11 999 71 10000 8.2 20 10:26 15.07.2019
5149 Clouds 12 999 71 10000 9.3 360 09:48 15.07.2019
5150 Clouds 12 999 71 10000 9.3 360 09:26 15.07.2019
5151 Clouds 12 999 71 10000 10.3 360 08:58 15.07.2019
5152 Clouds 12 999 66 10000 8.2 360 08:40 15.07.2019
5153 Clouds 12 999 66 10000 8.2 360 08:22 15.07.2019
5154 Clouds 12 1000 66 10000 7.7 340 07:37 15.07.2019
5155 Clouds 12 1000 62 10000 7.7 340 06:55 15.07.2019
5156 Clouds 12 1000 62 10000 9.3 330 06:33 15.07.2019
5157 Clear 12 1001 54 10000 7.2 340 05:44 15.07.2019
5158 Clear 12 1001 54 10000 7.2 340 05:19 15.07.2019
5159 Clear 12 1001 58 10000 7.2 350 04:41 15.07.2019
5160 Clear 12 1001 50 10000 7.2 360 03:35 15.07.2019
5161 Clear 13 1001 41 10000 6.2 340 02:32 15.07.2019
5162 Clear 13 1001 50 10000 6.2 330 01:41 15.07.2019
5163 Clear 13 1001 50 10000 6.2 330 01:20 15.07.2019
5164 Clear 12 1000 58 10000 5.1 330 00:46 15.07.2019
5165 Clear 12 1000 58 10000 5.1 330 00:19 15.07.2019
5166 Clear 11 999 58 10000 4.6 340 23:42 14.07.2019
5167 Clear 11 999 58 10000 4.6 340 23:21 14.07.2019
5168 Clear 11 998 58 10000 5.7 340 22:59 14.07.2019
5169 Clear 10 998 62 10000 5.1 320 22:40 14.07.2019
5170 Clear 10 998 62 10000 5.1 320 22:21 14.07.2019
5171 Clear 10 998 62 10000 4.1 330 21:57 14.07.2019
5172 Clear 10 998 62 10000 4.1 330 21:57 14.07.2019
5173 Clear 10 997 66 10000 5.1 330 21:39 14.07.2019
5174 Rain 10 997 71 10000 4.6 330 21:18 14.07.2019
5175 Rain 10 996 66 10000 3.6 330 20:39 14.07.2019
5176 Rain 10 996 66 10000 3.6 330 20:21 14.07.2019
5177 Rain 10 996 71 10000 1.5 340 19:59 14.07.2019
5178 Rain 10 996 61 10000 2.1 360 19:39 14.07.2019
5179 Rain 9 996 61 10000 2.1 360 19:21 14.07.2019
5180 Rain 9 995 66 10000 2.6 40 18:43 14.07.2019
5181 Clouds 9 995 66 10000 2.6 40 18:25 14.07.2019
5182 Clouds 9 995 66 10000 3.6 10 17:58 14.07.2019
5183 Clouds 10 995 66 10000 3.6 320 17:39 14.07.2019
5184 Clouds 9 994 71 10000 3.1 340 17:18 14.07.2019
5185 Clouds 10 994 76 10000 1.5 320 16:44 14.07.2019
5186 Clouds 9 994 76 10000 1.5 320 16:21 14.07.2019
5187 Clouds 10 993 71 10000 3.1 340 15:43 14.07.2019
5188 Clouds 10 993 71 10000 3.1 340 15:24 14.07.2019
5189 Rain 10 993 76 10000 5.1 350 14:47 14.07.2019
5190 Rain 11 993 76 10000 5.1 350 14:20 14.07.2019
5191 Clouds 11 992 66 10000 7.2 360 13:47 14.07.2019
5192 Clouds 11 992 66 10000 7.2 360 13:25 14.07.2019
5193 Clouds 11 992 71 10000 5.1 360 12:58 14.07.2019
5194 Clouds 11 992 66 10000 5.1 350 12:40 14.07.2019
5195 Clouds 11 992 71 10000 6.7 330 12:19 14.07.2019
5196 Clouds 11 991 66 10000 6.2 340 11:50 14.07.2019
5197 Clouds 11 991 66 10000 6.2 340 11:20 14.07.2019
5198 Clouds 11 991 66 10000 5.7 340 10:46 14.07.2019
5199 Clouds 11 991 66 10000 5.7 340 10:21 14.07.2019
5200 Clouds 11 990 62 10000 5.1 340 09:48 14.07.2019
5201 Clouds 11 990 62 10000 5.1 340 09:30 14.07.2019
5202 Clouds 11 990 71 10000 6.7 340 08:48 14.07.2019
5203 Clouds 11 990 71 10000 6.7 340 08:30 14.07.2019
5204 Clouds 11 990 66 10000 8.7 340 07:43 14.07.2019
5205 Clouds 12 990 66 10000 8.7 340 07:21 14.07.2019
5206 Rain 12 989 76 10000 9.3 340 05:46 14.07.2019
5207 Rain 12 989 76 10000 11.8 340 03:58 14.07.2019
5208 Rain 11 985 87 0 1.79 39 03:39 14.07.2019
5209 Rain 11 989 76 10000 9.8 340 03:21 14.07.2019
5210 Rain 12 990 82 10000 12.3 360 02:23 14.07.2019
5211 Rain 12 990 87 10000 9.8 30 01:53 14.07.2019
5212 Rain 12 991 87 10000 7.2 20 01:27 14.07.2019
5213 Rain 11 993 93 6000 7.2 350 00:41 14.07.2019
5214 Rain 12 993 93 6000 7.2 350 00:20 14.07.2019
5215 Rain 12 994 93 4200 8.2 340 23:58 13.07.2019
5216 Rain 12 993 87 2300 7.7 340 23:40 13.07.2019
5217 Rain 12 993 87 2300 7.7 340 23:20 13.07.2019
5218 Rain 13 993 87 10000 14.9 10 22:42 13.07.2019
5219 Rain 14 993 87 10000 14.9 10 22:22 13.07.2019
5220 Rain 14 993 77 10000 15.9 360 21:48 13.07.2019
5221 Rain 14 993 77 10000 15.9 360 21:21 13.07.2019
5222 Rain 15 994 77 10000 16.5 350 20:51 13.07.2019
5223 Rain 14 994 82 10000 13.9 360 20:33 13.07.2019
5224 Rain 14 995 82 10000 13.9 360 19:51 13.07.2019
5225 Rain 14 997 82 10000 13.9 350 19:30 13.07.2019
5226 Rain 14 1000 77 10000 11.8 350 18:48 13.07.2019
5227 Rain 14 1000 77 10000 11.8 350 18:28 13.07.2019
5228 Rain 14 1000 87 10000 12.9 360 17:58 13.07.2019
5229 Rain 13 1000 87 10000 12.9 360 17:37 13.07.2019
5230 Rain 13 1001 87 10000 10.3 10 17:18 13.07.2019
5231 Rain 13 1002 76 10000 10.8 20 16:43 13.07.2019
5232 Rain 13 1002 76 10000 10.8 20 16:24 13.07.2019
5233 Rain 14 1003 82 10000 11.3 360 15:46 13.07.2019
5234 Clouds 14 1003 82 10000 11.3 360 15:24 13.07.2019
5235 Clouds 13 1004 82 10000 8.7 30 14:47 13.07.2019
5236 Clouds 13 1004 82 10000 8.7 30 14:28 13.07.2019
5237 Clouds 13 1006 82 10000 10.8 350 13:58 13.07.2019
5238 Clouds 13 1000 87 0 1.34 329 13:40 13.07.2019
5239 Clouds 13 1007 76 10000 12.3 340 13:19 13.07.2019
5240 Clouds 14 1007 76 10000 9.3 350 12:40 13.07.2019
5241 Clouds 14 1007 76 10000 9.3 350 12:22 13.07.2019
5242 Rain 14 1008 76 10000 9.8 350 11:57 13.07.2019
5243 Rain 14 1008 76 9000 8.2 340 11:20 13.07.2019
5244 Rain 14 1008 82 10000 8.7 360 10:55 13.07.2019
5245 Rain 14 1008 82 10000 9.3 350 10:37 13.07.2019
5246 Clouds 14 1009 82 10000 10.3 360 10:18 13.07.2019
5247 Clouds 14 1009 82 10000 8.7 350 09:41 13.07.2019
5248 Clouds 14 1009 82 10000 8.7 350 09:21 13.07.2019
5249 Clouds 13 1009 82 10000 7.7 350 08:45 13.07.2019
5250 Clouds 13 1009 82 10000 7.7 350 08:26 13.07.2019
5251 Clouds 13 1009 76 10000 8.7 350 07:30 13.07.2019
5252 Clouds 13 1009 76 10000 9.3 340 06:54 13.07.2019
5253 Clouds 14 1009 76 10000 9.3 340 06:27 13.07.2019
5254 Clear 14 1009 62 10000 10.8 330 05:37 13.07.2019
5255 Clear 14 1009 62 10000 8.2 350 04:25 13.07.2019
5256 Clear 15 1009 62 10000 8.2 340 03:59 13.07.2019
5257 Clear 15 1009 62 10000 8.2 340 03:39 13.07.2019
5258 Clouds 15 1010 58 10000 8.2 340 02:20 13.07.2019
5259 Clouds 15 1011 67 10000 7.2 360 01:43 13.07.2019
5260 Clouds 15 1011 71 10000 7.2 360 01:20 13.07.2019
5261 Clouds 14 1011 71 10000 7.2 360 00:57 13.07.2019
5262 Clear 13 1010 71 10000 6.2 360 00:20 13.07.2019
5263 Clear 13 1010 71 10000 6.2 10 23:49 12.07.2019
5264 Rain 12 1010 71 10000 6.2 10 23:30 12.07.2019
5265 Rain 12 1010 76 10000 5.7 10 22:56 12.07.2019
5266 Clear 12 1010 76 10000 6.2 20 22:38 12.07.2019
5267 Clear 11 1010 76 10000 6.7 360 22:18 12.07.2019
5268 Clear 11 1010 76 10000 5.1 10 21:41 12.07.2019
5269 Clear 12 1009 76 10000 5.7 20 21:19 12.07.2019
5270 Clear 12 1009 71 10000 5.1 20 20:43 12.07.2019
5271 Clear 12 1009 71 10000 5.1 20 20:22 12.07.2019
5272 Clear 12 1009 76 10000 5.7 40 19:42 12.07.2019
5273 Clear 12 1009 76 10000 5.7 40 19:24 12.07.2019
5274 Clear 12 1008 81 10000 6.7 10 18:49 12.07.2019
5275 Clear 12 1008 81 10000 6.7 10 18:22 12.07.2019
5276 Clear 12 1009 81 10000 5.1 10 17:55 12.07.2019
5277 Clear 12 1008 76 10000 5.7 20 17:37 12.07.2019
5278 Clear 12 1008 76 10000 6.2 30 17:19 12.07.2019
5279 Clear 12 1008 76 10000 5.1 50 16:36 12.07.2019
5280 Clear 12 1008 71 10000 6.2 20 16:18 12.07.2019
5281 Clear 12 1008 71 10000 3.6 360 15:38 12.07.2019
5282 Clouds 12 1007 76 10000 5.7 10 15:19 12.07.2019
5283 Clouds 12 1007 76 10000 6.7 30 14:44 12.07.2019
5284 Clouds 11 1007 71 10000 4.6 40 14:21 12.07.2019
5285 Clouds 11 1007 81 10000 5.1 20 13:47 12.07.2019
5286 Clouds 12 1007 81 10000 5.1 20 13:24 12.07.2019
5287 Clouds 12 1006 76 10000 3.6 20 12:44 12.07.2019
5288 Clouds 12 1006 76 10000 3.6 20 12:24 12.07.2019
5289 Clouds 12 1005 82 10000 5.1 360 11:57 12.07.2019
5290 Clouds 13 1006 82 10000 4.6 350 11:38 12.07.2019
5291 Clouds 13 1005 76 10000 7.7 340 11:19 12.07.2019
5292 Clouds 13 1005 82 10000 8.2 350 10:41 12.07.2019
5293 Clouds 13 1005 82 10000 8.2 350 10:23 12.07.2019
5294 Clouds 13 1005 76 10000 8.2 340 09:53 12.07.2019
5295 Clouds 13 1004 82 10000 8.2 350 09:28 12.07.2019
5296 Rain 12 1005 87 10000 9.8 360 08:51 12.07.2019
5297 Rain 13 1005 87 10000 9.3 10 08:24 12.07.2019
5298 Rain 12 1005 93 10000 8.7 10 07:51 12.07.2019
5299 Rain 12 1005 93 7000 7.7 20 07:29 12.07.2019
5300 Rain 12 1006 82 10000 9.3 360 06:32 12.07.2019
5301 Rain 13 1006 71 10000 7.7 360 05:52 12.07.2019
5302 Clouds 14 1006 76 10000 8.7 360 04:53 12.07.2019
5303 Clouds 14 1006 76 10000 8.7 360 04:53 12.07.2019
5304 Clouds 14 1010 76 10000 7.7 20 02:36 12.07.2019
5305 Rain 13 1011 82 10000 7.2 20 01:37 12.07.2019
5306 Rain 12 1012 87 10000 8.7 360 00:37 12.07.2019
5307 Rain 12 1012 87 10000 7.7 350 00:19 12.07.2019
5308 Rain 12 1012 87 10000 8.2 10 23:42 11.07.2019
5309 Rain 12 1012 87 10000 8.2 10 23:22 11.07.2019
5310 Rain 11 1012 87 10000 6.7 360 22:47 11.07.2019
5311 Rain 11 1012 87 10000 6.7 360 22:25 11.07.2019
5312 Rain 12 1012 82 10000 6.7 350 21:55 11.07.2019
5313 Rain 12 1012 82 10000 5.7 340 21:36 11.07.2019
5314 Rain 12 1013 82 8000 5.1 350 21:18 11.07.2019
5315 Rain 12 1012 82 10000 5.7 330 20:41 11.07.2019
5316 Rain 12 1012 82 10000 5.7 330 20:22 11.07.2019
5317 Rain 12 1012 82 10000 5.7 330 20:22 11.07.2019
5318 Clear 12 1013 82 10000 6.7 330 19:56 11.07.2019
5319 Clear 12 1013 76 10000 5.1 340 19:37 11.07.2019
5320 Clear 12 1013 82 10000 4.6 350 19:19 11.07.2019
5321 Clear 12 1013 82 10000 5.7 350 18:41 11.07.2019
5322 Clear 12 1013 82 10000 5.7 350 18:23 11.07.2019
5323 Clear 12 1014 82 10000 5.7 340 17:48 11.07.2019
5324 Clear 12 1014 82 10000 5.7 340 17:29 11.07.2019
5325 Clear 12 1014 76 10000 6.7 330 16:53 11.07.2019
5326 Clear 12 1014 81 10000 5.7 340 16:25 11.07.2019
5327 Clear 12 1014 76 10000 7.2 350 15:58 11.07.2019
5328 Clear 12 1014 76 10000 6.2 360 15:39 11.07.2019
5329 Clear 12 1014 76 10000 6.2 360 15:20 11.07.2019
5330 Clear 12 1014 76 10000 5.1 350 14:44 11.07.2019
5331 Clear 12 1014 76 10000 5.1 350 14:23 11.07.2019
5332 Clear 11 1015 87 10000 5.7 10 13:48 11.07.2019
5333 Clear 11 1015 87 10000 5.7 10 13:29 11.07.2019
5334 Clear 11 1014 87 10000 5.1 360 12:57 11.07.2019
5335 Clear 11 1015 87 10000 4.6 10 12:37 11.07.2019
5336 Clear 12 1015 81 10000 5.1 360 12:18 11.07.2019
5337 Clear 12 1014 81 10000 5.1 10 11:41 11.07.2019
5338 Clear 12 1014 81 10000 5.1 10 11:23 11.07.2019
5339 Clear 12 1014 81 10000 6.7 10 10:51 11.07.2019
5340 Clear 12 1014 81 10000 5.7 20 10:19 11.07.2019
5341 Clear 12 1014 81 10000 5.7 20 09:49 11.07.2019
5342 Clear 12 1014 81 10000 5.1 10 09:30 11.07.2019
5343 Clear 12 1014 81 10000 5.1 20 08:56 11.07.2019
5344 Clear 12 1014 81 10000 5.7 10 08:36 11.07.2019
5345 Clear 12 1013 76 10000 5.7 20 08:18 11.07.2019
5346 Clear 12 1013 76 10000 7.2 10 07:41 11.07.2019
5347 Clear 12 1013 71 10000 7.7 10 06:49 11.07.2019
5348 Clear 13 1012 62 10000 5.7 350 06:18 11.07.2019
5349 Clear 14 1012 62 10000 6.2 360 05:31 11.07.2019
5350 Clear 14 1012 58 10000 5.1 360 04:56 11.07.2019
5351 Clear 14 1012 67 10000 7.7 320 03:19 11.07.2019
5352 Clear 14 1013 67 10000 6.7 340 01:53 11.07.2019
5353 Clear 13 1013 67 10000 6.7 340 00:32 11.07.2019
5354 Clear 12 1012 71 10000 6.2 350 23:50 10.07.2019
5355 Clear 12 1012 71 10000 6.2 350 23:24 10.07.2019
5356 Clear 12 1012 76 10000 6.7 350 22:54 10.07.2019
5357 Clear 12 1012 76 10000 6.2 350 22:22 10.07.2019
5358 Clear 12 1012 81 10000 7.2 360 21:56 10.07.2019
5359 Clear 12 1011 76 10000 7.2 360 21:38 10.07.2019
5360 Clouds 12 1011 76 10000 6.7 360 21:19 10.07.2019
5361 Clouds 12 1011 76 10000 6.2 350 20:44 10.07.2019
5362 Clouds 12 1011 76 10000 6.2 350 20:26 10.07.2019
5363 Clouds 12 1011 76 10000 4.6 350 19:55 10.07.2019
5364 Clouds 12 1010 76 10000 5.1 340 19:37 10.07.2019
5365 Clouds 12 1010 76 10000 6.7 350 19:19 10.07.2019
5366 Clouds 12 1010 81 10000 8.7 350 18:44 10.07.2019
5367 Clouds 12 1010 81 10000 8.7 350 18:23 10.07.2019
5368 Clouds 12 1010 81 10000 8.7 350 18:23 10.07.2019
5369 Clouds 12 1011 76 10000 5.1 340 17:46 10.07.2019
5370 Clouds 12 1011 76 10000 5.1 340 17:27 10.07.2019
5371 Clouds 12 1010 76 10000 7.7 330 16:47 10.07.2019
5372 Clouds 12 1010 76 10000 7.7 330 16:21 10.07.2019
5373 Clouds 12 1010 76 10000 8.2 340 15:47 10.07.2019
5374 Clouds 12 1010 76 10000 8.2 340 15:26 10.07.2019
5375 Clouds 12 1011 76 10000 8.7 340 14:48 10.07.2019
5376 Clouds 12 1011 76 10000 8.7 340 14:29 10.07.2019
5377 Clouds 12 1010 82 10000 7.7 340 13:59 10.07.2019
5378 Clouds 12 1011 82 10000 8.2 350 13:36 10.07.2019
5379 Clouds 12 1010 82 10000 7.7 350 13:18 10.07.2019
5380 Clouds 12 1011 82 10000 7.7 340 12:41 10.07.2019
5381 Rain 12 1011 82 10000 7.7 340 12:21 10.07.2019
5382 Rain 12 1011 82 10000 8.7 360 11:49 10.07.2019
5383 Rain 12 1011 82 10000 8.7 360 11:22 10.07.2019
5384 Rain 12 1011 93 10000 9.8 350 10:58 10.07.2019
5385 Rain 12 1011 82 10000 9.8 350 10:24 10.07.2019
5386 Rain 12 1011 87 10000 9.3 360 09:56 10.07.2019
5387 Rain 12 1010 82 10000 8.7 20 09:37 10.07.2019
5388 Rain 12 1010 82 10000 9.8 10 09:19 10.07.2019
5389 Rain 12 1010 82 10000 7.7 10 08:48 10.07.2019
5390 Rain 12 1010 82 10000 7.7 10 08:23 10.07.2019
5391 Rain 12 1010 87 10000 5.7 20 07:46 10.07.2019
5392 Rain 12 1010 87 10000 5.7 20 07:23 10.07.2019
5393 Rain 12 1011 81 10000 9.3 360 06:39 10.07.2019
5394 Clouds 12 1010 76 10000 10.3 360 05:40 10.07.2019
5395 Clouds 13 1010 76 10000 8.7 360 04:31 10.07.2019
5396 Rain 12 1012 81 10000 10.3 10 02:18 10.07.2019
5397 Clouds 12 1012 81 10000 9.8 20 00:44 10.07.2019
5398 Clouds 12 1012 81 10000 11.3 10 23:42 09.07.2019
5399 Clouds 11 1012 81 10000 11.3 10 23:24 09.07.2019
5400 Clouds 11 1012 81 10000 9.8 20 22:57 09.07.2019
5401 Clouds 11 1012 81 10000 8.7 20 22:38 09.07.2019
5402 Clouds 11 1012 81 10000 8.7 20 22:20 09.07.2019
5403 Clouds 11 1011 76 10000 7.2 20 21:47 09.07.2019
5404 Clouds 11 1011 76 10000 7.2 20 21:26 09.07.2019
5405 Clouds 11 1012 76 10000 6.7 20 20:55 09.07.2019
5406 Clouds 11 1011 81 10000 6.2 360 20:36 09.07.2019
5407 Clouds 11 1011 81 10000 7.2 360 20:18 09.07.2019
5408 Clouds 11 1011 81 10000 6.2 10 19:37 09.07.2019
5409 Clouds 11 1011 81 10000 5.7 10 19:19 09.07.2019
5410 Clouds 10 1011 81 10000 8.2 360 18:39 09.07.2019
5411 Clouds 11 1011 87 10000 4.6 30 18:19 09.07.2019
5412 Clouds 10 1011 81 10000 6.2 30 17:44 09.07.2019
5413 Clouds 10 1011 81 10000 6.2 30 17:21 09.07.2019
5414 Clouds 10 1011 87 10000 6.2 30 16:58 09.07.2019
5415 Clouds 9 1011 81 10000 6.7 20 16:39 09.07.2019
5416 Clouds 9 1011 81 10000 6.7 20 16:21 09.07.2019
5417 Clouds 8 1011 81 10000 6.2 20 15:41 09.07.2019
5418 Clouds 11 1011 81 10000 6.2 20 15:22 09.07.2019
5419 Clouds 11 1011 81 10000 6.2 30 14:43 09.07.2019
5420 Clouds 11 1011 81 10000 6.2 30 14:23 09.07.2019
5421 Clouds 11 1011 81 10000 5.7 30 13:50 09.07.2019
5422 Clouds 8 1011 81 10000 5.7 30 13:29 09.07.2019
5423 Clouds 8 1010 81 10000 6.2 30 12:59 09.07.2019
5424 Clouds 10 1010 81 10000 5.7 30 12:38 09.07.2019
5425 Clear 10 1010 81 10000 5.7 30 12:19 09.07.2019
5426 Clear 10 1010 81 10000 6.2 30 11:42 09.07.2019
5427 Clear 10 1010 81 10000 6.2 30 11:22 09.07.2019
5428 Clear 10 1009 81 10000 6.7 30 10:59 09.07.2019
5429 Clear 10 1009 81 10000 7.2 30 10:40 09.07.2019
5430 Clear 10 1009 81 10000 7.2 30 10:21 09.07.2019
5431 Clear 11 1009 81 10000 6.2 30 09:38 09.07.2019
5432 Clear 11 1009 81 10000 6.2 30 09:20 09.07.2019
5433 Clear 11 1008 76 10000 7.7 20 08:44 09.07.2019
5434 Clear 11 1008 76 10000 7.7 30 08:18 09.07.2019
5435 Rain 9 1020 81 8000 15.9 190 03:45 05.07.2019
5436 Rain 9 1020 81 8000 15.9 190 03:21 05.07.2019
5437 Rain 8 1020 81 7000 15.9 190 02:52 05.07.2019
5438 Rain 8 1021 87 5000 15.9 190 02:20 05.07.2019
5439 Rain 8 1021 93 3500 17.5 200 01:34 05.07.2019
5440 Rain 8 1021 100 3600 17 200 00:52 05.07.2019
5441 Rain 8 1021 87 3800 16.5 200 00:31 05.07.2019
5442 Rain 8 1020 81 9000 14.9 180 23:40 04.07.2019
5443 Rain 8 1020 71 10000 14.9 190 23:19 04.07.2019
5444 Rain 8 1020 81 10000 14.4 180 22:42 04.07.2019
5445 Rain 8 1020 81 10000 14.4 180 22:23 04.07.2019
5446 Rain 8 1019 90 0 5.36 259 21:45 04.07.2019
5447 Rain 8 1019 76 10000 15.4 170 21:26 04.07.2019
5448 Rain 8 1019 93 5000 14.4 170 20:59 04.07.2019
5449 Rain 8 1019 93 3000 15.4 170 20:38 04.07.2019
5450 Rain 8 1019 93 5000 13.9 180 20:19 04.07.2019
5451 Rain 8 1019 93 5000 13.9 180 20:19 04.07.2019
5452 Rain 8 1019 93 5000 13.9 180 20:19 04.07.2019
5453 Rain 8 1019 76 10000 13.9 170 19:42 04.07.2019
5454 Rain 9 1019 76 10000 13.9 170 19:22 04.07.2019
5455 Rain 9 1019 76 10000 12.9 170 18:55 04.07.2019
5456 Rain 9 1019 81 10000 12.9 180 18:36 04.07.2019
5457 Rain 9 1019 81 10000 12.9 180 18:18 04.07.2019
5458 Rain 9 1020 76 10000 14.4 170 17:41 04.07.2019
5459 Rain 9 1020 81 10000 13.4 180 17:18 04.07.2019
5460 Rain 9 1020 81 10000 13.4 180 17:18 04.07.2019
5461 Rain 9 1020 81 10000 13.9 170 15:55 04.07.2019
5462 Rain 9 1020 76 10000 13.4 170 15:36 04.07.2019
5463 Rain 9 1020 76 10000 13.4 170 15:18 04.07.2019
5464 Rain 9 1021 76 8000 13.4 160 14:41 04.07.2019
5465 Rain 9 1021 76 8000 13.4 160 14:20 04.07.2019
5466 Rain 9 1021 76 10000 14.9 170 13:57 04.07.2019
5467 Rain 9 1021 76 10000 13.9 170 13:39 04.07.2019
5468 Rain 9 1021 81 10000 13.9 170 13:20 04.07.2019
5469 Rain 9 1021 81 10000 14.4 170 12:40 04.07.2019
5470 Rain 9 1021 81 10000 14.4 170 12:21 04.07.2019
5471 Rain 9 1021 76 9000 14.4 170 11:57 04.07.2019
5472 Rain 9 1021 76 10000 12.9 170 11:37 04.07.2019
5473 Rain 9 1016 81 0 1.34 206 11:18 04.07.2019
5474 Rain 10 1021 71 10000 12.9 170 10:39 04.07.2019
5475 Rain 10 1022 76 10000 12.3 170 10:18 04.07.2019
5476 Rain 10 1021 81 10000 12.9 170 09:39 04.07.2019
5477 Rain 10 1021 81 10000 12.9 170 09:20 04.07.2019
5478 Rain 10 1021 71 10000 12.3 170 08:55 04.07.2019
5479 Rain 10 1022 71 10000 11.8 170 08:19 04.07.2019
5480 Rain 10 1022 71 10000 11.3 170 07:43 04.07.2019
5481 Rain 10 1022 71 10000 11.3 170 07:21 04.07.2019
5482 Rain 10 1022 81 10000 11.3 170 06:38 04.07.2019
5483 Rain 11 1022 81 10000 10.8 170 05:50 04.07.2019
5484 Rain 11 1022 81 10000 10.8 170 05:31 04.07.2019
5485 Clouds 13 1023 76 10000 7.2 170 02:41 04.07.2019
5486 Clouds 13 1022 76 10000 6.2 180 01:28 04.07.2019
5487 Clouds 13 1022 76 10000 5.7 190 00:57 04.07.2019
5488 Clouds 13 1022 87 10000 1.5 260 23:56 03.07.2019
5489 Clouds 13 1021 87 10000 2.6 70 23:21 03.07.2019
5490 Clouds 13 1021 87 10000 2.6 60 22:59 03.07.2019
5491 Clouds 13 1020 87 10000 3.1 350 22:39 03.07.2019
5492 Clouds 13 1020 87 10000 3.1 350 22:21 03.07.2019
5493 Clouds 13 1020 87 10000 4.6 360 21:56 03.07.2019
5494 Clouds 13 1020 93 10000 4.1 360 21:37 03.07.2019
5495 Clouds 13 1020 93 10000 4.1 360 21:37 03.07.2019
5496 Clouds 13 1019 93 10000 5.1 360 21:19 03.07.2019
5497 Clouds 13 1019 87 10000 4.6 20 20:41 03.07.2019
5498 Clouds 13 1019 87 10000 4.6 20 20:23 03.07.2019
5499 Clouds 13 1019 87 10000 5.7 360 19:50 03.07.2019
5500 Clouds 13 1019 87 10000 5.7 360 19:31 03.07.2019
5501 Clouds 13 1018 93 10000 7.2 350 18:47 03.07.2019
5502 Clouds 13 1018 93 10000 7.2 350 18:25 03.07.2019
5503 Clouds 14 1018 93 10000 8.7 360 17:55 03.07.2019
5504 Clouds 14 1018 87 10000 7.7 350 17:36 03.07.2019
5505 Rain 14 1019 93 4800 6.2 350 17:18 03.07.2019
5506 Clouds 14 1019 93 10000 8.2 350 16:43 03.07.2019
5507 Rain 15 1019 93 10000 8.2 350 16:20 03.07.2019
5508 Rain 15 1019 93 6000 8.7 360 15:47 03.07.2019
5509 Rain 15 1019 93 6000 8.7 360 15:29 03.07.2019
5510 Rain 15 1019 93 3900 10.3 360 14:52 03.07.2019
5511 Rain 15 1019 93 4400 10.8 360 14:24 03.07.2019
5512 Rain 15 1019 87 10000 10.8 350 13:57 03.07.2019
5513 Rain 15 1019 93 3600 9.3 350 13:32 03.07.2019
5514 Rain 15 1018 93 3600 8.7 350 12:54 03.07.2019
5515 Rain 15 1019 93 3800 10.8 360 12:21 03.07.2019
5516 Rain 15 1019 93 3800 10.8 360 11:58 03.07.2019
5517 Rain 15 1019 93 4900 10.3 10 11:39 03.07.2019
5518 Rain 15 1019 93 4900 10.3 10 11:20 03.07.2019
5519 Rain 15 1019 93 7000 11.8 360 10:41 03.07.2019
5520 Rain 15 1019 93 7000 11.8 360 10:22 03.07.2019
5521 Rain 15 1019 93 10000 12.9 360 09:42 03.07.2019
5522 Rain 15 1019 93 10000 12.9 360 09:21 03.07.2019
5523 Rain 15 1019 87 10000 12.3 350 08:53 03.07.2019
5524 Rain 15 1019 93 10000 9.8 10 08:32 03.07.2019
5525 Rain 15 1019 93 3500 9.3 360 07:57 03.07.2019
5526 Rain 15 1019 97 0 1.79 30 07:36 03.07.2019
5527 Rain 15 1020 87 10000 11.3 360 06:55 03.07.2019
5528 Rain 15 1020 87 5000 12.3 350 05:56 03.07.2019
5529 Rain 15 1019 87 10000 11.8 350 05:24 03.07.2019
5530 Rain 15 1020 87 3800 10.3 10 03:50 03.07.2019
5531 Rain 16 1021 77 10000 10.3 10 02:43 03.07.2019
5532 Rain 16 1021 77 10000 8.7 20 01:37 03.07.2019
5533 Rain 16 1022 77 10000 9.8 10 01:19 03.07.2019
5534 Rain 15 1022 77 10000 12.3 10 00:40 03.07.2019
5535 Rain 15 1022 77 10000 9.8 10 23:54 02.07.2019
5536 Rain 15 1022 77 10000 9.8 10 23:36 02.07.2019
5537 Rain 15 1022 76 10000 8.2 20 23:18 02.07.2019
5538 Rain 14 1022 76 10000 8.2 20 22:41 02.07.2019
5539 Rain 14 1022 76 10000 9.8 20 22:22 02.07.2019
5540 Rain 14 1022 76 10000 9.8 20 21:57 02.07.2019
5541 Drizzle 14 1023 76 10000 9.3 10 21:38 02.07.2019
5542 Drizzle 14 1023 71 10000 8.7 10 21:19 02.07.2019
5543 Clouds 14 1023 71 10000 8.7 10 20:42 02.07.2019
5544 Clouds 14 1023 71 10000 8.2 10 20:24 02.07.2019
5545 Clouds 14 1023 71 10000 8.2 10 19:59 02.07.2019
5546 Clouds 14 1024 71 10000 9.3 10 19:40 02.07.2019
5547 Clouds 14 1024 71 10000 9.3 10 19:20 02.07.2019
5548 Clouds 14 1023 67 10000 10.3 10 18:45 02.07.2019
5549 Clouds 14 1024 62 10000 8.2 10 18:18 02.07.2019
5550 Clouds 14 1025 71 10000 6.7 360 17:40 02.07.2019
5551 Clouds 14 1025 71 10000 7.7 360 17:21 02.07.2019
5552 Clouds 13 1025 71 10000 8.2 10 16:47 02.07.2019
5553 Clouds 13 1025 71 10000 8.2 10 16:29 02.07.2019
5554 Clouds 13 1026 67 10000 7.2 10 15:44 02.07.2019
5555 Clouds 13 1026 67 10000 7.2 10 15:25 02.07.2019
5556 Clouds 13 1027 71 10000 6.2 10 14:51 02.07.2019
5557 Clouds 13 1027 71 10000 6.2 10 14:33 02.07.2019
5558 Clouds 13 1027 71 10000 4.6 10 13:47 02.07.2019
5559 Clouds 14 1027 67 10000 5.1 20 13:23 02.07.2019
5560 Clouds 13 1027 67 10000 4.6 20 12:59 02.07.2019
5561 Clouds 14 1027 67 10000 4.6 20 12:41 02.07.2019
5562 Clouds 14 1028 67 10000 4.6 30 12:18 02.07.2019
5563 Clouds 13 1027 71 10000 5.1 30 11:42 02.07.2019
5564 Clouds 13 1028 71 10000 5.1 20 11:21 02.07.2019
5565 Clouds 13 1028 67 10000 5.1 20 10:47 02.07.2019
5566 Clouds 13 1028 67 10000 5.1 20 10:25 02.07.2019
5567 Clouds 13 1028 71 10000 4.6 30 09:46 02.07.2019
5568 Clouds 13 1028 71 10000 4.1 10 09:22 02.07.2019
5569 Clouds 13 1028 71 10000 4.6 20 08:43 02.07.2019
5570 Clouds 13 1029 67 10000 4.6 350 08:23 02.07.2019
5571 Clouds 13 1028 62 10000 6.2 350 07:54 02.07.2019
5572 Clouds 13 1028 62 10000 6.2 350 07:21 02.07.2019
5573 Clouds 13 1028 62 10000 6.7 10 06:51 02.07.2019
5574 Clouds 14 1029 67 10000 7.2 360 06:30 02.07.2019
5575 Clouds 15 1029 67 10000 8.2 360 04:58 02.07.2019
5576 Clouds 14 1031 82 10000 6.7 360 02:26 02.07.2019
5577 Clouds 13 1031 81 10000 5.7 20 23:55 01.07.2019
5578 Clouds 12 1031 81 10000 5.7 20 23:24 01.07.2019
5579 Clouds 11 1030 81 10000 5.7 10 22:47 01.07.2019
5580 Clouds 10 1030 81 10000 5.7 10 22:27 01.07.2019
5581 Clouds 10 1030 87 10000 4.1 30 21:48 01.07.2019
5582 Clouds 9 1030 87 10000 4.1 30 21:28 01.07.2019
5583 Clouds 9 1030 87 10000 4.1 30 20:53 01.07.2019
5584 Clouds 9 1030 87 10000 4.1 30 20:53 01.07.2019
5585 Clouds 9 1030 87 10000 4.6 30 20:23 01.07.2019
5586 Clouds 9 1030 87 10000 4.6 30 19:59 01.07.2019
5587 Clouds 9 1030 81 10000 6.7 10 19:41 01.07.2019
5588 Clouds 9 1030 76 10000 6.2 20 19:23 01.07.2019
5589 Clouds 9 1030 81 10000 5.7 20 18:53 01.07.2019
5590 Clouds 10 1030 81 10000 5.7 20 18:31 01.07.2019
5591 Clouds 10 1030 87 10000 5.7 30 18:00 01.07.2019
5592 Clouds 9 1030 81 10000 5.7 20 17:41 01.07.2019
5593 Clouds 9 1030 81 10000 5.7 20 17:21 01.07.2019
5594 Clouds 10 1030 87 10000 4.6 30 16:47 01.07.2019
5595 Clouds 10 1030 87 10000 5.1 30 16:26 01.07.2019
5596 Clouds 10 1030 87 10000 5.1 30 16:26 01.07.2019
5597 Clouds 10 1030 81 10000 4.6 40 15:55 01.07.2019
5598 Clouds 10 1030 81 10000 5.1 40 15:36 01.07.2019
5599 Clouds 10 1030 81 10000 5.1 40 15:18 01.07.2019
5600 Clouds 10 1030 87 10000 4.6 30 14:42 01.07.2019
5601 Clouds 10 1030 87 10000 4.6 30 14:19 01.07.2019
5602 Clouds 10 1030 81 10000 5.7 30 13:41 01.07.2019
5603 Clouds 10 1030 81 10000 5.7 30 13:22 01.07.2019
5604 Clouds 11 1030 81 10000 5.7 30 12:49 01.07.2019
5605 Clouds 11 1030 81 10000 5.7 360 12:30 01.07.2019
5606 Clouds 11 1030 82 10000 6.2 350 11:59 01.07.2019
5607 Clouds 11 1030 82 10000 6.2 350 11:39 01.07.2019
5608 Clouds 11 1030 82 10000 6.2 350 11:19 01.07.2019
5609 Clouds 12 1029 82 10000 6.7 360 10:47 01.07.2019
5610 Clouds 12 1029 82 10000 6.7 360 10:23 01.07.2019
5611 Clouds 12 1028 76 10000 9.3 340 09:45 01.07.2019
5612 Clouds 12 1029 71 10000 7.7 350 09:27 01.07.2019
5613 Clouds 13 1029 71 10000 7.2 20 08:59 01.07.2019
5614 Clouds 12 1028 71 10000 7.2 20 08:37 01.07.2019
5615 Clouds 12 1028 71 10000 8.7 20 07:39 01.07.2019
5616 Clouds 13 1028 71 10000 8.2 20 06:52 01.07.2019
5617 Clouds 14 1027 67 10000 10.8 10 05:39 01.07.2019
5618 Clouds 12 1029 71 10000 9.8 10 01:28 01.07.2019
5619 Clouds 12 1029 71 10000 8.2 20 00:44 01.07.2019
5620 Clouds 12 1029 71 10000 8.2 20 00:24 01.07.2019
5621 Clouds 12 1029 76 10000 6.2 20 23:39 30.06.2019
5622 Clouds 11 1029 76 10000 6.2 20 23:19 30.06.2019
5623 Clouds 11 1029 71 10000 8.7 20 22:43 30.06.2019
5624 Clouds 11 1029 71 10000 8.7 20 22:20 30.06.2019
5625 Clouds 10 1029 76 10000 6.7 360 21:41 30.06.2019
5626 Clouds 10 1029 76 10000 6.7 360 21:20 30.06.2019
5627 Rain 9 1029 81 10000 8.2 10 20:55 30.06.2019
5628 Rain 9 1029 81 10000 7.7 20 20:36 30.06.2019
5629 Rain 9 1029 81 10000 7.7 20 20:18 30.06.2019
5630 Clouds 9 1029 81 10000 5.7 20 19:43 30.06.2019
5631 Clouds 9 1029 81 10000 5.7 20 19:24 30.06.2019
5632 Clouds 8 1030 81 10000 5.7 30 18:26 30.06.2019
5633 Clouds 7 1030 81 10000 7.2 10 17:59 30.06.2019
5634 Clouds 7 1030 81 10000 5.1 20 17:38 30.06.2019
5635 Clouds 7 1030 81 10000 5.1 20 17:18 30.06.2019
5636 Clouds 6 1030 87 10000 4.1 30 16:46 30.06.2019
5637 Clouds 5 1030 93 10000 4.1 30 16:26 30.06.2019
5638 Clouds 5 1031 93 10000 2.6 20 15:38 30.06.2019
5639 Clear 6 1031 93 10000 2.6 20 15:19 30.06.2019
5640 Clear 5 1031 93 10000 2.6 20 14:50 30.06.2019
5641 Clear 5 1031 93 10000 1.5 10 14:30 30.06.2019
5642 Clear 6 1032 87 10000 3.1 10 13:48 30.06.2019
5643 Clear 6 1032 87 10000 1.5 350 13:29 30.06.2019
5644 Clear 5 1032 93 10000 3.1 340 12:53 30.06.2019
5645 Clear 6 1032 93 10000 1 30 12:29 30.06.2019
5646 Clear 6 1032 87 10000 1.5 10 11:58 30.06.2019
5647 Clear 7 1033 93 10000 1.5 30 11:39 30.06.2019
5648 Clear 7 1033 93 10000 1.5 30 11:20 30.06.2019
5649 Clear 7 1033 93 10000 1.5 30 11:20 30.06.2019
5650 Clear 6 1032 93 10000 1 10 10:54 30.06.2019
5651 Clear 6 1032 93 6000 2.1 30 10:36 30.06.2019
5652 Clear 6 1032 93 6000 2.1 30 10:18 30.06.2019
5653 Clear 8 1032 87 10000 1.5 40 09:41 30.06.2019
5654 Clear 8 1032 87 10000 1.5 40 09:19 30.06.2019
5655 Clear 7 1032 87 10000 0.5 20 08:40 30.06.2019
5656 Clear 8 1032 87 10000 0.5 20 08:21 30.06.2019
5657 Clear 9 1032 81 10000 1 190 07:42 30.06.2019
5658 Clear 9 1032 81 10000 1 190 07:22 30.06.2019
5659 Clear 10 1032 81 10000 2.6 170 06:33 30.06.2019
5660 Clear 13 1033 62 10000 2.6 360 03:32 30.06.2019
5661 Clouds 14 1034 62 10000 4.6 360 01:53 30.06.2019
5662 Clouds 14 1035 71 10000 4.6 20 00:46 30.06.2019
5663 Clouds 11 1034 71 10000 4.6 30 00:24 30.06.2019
5664 Clouds 10 1034 76 10000 4.1 30 23:48 29.06.2019
5665 Clouds 10 1034 76 10000 4.6 30 23:22 29.06.2019
5666 Clouds 8 1034 81 10000 5.1 30 22:47 29.06.2019
5667 Clouds 9 1033 81 10000 4.1 30 22:23 29.06.2019
5668 Clouds 10 1033 76 10000 4.6 30 21:55 29.06.2019
5669 Clouds 10 1033 81 10000 5.7 30 21:25 29.06.2019
5670 Clouds 10 1033 81 10000 6.2 30 20:56 29.06.2019
5671 Clouds 10 1032 76 10000 6.7 30 20:36 29.06.2019
5672 Clouds 10 1032 76 10000 6.7 30 20:18 29.06.2019
5673 Clouds 10 1033 76 10000 4.6 20 19:41 29.06.2019
5674 Clouds 10 1033 76 10000 4.6 20 19:20 29.06.2019
5675 Clouds 10 1033 76 10000 4.6 20 18:47 29.06.2019
5676 Clouds 10 1033 76 10000 5.7 20 18:24 29.06.2019
5677 Clouds 10 1032 76 10000 5.7 20 17:38 29.06.2019
5678 Clouds 10 1032 76 10000 5.7 20 17:19 29.06.2019
5679 Clouds 11 1032 76 10000 6.7 10 16:43 29.06.2019
5680 Clouds 11 1032 76 10000 6.7 10 16:25 29.06.2019
5681 Clouds 11 1032 76 10000 9.3 10 15:33 29.06.2019
5682 Clear 11 1032 71 10000 8.2 10 14:59 29.06.2019
5683 Clear 11 1032 71 10000 7.7 10 14:40 29.06.2019
5684 Clear 11 1032 71 10000 7.7 10 14:21 29.06.2019
5685 Clear 11 1031 76 10000 8.2 10 13:43 29.06.2019
5686 Clear 11 1031 76 10000 8.2 10 13:24 29.06.2019
5687 Clear 11 1031 76 10000 10.3 10 12:42 29.06.2019
5688 Clear 12 1031 76 10000 10.3 10 12:23 29.06.2019
5689 Clear 12 1031 76 10000 9.3 10 11:48 29.06.2019
5690 Clear 12 1031 76 10000 10.8 10 11:28 29.06.2019
5691 Clear 12 1031 76 10000 9.8 10 10:52 29.06.2019
5692 Clear 12 1031 76 10000 10.8 360 10:26 29.06.2019
5693 Clear 12 1031 76 10000 10.3 360 09:58 29.06.2019
5694 Clear 12 1031 76 10000 11.3 360 09:22 29.06.2019
5695 Clear 12 1031 76 10000 7.7 360 08:36 29.06.2019
5696 Clear 11 1031 71 10000 9.8 360 07:46 29.06.2019
5697 Clear 12 1030 71 10000 10.3 350 07:18 29.06.2019
5698 Clear 12 1031 62 10000 12.3 350 06:40 29.06.2019
5699 Clear 12 1031 62 10000 12.3 350 06:19 29.06.2019
5700 Clear 12 1034 66 10000 8.2 10 01:56 29.06.2019
5701 Clear 11 1034 66 10000 8.2 20 00:57 29.06.2019
5702 Clear 11 1035 62 10000 9.8 10 23:55 28.06.2019
5703 Clear 10 1035 66 10000 9.3 360 23:22 28.06.2019
5704 Clear 10 1035 71 10000 9.8 10 22:50 28.06.2019
5705 Clear 10 1035 71 10000 8.7 20 22:27 28.06.2019
5706 Clear 9 1035 71 10000 9.3 30 21:46 28.06.2019
5707 Clear 8 1035 71 10000 9.3 20 21:20 28.06.2019
5708 Clear 8 1035 76 10000 8.7 20 20:43 28.06.2019
5709 Clear 8 1035 76 10000 8.7 20 20:20 28.06.2019
5710 Clear 8 1035 76 10000 9.8 10 19:43 28.06.2019
5711 Clear 8 1035 76 10000 9.8 10 19:24 28.06.2019
5712 Clear 10 1035 76 10000 8.2 20 18:43 28.06.2019
5713 Clear 7 1035 76 10000 8.2 20 18:22 28.06.2019
5714 Clear 7 1035 76 10000 6.7 30 17:54 28.06.2019
5715 Clear 7 1036 76 10000 6.2 20 17:29 28.06.2019
5716 Clear 9 1036 76 10000 6.2 20 16:48 28.06.2019
5717 Clear 9 1036 81 10000 5.7 30 16:23 28.06.2019
5718 Clear 9 1037 76 10000 5.7 10 15:48 28.06.2019
5719 Clear 6 1037 76 10000 6.2 20 15:19 28.06.2019
5720 Clear 5 1038 81 10000 5.1 20 14:42 28.06.2019
5721 Clear 5 1038 81 10000 5.1 20 14:22 28.06.2019
5722 Clear 4 1038 81 10000 4.6 20 13:50 28.06.2019
5723 Clear 6 1038 81 10000 4.6 20 13:30 28.06.2019
5724 Clear 6 1038 81 10000 3.6 20 12:54 28.06.2019
5725 Clear 6 1038 81 10000 4.6 20 12:36 28.06.2019
5726 Clouds 6 1037 81 10000 4.1 30 11:47 28.06.2019
5727 Clouds 6 1037 87 10000 5.1 360 11:19 28.06.2019
5728 Clouds 5 1037 87 10000 5.1 360 10:43 28.06.2019
5729 Clouds 5 1037 87 10000 5.1 360 10:21 28.06.2019
5730 Clouds 6 1037 87 10000 3.6 360 09:47 28.06.2019
5731 Clouds 6 1037 76 10000 3.1 350 09:29 28.06.2019
5732 Clear 7 1037 81 10000 4.1 10 08:44 28.06.2019
5733 Clear 7 1037 76 10000 4.1 20 08:24 28.06.2019
5734 Clear 8 1036 71 10000 4.6 20 07:45 28.06.2019
5735 Clear 9 1037 66 10000 4.1 20 06:57 28.06.2019
5736 Clear 11 1036 66 10000 5.7 10 05:18 28.06.2019
5737 Clear 10 1037 71 10000 5.7 30 01:21 28.06.2019
5738 Clear 8 1037 81 10000 5.7 360 00:23 28.06.2019
5739 Clear 6 1038 81 10000 5.7 10 23:47 27.06.2019
5740 Clear 5 1037 81 10000 4.1 20 23:25 27.06.2019
5741 Clear 5 1037 87 10000 5.7 10 22:44 27.06.2019
5742 Clear 4 1037 87 10000 5.7 20 22:26 27.06.2019
5743 Clear 4 1037 87 10000 6.2 10 21:59 27.06.2019
5744 Clear 5 1037 87 10000 4.1 360 21:41 27.06.2019
5745 Clear 4 1037 87 10000 4.1 360 21:21 27.06.2019
5746 Clear 4 1037 87 10000 5.1 360 20:49 27.06.2019
5747 Clear 5 1037 93 7000 3.1 330 20:31 27.06.2019
5748 Clear 5 1036 87 10000 4.1 10 19:57 27.06.2019
5749 Clear 5 1036 87 10000 4.1 10 19:57 27.06.2019
5750 Clear 5 1037 93 10000 2.6 340 19:39 27.06.2019
5751 Clear 4 1037 93 10000 2.6 340 19:21 27.06.2019
5752 Clear 4 1036 87 10000 1 30 18:41 27.06.2019
5753 Clear 5 1036 87 10000 1 30 18:19 27.06.2019
5754 Clear 4 1037 87 10000 3.1 10 17:39 27.06.2019
5755 Clear 4 1037 87 10000 3.1 10 17:21 27.06.2019
5756 Clear 2 1037 93 10000 1.5 30 16:39 27.06.2019
5757 Clear 2 1037 93 10000 1.5 30 16:19 27.06.2019
5758 Clear 2 1037 86 10000 2.1 30 15:50 27.06.2019
5759 Clear 2 1037 87 10000 2.1 40 15:30 27.06.2019
5760 Clear 3 1037 87 10000 2.6 30 14:52 27.06.2019
5761 Clear 3 1037 87 10000 2.6 40 14:31 27.06.2019
5762 Clear 1 1037 93 10000 2.6 20 13:57 27.06.2019
5763 Clear 3 1037 87 10000 3.1 20 13:38 27.06.2019
5764 Clear 3 1037 87 10000 3.1 20 13:20 27.06.2019
5765 Clear 3 1037 87 10000 2.6 40 12:41 27.06.2019
5766 Clear 4 1037 87 10000 2.6 40 12:23 27.06.2019
5767 Clear 5 1036 87 10000 2.1 30 11:44 27.06.2019
5768 Clear 5 1036 87 10000 2.1 30 11:21 27.06.2019
5769 Clear 5 1036 93 10000 2.1 30 10:56 27.06.2019
5770 Clear 5 1036 87 10000 2.6 40 10:36 27.06.2019
5771 Clear 5 1036 87 10000 3.6 40 10:18 27.06.2019
5772 Clear 6 1035 81 10000 2.1 20 09:37 27.06.2019
5773 Clear 7 1035 81 10000 2.1 20 09:19 27.06.2019
5774 Clear 7 1035 81 10000 1.5 10 08:45 27.06.2019
5775 Clear 6 1035 76 10000 1 50 08:23 27.06.2019
5776 Clear 8 1035 71 10000 4.1 180 07:40 27.06.2019
5777 Clear 10 1035 71 10000 4.1 180 06:56 27.06.2019
5778 Clear 11 1035 66 10000 4.1 190 06:29 27.06.2019
5779 Clear 12 1035 81 10000 4.1 230 03:50 27.06.2019
5780 Clear 11 1036 81 10000 3.1 220 02:41 27.06.2019
5781 Clear 10 1037 81 10000 1.5 20 01:18 27.06.2019
5782 Clear 9 1037 81 10000 1.5 20 00:47 27.06.2019
5783 Clear 9 1037 81 10000 2.1 30 00:25 27.06.2019
5784 Clear 6 1036 87 10000 3.1 10 23:45 26.06.2019
5785 Clear 5 1036 87 10000 2.1 20 23:22 26.06.2019
5786 Clear 5 1036 87 10000 2.1 20 23:22 26.06.2019
5787 Clear 4 1036 87 10000 2.6 30 22:57 26.06.2019
5788 Clear 4 1036 87 10000 1.5 60 22:38 26.06.2019
5789 Clear 4 1036 87 10000 1.5 60 22:18 26.06.2019
5790 Clear 4 1035 93 10000 2.1 360 21:41 26.06.2019
5791 Clear 4 1035 93 10000 2.1 360 21:20 26.06.2019
5792 Clear 4 1035 93 10000 2.1 50 20:51 26.06.2019
5793 Clear 4 1034 93 10000 1.5 20 20:31 26.06.2019
5794 Clear 4 1034 87 10000 2.1 40 19:59 26.06.2019
5795 Clear 4 1034 87 10000 1.5 30 19:40 26.06.2019
5796 Clear 4 1034 87 10000 1.5 30 19:22 26.06.2019
5797 Clear 5 1034 87 10000 2.1 40 18:45 26.06.2019
5798 Clear 6 1034 87 10000 2.1 40 18:22 26.06.2019
5799 Clear 6 1034 87 10000 2.1 40 17:53 26.06.2019
5800 Clear 6 1034 87 10000 1.5 30 17:27 26.06.2019
5801 Clear 4 1034 93 10000 2.1 40 16:52 26.06.2019
5802 Clear 4 1034 87 10000 1.5 20 16:30 26.06.2019
5803 Clear 5 1033 87 10000 2.1 50 15:58 26.06.2019
5804 Clear 5 1033 87 10000 1.5 360 15:29 26.06.2019
5805 Clear 6 1033 87 10000 0.5 20 14:58 26.06.2019
5806 Clear 6 1033 87 10000 2.1 20 14:37 26.06.2019
5807 Clear 6 1033 87 10000 2.1 20 14:18 26.06.2019
5808 Clear 6 1033 87 10000 2.6 360 13:39 26.06.2019
5809 Clear 6 1033 87 10000 2.6 360 13:19 26.06.2019
5810 Clear 6 1032 87 10000 3.1 360 12:40 26.06.2019
5811 Clear 6 1032 87 10000 3.1 360 12:20 26.06.2019
5812 Clear 6 1032 87 10000 4.6 30 11:42 26.06.2019
5813 Clear 6 1032 87 10000 4.6 30 11:42 26.06.2019
5814 Clear 7 1032 87 10000 4.6 30 11:19 26.06.2019
5815 Clear 7 1032 81 10000 5.1 40 10:39 26.06.2019
5816 Clear 7 1032 81 10000 5.1 40 10:21 26.06.2019
5817 Clear 7 1031 81 10000 4.1 30 09:36 26.06.2019
5818 Clear 7 1031 81 10000 4.1 30 09:18 26.06.2019
5819 Clear 9 1031 81 10000 4.6 30 08:38 26.06.2019
5820 Clouds 9 1031 81 10000 4.6 30 08:19 26.06.2019
5821 Clouds 9 1031 76 10000 3.6 10 07:41 26.06.2019
5822 Clouds 10 1031 71 10000 4.6 360 06:34 26.06.2019
5823 Clouds 12 1032 66 10000 2.6 10 03:52 26.06.2019
5824 Clouds 8 1033 81 10000 3.6 360 00:45 26.06.2019
5825 Clouds 7 1033 87 10000 4.1 360 00:19 26.06.2019
5826 Clouds 5 1033 81 10000 3.1 30 23:39 25.06.2019
5827 Clouds 5 1033 81 10000 3.1 30 23:20 25.06.2019
5828 Clouds 4 1033 87 10000 2.6 30 22:43 25.06.2019
5829 Clouds 4 1033 87 10000 2.6 30 22:24 25.06.2019
5830 Clouds 4 1032 93 10000 2.6 40 21:51 25.06.2019
5831 Clouds 4 1032 87 10000 2.6 20 21:28 25.06.2019
5832 Clear 3 1032 87 10000 2.6 20 20:59 25.06.2019
5833 Rain 3 1031 93 10000 2.1 50 20:37 25.06.2019
5834 Rain 3 1031 93 10000 2.1 50 20:37 25.06.2019
5835 Rain 3 1031 93 10000 2.1 50 20:19 25.06.2019
5836 Clear 3 1031 93 10000 3.6 10 19:45 25.06.2019
5837 Clear 4 1031 87 10000 2.1 30 19:22 25.06.2019
5838 Clear 4 1031 86 10000 2.6 40 18:43 25.06.2019
5839 Clear 4 1031 86 10000 2.6 40 18:25 25.06.2019
5840 Clear 4 1031 93 10000 2.1 40 17:50 25.06.2019
5841 Clear 4 1031 93 10000 2.1 10 17:28 25.06.2019
5842 Clear 4 1031 87 10000 2.1 40 16:55 25.06.2019
5843 Clear 4 1031 87 10000 2.1 30 16:37 25.06.2019
5844 Clear 4 1031 87 10000 2.1 30 16:19 25.06.2019
5845 Clear 4 1031 87 10000 3.6 350 15:40 25.06.2019
5846 Clear 4 1031 87 10000 3.6 350 15:21 25.06.2019
5847 Clear 4 1031 87 10000 2.6 20 14:51 25.06.2019
5848 Clear 4 1031 87 10000 2.6 20 14:51 25.06.2019
5849 Clear 4 1031 87 10000 2.6 40 14:32 25.06.2019
5850 Clear 4 1031 87 10000 2.6 10 13:43 25.06.2019
5851 Clear 4 1031 87 10000 2.6 10 13:24 25.06.2019
5852 Clear 5 1030 87 10000 3.1 10 12:43 25.06.2019
5853 Clear 5 1030 87 10000 3.1 10 12:24 25.06.2019
5854 Clear 5 1030 87 10000 3.1 20 11:47 25.06.2019
5855 Clear 5 1030 87 10000 2.6 20 11:26 25.06.2019
5856 Clear 5 1030 87 10000 2.1 10 10:59 25.06.2019
5857 Clear 6 1030 81 10000 1.5 10 10:38 25.06.2019
5858 Clear 6 1030 81 10000 1.5 10 10:19 25.06.2019
5859 Clear 6 1029 81 10000 2.1 20 09:40 25.06.2019
5860 Clear 7 1029 81 10000 2.1 20 09:22 25.06.2019
5861 Clear 7 1029 81 10000 2.6 30 08:59 25.06.2019
5862 Clear 7 1029 81 10000 2.1 30 08:31 25.06.2019
5863 Haze 8 1029 76 3200 1 360 07:52 25.06.2019
5864 Clear 9 1029 71 10000 0.5 220 07:31 25.06.2019
5865 Clear 9 1029 62 10000 0.5 170 06:51 25.06.2019
5866 Clear 11 1029 66 10000 1 180 06:24 25.06.2019
5867 Clear 11 1029 66 10000 4.6 160 02:44 25.06.2019
5868 Clear 12 1030 66 10000 5.7 170 01:19 25.06.2019
5869 Clear 11 1029 71 10000 5.7 180 00:28 25.06.2019
5870 Clear 10 1029 71 10000 6.7 180 23:52 24.06.2019
5871 Rain 10 1029 76 10000 6.7 170 23:33 24.06.2019
5872 Rain 9 1028 76 10000 7.2 170 22:56 24.06.2019
5873 Clear 9 1028 76 10000 7.2 170 22:37 24.06.2019
5874 Clear 9 1028 76 10000 7.2 170 22:18 24.06.2019
5875 Clear 9 1028 87 10000 7.7 150 21:38 24.06.2019
5876 Clouds 9 1028 87 10000 7.7 150 21:18 24.06.2019
5877 Rain 9 1027 71 10000 8.2 180 20:43 24.06.2019
5878 Rain 9 1027 71 10000 8.2 180 20:23 24.06.2019
5879 Clouds 9 1027 76 10000 7.2 160 19:59 24.06.2019
5880 Clouds 9 1027 76 10000 7.2 160 19:59 24.06.2019
5881 Rain 9 1027 76 10000 8.7 170 19:40 24.06.2019
5882 Rain 9 1027 76 10000 8.7 170 19:21 24.06.2019
5883 Clouds 9 1027 87 10000 7.2 150 18:43 24.06.2019
5884 Clear 9 1027 87 10000 7.2 150 18:24 24.06.2019
5885 Rain 9 1027 76 10000 8.7 170 17:37 24.06.2019
5886 Rain 9 1027 76 10000 8.7 170 17:19 24.06.2019
5887 Rain 9 1027 76 10000 10.3 170 16:45 24.06.2019
5888 Clear 9 1026 76 0 8.7 160 16:20 24.06.2019
5889 Clouds 9 1026 76 10000 8.2 170 15:44 24.06.2019
5890 Clouds 10 1026 76 10000 8.2 170 15:25 24.06.2019
5891 Drizzle 10 1026 76 10000 10.3 160 14:39 24.06.2019
5892 Drizzle 10 1026 76 10000 10.3 160 14:21 24.06.2019
5893 Rain 10 1025 62 10000 8.2 180 13:44 24.06.2019
5894 Clouds 10 1025 66 10000 7.2 180 13:23 24.06.2019
5895 Clouds 10 1024 62 10000 10.3 190 12:42 24.06.2019
5896 Clouds 10 1024 62 10000 10.3 190 12:21 24.06.2019
5897 Clouds 10 1024 62 10000 9.3 180 11:45 24.06.2019
5898 Clouds 10 1023 66 10000 8.7 180 11:27 24.06.2019
5899 Rain 10 1023 62 10000 9.3 190 10:53 24.06.2019
5900 Rain 10 1023 62 10000 9.3 190 10:53 24.06.2019
5901 Clouds 10 1023 62 10000 8.7 190 10:34 24.06.2019
5902 Rain 10 1022 62 10000 8.7 190 09:57 24.06.2019
5903 Rain 10 1022 62 10000 8.7 190 09:57 24.06.2019
5904 Clouds 10 1022 62 10000 8.2 170 09:39 24.06.2019
5905 Clouds 10 1022 62 10000 8.2 170 09:18 24.06.2019
5906 Clouds 10 1021 62 10000 10.3 190 08:36 24.06.2019
5907 Clouds 10 1020 71 10000 9.8 190 07:59 24.06.2019
5908 Clouds 10 1020 66 10000 8.2 180 07:40 24.06.2019
5909 Clouds 10 1020 66 10000 8.2 180 07:21 24.06.2019
5910 Clouds 11 1019 66 10000 8.2 180 06:23 24.06.2019
5911 Clear 11 1018 62 10000 8.7 190 05:40 24.06.2019
5912 Clear 12 1017 62 10000 9.3 190 04:43 24.06.2019
5913 Clear 12 1017 66 10000 9.8 190 03:48 24.06.2019
5914 Rain 11 1017 71 10000 8.7 190 02:36 24.06.2019
5915 Rain 11 1017 66 10000 9.3 190 01:55 24.06.2019
5916 Clear 11 1016 66 10000 9.3 190 01:31 24.06.2019
5917 Clear 11 1016 66 10000 9.8 200 00:46 24.06.2019
5918 Clear 10 1016 66 10000 9.3 190 00:20 24.06.2019
5919 Clear 9 1016 78 0 0.89 196 23:48 23.06.2019
5920 Clear 9 1016 78 0 0.89 196 23:48 23.06.2019
5921 Rain 9 1015 76 10000 6.7 180 23:28 23.06.2019
5922 Rain 9 1015 76 10000 6.7 180 23:28 23.06.2019
5923 Rain 9 1014 71 10000 8.2 170 22:58 23.06.2019
5924 Rain 8 1014 71 10000 7.7 170 22:39 23.06.2019
5925 Rain 9 1014 71 10000 7.7 170 22:19 23.06.2019
5926 Clear 8 1013 76 10000 7.2 180 21:41 23.06.2019
5927 Rain 8 1013 76 10000 7.2 180 21:22 23.06.2019
5928 Rain 9 1013 76 10000 8.7 170 20:51 23.06.2019
5929 Rain 9 1012 66 10000 8.7 170 20:29 23.06.2019
5930 Rain 9 1012 76 10000 8.7 170 19:54 23.06.2019
5931 Rain 9 1012 81 10000 9.3 170 19:36 23.06.2019
5932 Rain 9 1012 81 10000 9.3 170 19:18 23.06.2019
5933 Rain 9 1011 81 10000 9.8 170 18:41 23.06.2019
5934 Rain 9 1011 81 10000 9.8 170 18:19 23.06.2019
5935 Rain 9 1011 81 10000 10.3 170 17:41 23.06.2019
5936 Rain 9 1011 81 10000 10.3 170 17:21 23.06.2019
5937 Rain 9 1011 81 10000 10.3 170 16:44 23.06.2019
5938 Rain 9 1011 81 10000 10.3 170 16:44 23.06.2019
5939 Rain 9 1010 87 9000 9.8 170 16:24 23.06.2019
5940 Rain 9 1010 87 10000 6.2 140 15:43 23.06.2019
5941 Rain 9 1010 87 10000 6.2 140 15:24 23.06.2019
5942 Rain 10 1010 76 10000 9.8 160 14:59 23.06.2019
5943 Rain 10 1009 81 10000 9.8 170 14:37 23.06.2019
5944 Rain 10 1009 81 10000 9.8 170 14:19 23.06.2019
5945 Rain 10 1009 81 10000 9.3 150 13:42 23.06.2019
5946 Rain 9 1009 81 10000 9.3 150 13:20 23.06.2019
5947 Rain 10 1009 87 5000 10.3 150 12:56 23.06.2019
5948 Rain 10 1008 76 10000 8.7 150 12:37 23.06.2019
5949 Rain 10 1008 76 10000 8.7 150 12:18 23.06.2019
5950 Rain 10 1008 76 10000 9.8 160 11:44 23.06.2019
5951 Rain 10 1008 76 10000 9.8 160 11:24 23.06.2019
5952 Rain 10 1008 76 10000 10.8 170 10:47 23.06.2019
5953 Rain 10 1007 76 10000 10.8 160 10:20 23.06.2019
5954 Rain 10 1007 76 10000 11.3 170 09:54 23.06.2019
5955 Rain 10 1007 81 10000 10.8 170 09:22 23.06.2019
5956 Rain 10 1007 81 10000 10.3 160 08:46 23.06.2019
5957 Rain 9 1007 89 0 1.79 194 08:27 23.06.2019
5958 Rain 9 1007 81 10000 8.2 170 07:55 23.06.2019
5959 Rain 9 1007 81 10000 8.2 170 07:55 23.06.2019
5960 Rain 9 1007 76 10000 8.2 150 07:25 23.06.2019
5961 Rain 9 1007 76 1900 7.7 150 06:55 23.06.2019
5962 Rain 9 1007 81 10000 7.2 160 05:59 23.06.2019
5963 Rain 10 1007 81 6000 8.7 140 04:38 23.06.2019
5964 Rain 11 1009 76 10000 5.1 150 02:24 23.06.2019
5965 Rain 11 1009 76 10000 5.1 150 01:37 23.06.2019
5966 Rain 11 1009 76 10000 6.7 160 00:37 23.06.2019
5967 Rain 11 1009 81 10000 6.7 160 23:58 22.06.2019
5968 Rain 11 1009 81 10000 6.2 170 23:39 22.06.2019
5969 Rain 10 1009 81 10000 6.2 170 23:20 22.06.2019
5970 Rain 11 1010 81 10000 5.1 170 22:45 22.06.2019
5971 Rain 10 1010 81 10000 5.1 160 22:24 22.06.2019
5972 Rain 10 1010 87 10000 3.6 160 21:41 22.06.2019
5973 Clouds 10 1010 87 10000 3.6 160 21:20 22.06.2019
5974 Clouds 9 1010 87 10000 3.6 150 20:53 22.06.2019
5975 Rain 9 1010 87 10000 3.1 140 20:26 22.06.2019
5976 Rain 9 1011 87 10000 3.6 150 19:53 22.06.2019
5977 Rain 9 1011 87 10000 3.6 140 19:28 22.06.2019
5978 Rain 9 1011 87 10000 3.6 140 18:59 22.06.2019
5979 Rain 9 1011 87 10000 3.1 150 18:40 22.06.2019
5980 Clouds 9 1011 87 10000 3.1 150 18:19 22.06.2019
5981 Clouds 9 1012 87 10000 3.1 160 17:38 22.06.2019
5982 Clouds 9 1012 87 10000 3.1 160 17:38 22.06.2019
5983 Clouds 9 1012 87 10000 3.1 160 17:19 22.06.2019
5984 Clouds 8 1011 93 10000 0.5 170 16:39 22.06.2019
5985 Clouds 8 1011 93 10000 0.5 170 16:21 22.06.2019
5986 Clouds 8 1012 87 10000 1.5 20 15:41 22.06.2019
5987 Clouds 8 1012 87 10000 1.5 20 15:23 22.06.2019
5988 Clouds 8 1012 93 10000 1.5 50 14:46 22.06.2019
5989 Clouds 8 1012 93 10000 1 360 14:28 22.06.2019
5990 Clouds 8 1012 93 10000 1 20 13:44 22.06.2019
5991 Clouds 8 1012 87 10000 2.1 40 13:26 22.06.2019
5992 Clouds 8 1012 87 10000 1 60 12:54 22.06.2019
5993 Clouds 9 1012 87 10000 0.5 130 12:36 22.06.2019
5994 Clouds 8 1012 87 10000 1 80 11:59 22.06.2019
5995 Clouds 8 1012 81 10000 1.5 140 11:36 22.06.2019
5996 Clouds 9 1012 87 10000 1.5 140 10:54 22.06.2019
5997 Clouds 8 1012 87 10000 2.1 170 10:22 22.06.2019
5998 Clouds 8 1012 87 10000 1.5 150 09:55 22.06.2019
5999 Clouds 8 1012 87 10000 1.5 140 09:27 22.06.2019
6000 Clouds 9 1012 81 10000 2.6 160 08:44 22.06.2019
6001 Clouds 9 1012 81 10000 2.6 160 08:25 22.06.2019
6002 Clouds 10 1011 87 10000 3.6 180 07:36 22.06.2019
6003 Clouds 11 1011 81 10000 3.1 190 06:58 22.06.2019
6004 Clouds 11 1011 76 10000 3.6 210 06:31 22.06.2019
6005 Clouds 12 1011 71 10000 2.6 360 02:38 22.06.2019
6006 Clouds 11 1012 76 10000 2.6 350 01:35 22.06.2019
6007 Clouds 11 1011 71 10000 4.6 10 00:47 22.06.2019
6008 Clouds 11 1011 71 10000 3.6 30 00:22 22.06.2019
6009 Clouds 10 1011 76 10000 5.1 30 23:45 21.06.2019
6010 Clouds 10 1011 76 10000 5.7 10 23:22 21.06.2019
6011 Clouds 7 1011 81 10000 5.1 30 22:53 21.06.2019
6012 Clouds 8 1011 76 10000 5.1 30 22:25 21.06.2019
6013 Clouds 8 1010 76 10000 5.7 30 21:55 21.06.2019
6014 Clouds 8 1010 76 10000 6.2 30 21:37 21.06.2019
6015 Clouds 8 1010 76 10000 6.2 30 21:18 21.06.2019
6016 Clouds 9 1010 76 10000 6.2 30 20:45 21.06.2019
6017 Clouds 9 1010 76 10000 6.2 20 20:22 21.06.2019
6018 Clouds 11 1010 71 10000 6.7 30 19:37 21.06.2019
6019 Clouds 11 1010 66 10000 6.7 30 18:55 21.06.2019
6020 Clouds 11 1010 66 10000 7.7 10 18:34 21.06.2019
6021 Clouds 12 1010 62 10000 8.7 10 17:48 21.06.2019
6022 Clouds 12 1010 62 10000 8.7 360 17:30 21.06.2019
6023 Clouds 12 1010 62 10000 8.2 20 16:42 21.06.2019
6024 Clouds 12 1010 62 10000 8.2 20 16:23 21.06.2019
6025 Clouds 11 1010 66 10000 6.2 20 15:53 21.06.2019
6026 Clouds 11 1011 71 10000 6.7 20 15:33 21.06.2019
6027 Clear 11 1011 76 10000 7.7 10 14:53 21.06.2019
6028 Clear 12 1011 76 10000 5.7 30 14:31 21.06.2019
6029 Clear 12 1011 81 10000 4.6 30 13:59 21.06.2019
6030 Clear 12 1011 81 10000 5.7 30 13:36 21.06.2019
6031 Clear 12 1011 81 10000 5.7 30 13:18 21.06.2019
6032 Clear 12 1011 81 10000 7.7 10 12:42 21.06.2019
6033 Clear 12 1011 81 10000 7.7 10 12:22 21.06.2019
6034 Clear 12 1011 87 10000 7.2 10 11:48 21.06.2019
6035 Clear 12 1011 76 10000 8.7 20 11:27 21.06.2019
6036 Clear 12 1011 76 10000 7.2 20 10:56 21.06.2019
6037 Clear 12 1011 82 10000 8.2 10 10:38 21.06.2019
6038 Clear 13 1011 82 10000 8.2 10 10:19 21.06.2019
6039 Clear 13 1011 87 10000 7.2 360 09:41 21.06.2019
6040 Clear 12 1011 87 10000 7.2 360 09:21 21.06.2019
6041 Clear 13 1011 82 10000 6.7 10 08:44 21.06.2019
6042 Clear 12 1011 76 10000 5.7 20 08:24 21.06.2019
6043 Clear 13 1010 76 10000 8.2 10 07:54 21.06.2019
6044 Clear 13 1010 76 10000 9.3 350 07:36 21.06.2019
6045 Clear 13 1010 76 10000 10.3 360 06:54 21.06.2019
6046 Clear 14 1010 71 10000 9.8 360 06:23 21.06.2019
6047 Clear 14 1010 72 10000 9.8 350 05:30 21.06.2019
6048 Clear 14 1010 72 10000 8.7 350 04:30 21.06.2019
6049 Clear 14 1011 67 10000 7.7 340 03:34 21.06.2019
6050 Clouds 14 1011 72 10000 8.2 350 02:53 21.06.2019
6051 Clouds 14 1012 67 10000 8.2 360 01:53 21.06.2019
6052 Clouds 13 1012 82 10000 8.2 360 00:56 21.06.2019
6053 Clouds 13 1012 87 10000 8.2 360 00:23 21.06.2019
6054 Clouds 13 1011 82 10000 9.3 350 23:49 20.06.2019
6055 Clouds 12 1011 82 10000 7.7 350 23:23 20.06.2019
6056 Clouds 12 1011 87 10000 9.3 360 22:58 20.06.2019
6057 Rain 12 1010 87 10000 8.7 360 22:39 20.06.2019
6058 Rain 13 1010 87 10000 8.7 360 22:20 20.06.2019
6059 Rain 12 1011 93 10000 6.7 10 21:49 20.06.2019
6060 Rain 12 1010 87 10000 8.2 10 21:19 20.06.2019
6061 Rain 12 1010 82 10000 11.3 360 20:50 20.06.2019
6062 Rain 12 1010 87 10000 10.3 10 20:27 20.06.2019
6063 Rain 12 1010 87 10000 9.8 10 19:59 20.06.2019
6064 Rain 12 1011 87 8000 6.7 20 19:39 20.06.2019
6065 Rain 11 1011 87 8000 6.7 20 19:18 20.06.2019
6066 Rain 11 1011 87 10000 6.7 20 18:43 20.06.2019
6067 Rain 11 1011 87 10000 6.7 20 18:23 20.06.2019
6068 Rain 10 1012 93 10000 6.2 20 17:56 20.06.2019
6069 Rain 10 1012 93 10000 7.2 20 17:38 20.06.2019
6070 Rain 10 1013 93 10000 7.2 20 16:57 20.06.2019
6071 Rain 10 1013 93 8000 6.7 20 16:39 20.06.2019
6072 Rain 10 1013 93 8000 6.7 20 16:19 20.06.2019
6073 Rain 10 1013 93 8000 6.7 20 16:18 20.06.2019
6074 Rain 10 1015 76 10000 7.2 10 15:42 20.06.2019
6075 -273 0 0 0 0 0 15:42 20.06.2019
6076 Rain 11 1015 76 10000 7.2 10 15:22 20.06.2019
6077 Rain 11 1015 66 10000 5.1 10 14:50 20.06.2019
6078 Rain 11 1015 66 10000 6.2 10 14:24 20.06.2019
6079 Rain 11 1015 62 10000 6.7 20 13:42 20.06.2019
6080 Rain 11 1015 62 10000 6.7 20 13:21 20.06.2019
6081 Rain 11 1016 58 10000 8.2 20 12:54 20.06.2019
6082 Rain 11 1016 58 10000 7.7 20 12:36 20.06.2019
6083 Clouds 12 1016 58 10000 7.7 20 12:18 20.06.2019
6084 Clouds 11 1017 62 10000 4.1 30 11:39 20.06.2019
6085 Clouds 11 1017 62 10000 4.1 30 11:20 20.06.2019
6086 Clouds 10 1017 66 10000 4.1 10 10:42 20.06.2019
6087 Clouds 11 1017 66 10000 4.1 10 10:23 20.06.2019
6088 Clouds 10 1018 66 10000 4.1 10 09:41 20.06.2019
6089 Clouds 10 1018 66 10000 4.1 10 09:41 20.06.2019
6090 Clouds 10 1018 66 10000 4.1 10 09:23 20.06.2019
6091 Clouds 10 1018 62 10000 4.1 20 08:48 20.06.2019
6092 Clouds 10 1018 66 10000 4.6 20 08:28 20.06.2019
6093 Clouds 10 1019 62 10000 5.1 20 07:55 20.06.2019
6094 Clouds 11 1019 66 10000 4.6 20 07:31 20.06.2019
6095 Clouds 11 1019 62 10000 5.7 10 06:57 20.06.2019
6096 Clouds 11 1019 62 10000 7.2 10 06:18 20.06.2019
6097 Clouds 12 1021 54 10000 6.2 360 03:39 20.06.2019
6098 Clouds 10 1024 61 10000 5.1 20 00:44 20.06.2019
6099 Clouds 9 1024 61 10000 5.1 20 00:25 20.06.2019
6100 Clouds 8 1024 70 10000 5.1 40 23:42 19.06.2019
6101 Clouds 7 1024 70 10000 5.1 40 23:24 19.06.2019
6102 Clouds 6 1024 75 10000 5.7 40 22:48 19.06.2019
6103 Clouds 6 1024 75 10000 5.1 30 22:24 19.06.2019
6104 Clouds 5 1024 81 10000 4.6 40 21:55 19.06.2019
6105 Clouds 5 1024 81 10000 4.6 40 21:55 19.06.2019
6106 Clouds 5 1024 87 10000 4.6 30 21:36 19.06.2019
6107 Clouds 5 1024 87 10000 4.6 30 21:18 19.06.2019
6108 Clouds 5 1024 81 10000 5.7 30 20:39 19.06.2019
6109 Clouds 5 1024 81 10000 5.7 30 20:20 19.06.2019
6110 Clouds 5 1024 81 10000 5.7 30 19:42 19.06.2019
6111 Clouds 5 1024 81 10000 5.7 30 19:23 19.06.2019
6112 Clouds 4 1024 81 10000 4.1 20 18:55 19.06.2019
6113 Clear 4 1024 81 10000 4.6 10 18:22 19.06.2019
6114 Clear 4 1025 87 10000 3.6 30 17:42 19.06.2019
6115 Clear 4 1025 87 10000 3.6 30 17:23 19.06.2019
6116 Clear 3 1025 86 10000 2.1 10 16:43 19.06.2019
6117 Clear 3 1025 86 10000 2.1 10 16:22 19.06.2019
6118 Clear 4 1025 87 10000 2.6 20 15:58 19.06.2019
6119 Clear 4 1025 87 10000 4.6 20 15:31 19.06.2019
6120 Clear 4 1026 87 10000 3.6 10 14:59 19.06.2019
6121 Clear 4 1026 93 10000 1.5 30 14:41 19.06.2019
6122 Clear 4 1026 93 10000 1.5 30 14:21 19.06.2019
6123 Rain 4 1026 93 10000 2.6 30 13:43 19.06.2019
6124 Rain 4 1026 93 10000 2.6 30 13:25 19.06.2019
6125 Clear 4 1026 93 10000 2.1 360 12:47 19.06.2019
6126 Clear 4 1026 93 10000 2.6 360 12:22 19.06.2019
6127 Clear 4 1026 93 10000 1.5 20 11:57 19.06.2019
6128 Clear 6 1026 87 10000 1.5 10 11:38 19.06.2019
6129 Clear 6 1026 87 10000 1.5 10 11:20 19.06.2019
6130 Clear 5 1026 87 10000 2.1 20 10:45 19.06.2019
6131 Clear 5 1026 87 10000 1.5 10 10:27 19.06.2019
6132 Clear 6 1026 87 10000 1.5 30 09:50 19.06.2019
6133 Clear 6 1026 87 10000 1 360 09:23 19.06.2019
6134 Clear 6 1026 81 10000 1.5 30 08:55 19.06.2019
6135 Clear 7 1026 81 10000 1.5 360 08:37 19.06.2019
6136 Clear 7 1026 81 10000 1.5 360 08:19 19.06.2019
6137 Clear 8 1026 76 10000 2.1 30 07:42 19.06.2019
6138 Clear 9 1026 76 10000 1.5 350 06:59 19.06.2019
6139 Clear 10 1026 71 10000 0.5 260 06:35 19.06.2019
6140 Clear 10 1026 71 10000 1.5 210 05:50 19.06.2019
6141 Clear 11 1026 71 10000 2.1 180 04:47 19.06.2019
6142 Clear 11 1026 76 10000 2.6 170 03:48 19.06.2019
6143 Clear 10 1027 71 10000 1 160 02:34 19.06.2019
6144 Clear 11 1028 71 10000 1.5 360 01:29 19.06.2019
6145 Clear 9 1028 76 10000 2.6 350 00:52 19.06.2019
6146 Clear 10 1028 76 10000 2.1 10 00:34 19.06.2019
6147 Clear 8 1028 87 10000 2.6 40 23:58 18.06.2019
6148 Clear 7 1027 81 10000 1.5 20 23:30 18.06.2019
6149 Clouds 6 1027 87 10000 1.5 20 22:55 18.06.2019
6150 Clouds 7 1027 87 10000 2.1 50 22:37 18.06.2019
6151 Clouds 6 1027 87 10000 2.1 50 22:19 18.06.2019
6152 Clear 6 1026 76 10000 1.5 40 21:44 18.06.2019
6153 Clear 6 1026 76 10000 1.5 40 21:21 18.06.2019
6154 Clear 6 1026 71 10000 2.6 240 20:55 18.06.2019
6155 Clear 6 1026 76 9000 3.6 240 20:37 18.06.2019
6156 Clear 6 1026 76 9000 3.6 240 20:18 18.06.2019
6157 Clear 6 1026 76 9000 3.6 240 20:18 18.06.2019
6158 Clear 6 1026 76 10000 5.1 230 19:39 18.06.2019
6159 Clear 6 1026 76 10000 5.1 230 19:20 18.06.2019
6160 Clear 6 1026 76 10000 5.1 230 18:46 18.06.2019
6161 Clear 6 1026 76 10000 6.2 190 18:25 18.06.2019
6162 Clear 6 1026 71 10000 6.2 190 17:42 18.06.2019
6163 Clear 6 1026 71 10000 6.2 190 17:21 18.06.2019
6164 Clear 7 1026 76 10000 5.7 190 16:57 18.06.2019
6165 Clear 7 1026 66 10000 6.7 180 16:38 18.06.2019
6166 Clear 7 1026 66 10000 6.7 180 16:20 18.06.2019
6167 Clear 7 1025 71 10000 6.7 180 15:38 18.06.2019
6168 Clear 7 1025 71 10000 6.7 180 15:20 18.06.2019
6169 Clear 8 1025 71 10000 6.7 180 14:55 18.06.2019
6170 Clear 9 1025 71 10000 7.2 190 14:36 18.06.2019
6171 Clear 8 1025 71 10000 7.2 190 14:18 18.06.2019
6172 Clear 9 1025 71 10000 7.7 180 13:41 18.06.2019
6173 Clear 8 1025 71 10000 7.7 180 13:22 18.06.2019
6174 Clear 9 1025 66 10000 9.8 180 12:44 18.06.2019
6175 Clear 9 1025 66 10000 9.8 180 12:25 18.06.2019
6176 Clear 9 1025 66 10000 9.3 180 11:47 18.06.2019
6177 Clear 9 1024 71 10000 9.8 180 11:23 18.06.2019
6178 Clear 9 1024 71 10000 9.3 170 10:57 18.06.2019
6179 Clear 9 1024 66 10000 10.3 180 10:38 18.06.2019
6180 Clear 9 1024 66 10000 10.3 180 10:19 18.06.2019
6181 Clear 9 1024 71 10000 10.3 180 09:49 18.06.2019
6182 Clear 9 1024 66 10000 10.3 180 09:24 18.06.2019
6183 Clear 9 1023 71 10000 10.3 180 08:47 18.06.2019
6184 Clear 9 1023 62 10000 9.8 180 08:21 18.06.2019
6185 Clear 9 1023 66 10000 9.3 180 07:45 18.06.2019
6186 Clear 9 1023 66 10000 9.8 180 07:24 18.06.2019
6187 Clear 9 1022 71 10000 8.7 170 06:45 18.06.2019
6188 Clear 11 1022 66 10000 8.2 180 05:21 18.06.2019
6189 Clear 11 1021 66 10000 9.3 180 03:59 18.06.2019
6190 Clear 10 1021 71 10000 10.3 190 01:59 18.06.2019
6191 Clear 10 1021 71 10000 10.8 190 01:25 18.06.2019
6192 Clear 10 1021 66 10000 12.3 200 00:56 18.06.2019
6193 Clear 10 1020 66 10000 12.9 200 00:30 18.06.2019
6194 Clear 9 1020 62 10000 13.4 200 23:42 17.06.2019
6195 Clear 10 1020 62 10000 13.4 200 23:20 17.06.2019
6196 Clear 7 1019 62 10000 13.9 200 22:58 17.06.2019
6197 Clear 9 1019 62 10000 13.4 200 22:38 17.06.2019
6198 Clear 5 1019 62 10000 13.4 200 22:20 17.06.2019
6199 Clear 4 1018 66 10000 12.3 200 21:42 17.06.2019
6200 Clouds 4 1018 66 10000 12.3 200 21:22 17.06.2019
6201 Clouds 4 1018 87 10000 1.5 40 20:39 17.06.2019
6202 Clouds 4 1018 87 10000 1.5 40 20:20 17.06.2019
6203 Clouds 4 1018 87 10000 1 10 19:54 17.06.2019
6204 Clouds 4 1017 87 10000 1.5 30 19:36 17.06.2019
6205 Clouds 4 1017 87 10000 1.5 30 19:18 17.06.2019
6206 Clouds 4 1017 75 10000 2.6 50 18:38 17.06.2019
6207 Clouds 5 1017 61 10000 3.6 280 18:18 17.06.2019
6208 Clouds 5 1017 61 10000 3.6 280 18:18 17.06.2019
6209 Clouds 5 1017 61 10000 3.6 280 18:18 17.06.2019
6210 Clouds 4 1017 61 10000 3.6 280 17:47 17.06.2019
6211 Clouds 4 1017 61 10000 3.6 280 17:29 17.06.2019
6212 Clouds 4 1017 61 10000 3.6 260 16:55 17.06.2019
6213 Clouds 4 1016 70 7000 2.1 280 16:37 17.06.2019
6214 Clouds 4 1016 70 9000 3.1 290 16:19 17.06.2019
6215 Clouds 5 1016 66 10000 4.6 230 15:43 17.06.2019
6216 Clouds 7 1015 62 10000 6.7 220 15:20 17.06.2019
6217 Clouds 7 1015 62 10000 6.7 220 14:55 17.06.2019
6218 Clouds 7 1015 62 10000 8.7 210 14:34 17.06.2019
6219 Clouds 7 1015 57 10000 9.3 200 13:58 17.06.2019
6220 Clouds 7 1015 62 10000 8.7 190 13:39 17.06.2019
6221 Clouds 7 1015 57 10000 8.2 190 13:20 17.06.2019
6222 Clouds 7 1014 57 10000 8.7 190 12:39 17.06.2019
6223 Rain 7 1014 57 10000 7.7 190 12:19 17.06.2019
6224 Rain 6 1014 61 10000 6.2 180 11:43 17.06.2019
6225 Rain 7 1014 61 10000 6.2 180 11:24 17.06.2019
6226 Rain 8 1013 57 10000 8.7 170 10:47 17.06.2019
6227 Rain 8 1013 57 10000 8.7 170 10:29 17.06.2019
6228 Rain 8 1013 66 10000 12.3 180 09:56 17.06.2019
6229 Rain 8 1012 71 10000 4.1 160 09:33 17.06.2019
6230 Clear 8 1011 66 10000 0.5 350 08:48 17.06.2019
6231 Clear 8 1011 66 10000 0.5 350 08:25 17.06.2019
6232 Clear 9 1011 61 10000 1 220 07:58 17.06.2019
6233 Clear 9 1010 57 10000 1.5 160 07:32 17.06.2019
6234 Clear 11 1010 54 10000 2.1 170 06:59 17.06.2019
6235 Rain 11 1010 54 10000 1.5 210 06:18 17.06.2019
6236 Rain 12 1010 54 10000 2.6 180 05:26 17.06.2019
6237 Rain 13 1010 47 10000 2.6 210 04:30 17.06.2019
6238 Rain 12 1010 54 10000 4.1 230 03:31 17.06.2019
6239 Clear 13 1010 47 10000 5.1 260 02:44 17.06.2019
6240 Clear 13 1010 47 10000 5.1 260 02:26 17.06.2019
6241 Clear 12 1010 47 10000 2.1 250 01:36 17.06.2019
6242 Clear 12 1010 54 10000 5.7 320 00:57 17.06.2019
6243 Clear 12 1010 50 10000 4.6 320 00:37 17.06.2019
6244 Clear 11 1010 54 10000 3.6 340 00:18 17.06.2019
6245 Clear 10 1009 53 10000 3.6 350 23:39 16.06.2019
6246 Clear 10 1009 53 10000 3.6 10 23:20 16.06.2019
6247 Clear 9 1009 57 10000 3.6 340 22:45 16.06.2019
6248 Clear 10 1009 53 10000 4.6 340 22:20 16.06.2019
6249 Clear 10 1009 53 10000 4.6 340 21:57 16.06.2019
6250 Clear 10 1008 53 10000 4.1 330 21:39 16.06.2019
6251 Clear 10 1008 57 10000 3.1 340 21:20 16.06.2019
6252 Clear 10 1008 61 10000 4.1 360 20:40 16.06.2019
6253 Clear 10 1008 61 10000 4.1 350 20:19 16.06.2019
6254 Clear 10 1008 61 10000 4.1 350 19:58 16.06.2019
6255 Clear 10 1008 57 10000 3.1 360 19:39 16.06.2019
6256 Clear 9 1008 53 10000 5.7 340 19:21 16.06.2019
6257 Clear 9 1008 53 10000 5.7 320 18:42 16.06.2019
6258 Clear 9 1008 53 10000 5.7 320 18:42 16.06.2019
6259 Clear 9 1009 50 10000 5.7 320 18:21 16.06.2019
6260 Clear 9 1009 50 10000 5.7 320 17:57 16.06.2019
6261 Clear 9 1009 50 10000 5.7 320 17:57 16.06.2019
6262 Clear 9 1008 50 10000 5.1 320 17:38 16.06.2019
6263 Clear 9 1009 50 10000 5.7 290 17:20 16.06.2019
6264 Clear 9 1009 50 10000 5.7 290 16:54 16.06.2019
6265 Clear 9 1009 50 10000 4.6 340 16:36 16.06.2019
6266 Clear 10 1009 57 10000 3.6 10 16:18 16.06.2019
6267 Clear 8 1009 65 10000 3.6 10 15:38 16.06.2019
6268 Clear 9 1009 70 10000 2.6 350 15:20 16.06.2019
6269 Clear 9 1009 70 10000 2.6 350 15:20 16.06.2019
6270 Clear 8 1009 81 10000 2.6 10 14:39 16.06.2019
6271 Clear 8 1009 81 10000 1 30 14:20 16.06.2019
6272 Clear 8 1009 81 10000 2.6 40 13:48 16.06.2019
6273 Clear 8 1009 81 10000 2.6 40 13:25 16.06.2019
6274 Rain 11 1009 57 10000 2.1 310 12:46 16.06.2019
6275 Rain 11 1009 57 10000 2.1 310 12:46 16.06.2019
6276 Clouds 10 1009 57 10000 2.1 310 12:23 16.06.2019
6277 Clouds 9 1009 76 10000 2.6 280 11:59 16.06.2019
6278 Clouds 9 1009 76 10000 2.6 250 11:38 16.06.2019
6279 Clouds 9 1009 81 9000 1 280 11:19 16.06.2019
6280 Clouds 10 1008 76 10000 1 270 10:45 16.06.2019
6281 Clouds 10 1008 76 10000 2.1 160 10:20 16.06.2019
6282 Clouds 11 1008 62 10000 1.5 250 09:43 16.06.2019
6283 Clear 11 1008 62 10000 1.5 250 09:24 16.06.2019
6284 Clear 12 1007 47 10000 2.1 350 08:47 16.06.2019
6285 Clear 12 1007 50 10000 3.1 320 08:21 16.06.2019
6286 Clear 12 1006 47 10000 4.1 320 07:49 16.06.2019
6287 Clear 12 1006 47 10000 4.1 320 07:31 16.06.2019
6288 Clear 13 1006 44 10000 2.6 340 06:55 16.06.2019
6289 Clear 14 1006 54 10000 4.1 360 05:57 16.06.2019
6290 Clear 14 1006 58 10000 4.6 360 05:24 16.06.2019
6291 Clear 15 1006 51 10000 4.6 350 04:22 16.06.2019
6292 Clear 14 1006 58 10000 4.6 360 03:43 16.06.2019
6293 Clear 14 1006 58 10000 4.6 360 03:22 16.06.2019
6294 Clear 14 1007 71 10000 4.6 20 01:49 16.06.2019
6295 Clear 14 1007 71 10000 4.6 20 01:30 16.06.2019
6296 Clear 12 1007 81 10000 3.1 360 00:44 16.06.2019
6297 Rain 12 1007 81 10000 3.1 360 00:25 16.06.2019
6298 Clear 10 1007 87 10000 3.6 350 23:58 15.06.2019
6299 Clear 10 1007 93 10000 2.6 10 23:39 15.06.2019
6300 Clear 9 1007 93 10000 3.6 10 23:20 15.06.2019
6301 Clear 9 1006 93 10000 3.1 20 22:44 15.06.2019
6302 Clear 8 1006 93 10000 3.1 20 22:25 15.06.2019
6303 Clear 8 1006 100 10000 2.6 20 21:45 15.06.2019
6304 Rain 8 1006 93 10000 4.1 20 21:21 15.06.2019
6305 Rain 8 1006 100 10000 3.1 10 20:46 15.06.2019
6306 Rain 8 1006 100 10000 3.1 10 20:23 15.06.2019
6307 Rain 8 1005 93 10000 2.6 10 19:50 15.06.2019
6308 Rain 9 1005 93 10000 2.6 10 19:28 15.06.2019
6309 Rain 9 1005 93 10000 1.5 20 18:46 15.06.2019
6310 Rain 10 1005 93 10000 1.5 20 18:26 15.06.2019
6311 Clouds 10 1005 93 10000 1.5 10 17:58 15.06.2019
6312 Clouds 10 1005 93 9000 2.1 10 17:40 15.06.2019
6313 Clouds 10 1005 93 10000 1.5 40 17:21 15.06.2019
6314 Drizzle 10 1005 93 10000 1 20 16:43 15.06.2019
6315 Clouds 10 1005 93 10000 0.5 270 16:18 15.06.2019
6316 Rain 11 1006 93 10000 2.1 240 15:41 15.06.2019
6317 Rain 11 1006 93 10000 2.1 240 15:21 15.06.2019
6318 Rain 11 1006 93 10000 2.1 240 15:21 15.06.2019
6319 Rain 11 1006 87 10000 2.1 260 14:38 15.06.2019
6320 Rain 11 1006 87 10000 3.6 200 14:18 15.06.2019
6321 Rain 11 1006 87 10000 4.1 200 13:44 15.06.2019
6322 Rain 11 1006 87 10000 4.1 190 13:21 15.06.2019
6323 Rain 11 1006 87 10000 4.1 190 12:58 15.06.2019
6324 Rain 11 1006 87 10000 3.6 180 12:40 15.06.2019
6325 Rain 11 1006 87 10000 3.1 190 12:20 15.06.2019
6326 Rain 11 1006 87 10000 4.6 190 11:42 15.06.2019
6327 Rain 11 1006 87 10000 4.6 190 11:42 15.06.2019
6328 Rain 11 1006 87 10000 4.6 190 11:23 15.06.2019
6329 Clouds 11 1006 87 10000 4.1 190 10:42 15.06.2019
6330 Clouds 11 1006 87 10000 4.1 190 10:24 15.06.2019
6331 Rain 11 1006 87 10000 4.1 190 09:48 15.06.2019
6332 Rain 11 1006 87 10000 4.1 190 09:26 15.06.2019
6333 Rain 11 1005 87 10000 4.1 200 08:54 15.06.2019
6334 Rain 11 1005 87 10000 4.6 200 08:34 15.06.2019
6335 Rain 11 1005 87 10000 3.6 180 07:54 15.06.2019
6336 Rain 11 1005 81 10000 5.1 170 07:25 15.06.2019
6337 Rain 12 1005 87 10000 4.6 180 06:47 15.06.2019
6338 -273 0 0 0 0 0 06:20 15.06.2019
6339 Rain 11 1005 87 10000 7.2 200 05:29 15.06.2019
6340 Rain 11 1005 87 10000 8.2 190 04:49 15.06.2019
6341 Rain 11 1005 87 10000 8.2 190 04:49 15.06.2019
6342 Rain 11 1005 87 10000 8.7 190 03:50 15.06.2019
6343 Rain 11 1005 87 10000 9.8 190 03:19 15.06.2019
6344 Drizzle 12 1006 87 10000 8.7 180 02:23 15.06.2019
6345 Rain 12 1006 93 10000 5.7 170 01:50 15.06.2019
6346 Rain 12 1006 100 10000 5.1 170 01:18 15.06.2019
6347 Rain 12 1006 100 10000 5.7 170 00:40 15.06.2019
6348 Rain 12 1006 93 7000 5.7 180 23:55 14.06.2019
6349 Rain 12 1006 93 2800 5.1 190 23:37 14.06.2019
6350 Rain 12 1006 93 10000 5.1 200 23:18 14.06.2019
6351 Rain 11 1005 93 8000 5.1 210 22:40 14.06.2019
6352 Rain 11 1005 93 10000 3.1 180 22:19 14.06.2019
6353 Rain 11 1005 93 10000 5.1 180 21:41 14.06.2019
6354 Clouds 11 1005 93 10000 5.1 180 21:23 14.06.2019
6355 Clouds 11 1005 93 10000 0.5 30 20:44 14.06.2019
6356 Clouds 11 1005 93 10000 0.5 300 20:19 14.06.2019
6357 Clouds 10 1005 93 10000 0.5 300 19:57 14.06.2019
6358 Clouds 10 1005 93 10000 0.5 40 19:37 14.06.2019
6359 Clouds 10 1005 93 10000 1 40 19:18 14.06.2019
6360 Clouds 10 1005 100 10000 1 70 18:45 14.06.2019
6361 Clouds 10 1005 100 10000 1 70 18:26 14.06.2019
6362 Clouds 10 1005 100 10000 1 50 17:58 14.06.2019
6363 Clouds 10 1006 100 10000 2.1 330 17:39 14.06.2019
6364 Clouds 10 1006 93 10000 1 30 17:21 14.06.2019
6365 Clouds 10 1006 93 10000 1.5 70 16:46 14.06.2019
6366 Clouds 10 1006 93 10000 1.5 70 16:22 14.06.2019
6367 Clouds 10 1006 93 10000 1.5 70 16:22 14.06.2019
6368 -273 0 0 0 0 0 15:57 14.06.2019
6369 Clouds 10 1006 100 10000 1 30 15:38 14.06.2019
6370 Clouds 10 1006 100 10000 1 30 15:38 14.06.2019
6371 -273 0 0 0 0 0 15:19 14.06.2019
6372 Clouds 10 1006 93 7000 1 350 14:43 14.06.2019
6373 Clouds 10 1006 93 7000 1 350 14:24 14.06.2019
6374 Clouds 10 1007 93 10000 1 50 13:45 14.06.2019
6375 Clouds 10 1007 93 10000 1 50 13:26 14.06.2019
6376 Clouds 11 1007 100 10000 0.5 150 12:49 14.06.2019
6377 -273 0 0 0 0 0 12:49 14.06.2019
6378 Clouds 11 1007 100 10000 0.5 150 12:27 14.06.2019
6379 Clouds 11 1007 93 10000 1 40 11:59 14.06.2019
6380 Clouds 12 1007 93 10000 2.1 40 11:41 14.06.2019
6381 Clouds 12 1007 93 10000 2.1 40 11:23 14.06.2019
6382 Clouds 12 1007 93 10000 2.6 30 10:46 14.06.2019
6383 Clouds 12 1007 93 8000 1.5 360 10:20 14.06.2019
6384 Clouds 12 1007 93 8000 1.5 360 10:20 14.06.2019
6385 Clouds 12 1007 93 8000 1.5 360 09:52 14.06.2019
6386 Clouds 13 1007 93 9000 1 360 09:33 14.06.2019
6387 Clouds 13 1007 93 8000 1.5 170 08:48 14.06.2019
6388 Clouds 13 1007 87 10000 1 150 08:21 14.06.2019
6389 Clouds 14 1007 87 10000 1 150 07:53 14.06.2019
6390 Rain 14 1007 87 10000 1.5 220 07:23 14.06.2019
6391 Rain 14 1007 87 10000 2.6 210 06:53 14.06.2019
6392 Clouds 15 1007 87 10000 3.6 200 06:18 14.06.2019
6393 -273 0 0 0 0 0 05:35 14.06.2019
6394 Clouds 16 1008 77 10000 2.1 150 04:51 14.06.2019
6395 Clouds 16 1008 77 10000 2.1 150 04:23 14.06.2019
6396 Clouds 16 1009 77 10000 2.6 140 03:38 14.06.2019
6397 Rain 16 1009 82 10000 3.1 200 03:19 14.06.2019
6398 Rain 16 1010 77 10000 1.5 120 02:36 14.06.2019
6399 Rain 16 1010 87 10000 2.1 180 01:47 14.06.2019
6400 Rain 15 1011 93 9000 1.5 160 00:37 14.06.2019
6401 Clouds 14 1011 93 10000 1 180 00:19 14.06.2019
6402 Clouds 13 1011 93 10000 0.5 40 23:49 13.06.2019
6403 Clouds 13 1011 93 10000 0.5 40 23:25 13.06.2019
6404 Clouds 13 1010 87 8000 2.1 190 22:41 13.06.2019
6405 Clouds 13 1010 87 8000 2.1 190 22:22 13.06.2019
6406 Clouds 13 1010 93 8000 2.1 200 21:59 13.06.2019
6407 Mist 13 1010 93 5000 2.6 190 21:37 13.06.2019
6408 Clouds 12 1010 93 10000 4.1 170 21:19 13.06.2019
6409 Clouds 13 1010 93 10000 5.1 150 20:45 13.06.2019
6410 Clouds 13 1010 93 9000 6.2 150 20:20 13.06.2019
6411 Clouds 13 1010 100 9000 5.7 150 19:43 13.06.2019
6412 Clouds 13 1010 100 9000 5.7 150 19:25 13.06.2019
6413 Drizzle 14 1010 93 9000 5.1 150 19:00 13.06.2019
6414 Clouds 14 1010 93 10000 6.2 140 18:41 13.06.2019
6415 Rain 14 1010 93 10000 6.2 140 18:22 13.06.2019
6416 Rain 13 1010 100 7000 7.2 150 17:45 13.06.2019
6417 Rain 13 1010 100 7000 7.2 150 17:22 13.06.2019
6418 Rain 13 1011 100 8000 5.1 220 16:59 13.06.2019
6419 Rain 13 1011 100 4800 6.2 220 16:41 13.06.2019
6420 Mist 13 1011 100 2200 8.2 210 16:20 13.06.2019
6421 Rain 13 1012 93 9000 8.7 220 15:43 13.06.2019
6422 Rain 13 1012 93 9000 8.7 220 15:24 13.06.2019
6423 Rain 13 1012 93 8000 6.7 220 14:52 13.06.2019
6424 Rain 13 1012 93 6000 5.7 220 14:31 13.06.2019
6425 Rain 13 1012 93 6000 6.2 220 13:59 13.06.2019
6426 Rain 13 1012 93 7000 6.2 220 13:39 13.06.2019
6427 Rain 13 1012 93 7000 5.7 220 13:21 13.06.2019
6428 Mist 13 1012 100 5000 6.7 220 12:41 13.06.2019
6429 Mist 13 1012 100 5000 6.7 220 12:22 13.06.2019
6430 Mist 13 1012 100 4700 5.7 220 11:47 13.06.2019
6431 Mist 13 1012 100 4700 5.7 220 11:29 13.06.2019
6432 Rain 14 1011 93 8000 5.7 160 10:55 13.06.2019
6433 Rain 14 1011 93 10000 6.2 140 10:37 13.06.2019
6434 Rain 14 1011 93 9000 6.7 150 10:18 13.06.2019
6435 Rain 14 1011 93 10000 8.7 150 09:42 13.06.2019
6436 Rain 14 1011 93 10000 8.7 150 09:22 13.06.2019
6437 Mist 14 1011 100 5000 8.7 160 08:44 13.06.2019
6438 Mist 14 1011 100 5000 8.7 160 08:23 13.06.2019
6439 Rain 13 1011 100 5000 9.3 160 07:52 13.06.2019
6440 Mist 13 1011 100 5000 9.3 160 07:25 13.06.2019
6441 Rain 13 1011 100 4600 8.7 160 06:47 13.06.2019
6442 Rain 13 1011 100 4600 8.7 160 06:23 13.06.2019
6443 Rain 13 1011 100 6000 8.2 170 05:55 13.06.2019
6444 Rain 13 1011 100 3900 9.3 160 05:36 13.06.2019
6445 Rain 13 1012 100 5000 8.7 160 04:57 13.06.2019
6446 Rain 13 1013 93 8000 8.7 150 02:26 13.06.2019
6447 Clouds 14 1014 93 8000 7.2 160 00:47 13.06.2019
6448 Rain 13 1014 93 8000 5.7 170 23:52 12.06.2019
6449 Rain 13 1014 93 7000 6.7 180 23:23 12.06.2019
6450 Rain 13 1014 100 8000 8.2 170 22:44 12.06.2019
6451 Rain 12 1014 100 8000 8.2 170 22:25 12.06.2019
6452 Rain 12 1014 100 4000 9.3 180 21:56 12.06.2019
6453 Rain 12 1014 100 6000 9.3 180 21:37 12.06.2019
6454 Rain 12 1013 100 3400 9.3 180 21:18 12.06.2019
6455 Rain 12 1013 100 3400 9.3 180 21:18 12.06.2019
6456 Rain 12 1013 93 5000 9.8 190 20:38 12.06.2019
6457 Rain 12 1013 93 7000 10.8 190 20:20 12.06.2019
6458 Rain 12 1013 100 6000 10.3 190 19:42 12.06.2019
6459 Rain 12 1013 100 6000 10.3 190 19:23 12.06.2019
6460 Rain 12 1013 100 7000 10.8 190 18:56 12.06.2019
6461 Drizzle 12 1013 100 8000 9.8 190 18:38 12.06.2019
6462 Rain 13 1013 93 7000 10.3 190 18:19 12.06.2019
6463 Rain 12 1014 93 9000 8.7 190 17:43 12.06.2019
6464 Rain 12 1014 93 10000 8.7 190 17:20 12.06.2019
6465 Rain 12 1014 93 10000 7.2 190 16:42 12.06.2019
6466 Rain 12 1014 93 10000 7.2 190 16:23 12.06.2019
6467 Rain 12 1014 93 10000 7.7 180 15:53 12.06.2019
6468 Rain 12 1014 100 10000 7.7 170 15:32 12.06.2019
6469 Rain 12 1014 93 10000 5.7 180 14:49 12.06.2019
6470 Rain 12 1014 93 10000 5.7 180 14:27 12.06.2019
6471 Rain 13 1013 93 10000 8.2 220 13:44 12.06.2019
6472 Rain 13 1013 93 10000 6.7 220 13:21 12.06.2019
6473 Rain 13 1013 93 10000 6.7 220 12:59 12.06.2019
6474 Rain 12 1013 93 10000 7.2 220 12:39 12.06.2019
6475 Rain 12 1013 93 10000 7.2 220 12:39 12.06.2019
6476 Rain 12 1013 87 10000 6.7 220 12:19 12.06.2019
6477 Rain 12 1013 87 10000 6.2 230 11:47 12.06.2019
6478 Rain 12 1013 87 10000 6.2 230 11:28 12.06.2019
6479 Rain 12 1012 82 10000 5.1 220 10:52 12.06.2019
6480 Rain 12 1012 82 10000 1.5 220 10:34 12.06.2019
6481 Rain 12 1012 87 10000 3.1 220 09:55 12.06.2019
6482 Rain 12 1012 82 10000 1.5 220 09:37 12.06.2019
6483 Rain 12 1011 87 10000 2.1 180 09:18 12.06.2019
6484 Rain 12 1011 82 10000 0.5 250 08:25 12.06.2019
6485 Rain 13 1011 71 10000 1 190 07:52 12.06.2019
6486 Rain 13 1011 71 10000 1 300 06:55 12.06.2019
6487 Clouds 14 1010 67 10000 2.6 10 05:54 12.06.2019
6488 Clouds 14 1010 67 10000 2.6 10 05:24 12.06.2019
6489 Clouds 14 1011 71 10000 5.1 20 02:19 12.06.2019
6490 Clouds 13 1011 82 10000 5.1 20 00:41 12.06.2019
6491 Clouds 13 1010 82 10000 8.7 360 23:53 11.06.2019
6492 Clouds 13 1010 82 10000 8.7 360 23:34 11.06.2019
6493 Clouds 12 1010 87 10000 7.7 10 22:45 11.06.2019
6494 Clouds 12 1010 87 10000 7.7 10 22:24 11.06.2019
6495 Clouds 12 1010 87 10000 6.7 10 21:58 11.06.2019
6496 Clouds 12 1010 87 10000 6.7 10 21:40 11.06.2019
6497 Rain 12 1010 82 10000 7.7 10 21:21 11.06.2019
6498 Rain 12 1010 82 10000 7.2 20 20:50 11.06.2019
6499 Rain 12 1010 82 10000 7.2 20 20:28 11.06.2019
6500 Rain 12 1010 87 10000 6.2 30 19:59 11.06.2019
6501 Rain 12 1010 87 10000 6.7 20 19:40 11.06.2019
6502 Rain 12 1010 87 10000 8.2 20 19:22 11.06.2019
6503 Rain 12 1010 87 10000 8.2 20 18:41 11.06.2019
6504 Rain 13 1010 87 10000 7.7 10 18:19 11.06.2019
6505 Rain 13 1011 87 10000 7.2 360 17:41 11.06.2019
6506 Rain 13 1011 87 10000 8.2 360 17:20 11.06.2019
6507 Rain 13 1011 93 8000 7.7 10 16:43 11.06.2019
6508 Rain 13 1011 93 8000 7.7 10 16:23 11.06.2019
6509 Rain 13 1011 82 10000 8.2 10 15:43 11.06.2019
6510 Rain 13 1011 82 10000 8.2 10 15:25 11.06.2019
6511 Rain 13 1012 82 10000 8.2 10 14:56 11.06.2019
6512 Rain 13 1012 82 10000 8.7 360 14:38 11.06.2019
6513 Rain 13 1012 87 10000 8.2 360 14:19 11.06.2019
6514 Rain 13 1012 87 10000 7.7 360 13:42 11.06.2019
6515 -273 0 0 0 0 0 13:21 11.06.2019
6516 Rain 14 1012 82 10000 9.3 360 12:42 11.06.2019
6517 Rain 14 1012 82 10000 8.7 350 12:21 11.06.2019
6518 Rain 14 1012 82 10000 8.7 350 11:54 11.06.2019
6519 Rain 14 1012 82 10000 7.2 360 11:32 11.06.2019
6520 Rain 14 1012 77 10000 6.7 350 10:50 11.06.2019
6521 Rain 14 1012 77 10000 6.7 350 10:27 11.06.2019
6522 Rain 14 1012 77 10000 8.7 340 09:51 11.06.2019
6523 Rain 14 1012 82 10000 7.7 350 09:26 11.06.2019
6524 Clouds 14 1012 77 10000 6.7 350 08:58 11.06.2019
6525 Clouds 14 1012 82 10000 7.2 350 08:40 11.06.2019
6526 Clouds 14 1012 82 10000 7.2 360 08:19 11.06.2019
6527 Drizzle 14 1013 87 10000 6.7 340 07:33 11.06.2019
6528 Rain 14 1013 82 10000 7.2 360 06:52 11.06.2019
6529 Clouds 14 1013 77 10000 7.2 10 05:21 11.06.2019
6530 Clouds 14 1014 77 10000 8.2 350 04:36 11.06.2019
6531 Clouds 14 1015 82 10000 10.3 360 02:26 11.06.2019
6532 Clouds 14 1016 87 10000 9.3 10 00:52 11.06.2019
6533 Clouds 14 1016 87 10000 9.3 10 00:26 11.06.2019
6534 Clouds 14 1016 82 10000 8.2 10 23:45 10.06.2019
6535 Rain 13 1015 87 10000 10.3 10 23:21 10.06.2019
6536 Clouds 13 1016 82 10000 8.7 10 22:45 10.06.2019
6537 Clouds 13 1016 82 10000 8.7 10 22:26 10.06.2019
6538 Clouds 13 1015 82 10000 10.3 10 21:56 10.06.2019
6539 Clouds 13 1016 82 10000 8.7 20 21:38 10.06.2019
6540 Clouds 13 1016 82 10000 7.2 20 21:19 10.06.2019
6541 Clouds 13 1016 76 10000 7.2 20 20:42 10.06.2019
6542 Clouds 13 1016 82 10000 8.7 10 20:21 10.06.2019
6543 Clouds 13 1016 87 10000 7.7 10 19:44 10.06.2019
6544 Clouds 13 1016 87 10000 8.7 10 19:22 10.06.2019
6545 Clouds 13 1016 87 10000 8.7 10 18:57 10.06.2019
6546 Clouds 13 1016 87 10000 8.2 10 18:39 10.06.2019
6547 Clear 13 1016 87 10000 7.7 10 18:19 10.06.2019
6548 Clear 13 1017 87 10000 7.7 360 17:44 10.06.2019
6549 Clear 13 1017 87 10000 7.7 360 17:24 10.06.2019
6550 Clear 13 1017 82 10000 7.7 10 16:49 10.06.2019
6551 Clear 13 1017 82 10000 7.7 10 16:30 10.06.2019
6552 Clear 13 1017 82 10000 6.2 10 15:58 10.06.2019
6553 Clouds 13 1017 82 10000 6.7 20 15:39 10.06.2019
6554 Clear 13 1017 82 10000 6.7 20 15:21 10.06.2019
6555 Clear 13 1017 82 10000 6.7 20 14:42 10.06.2019
6556 Clear 13 1017 82 10000 6.7 20 14:24 10.06.2019
6557 Clear 13 1018 82 10000 5.1 20 13:46 10.06.2019
6558 Clear 13 1018 82 10000 5.1 20 13:46 10.06.2019
6559 Clear 14 1018 82 10000 5.1 20 13:28 10.06.2019
6560 Clear 13 1018 87 10000 6.2 10 12:54 10.06.2019
6561 Clear 13 1018 82 10000 5.7 20 12:31 10.06.2019
6562 Clear 13 1018 82 10000 4.6 20 11:58 10.06.2019
6563 Clear 13 1017 87 10000 4.1 20 11:37 10.06.2019
6564 Clear 13 1017 87 10000 5.1 20 11:18 10.06.2019
6565 Clear 13 1017 87 10000 5.7 20 10:41 10.06.2019
6566 Clear 13 1017 87 10000 4.1 30 10:19 10.06.2019
6567 Clear 13 1017 87 10000 4.1 30 09:51 10.06.2019
6568 Clear 13 1017 87 10000 4.1 20 09:29 10.06.2019
6569 Clouds 13 1017 82 10000 5.1 20 08:50 10.06.2019
6570 Clouds 13 1017 82 10000 5.1 20 08:27 10.06.2019
6571 Clouds 14 1017 76 10000 4.6 20 07:42 10.06.2019
6572 Clouds 15 1016 72 10000 6.7 10 04:44 10.06.2019
6573 Clouds 15 1016 72 10000 6.2 10 03:29 10.06.2019
6574 Clouds 15 1016 72 10000 7.2 10 01:56 10.06.2019
6575 Clouds 15 1016 72 10000 7.7 20 01:22 10.06.2019
6576 Clouds 14 1016 71 10000 6.7 20 00:47 10.06.2019
6577 Clouds 13 1015 76 10000 7.7 20 23:49 09.06.2019
6578 Clouds 13 1015 76 10000 7.7 20 23:25 09.06.2019
6579 Clouds 13 1015 76 10000 6.7 20 22:59 09.06.2019
6580 Clouds 13 1015 76 10000 6.7 20 22:39 09.06.2019
6581 Clouds 13 1014 76 10000 7.2 20 22:21 09.06.2019
6582 Clouds 13 1014 76 10000 6.7 20 21:39 09.06.2019
6583 Clouds 13 1014 82 10000 7.2 20 21:21 09.06.2019
6584 Clouds 13 1014 76 10000 6.7 20 20:42 09.06.2019
6585 Clouds 13 1014 76 10000 6.7 20 20:22 09.06.2019
6586 Clouds 13 1013 76 10000 7.7 30 19:46 09.06.2019
6587 Clouds 13 1013 76 10000 6.7 30 19:19 09.06.2019
6588 Clouds 13 1013 76 10000 6.7 30 18:56 09.06.2019
6589 Clouds 13 1013 76 10000 6.7 20 18:36 09.06.2019
6590 Clouds 13 1013 71 10000 7.7 20 18:18 09.06.2019
6591 Clouds 13 1013 76 10000 7.2 20 17:42 09.06.2019
6592 Clouds 13 1013 76 10000 7.2 20 17:23 09.06.2019
6593 Clouds 13 1013 76 10000 8.7 20 16:41 09.06.2019
6594 Clouds 13 1012 66 10000 8.7 20 16:21 09.06.2019
6595 Clouds 13 1012 66 10000 8.7 20 16:21 09.06.2019
6596 Clouds 13 1012 66 10000 8.7 20 15:51 09.06.2019
6597 Clouds 13 1013 66 10000 9.8 20 15:30 09.06.2019
6598 Clouds 13 1013 66 10000 9.3 10 14:59 09.06.2019
6599 Clouds 13 1012 66 10000 7.7 30 14:41 09.06.2019
6600 Clouds 13 1012 62 10000 7.7 20 14:20 09.06.2019
6601 Clouds 13 1012 66 10000 8.7 10 13:48 09.06.2019
6602 Clouds 13 1012 66 10000 9.3 360 13:18 09.06.2019
6603 Clouds 12 1012 66 10000 9.3 10 12:38 09.06.2019
6604 Clouds 12 1012 71 10000 9.8 360 12:20 09.06.2019
6605 Clouds 13 1012 71 10000 10.3 10 11:39 09.06.2019
6606 Clouds 13 1012 71 10000 10.3 10 11:39 09.06.2019
6607 Clouds 13 1012 76 10000 9.8 20 11:19 09.06.2019
6608 Clouds 13 1012 76 10000 10.3 10 10:43 09.06.2019
6609 Clouds 13 1012 76 10000 10.3 10 10:22 09.06.2019
6610 Clouds 13 1012 76 10000 10.3 10 09:40 09.06.2019
6611 Clouds 13 1012 76 10000 10.3 10 09:21 09.06.2019
6612 Clouds 13 1012 76 10000 8.7 10 08:46 09.06.2019
6613 Clouds 13 1012 76 10000 8.7 10 08:28 09.06.2019
6614 Clouds 12 1013 76 10000 8.2 20 07:21 09.06.2019
6615 Clouds 12 1013 71 10000 9.3 20 06:30 09.06.2019
6616 Clouds 12 1014 66 10000 10.3 10 04:35 09.06.2019
6617 Clear 11 1016 66 10000 5.7 20 01:38 09.06.2019
6618 Clear 11 1017 66 10000 4.6 10 01:20 09.06.2019
6619 Clear 11 1017 66 10000 4.6 10 00:58 09.06.2019
6620 Clear 8 1016 81 10000 2.6 20 23:44 08.06.2019
6621 Clear 8 1016 81 10000 2.6 20 23:24 08.06.2019
6622 Clear 8 1016 81 10000 2.1 20 22:57 08.06.2019
6623 Clear 8 1016 76 10000 2.1 10 22:39 08.06.2019
6624 Clear 7 1016 66 10000 2.6 170 22:19 08.06.2019
6625 Clear 7 1016 66 10000 2.6 170 22:19 08.06.2019
6626 Clear 7 1016 71 10000 3.6 180 21:51 08.06.2019
6627 Clear 7 1016 71 10000 3.6 180 21:26 08.06.2019
6628 Clear 8 1015 66 10000 4.6 180 20:49 08.06.2019
6629 Clear 8 1015 66 10000 4.6 180 20:26 08.06.2019
6630 Clear 8 1015 66 10000 5.7 170 19:59 08.06.2019
6631 Clear 8 1015 62 10000 7.2 190 19:39 08.06.2019
6632 Clear 9 1015 61 10000 7.7 180 19:20 08.06.2019
6633 Clear 9 1015 61 10000 7.7 180 18:56 08.06.2019
6634 Clear 8 1015 61 10000 8.7 180 18:35 08.06.2019
6635 Clear 9 1014 62 10000 9.3 190 17:51 08.06.2019
6636 Clear 9 1014 62 10000 9.3 190 17:25 08.06.2019
6637 Clear 9 1014 62 10000 9.3 190 16:58 08.06.2019
6638 Clear 9 1014 76 10000 8.2 170 16:38 08.06.2019
6639 Clear 9 1014 76 10000 8.7 170 15:57 08.06.2019
6640 Clear 9 1013 66 10000 9.8 180 15:37 08.06.2019
6641 Clouds 10 1013 76 9000 11.8 170 14:50 08.06.2019
6642 Clouds 10 1013 76 9000 11.8 170 14:31 08.06.2019
6643 Clouds 9 1012 76 10000 10.8 170 13:54 08.06.2019
6644 Clouds 10 1012 71 10000 9.3 170 13:22 08.06.2019
6645 Clouds 10 1012 66 10000 10.3 170 12:42 08.06.2019
6646 Clouds 10 1011 66 10000 11.3 180 11:59 08.06.2019
6647 Clouds 10 1011 62 10000 12.3 170 11:40 08.06.2019
6648 Clouds 10 1010 66 9000 12.9 170 11:20 08.06.2019
6649 Clouds 10 1010 66 10000 12.9 170 10:43 08.06.2019
6650 Clouds 11 1010 66 10000 12.9 170 10:22 08.06.2019
6651 Clouds 11 1009 62 10000 12.3 170 09:40 08.06.2019
6652 Clouds 11 1009 54 10000 13.9 180 08:59 08.06.2019
6653 Clouds 11 1008 62 10000 11.8 180 08:25 08.06.2019
6654 Clouds 11 1007 66 10000 10.8 170 07:46 08.06.2019
6655 Clouds 11 1007 66 10000 11.3 180 06:45 08.06.2019
6656 Clouds 12 1005 66 10000 11.3 180 03:41 08.06.2019
6657 Clouds 13 1004 67 10000 8.7 170 02:21 08.06.2019
6658 Rain 12 1001 71 10000 2.1 60 00:32 08.06.2019
6659 Clouds 11 1000 81 10000 4.1 10 23:59 07.06.2019
6660 Clouds 10 1000 81 10000 2.6 350 23:21 07.06.2019
6661 Clouds 9 1000 81 10000 2.6 10 22:54 07.06.2019
6662 Clouds 8 1000 81 10000 4.1 340 22:35 07.06.2019
6663 Clouds 9 1000 81 10000 2.1 340 21:56 07.06.2019
6664 Clouds 8 1000 81 10000 2.1 10 21:38 07.06.2019
6665 Clouds 10 999 76 10000 3.6 10 21:20 07.06.2019
6666 Clouds 10 999 76 10000 4.1 30 20:42 07.06.2019
6667 Clouds 10 999 76 10000 4.1 30 20:23 07.06.2019
6668 Clouds 11 1000 71 10000 5.1 20 19:46 07.06.2019
6669 Clouds 11 1000 71 10000 5.1 20 19:20 07.06.2019
6670 Clouds 11 1000 71 10000 5.1 20 18:45 07.06.2019
6671 Clouds 11 1000 71 10000 5.1 20 18:27 07.06.2019
6672 Clouds 11 1000 66 10000 6.2 20 17:46 07.06.2019
6673 Clouds 11 1000 66 10000 6.2 20 17:46 07.06.2019
6674 Clouds 10 1000 66 10000 6.2 20 17:23 07.06.2019
6675 Clouds 10 1001 66 10000 6.2 20 16:42 07.06.2019
6676 Clouds 10 1001 66 10000 6.2 20 16:22 07.06.2019
6677 Clouds 10 1001 62 10000 6.7 30 15:49 07.06.2019
6678 Clouds 9 1001 62 10000 6.7 30 15:20 07.06.2019
6679 Clouds 9 1003 66 10000 6.2 30 14:46 07.06.2019
6680 Clouds 9 1003 66 10000 6.2 30 14:23 07.06.2019
6681 Clouds 9 1003 76 10000 6.7 20 13:36 07.06.2019
6682 Clouds 9 1003 70 10000 6.7 30 13:18 07.06.2019
6683 Clouds 8 1004 76 10000 5.1 40 12:39 07.06.2019
6684 Clouds 7 1004 81 10000 6.2 20 12:18 07.06.2019
6685 Clouds 7 1004 81 10000 3.6 30 11:40 07.06.2019
6686 Clouds 7 1004 81 10000 3.6 30 11:21 07.06.2019
6687 Clouds 7 1005 71 10000 1 50 10:47 07.06.2019
6688 Clouds 7 1005 71 10000 1 50 10:21 07.06.2019
6689 Clouds 8 1005 71 10000 1.5 150 09:49 07.06.2019
6690 Clouds 8 1005 71 10000 1.5 150 09:27 07.06.2019
6691 Clear 9 1005 66 10000 5.1 180 08:50 07.06.2019
6692 Clear 9 1005 66 10000 5.1 180 08:28 07.06.2019
6693 Clear 9 1005 66 10000 5.1 180 08:28 07.06.2019
6694 Clear 9 1005 66 10000 7.7 170 07:55 07.06.2019
6695 Clear 10 1005 66 10000 8.2 180 07:23 07.06.2019
6696 Clear 11 1005 62 10000 10.8 190 06:48 07.06.2019
6697 Clear 11 1005 62 10000 10.8 190 06:27 07.06.2019
6698 Clear 11 1005 58 10000 11.3 190 05:45 07.06.2019
6699 Clouds 12 1005 58 10000 14.4 200 02:58 07.06.2019
6700 Rain 11 1004 71 10000 12.9 200 01:39 07.06.2019
6701 Clouds 11 1003 66 10000 14.4 200 00:48 07.06.2019
6702 Clouds 10 1003 66 10000 13.9 200 00:22 07.06.2019
6703 Clouds 10 1003 66 10000 14.4 200 23:42 06.06.2019
6704 Clouds 10 1002 66 10000 15.4 190 23:21 06.06.2019
6705 Clouds 10 1002 76 10000 16.5 190 22:38 06.06.2019
6706 Clouds 10 1001 66 10000 14.9 190 22:20 06.06.2019
6707 Clouds 10 1001 66 10000 14.9 190 21:56 06.06.2019
6708 Clouds 10 1000 66 10000 13.9 190 21:38 06.06.2019
6709 Clouds 10 999 66 10000 14.4 190 21:19 06.06.2019
6710 Clouds 10 999 66 10000 13.9 190 20:41 06.06.2019
6711 Clouds 10 998 71 10000 11.3 190 20:21 06.06.2019